<?xml version="1.0" encoding="UTF-8" standalone="no" ?>
<gpx xmlns="http://www.topografix.com/GPX/1/1" xmlns:xsi="http://www.w3.org/2001/XMLSchema-instance" xsi:schemaLocation="http://www.topografix.com/GPX/1/1 http://www.topografix.com/GPX/1/1/gpx.xsd" version="1.1" creator="VisuGPX - https://www.visugpx.com">
  <metadata>
    <name>2016-02-07 13h26 Balade avec Crazymeal</name>
    <desc><![CDATA[2016-02-07 13h26 Balade avec Crazymeal]]></desc>
  </metadata>
  <trk>
    <name><![CDATA[2016-02-07 13:26 Balade avec Crazymeal]]></name>
    <trkseg>
      <trkpt lat="43.62125" lon="3.83666">
        <ele>88.1</ele>
        <time>2016-02-07T12:26:34Z</time>
      </trkpt>
      <trkpt lat="43.62239" lon="3.83579">
        <ele>85.21</ele>
        <time>2016-02-07T12:26:45Z</time>
      </trkpt>
      <trkpt lat="43.62244" lon="3.83571">
        <ele>85.21</ele>
        <time>2016-02-07T12:26:46Z</time>
      </trkpt>
      <trkpt lat="43.62247" lon="3.83564">
        <ele>85.21</ele>
        <time>2016-02-07T12:26:47Z</time>
      </trkpt>
      <trkpt lat="43.62249" lon="3.8356">
        <ele>85.21</ele>
        <time>2016-02-07T12:26:48Z</time>
      </trkpt>
      <trkpt lat="43.6225" lon="3.83558">
        <ele>84.73</ele>
        <time>2016-02-07T12:26:49Z</time>
      </trkpt>
      <trkpt lat="43.62251" lon="3.83549">
        <ele>85.69</ele>
        <time>2016-02-07T12:27:03Z</time>
      </trkpt>
      <trkpt lat="43.62286" lon="3.8347">
        <ele>84.73</ele>
        <time>2016-02-07T12:27:10Z</time>
      </trkpt>
      <trkpt lat="43.62299" lon="3.83445">
        <ele>83.77</ele>
        <time>2016-02-07T12:27:12Z</time>
      </trkpt>
      <trkpt lat="43.62307" lon="3.83433">
        <ele>83.77</ele>
        <time>2016-02-07T12:27:13Z</time>
      </trkpt>
      <trkpt lat="43.62317" lon="3.83425">
        <ele>83.29</ele>
        <time>2016-02-07T12:27:14Z</time>
      </trkpt>
      <trkpt lat="43.62328" lon="3.83418">
        <ele>82.81</ele>
        <time>2016-02-07T12:27:15Z</time>
      </trkpt>
      <trkpt lat="43.62341" lon="3.83412">
        <ele>82.33</ele>
        <time>2016-02-07T12:27:16Z</time>
      </trkpt>
      <trkpt lat="43.62353" lon="3.83407">
        <ele>81.85</ele>
        <time>2016-02-07T12:27:17Z</time>
      </trkpt>
      <trkpt lat="43.62367" lon="3.83407">
        <ele>81.37</ele>
        <time>2016-02-07T12:27:18Z</time>
      </trkpt>
      <trkpt lat="43.62381" lon="3.83411">
        <ele>80.41</ele>
        <time>2016-02-07T12:27:19Z</time>
      </trkpt>
      <trkpt lat="43.62396" lon="3.83417">
        <ele>80.41</ele>
        <time>2016-02-07T12:27:20Z</time>
      </trkpt>
      <trkpt lat="43.6241" lon="3.83426">
        <ele>80.41</ele>
        <time>2016-02-07T12:27:21Z</time>
      </trkpt>
      <trkpt lat="43.62424" lon="3.83436">
        <ele>80.41</ele>
        <time>2016-02-07T12:27:22Z</time>
      </trkpt>
      <trkpt lat="43.62439" lon="3.83449">
        <ele>79.93</ele>
        <time>2016-02-07T12:27:23Z</time>
      </trkpt>
      <trkpt lat="43.62465" lon="3.83479">
        <ele>79.45</ele>
        <time>2016-02-07T12:27:25Z</time>
      </trkpt>
      <trkpt lat="43.62476" lon="3.83496">
        <ele>79.93</ele>
        <time>2016-02-07T12:27:26Z</time>
      </trkpt>
      <trkpt lat="43.62485" lon="3.83514">
        <ele>79.45</ele>
        <time>2016-02-07T12:27:27Z</time>
      </trkpt>
      <trkpt lat="43.62492" lon="3.83531">
        <ele>79.45</ele>
        <time>2016-02-07T12:27:28Z</time>
      </trkpt>
      <trkpt lat="43.62498" lon="3.83548">
        <ele>78.97</ele>
        <time>2016-02-07T12:27:29Z</time>
      </trkpt>
      <trkpt lat="43.62501" lon="3.83563">
        <ele>79.45</ele>
        <time>2016-02-07T12:27:30Z</time>
      </trkpt>
      <trkpt lat="43.62501" lon="3.83577">
        <ele>79.45</ele>
        <time>2016-02-07T12:27:31Z</time>
      </trkpt>
      <trkpt lat="43.62497" lon="3.8359">
        <ele>79.45</ele>
        <time>2016-02-07T12:27:32Z</time>
      </trkpt>
      <trkpt lat="43.62491" lon="3.83603">
        <ele>79.45</ele>
        <time>2016-02-07T12:27:33Z</time>
      </trkpt>
      <trkpt lat="43.62485" lon="3.83617">
        <ele>78.97</ele>
        <time>2016-02-07T12:27:34Z</time>
      </trkpt>
      <trkpt lat="43.62481" lon="3.83632">
        <ele>78.48</ele>
        <time>2016-02-07T12:27:35Z</time>
      </trkpt>
      <trkpt lat="43.62479" lon="3.83648">
        <ele>78.48</ele>
        <time>2016-02-07T12:27:36Z</time>
      </trkpt>
      <trkpt lat="43.62479" lon="3.83663">
        <ele>78</ele>
        <time>2016-02-07T12:27:37Z</time>
      </trkpt>
      <trkpt lat="43.62484" lon="3.83675">
        <ele>77.52</ele>
        <time>2016-02-07T12:27:38Z</time>
      </trkpt>
      <trkpt lat="43.62491" lon="3.83687">
        <ele>77.04</ele>
        <time>2016-02-07T12:27:39Z</time>
      </trkpt>
      <trkpt lat="43.62503" lon="3.83695">
        <ele>76.56</ele>
        <time>2016-02-07T12:27:40Z</time>
      </trkpt>
      <trkpt lat="43.62514" lon="3.83699">
        <ele>76.56</ele>
        <time>2016-02-07T12:27:41Z</time>
      </trkpt>
      <trkpt lat="43.62526" lon="3.83699">
        <ele>76.56</ele>
        <time>2016-02-07T12:27:42Z</time>
      </trkpt>
      <trkpt lat="43.62538" lon="3.83698">
        <ele>76.56</ele>
        <time>2016-02-07T12:27:43Z</time>
      </trkpt>
      <trkpt lat="43.62551" lon="3.837">
        <ele>76.56</ele>
        <time>2016-02-07T12:27:44Z</time>
      </trkpt>
      <trkpt lat="43.62563" lon="3.83707">
        <ele>76.08</ele>
        <time>2016-02-07T12:27:45Z</time>
      </trkpt>
      <trkpt lat="43.62575" lon="3.83719">
        <ele>76.08</ele>
        <time>2016-02-07T12:27:46Z</time>
      </trkpt>
      <trkpt lat="43.62587" lon="3.83733">
        <ele>75.6</ele>
        <time>2016-02-07T12:27:47Z</time>
      </trkpt>
      <trkpt lat="43.62598" lon="3.83749">
        <ele>74.64</ele>
        <time>2016-02-07T12:27:48Z</time>
      </trkpt>
      <trkpt lat="43.6261" lon="3.83767">
        <ele>74.16</ele>
        <time>2016-02-07T12:27:49Z</time>
      </trkpt>
      <trkpt lat="43.62621" lon="3.83786">
        <ele>74.16</ele>
        <time>2016-02-07T12:27:50Z</time>
      </trkpt>
      <trkpt lat="43.62747" lon="3.8399">
        <ele>68.39</ele>
        <time>2016-02-07T12:28:00Z</time>
      </trkpt>
      <trkpt lat="43.62891" lon="3.8414">
        <ele>64.55</ele>
        <time>2016-02-07T12:28:09Z</time>
      </trkpt>
      <trkpt lat="43.63004" lon="3.84194">
        <ele>64.55</ele>
        <time>2016-02-07T12:28:16Z</time>
      </trkpt>
      <trkpt lat="43.63036" lon="3.842">
        <ele>65.99</ele>
        <time>2016-02-07T12:28:21Z</time>
      </trkpt>
      <trkpt lat="43.63039" lon="3.84201">
        <ele>66.47</ele>
        <time>2016-02-07T12:28:31Z</time>
      </trkpt>
      <trkpt lat="43.63053" lon="3.84207">
        <ele>66.47</ele>
        <time>2016-02-07T12:28:33Z</time>
      </trkpt>
      <trkpt lat="43.63061" lon="3.84214">
        <ele>65.99</ele>
        <time>2016-02-07T12:28:34Z</time>
      </trkpt>
      <trkpt lat="43.63069" lon="3.84224">
        <ele>65.51</ele>
        <time>2016-02-07T12:28:35Z</time>
      </trkpt>
      <trkpt lat="43.63076" lon="3.84238">
        <ele>65.03</ele>
        <time>2016-02-07T12:28:36Z</time>
      </trkpt>
      <trkpt lat="43.63082" lon="3.84253">
        <ele>64.07</ele>
        <time>2016-02-07T12:28:37Z</time>
      </trkpt>
      <trkpt lat="43.6309" lon="3.84267">
        <ele>63.1</ele>
        <time>2016-02-07T12:28:38Z</time>
      </trkpt>
      <trkpt lat="43.631" lon="3.84279">
        <ele>62.62</ele>
        <time>2016-02-07T12:28:39Z</time>
      </trkpt>
      <trkpt lat="43.63114" lon="3.84286">
        <ele>62.14</ele>
        <time>2016-02-07T12:28:40Z</time>
      </trkpt>
      <trkpt lat="43.63128" lon="3.84287">
        <ele>61.66</ele>
        <time>2016-02-07T12:28:41Z</time>
      </trkpt>
      <trkpt lat="43.63143" lon="3.84284">
        <ele>61.18</ele>
        <time>2016-02-07T12:28:42Z</time>
      </trkpt>
      <trkpt lat="43.63156" lon="3.84276">
        <ele>61.18</ele>
        <time>2016-02-07T12:28:43Z</time>
      </trkpt>
      <trkpt lat="43.6317" lon="3.8427">
        <ele>61.18</ele>
        <time>2016-02-07T12:28:44Z</time>
      </trkpt>
      <trkpt lat="43.63185" lon="3.84269">
        <ele>61.18</ele>
        <time>2016-02-07T12:28:45Z</time>
      </trkpt>
      <trkpt lat="43.632" lon="3.84272">
        <ele>61.66</ele>
        <time>2016-02-07T12:28:46Z</time>
      </trkpt>
      <trkpt lat="43.63216" lon="3.84277">
        <ele>61.18</ele>
        <time>2016-02-07T12:28:47Z</time>
      </trkpt>
      <trkpt lat="43.63232" lon="3.84285">
        <ele>61.18</ele>
        <time>2016-02-07T12:28:48Z</time>
      </trkpt>
      <trkpt lat="43.63248" lon="3.84291">
        <ele>61.18</ele>
        <time>2016-02-07T12:28:49Z</time>
      </trkpt>
      <trkpt lat="43.63342" lon="3.84318">
        <ele>61.66</ele>
        <time>2016-02-07T12:28:56Z</time>
      </trkpt>
      <trkpt lat="43.63408" lon="3.84337">
        <ele>62.62</ele>
        <time>2016-02-07T12:29:02Z</time>
      </trkpt>
      <trkpt lat="43.63536" lon="3.84405">
        <ele>61.18</ele>
        <time>2016-02-07T12:29:11Z</time>
      </trkpt>
      <trkpt lat="43.63622" lon="3.84456">
        <ele>60.22</ele>
        <time>2016-02-07T12:29:19Z</time>
      </trkpt>
      <trkpt lat="43.63668" lon="3.84485">
        <ele>61.66</ele>
        <time>2016-02-07T12:29:23Z</time>
      </trkpt>
      <trkpt lat="43.63681" lon="3.84496">
        <ele>62.14</ele>
        <time>2016-02-07T12:29:24Z</time>
      </trkpt>
      <trkpt lat="43.63801" lon="3.84607">
        <ele>63.58</ele>
        <time>2016-02-07T12:29:32Z</time>
      </trkpt>
      <trkpt lat="43.63927" lon="3.84678">
        <ele>64.55</ele>
        <time>2016-02-07T12:29:38Z</time>
      </trkpt>
      <trkpt lat="43.64273" lon="3.84809">
        <ele>76.56</ele>
        <time>2016-02-07T12:29:54Z</time>
      </trkpt>
      <trkpt lat="43.6429" lon="3.84828">
        <ele>77.04</ele>
        <time>2016-02-07T12:29:55Z</time>
      </trkpt>
      <trkpt lat="43.64306" lon="3.8485">
        <ele>78</ele>
        <time>2016-02-07T12:29:56Z</time>
      </trkpt>
      <trkpt lat="43.64321" lon="3.84874">
        <ele>78.97</ele>
        <time>2016-02-07T12:29:57Z</time>
      </trkpt>
      <trkpt lat="43.64335" lon="3.849">
        <ele>80.41</ele>
        <time>2016-02-07T12:29:58Z</time>
      </trkpt>
      <trkpt lat="43.64347" lon="3.84927">
        <ele>81.37</ele>
        <time>2016-02-07T12:29:59Z</time>
      </trkpt>
      <trkpt lat="43.64357" lon="3.84956">
        <ele>81.85</ele>
        <time>2016-02-07T12:30:00Z</time>
      </trkpt>
      <trkpt lat="43.64367" lon="3.84985">
        <ele>82.33</ele>
        <time>2016-02-07T12:30:01Z</time>
      </trkpt>
      <trkpt lat="43.64449" lon="3.85152">
        <ele>80.41</ele>
        <time>2016-02-07T12:30:08Z</time>
      </trkpt>
      <trkpt lat="43.64488" lon="3.85227">
        <ele>80.41</ele>
        <time>2016-02-07T12:30:12Z</time>
      </trkpt>
      <trkpt lat="43.64492" lon="3.85245">
        <ele>80.89</ele>
        <time>2016-02-07T12:30:13Z</time>
      </trkpt>
      <trkpt lat="43.64501" lon="3.85277">
        <ele>80.89</ele>
        <time>2016-02-07T12:30:15Z</time>
      </trkpt>
      <trkpt lat="43.64508" lon="3.85284">
        <ele>80.89</ele>
        <time>2016-02-07T12:30:16Z</time>
      </trkpt>
      <trkpt lat="43.64518" lon="3.8529">
        <ele>80.41</ele>
        <time>2016-02-07T12:30:17Z</time>
      </trkpt>
      <trkpt lat="43.6453" lon="3.85298">
        <ele>80.41</ele>
        <time>2016-02-07T12:30:18Z</time>
      </trkpt>
      <trkpt lat="43.64542" lon="3.85312">
        <ele>79.93</ele>
        <time>2016-02-07T12:30:19Z</time>
      </trkpt>
      <trkpt lat="43.64553" lon="3.85327">
        <ele>79.93</ele>
        <time>2016-02-07T12:30:20Z</time>
      </trkpt>
      <trkpt lat="43.64564" lon="3.85344">
        <ele>79.45</ele>
        <time>2016-02-07T12:30:21Z</time>
      </trkpt>
      <trkpt lat="43.64579" lon="3.8536">
        <ele>78.48</ele>
        <time>2016-02-07T12:30:22Z</time>
      </trkpt>
      <trkpt lat="43.64594" lon="3.85375">
        <ele>77.52</ele>
        <time>2016-02-07T12:30:23Z</time>
      </trkpt>
      <trkpt lat="43.6461" lon="3.85388">
        <ele>76.56</ele>
        <time>2016-02-07T12:30:24Z</time>
      </trkpt>
      <trkpt lat="43.64628" lon="3.85401">
        <ele>75.6</ele>
        <time>2016-02-07T12:30:25Z</time>
      </trkpt>
      <trkpt lat="43.64647" lon="3.85411">
        <ele>75.12</ele>
        <time>2016-02-07T12:30:26Z</time>
      </trkpt>
      <trkpt lat="43.64665" lon="3.85421">
        <ele>75.12</ele>
        <time>2016-02-07T12:30:27Z</time>
      </trkpt>
      <trkpt lat="43.64854" lon="3.85531">
        <ele>66.47</ele>
        <time>2016-02-07T12:30:37Z</time>
      </trkpt>
      <trkpt lat="43.64946" lon="3.85665">
        <ele>64.07</ele>
        <time>2016-02-07T12:30:43Z</time>
      </trkpt>
      <trkpt lat="43.65002" lon="3.85847">
        <ele>62.62</ele>
        <time>2016-02-07T12:30:49Z</time>
      </trkpt>
      <trkpt lat="43.65046" lon="3.86159">
        <ele>54.93</ele>
        <time>2016-02-07T12:30:58Z</time>
      </trkpt>
      <trkpt lat="43.65099" lon="3.86739">
        <ele>56.37</ele>
        <time>2016-02-07T12:31:15Z</time>
      </trkpt>
      <trkpt lat="43.65151" lon="3.8698">
        <ele>53.01</ele>
        <time>2016-02-07T12:31:22Z</time>
      </trkpt>
      <trkpt lat="43.65261" lon="3.87204">
        <ele>52.05</ele>
        <time>2016-02-07T12:31:30Z</time>
      </trkpt>
      <trkpt lat="43.65332" lon="3.87265">
        <ele>53.97</ele>
        <time>2016-02-07T12:31:35Z</time>
      </trkpt>
      <trkpt lat="43.65339" lon="3.87277">
        <ele>54.45</ele>
        <time>2016-02-07T12:31:36Z</time>
      </trkpt>
      <trkpt lat="43.65343" lon="3.87293">
        <ele>54.45</ele>
        <time>2016-02-07T12:31:37Z</time>
      </trkpt>
      <trkpt lat="43.65348" lon="3.87312">
        <ele>54.93</ele>
        <time>2016-02-07T12:31:38Z</time>
      </trkpt>
      <trkpt lat="43.65355" lon="3.87332">
        <ele>54.93</ele>
        <time>2016-02-07T12:31:39Z</time>
      </trkpt>
      <trkpt lat="43.65366" lon="3.87351">
        <ele>55.41</ele>
        <time>2016-02-07T12:31:40Z</time>
      </trkpt>
      <trkpt lat="43.65378" lon="3.87368">
        <ele>55.89</ele>
        <time>2016-02-07T12:31:41Z</time>
      </trkpt>
      <trkpt lat="43.65392" lon="3.87383">
        <ele>56.37</ele>
        <time>2016-02-07T12:31:42Z</time>
      </trkpt>
      <trkpt lat="43.65405" lon="3.87397">
        <ele>56.86</ele>
        <time>2016-02-07T12:31:43Z</time>
      </trkpt>
      <trkpt lat="43.65434" lon="3.8742">
        <ele>57.82</ele>
        <time>2016-02-07T12:31:45Z</time>
      </trkpt>
      <trkpt lat="43.65448" lon="3.8743">
        <ele>57.82</ele>
        <time>2016-02-07T12:31:46Z</time>
      </trkpt>
      <trkpt lat="43.65461" lon="3.87438">
        <ele>58.3</ele>
        <time>2016-02-07T12:31:47Z</time>
      </trkpt>
      <trkpt lat="43.65472" lon="3.87449">
        <ele>58.78</ele>
        <time>2016-02-07T12:31:48Z</time>
      </trkpt>
      <trkpt lat="43.6548" lon="3.87464">
        <ele>58.78</ele>
        <time>2016-02-07T12:31:49Z</time>
      </trkpt>
      <trkpt lat="43.65483" lon="3.87486">
        <ele>59.26</ele>
        <time>2016-02-07T12:31:50Z</time>
      </trkpt>
      <trkpt lat="43.65486" lon="3.87509">
        <ele>58.78</ele>
        <time>2016-02-07T12:31:51Z</time>
      </trkpt>
      <trkpt lat="43.65488" lon="3.87532">
        <ele>58.78</ele>
        <time>2016-02-07T12:31:52Z</time>
      </trkpt>
      <trkpt lat="43.65489" lon="3.87556">
        <ele>58.3</ele>
        <time>2016-02-07T12:31:53Z</time>
      </trkpt>
      <trkpt lat="43.65489" lon="3.8758">
        <ele>58.3</ele>
        <time>2016-02-07T12:31:54Z</time>
      </trkpt>
      <trkpt lat="43.65483" lon="3.87821">
        <ele>58.3</ele>
        <time>2016-02-07T12:32:03Z</time>
      </trkpt>
      <trkpt lat="43.65476" lon="3.87891">
        <ele>58.78</ele>
        <time>2016-02-07T12:32:06Z</time>
      </trkpt>
      <trkpt lat="43.65472" lon="3.87912">
        <ele>59.26</ele>
        <time>2016-02-07T12:32:07Z</time>
      </trkpt>
      <trkpt lat="43.65465" lon="3.87931">
        <ele>59.26</ele>
        <time>2016-02-07T12:32:08Z</time>
      </trkpt>
      <trkpt lat="43.65456" lon="3.87951">
        <ele>59.26</ele>
        <time>2016-02-07T12:32:09Z</time>
      </trkpt>
      <trkpt lat="43.65446" lon="3.8797">
        <ele>59.26</ele>
        <time>2016-02-07T12:32:10Z</time>
      </trkpt>
      <trkpt lat="43.65434" lon="3.87989">
        <ele>59.26</ele>
        <time>2016-02-07T12:32:11Z</time>
      </trkpt>
      <trkpt lat="43.65422" lon="3.88007">
        <ele>59.26</ele>
        <time>2016-02-07T12:32:12Z</time>
      </trkpt>
      <trkpt lat="43.65408" lon="3.88024">
        <ele>58.78</ele>
        <time>2016-02-07T12:32:13Z</time>
      </trkpt>
      <trkpt lat="43.6532" lon="3.88134">
        <ele>58.78</ele>
        <time>2016-02-07T12:32:21Z</time>
      </trkpt>
      <trkpt lat="43.65311" lon="3.88136">
        <ele>58.78</ele>
        <time>2016-02-07T12:32:22Z</time>
      </trkpt>
      <trkpt lat="43.65301" lon="3.88135">
        <ele>58.78</ele>
        <time>2016-02-07T12:32:23Z</time>
      </trkpt>
      <trkpt lat="43.65292" lon="3.88133">
        <ele>58.78</ele>
        <time>2016-02-07T12:32:24Z</time>
      </trkpt>
      <trkpt lat="43.65282" lon="3.88129">
        <ele>58.78</ele>
        <time>2016-02-07T12:32:25Z</time>
      </trkpt>
      <trkpt lat="43.65274" lon="3.88123">
        <ele>58.78</ele>
        <time>2016-02-07T12:32:26Z</time>
      </trkpt>
      <trkpt lat="43.65268" lon="3.88114">
        <ele>58.3</ele>
        <time>2016-02-07T12:32:27Z</time>
      </trkpt>
      <trkpt lat="43.65266" lon="3.88105">
        <ele>58.3</ele>
        <time>2016-02-07T12:32:28Z</time>
      </trkpt>
      <trkpt lat="43.65267" lon="3.88095">
        <ele>58.3</ele>
        <time>2016-02-07T12:32:29Z</time>
      </trkpt>
      <trkpt lat="43.6527" lon="3.88086">
        <ele>58.3</ele>
        <time>2016-02-07T12:32:30Z</time>
      </trkpt>
      <trkpt lat="43.65275" lon="3.8808">
        <ele>58.3</ele>
        <time>2016-02-07T12:32:31Z</time>
      </trkpt>
      <trkpt lat="43.65281" lon="3.88077">
        <ele>58.3</ele>
        <time>2016-02-07T12:32:32Z</time>
      </trkpt>
      <trkpt lat="43.65285" lon="3.88075">
        <ele>58.3</ele>
        <time>2016-02-07T12:32:33Z</time>
      </trkpt>
      <trkpt lat="43.65288" lon="3.88074">
        <ele>58.3</ele>
        <time>2016-02-07T12:32:34Z</time>
      </trkpt>
      <trkpt lat="43.65291" lon="3.88074">
        <ele>58.3</ele>
        <time>2016-02-07T12:32:35Z</time>
      </trkpt>
      <trkpt lat="43.65295" lon="3.88074">
        <ele>58.3</ele>
        <time>2016-02-07T12:32:36Z</time>
      </trkpt>
      <trkpt lat="43.65338" lon="3.88068">
        <ele>57.82</ele>
        <time>2016-02-07T12:32:46Z</time>
      </trkpt>
      <trkpt lat="43.6534" lon="3.88067">
        <ele>57.82</ele>
        <time>2016-02-07T12:32:47Z</time>
      </trkpt>
      <trkpt lat="43.65341" lon="3.88065">
        <ele>57.82</ele>
        <time>2016-02-07T12:32:48Z</time>
      </trkpt>
      <trkpt lat="43.6534" lon="3.88065">
        <ele>59.74</ele>
        <time>2016-02-07T12:33:05Z</time>
      </trkpt>
      <trkpt lat="43.65339" lon="3.88066">
        <ele>63.58</ele>
        <time>2016-02-07T12:33:29Z</time>
      </trkpt>
      <trkpt lat="43.65341" lon="3.88067">
        <ele>53.01</ele>
        <time>2016-02-07T12:38:44Z</time>
      </trkpt>
      <trkpt lat="43.6534" lon="3.88065">
        <ele>54.45</ele>
        <time>2016-02-07T12:39:15Z</time>
      </trkpt>
      <trkpt lat="43.65332" lon="3.88061">
        <ele>53.49</ele>
        <time>2016-02-07T12:39:20Z</time>
      </trkpt>
      <trkpt lat="43.65327" lon="3.88065">
        <ele>53.49</ele>
        <time>2016-02-07T12:39:21Z</time>
      </trkpt>
      <trkpt lat="43.6532" lon="3.88067">
        <ele>53.49</ele>
        <time>2016-02-07T12:39:22Z</time>
      </trkpt>
      <trkpt lat="43.65314" lon="3.88069">
        <ele>53.49</ele>
        <time>2016-02-07T12:39:23Z</time>
      </trkpt>
      <trkpt lat="43.65308" lon="3.8807">
        <ele>53.49</ele>
        <time>2016-02-07T12:39:24Z</time>
      </trkpt>
      <trkpt lat="43.65286" lon="3.88074">
        <ele>53.49</ele>
        <time>2016-02-07T12:39:28Z</time>
      </trkpt>
      <trkpt lat="43.6528" lon="3.88078">
        <ele>53.01</ele>
        <time>2016-02-07T12:39:29Z</time>
      </trkpt>
      <trkpt lat="43.65276" lon="3.88083">
        <ele>53.01</ele>
        <time>2016-02-07T12:39:30Z</time>
      </trkpt>
      <trkpt lat="43.65272" lon="3.8809">
        <ele>53.01</ele>
        <time>2016-02-07T12:39:31Z</time>
      </trkpt>
      <trkpt lat="43.65269" lon="3.88097">
        <ele>52.53</ele>
        <time>2016-02-07T12:39:32Z</time>
      </trkpt>
      <trkpt lat="43.65267" lon="3.88106">
        <ele>52.53</ele>
        <time>2016-02-07T12:39:33Z</time>
      </trkpt>
      <trkpt lat="43.65267" lon="3.88115">
        <ele>52.53</ele>
        <time>2016-02-07T12:39:34Z</time>
      </trkpt>
      <trkpt lat="43.65269" lon="3.88123">
        <ele>52.05</ele>
        <time>2016-02-07T12:39:35Z</time>
      </trkpt>
      <trkpt lat="43.65271" lon="3.8813">
        <ele>52.53</ele>
        <time>2016-02-07T12:39:36Z</time>
      </trkpt>
      <trkpt lat="43.65272" lon="3.88139">
        <ele>52.05</ele>
        <time>2016-02-07T12:39:37Z</time>
      </trkpt>
      <trkpt lat="43.65271" lon="3.8815">
        <ele>52.05</ele>
        <time>2016-02-07T12:39:38Z</time>
      </trkpt>
      <trkpt lat="43.6527" lon="3.88162">
        <ele>52.05</ele>
        <time>2016-02-07T12:39:39Z</time>
      </trkpt>
      <trkpt lat="43.65272" lon="3.88173">
        <ele>52.05</ele>
        <time>2016-02-07T12:39:40Z</time>
      </trkpt>
      <trkpt lat="43.65275" lon="3.88183">
        <ele>52.05</ele>
        <time>2016-02-07T12:39:41Z</time>
      </trkpt>
      <trkpt lat="43.6528" lon="3.88191">
        <ele>52.05</ele>
        <time>2016-02-07T12:39:42Z</time>
      </trkpt>
      <trkpt lat="43.65285" lon="3.88199">
        <ele>52.05</ele>
        <time>2016-02-07T12:39:43Z</time>
      </trkpt>
      <trkpt lat="43.65292" lon="3.88206">
        <ele>52.05</ele>
        <time>2016-02-07T12:39:44Z</time>
      </trkpt>
      <trkpt lat="43.65299" lon="3.88212">
        <ele>51.57</ele>
        <time>2016-02-07T12:39:45Z</time>
      </trkpt>
      <trkpt lat="43.65307" lon="3.88214">
        <ele>51.57</ele>
        <time>2016-02-07T12:39:46Z</time>
      </trkpt>
      <trkpt lat="43.65316" lon="3.88211">
        <ele>51.09</ele>
        <time>2016-02-07T12:39:47Z</time>
      </trkpt>
      <trkpt lat="43.65323" lon="3.88202">
        <ele>51.09</ele>
        <time>2016-02-07T12:39:48Z</time>
      </trkpt>
      <trkpt lat="43.65327" lon="3.88191">
        <ele>51.09</ele>
        <time>2016-02-07T12:39:49Z</time>
      </trkpt>
      <trkpt lat="43.65328" lon="3.88179">
        <ele>51.09</ele>
        <time>2016-02-07T12:39:50Z</time>
      </trkpt>
      <trkpt lat="43.6533" lon="3.88166">
        <ele>51.09</ele>
        <time>2016-02-07T12:39:51Z</time>
      </trkpt>
      <trkpt lat="43.65334" lon="3.88153">
        <ele>50.61</ele>
        <time>2016-02-07T12:39:52Z</time>
      </trkpt>
      <trkpt lat="43.6534" lon="3.8814">
        <ele>50.61</ele>
        <time>2016-02-07T12:39:53Z</time>
      </trkpt>
      <trkpt lat="43.65348" lon="3.88128">
        <ele>51.09</ele>
        <time>2016-02-07T12:39:54Z</time>
      </trkpt>
      <trkpt lat="43.65358" lon="3.88115">
        <ele>51.09</ele>
        <time>2016-02-07T12:39:55Z</time>
      </trkpt>
      <trkpt lat="43.65368" lon="3.88102">
        <ele>51.09</ele>
        <time>2016-02-07T12:39:56Z</time>
      </trkpt>
      <trkpt lat="43.65469" lon="3.87938">
        <ele>51.09</ele>
        <time>2016-02-07T12:40:06Z</time>
      </trkpt>
      <trkpt lat="43.65477" lon="3.87918">
        <ele>51.09</ele>
        <time>2016-02-07T12:40:07Z</time>
      </trkpt>
      <trkpt lat="43.65483" lon="3.87897">
        <ele>51.09</ele>
        <time>2016-02-07T12:40:08Z</time>
      </trkpt>
      <trkpt lat="43.65487" lon="3.87876">
        <ele>50.61</ele>
        <time>2016-02-07T12:40:09Z</time>
      </trkpt>
      <trkpt lat="43.65491" lon="3.87854">
        <ele>50.61</ele>
        <time>2016-02-07T12:40:10Z</time>
      </trkpt>
      <trkpt lat="43.65493" lon="3.87832">
        <ele>50.13</ele>
        <time>2016-02-07T12:40:11Z</time>
      </trkpt>
      <trkpt lat="43.65494" lon="3.87809">
        <ele>49.65</ele>
        <time>2016-02-07T12:40:12Z</time>
      </trkpt>
      <trkpt lat="43.65494" lon="3.87786">
        <ele>49.65</ele>
        <time>2016-02-07T12:40:13Z</time>
      </trkpt>
      <trkpt lat="43.65495" lon="3.87486">
        <ele>50.61</ele>
        <time>2016-02-07T12:40:27Z</time>
      </trkpt>
      <trkpt lat="43.65492" lon="3.87426">
        <ele>51.09</ele>
        <time>2016-02-07T12:40:31Z</time>
      </trkpt>
      <trkpt lat="43.65496" lon="3.87413">
        <ele>51.09</ele>
        <time>2016-02-07T12:40:32Z</time>
      </trkpt>
      <trkpt lat="43.65501" lon="3.87399">
        <ele>51.57</ele>
        <time>2016-02-07T12:40:33Z</time>
      </trkpt>
      <trkpt lat="43.65505" lon="3.87382">
        <ele>51.57</ele>
        <time>2016-02-07T12:40:34Z</time>
      </trkpt>
      <trkpt lat="43.65508" lon="3.87364">
        <ele>51.57</ele>
        <time>2016-02-07T12:40:35Z</time>
      </trkpt>
      <trkpt lat="43.65509" lon="3.87346">
        <ele>51.09</ele>
        <time>2016-02-07T12:40:36Z</time>
      </trkpt>
      <trkpt lat="43.65513" lon="3.87253">
        <ele>49.65</ele>
        <time>2016-02-07T12:40:41Z</time>
      </trkpt>
      <trkpt lat="43.65518" lon="3.87234">
        <ele>49.16</ele>
        <time>2016-02-07T12:40:42Z</time>
      </trkpt>
      <trkpt lat="43.65525" lon="3.87217">
        <ele>48.68</ele>
        <time>2016-02-07T12:40:43Z</time>
      </trkpt>
      <trkpt lat="43.65533" lon="3.87202">
        <ele>47.72</ele>
        <time>2016-02-07T12:40:44Z</time>
      </trkpt>
      <trkpt lat="43.65542" lon="3.87186">
        <ele>46.76</ele>
        <time>2016-02-07T12:40:45Z</time>
      </trkpt>
      <trkpt lat="43.65623" lon="3.87068">
        <ele>42.92</ele>
        <time>2016-02-07T12:40:52Z</time>
      </trkpt>
      <trkpt lat="43.65771" lon="3.86935">
        <ele>42.44</ele>
        <time>2016-02-07T12:41:00Z</time>
      </trkpt>
      <trkpt lat="43.65936" lon="3.86752">
        <ele>43.88</ele>
        <time>2016-02-07T12:41:10Z</time>
      </trkpt>
      <trkpt lat="43.66015" lon="3.86665">
        <ele>45.8</ele>
        <time>2016-02-07T12:41:15Z</time>
      </trkpt>
      <trkpt lat="43.66033" lon="3.86653">
        <ele>46.28</ele>
        <time>2016-02-07T12:41:16Z</time>
      </trkpt>
      <trkpt lat="43.66052" lon="3.86643">
        <ele>47.24</ele>
        <time>2016-02-07T12:41:17Z</time>
      </trkpt>
      <trkpt lat="43.66073" lon="3.86636">
        <ele>48.2</ele>
        <time>2016-02-07T12:41:18Z</time>
      </trkpt>
      <trkpt lat="43.66093" lon="3.86632">
        <ele>49.16</ele>
        <time>2016-02-07T12:41:19Z</time>
      </trkpt>
      <trkpt lat="43.66114" lon="3.8663">
        <ele>49.65</ele>
        <time>2016-02-07T12:41:20Z</time>
      </trkpt>
      <trkpt lat="43.66136" lon="3.86629">
        <ele>50.61</ele>
        <time>2016-02-07T12:41:21Z</time>
      </trkpt>
      <trkpt lat="43.6641" lon="3.86639">
        <ele>58.3</ele>
        <time>2016-02-07T12:41:34Z</time>
      </trkpt>
      <trkpt lat="43.66557" lon="3.86622">
        <ele>53.49</ele>
        <time>2016-02-07T12:41:42Z</time>
      </trkpt>
      <trkpt lat="43.66606" lon="3.86618">
        <ele>52.05</ele>
        <time>2016-02-07T12:41:45Z</time>
      </trkpt>
      <trkpt lat="43.66622" lon="3.86621">
        <ele>51.57</ele>
        <time>2016-02-07T12:41:46Z</time>
      </trkpt>
      <trkpt lat="43.66639" lon="3.86626">
        <ele>51.57</ele>
        <time>2016-02-07T12:41:47Z</time>
      </trkpt>
      <trkpt lat="43.66655" lon="3.86633">
        <ele>52.05</ele>
        <time>2016-02-07T12:41:48Z</time>
      </trkpt>
      <trkpt lat="43.66671" lon="3.86642">
        <ele>52.05</ele>
        <time>2016-02-07T12:41:49Z</time>
      </trkpt>
      <trkpt lat="43.66686" lon="3.86654">
        <ele>52.05</ele>
        <time>2016-02-07T12:41:50Z</time>
      </trkpt>
      <trkpt lat="43.667" lon="3.86667">
        <ele>52.05</ele>
        <time>2016-02-07T12:41:51Z</time>
      </trkpt>
      <trkpt lat="43.66713" lon="3.86681">
        <ele>52.53</ele>
        <time>2016-02-07T12:41:52Z</time>
      </trkpt>
      <trkpt lat="43.66726" lon="3.86697">
        <ele>53.01</ele>
        <time>2016-02-07T12:41:53Z</time>
      </trkpt>
      <trkpt lat="43.66833" lon="3.86819">
        <ele>54.93</ele>
        <time>2016-02-07T12:42:01Z</time>
      </trkpt>
      <trkpt lat="43.6685" lon="3.86829">
        <ele>54.93</ele>
        <time>2016-02-07T12:42:02Z</time>
      </trkpt>
      <trkpt lat="43.66867" lon="3.86837">
        <ele>54.93</ele>
        <time>2016-02-07T12:42:03Z</time>
      </trkpt>
      <trkpt lat="43.66885" lon="3.86843">
        <ele>55.41</ele>
        <time>2016-02-07T12:42:04Z</time>
      </trkpt>
      <trkpt lat="43.66903" lon="3.86847">
        <ele>55.41</ele>
        <time>2016-02-07T12:42:05Z</time>
      </trkpt>
      <trkpt lat="43.6692" lon="3.86849">
        <ele>54.93</ele>
        <time>2016-02-07T12:42:06Z</time>
      </trkpt>
      <trkpt lat="43.66938" lon="3.86849">
        <ele>54.93</ele>
        <time>2016-02-07T12:42:07Z</time>
      </trkpt>
      <trkpt lat="43.66955" lon="3.86848">
        <ele>54.93</ele>
        <time>2016-02-07T12:42:08Z</time>
      </trkpt>
      <trkpt lat="43.66973" lon="3.86845">
        <ele>54.45</ele>
        <time>2016-02-07T12:42:09Z</time>
      </trkpt>
      <trkpt lat="43.66991" lon="3.8684">
        <ele>54.45</ele>
        <time>2016-02-07T12:42:10Z</time>
      </trkpt>
      <trkpt lat="43.67276" lon="3.86771">
        <ele>56.37</ele>
        <time>2016-02-07T12:42:27Z</time>
      </trkpt>
      <trkpt lat="43.67335" lon="3.86767">
        <ele>57.82</ele>
        <time>2016-02-07T12:42:32Z</time>
      </trkpt>
      <trkpt lat="43.67345" lon="3.86768">
        <ele>57.82</ele>
        <time>2016-02-07T12:42:33Z</time>
      </trkpt>
      <trkpt lat="43.67355" lon="3.86768">
        <ele>57.34</ele>
        <time>2016-02-07T12:42:34Z</time>
      </trkpt>
      <trkpt lat="43.67376" lon="3.86767">
        <ele>56.86</ele>
        <time>2016-02-07T12:42:36Z</time>
      </trkpt>
      <trkpt lat="43.6745" lon="3.86766">
        <ele>56.86</ele>
        <time>2016-02-07T12:42:42Z</time>
      </trkpt>
      <trkpt lat="43.67462" lon="3.86762">
        <ele>56.37</ele>
        <time>2016-02-07T12:42:43Z</time>
      </trkpt>
      <trkpt lat="43.67577" lon="3.86715">
        <ele>55.41</ele>
        <time>2016-02-07T12:42:53Z</time>
      </trkpt>
      <trkpt lat="43.67588" lon="3.86715">
        <ele>55.41</ele>
        <time>2016-02-07T12:42:54Z</time>
      </trkpt>
      <trkpt lat="43.67619" lon="3.86718">
        <ele>56.37</ele>
        <time>2016-02-07T12:42:57Z</time>
      </trkpt>
      <trkpt lat="43.67628" lon="3.86722">
        <ele>56.37</ele>
        <time>2016-02-07T12:42:58Z</time>
      </trkpt>
      <trkpt lat="43.67635" lon="3.86732">
        <ele>56.86</ele>
        <time>2016-02-07T12:42:59Z</time>
      </trkpt>
      <trkpt lat="43.67643" lon="3.86743">
        <ele>56.86</ele>
        <time>2016-02-07T12:43:00Z</time>
      </trkpt>
      <trkpt lat="43.67651" lon="3.86754">
        <ele>57.34</ele>
        <time>2016-02-07T12:43:01Z</time>
      </trkpt>
      <trkpt lat="43.67662" lon="3.86761">
        <ele>57.34</ele>
        <time>2016-02-07T12:43:02Z</time>
      </trkpt>
      <trkpt lat="43.67673" lon="3.86763">
        <ele>57.82</ele>
        <time>2016-02-07T12:43:03Z</time>
      </trkpt>
      <trkpt lat="43.67684" lon="3.86761">
        <ele>57.82</ele>
        <time>2016-02-07T12:43:04Z</time>
      </trkpt>
      <trkpt lat="43.67693" lon="3.86755">
        <ele>58.3</ele>
        <time>2016-02-07T12:43:05Z</time>
      </trkpt>
      <trkpt lat="43.67701" lon="3.86746">
        <ele>58.3</ele>
        <time>2016-02-07T12:43:06Z</time>
      </trkpt>
      <trkpt lat="43.67709" lon="3.86736">
        <ele>58.3</ele>
        <time>2016-02-07T12:43:07Z</time>
      </trkpt>
      <trkpt lat="43.67717" lon="3.86726">
        <ele>58.3</ele>
        <time>2016-02-07T12:43:08Z</time>
      </trkpt>
      <trkpt lat="43.67727" lon="3.86719">
        <ele>58.3</ele>
        <time>2016-02-07T12:43:09Z</time>
      </trkpt>
      <trkpt lat="43.67739" lon="3.86718">
        <ele>57.82</ele>
        <time>2016-02-07T12:43:10Z</time>
      </trkpt>
      <trkpt lat="43.67753" lon="3.86717">
        <ele>58.3</ele>
        <time>2016-02-07T12:43:11Z</time>
      </trkpt>
      <trkpt lat="43.67768" lon="3.86716">
        <ele>58.3</ele>
        <time>2016-02-07T12:43:12Z</time>
      </trkpt>
      <trkpt lat="43.67784" lon="3.86713">
        <ele>58.3</ele>
        <time>2016-02-07T12:43:13Z</time>
      </trkpt>
      <trkpt lat="43.67801" lon="3.86707">
        <ele>58.78</ele>
        <time>2016-02-07T12:43:14Z</time>
      </trkpt>
      <trkpt lat="43.67818" lon="3.86699">
        <ele>58.78</ele>
        <time>2016-02-07T12:43:15Z</time>
      </trkpt>
      <trkpt lat="43.67836" lon="3.86689">
        <ele>58.78</ele>
        <time>2016-02-07T12:43:16Z</time>
      </trkpt>
      <trkpt lat="43.68016" lon="3.86591">
        <ele>56.37</ele>
        <time>2016-02-07T12:43:25Z</time>
      </trkpt>
      <trkpt lat="43.68211" lon="3.86507">
        <ele>56.37</ele>
        <time>2016-02-07T12:43:35Z</time>
      </trkpt>
      <trkpt lat="43.68229" lon="3.86495">
        <ele>56.37</ele>
        <time>2016-02-07T12:43:36Z</time>
      </trkpt>
      <trkpt lat="43.68246" lon="3.86482">
        <ele>56.86</ele>
        <time>2016-02-07T12:43:37Z</time>
      </trkpt>
      <trkpt lat="43.68262" lon="3.86467">
        <ele>56.86</ele>
        <time>2016-02-07T12:43:38Z</time>
      </trkpt>
      <trkpt lat="43.68276" lon="3.86453">
        <ele>57.34</ele>
        <time>2016-02-07T12:43:39Z</time>
      </trkpt>
      <trkpt lat="43.683" lon="3.86425">
        <ele>57.82</ele>
        <time>2016-02-07T12:43:41Z</time>
      </trkpt>
      <trkpt lat="43.68309" lon="3.8641">
        <ele>58.3</ele>
        <time>2016-02-07T12:43:42Z</time>
      </trkpt>
      <trkpt lat="43.68316" lon="3.86396">
        <ele>58.3</ele>
        <time>2016-02-07T12:43:43Z</time>
      </trkpt>
      <trkpt lat="43.68321" lon="3.86382">
        <ele>57.82</ele>
        <time>2016-02-07T12:43:44Z</time>
      </trkpt>
      <trkpt lat="43.68327" lon="3.86367">
        <ele>57.82</ele>
        <time>2016-02-07T12:43:45Z</time>
      </trkpt>
      <trkpt lat="43.68333" lon="3.86354">
        <ele>58.3</ele>
        <time>2016-02-07T12:43:46Z</time>
      </trkpt>
      <trkpt lat="43.6834" lon="3.86343">
        <ele>57.82</ele>
        <time>2016-02-07T12:43:47Z</time>
      </trkpt>
      <trkpt lat="43.68348" lon="3.86339">
        <ele>57.82</ele>
        <time>2016-02-07T12:43:48Z</time>
      </trkpt>
      <trkpt lat="43.68356" lon="3.8634">
        <ele>57.82</ele>
        <time>2016-02-07T12:43:49Z</time>
      </trkpt>
      <trkpt lat="43.68365" lon="3.86344">
        <ele>57.82</ele>
        <time>2016-02-07T12:43:50Z</time>
      </trkpt>
      <trkpt lat="43.68374" lon="3.86349">
        <ele>57.82</ele>
        <time>2016-02-07T12:43:51Z</time>
      </trkpt>
      <trkpt lat="43.68385" lon="3.86352">
        <ele>57.82</ele>
        <time>2016-02-07T12:43:52Z</time>
      </trkpt>
      <trkpt lat="43.68396" lon="3.86354">
        <ele>57.82</ele>
        <time>2016-02-07T12:43:53Z</time>
      </trkpt>
      <trkpt lat="43.68408" lon="3.86355">
        <ele>58.3</ele>
        <time>2016-02-07T12:43:54Z</time>
      </trkpt>
      <trkpt lat="43.68543" lon="3.86392">
        <ele>57.34</ele>
        <time>2016-02-07T12:44:05Z</time>
      </trkpt>
      <trkpt lat="43.6859" lon="3.86402">
        <ele>55.41</ele>
        <time>2016-02-07T12:44:09Z</time>
      </trkpt>
      <trkpt lat="43.686" lon="3.864">
        <ele>55.41</ele>
        <time>2016-02-07T12:44:10Z</time>
      </trkpt>
      <trkpt lat="43.68665" lon="3.8639">
        <ele>58.3</ele>
        <time>2016-02-07T12:44:17Z</time>
      </trkpt>
      <trkpt lat="43.68673" lon="3.86386">
        <ele>58.78</ele>
        <time>2016-02-07T12:44:18Z</time>
      </trkpt>
      <trkpt lat="43.6879" lon="3.86334">
        <ele>59.26</ele>
        <time>2016-02-07T12:44:29Z</time>
      </trkpt>
      <trkpt lat="43.68968" lon="3.86277">
        <ele>62.14</ele>
        <time>2016-02-07T12:44:45Z</time>
      </trkpt>
      <trkpt lat="43.69067" lon="3.86279">
        <ele>63.58</ele>
        <time>2016-02-07T12:44:54Z</time>
      </trkpt>
      <trkpt lat="43.69194" lon="3.86282">
        <ele>65.99</ele>
        <time>2016-02-07T12:45:05Z</time>
      </trkpt>
      <trkpt lat="43.69303" lon="3.86256">
        <ele>65.51</ele>
        <time>2016-02-07T12:45:14Z</time>
      </trkpt>
      <trkpt lat="43.69419" lon="3.86252">
        <ele>62.14</ele>
        <time>2016-02-07T12:45:24Z</time>
      </trkpt>
      <trkpt lat="43.69536" lon="3.86262">
        <ele>62.62</ele>
        <time>2016-02-07T12:45:35Z</time>
      </trkpt>
      <trkpt lat="43.69664" lon="3.86284">
        <ele>66.95</ele>
        <time>2016-02-07T12:45:48Z</time>
      </trkpt>
      <trkpt lat="43.69704" lon="3.8629">
        <ele>65.51</ele>
        <time>2016-02-07T12:45:56Z</time>
      </trkpt>
      <trkpt lat="43.69721" lon="3.86289">
        <ele>70.31</ele>
        <time>2016-02-07T12:46:05Z</time>
      </trkpt>
      <trkpt lat="43.69793" lon="3.86299">
        <ele>72.24</ele>
        <time>2016-02-07T12:46:15Z</time>
      </trkpt>
      <trkpt lat="43.69801" lon="3.86294">
        <ele>71.27</ele>
        <time>2016-02-07T12:46:16Z</time>
      </trkpt>
      <trkpt lat="43.69809" lon="3.86292">
        <ele>71.27</ele>
        <time>2016-02-07T12:46:17Z</time>
      </trkpt>
      <trkpt lat="43.69883" lon="3.86248">
        <ele>71.76</ele>
        <time>2016-02-07T12:46:27Z</time>
      </trkpt>
      <trkpt lat="43.69891" lon="3.86243">
        <ele>72.24</ele>
        <time>2016-02-07T12:46:28Z</time>
      </trkpt>
      <trkpt lat="43.69914" lon="3.86232">
        <ele>72.24</ele>
        <time>2016-02-07T12:46:31Z</time>
      </trkpt>
      <trkpt lat="43.69923" lon="3.86233">
        <ele>71.27</ele>
        <time>2016-02-07T12:46:32Z</time>
      </trkpt>
      <trkpt lat="43.69931" lon="3.86233">
        <ele>70.79</ele>
        <time>2016-02-07T12:46:33Z</time>
      </trkpt>
      <trkpt lat="43.6994" lon="3.86234">
        <ele>70.31</ele>
        <time>2016-02-07T12:46:34Z</time>
      </trkpt>
      <trkpt lat="43.6995" lon="3.86235">
        <ele>69.83</ele>
        <time>2016-02-07T12:46:35Z</time>
      </trkpt>
      <trkpt lat="43.7005" lon="3.86251">
        <ele>68.39</ele>
        <time>2016-02-07T12:46:47Z</time>
      </trkpt>
      <trkpt lat="43.70065" lon="3.86252">
        <ele>67.91</ele>
        <time>2016-02-07T12:46:49Z</time>
      </trkpt>
      <trkpt lat="43.70073" lon="3.86255">
        <ele>67.91</ele>
        <time>2016-02-07T12:46:50Z</time>
      </trkpt>
      <trkpt lat="43.70158" lon="3.86298">
        <ele>64.55</ele>
        <time>2016-02-07T12:47:00Z</time>
      </trkpt>
      <trkpt lat="43.70186" lon="3.86325">
        <ele>65.03</ele>
        <time>2016-02-07T12:47:04Z</time>
      </trkpt>
      <trkpt lat="43.70191" lon="3.8633">
        <ele>65.03</ele>
        <time>2016-02-07T12:47:05Z</time>
      </trkpt>
      <trkpt lat="43.70221" lon="3.86376">
        <ele>66.47</ele>
        <time>2016-02-07T12:47:10Z</time>
      </trkpt>
      <trkpt lat="43.70265" lon="3.865">
        <ele>66.47</ele>
        <time>2016-02-07T12:47:21Z</time>
      </trkpt>
      <trkpt lat="43.70322" lon="3.8665">
        <ele>68.87</ele>
        <time>2016-02-07T12:47:32Z</time>
      </trkpt>
      <trkpt lat="43.70385" lon="3.86759">
        <ele>69.35</ele>
        <time>2016-02-07T12:47:39Z</time>
      </trkpt>
      <trkpt lat="43.70397" lon="3.86771">
        <ele>69.35</ele>
        <time>2016-02-07T12:47:40Z</time>
      </trkpt>
      <trkpt lat="43.70412" lon="3.86782">
        <ele>69.35</ele>
        <time>2016-02-07T12:47:41Z</time>
      </trkpt>
      <trkpt lat="43.70427" lon="3.86791">
        <ele>69.35</ele>
        <time>2016-02-07T12:47:42Z</time>
      </trkpt>
      <trkpt lat="43.70443" lon="3.86799">
        <ele>69.35</ele>
        <time>2016-02-07T12:47:43Z</time>
      </trkpt>
      <trkpt lat="43.70459" lon="3.86804">
        <ele>68.87</ele>
        <time>2016-02-07T12:47:44Z</time>
      </trkpt>
      <trkpt lat="43.70475" lon="3.86808">
        <ele>68.39</ele>
        <time>2016-02-07T12:47:45Z</time>
      </trkpt>
      <trkpt lat="43.70492" lon="3.86807">
        <ele>67.91</ele>
        <time>2016-02-07T12:47:46Z</time>
      </trkpt>
      <trkpt lat="43.70509" lon="3.86806">
        <ele>67.91</ele>
        <time>2016-02-07T12:47:47Z</time>
      </trkpt>
      <trkpt lat="43.70527" lon="3.86804">
        <ele>67.43</ele>
        <time>2016-02-07T12:47:48Z</time>
      </trkpt>
      <trkpt lat="43.70714" lon="3.86786">
        <ele>66.47</ele>
        <time>2016-02-07T12:47:58Z</time>
      </trkpt>
      <trkpt lat="43.70879" lon="3.86785">
        <ele>65.99</ele>
        <time>2016-02-07T12:48:06Z</time>
      </trkpt>
      <trkpt lat="43.71072" lon="3.8674">
        <ele>67.43</ele>
        <time>2016-02-07T12:48:16Z</time>
      </trkpt>
      <trkpt lat="43.71362" lon="3.86677">
        <ele>68.39</ele>
        <time>2016-02-07T12:48:31Z</time>
      </trkpt>
      <trkpt lat="43.71539" lon="3.86678">
        <ele>68.39</ele>
        <time>2016-02-07T12:48:40Z</time>
      </trkpt>
      <trkpt lat="43.71762" lon="3.86776">
        <ele>70.79</ele>
        <time>2016-02-07T12:48:52Z</time>
      </trkpt>
      <trkpt lat="43.71972" lon="3.86878">
        <ele>72.72</ele>
        <time>2016-02-07T12:49:03Z</time>
      </trkpt>
      <trkpt lat="43.72066" lon="3.86909">
        <ele>74.64</ele>
        <time>2016-02-07T12:49:08Z</time>
      </trkpt>
      <trkpt lat="43.72086" lon="3.86909">
        <ele>75.6</ele>
        <time>2016-02-07T12:49:09Z</time>
      </trkpt>
      <trkpt lat="43.72105" lon="3.86906">
        <ele>76.08</ele>
        <time>2016-02-07T12:49:10Z</time>
      </trkpt>
      <trkpt lat="43.72125" lon="3.869">
        <ele>77.04</ele>
        <time>2016-02-07T12:49:11Z</time>
      </trkpt>
      <trkpt lat="43.72143" lon="3.86891">
        <ele>77.52</ele>
        <time>2016-02-07T12:49:12Z</time>
      </trkpt>
      <trkpt lat="43.72161" lon="3.86881">
        <ele>78</ele>
        <time>2016-02-07T12:49:13Z</time>
      </trkpt>
      <trkpt lat="43.7223" lon="3.86854">
        <ele>77.52</ele>
        <time>2016-02-07T12:49:17Z</time>
      </trkpt>
      <trkpt lat="43.72249" lon="3.86854">
        <ele>77.52</ele>
        <time>2016-02-07T12:49:18Z</time>
      </trkpt>
      <trkpt lat="43.72411" lon="3.86882">
        <ele>74.16</ele>
        <time>2016-02-07T12:49:26Z</time>
      </trkpt>
      <trkpt lat="43.72627" lon="3.8695">
        <ele>77.52</ele>
        <time>2016-02-07T12:49:38Z</time>
      </trkpt>
      <trkpt lat="43.72753" lon="3.87012">
        <ele>80.41</ele>
        <time>2016-02-07T12:49:46Z</time>
      </trkpt>
      <trkpt lat="43.72809" lon="3.8701">
        <ele>83.29</ele>
        <time>2016-02-07T12:49:51Z</time>
      </trkpt>
      <trkpt lat="43.72818" lon="3.87012">
        <ele>83.77</ele>
        <time>2016-02-07T12:49:52Z</time>
      </trkpt>
      <trkpt lat="43.72828" lon="3.87016">
        <ele>84.25</ele>
        <time>2016-02-07T12:49:53Z</time>
      </trkpt>
      <trkpt lat="43.72837" lon="3.87021">
        <ele>84.25</ele>
        <time>2016-02-07T12:49:54Z</time>
      </trkpt>
      <trkpt lat="43.72845" lon="3.8702">
        <ele>84.73</ele>
        <time>2016-02-07T12:49:55Z</time>
      </trkpt>
      <trkpt lat="43.72853" lon="3.87013">
        <ele>85.21</ele>
        <time>2016-02-07T12:49:56Z</time>
      </trkpt>
      <trkpt lat="43.7286" lon="3.87005">
        <ele>85.21</ele>
        <time>2016-02-07T12:49:57Z</time>
      </trkpt>
      <trkpt lat="43.7287" lon="3.86997">
        <ele>85.21</ele>
        <time>2016-02-07T12:49:58Z</time>
      </trkpt>
      <trkpt lat="43.72882" lon="3.86991">
        <ele>85.69</ele>
        <time>2016-02-07T12:49:59Z</time>
      </trkpt>
      <trkpt lat="43.72894" lon="3.86987">
        <ele>85.69</ele>
        <time>2016-02-07T12:50:00Z</time>
      </trkpt>
      <trkpt lat="43.72907" lon="3.86984">
        <ele>86.18</ele>
        <time>2016-02-07T12:50:01Z</time>
      </trkpt>
      <trkpt lat="43.73004" lon="3.86967">
        <ele>85.69</ele>
        <time>2016-02-07T12:50:09Z</time>
      </trkpt>
      <trkpt lat="43.73014" lon="3.86968">
        <ele>85.21</ele>
        <time>2016-02-07T12:50:10Z</time>
      </trkpt>
      <trkpt lat="43.73023" lon="3.86972">
        <ele>85.21</ele>
        <time>2016-02-07T12:50:11Z</time>
      </trkpt>
      <trkpt lat="43.73032" lon="3.86977">
        <ele>85.21</ele>
        <time>2016-02-07T12:50:12Z</time>
      </trkpt>
      <trkpt lat="43.73041" lon="3.86979">
        <ele>84.73</ele>
        <time>2016-02-07T12:50:13Z</time>
      </trkpt>
      <trkpt lat="43.73051" lon="3.86976">
        <ele>84.25</ele>
        <time>2016-02-07T12:50:14Z</time>
      </trkpt>
      <trkpt lat="43.73058" lon="3.86967">
        <ele>84.25</ele>
        <time>2016-02-07T12:50:15Z</time>
      </trkpt>
      <trkpt lat="43.73064" lon="3.86957">
        <ele>83.77</ele>
        <time>2016-02-07T12:50:16Z</time>
      </trkpt>
      <trkpt lat="43.73071" lon="3.86945">
        <ele>83.29</ele>
        <time>2016-02-07T12:50:17Z</time>
      </trkpt>
      <trkpt lat="43.73081" lon="3.86934">
        <ele>82.81</ele>
        <time>2016-02-07T12:50:18Z</time>
      </trkpt>
      <trkpt lat="43.73094" lon="3.86923">
        <ele>81.85</ele>
        <time>2016-02-07T12:50:19Z</time>
      </trkpt>
      <trkpt lat="43.73108" lon="3.86912">
        <ele>81.37</ele>
        <time>2016-02-07T12:50:20Z</time>
      </trkpt>
      <trkpt lat="43.73262" lon="3.86814">
        <ele>77.04</ele>
        <time>2016-02-07T12:50:29Z</time>
      </trkpt>
      <trkpt lat="43.73428" lon="3.86746">
        <ele>77.52</ele>
        <time>2016-02-07T12:50:38Z</time>
      </trkpt>
      <trkpt lat="43.73651" lon="3.86734">
        <ele>76.56</ele>
        <time>2016-02-07T12:50:49Z</time>
      </trkpt>
      <trkpt lat="43.73834" lon="3.86696">
        <ele>77.04</ele>
        <time>2016-02-07T12:50:58Z</time>
      </trkpt>
      <trkpt lat="43.74017" lon="3.86578">
        <ele>78.48</ele>
        <time>2016-02-07T12:51:08Z</time>
      </trkpt>
      <trkpt lat="43.74253" lon="3.86393">
        <ele>82.81</ele>
        <time>2016-02-07T12:51:21Z</time>
      </trkpt>
      <trkpt lat="43.74425" lon="3.86227">
        <ele>81.85</ele>
        <time>2016-02-07T12:51:32Z</time>
      </trkpt>
      <trkpt lat="43.746" lon="3.8606">
        <ele>81.85</ele>
        <time>2016-02-07T12:51:46Z</time>
      </trkpt>
      <trkpt lat="43.74698" lon="3.85968">
        <ele>82.81</ele>
        <time>2016-02-07T12:51:53Z</time>
      </trkpt>
      <trkpt lat="43.74839" lon="3.85867">
        <ele>84.25</ele>
        <time>2016-02-07T12:52:01Z</time>
      </trkpt>
      <trkpt lat="43.74859" lon="3.85863">
        <ele>84.73</ele>
        <time>2016-02-07T12:52:02Z</time>
      </trkpt>
      <trkpt lat="43.74879" lon="3.85862">
        <ele>84.73</ele>
        <time>2016-02-07T12:52:03Z</time>
      </trkpt>
      <trkpt lat="43.749" lon="3.85863">
        <ele>84.73</ele>
        <time>2016-02-07T12:52:04Z</time>
      </trkpt>
      <trkpt lat="43.74921" lon="3.85866">
        <ele>85.21</ele>
        <time>2016-02-07T12:52:05Z</time>
      </trkpt>
      <trkpt lat="43.7513" lon="3.85907">
        <ele>87.14</ele>
        <time>2016-02-07T12:52:15Z</time>
      </trkpt>
      <trkpt lat="43.75462" lon="3.85973">
        <ele>91.94</ele>
        <time>2016-02-07T12:52:31Z</time>
      </trkpt>
      <trkpt lat="43.75683" lon="3.86036">
        <ele>90.98</ele>
        <time>2016-02-07T12:52:42Z</time>
      </trkpt>
      <trkpt lat="43.75945" lon="3.86211">
        <ele>93.39</ele>
        <time>2016-02-07T12:52:56Z</time>
      </trkpt>
      <trkpt lat="43.76056" lon="3.86285">
        <ele>94.35</ele>
        <time>2016-02-07T12:53:03Z</time>
      </trkpt>
      <trkpt lat="43.76104" lon="3.86319">
        <ele>94.83</ele>
        <time>2016-02-07T12:53:08Z</time>
      </trkpt>
      <trkpt lat="43.7611" lon="3.86328">
        <ele>94.83</ele>
        <time>2016-02-07T12:53:09Z</time>
      </trkpt>
      <trkpt lat="43.76116" lon="3.8634">
        <ele>94.83</ele>
        <time>2016-02-07T12:53:10Z</time>
      </trkpt>
      <trkpt lat="43.76121" lon="3.86351">
        <ele>95.31</ele>
        <time>2016-02-07T12:53:11Z</time>
      </trkpt>
      <trkpt lat="43.76127" lon="3.86362">
        <ele>95.31</ele>
        <time>2016-02-07T12:53:12Z</time>
      </trkpt>
      <trkpt lat="43.76134" lon="3.86367">
        <ele>95.31</ele>
        <time>2016-02-07T12:53:13Z</time>
      </trkpt>
      <trkpt lat="43.76143" lon="3.86367">
        <ele>95.31</ele>
        <time>2016-02-07T12:53:14Z</time>
      </trkpt>
      <trkpt lat="43.76152" lon="3.86365">
        <ele>94.83</ele>
        <time>2016-02-07T12:53:15Z</time>
      </trkpt>
      <trkpt lat="43.76163" lon="3.86363">
        <ele>94.83</ele>
        <time>2016-02-07T12:53:16Z</time>
      </trkpt>
      <trkpt lat="43.76174" lon="3.86365">
        <ele>94.83</ele>
        <time>2016-02-07T12:53:17Z</time>
      </trkpt>
      <trkpt lat="43.76186" lon="3.8637">
        <ele>95.31</ele>
        <time>2016-02-07T12:53:18Z</time>
      </trkpt>
      <trkpt lat="43.76199" lon="3.86378">
        <ele>95.31</ele>
        <time>2016-02-07T12:53:19Z</time>
      </trkpt>
      <trkpt lat="43.76211" lon="3.86386">
        <ele>95.31</ele>
        <time>2016-02-07T12:53:20Z</time>
      </trkpt>
      <trkpt lat="43.76375" lon="3.86497">
        <ele>95.31</ele>
        <time>2016-02-07T12:53:35Z</time>
      </trkpt>
      <trkpt lat="43.76509" lon="3.86586">
        <ele>97.71</ele>
        <time>2016-02-07T12:53:47Z</time>
      </trkpt>
      <trkpt lat="43.76576" lon="3.86633">
        <ele>99.15</ele>
        <time>2016-02-07T12:53:54Z</time>
      </trkpt>
      <trkpt lat="43.76583" lon="3.8664">
        <ele>99.63</ele>
        <time>2016-02-07T12:53:55Z</time>
      </trkpt>
      <trkpt lat="43.76589" lon="3.86647">
        <ele>99.63</ele>
        <time>2016-02-07T12:53:56Z</time>
      </trkpt>
      <trkpt lat="43.76596" lon="3.86651">
        <ele>100.11</ele>
        <time>2016-02-07T12:53:57Z</time>
      </trkpt>
      <trkpt lat="43.76605" lon="3.86653">
        <ele>100.11</ele>
        <time>2016-02-07T12:53:58Z</time>
      </trkpt>
      <trkpt lat="43.76613" lon="3.86657">
        <ele>100.11</ele>
        <time>2016-02-07T12:53:59Z</time>
      </trkpt>
      <trkpt lat="43.76622" lon="3.86662">
        <ele>100.6</ele>
        <time>2016-02-07T12:54:00Z</time>
      </trkpt>
      <trkpt lat="43.76742" lon="3.86727">
        <ele>103</ele>
        <time>2016-02-07T12:54:13Z</time>
      </trkpt>
      <trkpt lat="43.76835" lon="3.86762">
        <ele>103.48</ele>
        <time>2016-02-07T12:54:24Z</time>
      </trkpt>
      <trkpt lat="43.7692" lon="3.8679">
        <ele>103</ele>
        <time>2016-02-07T12:54:35Z</time>
      </trkpt>
      <trkpt lat="43.76998" lon="3.86821">
        <ele>103.48</ele>
        <time>2016-02-07T12:54:46Z</time>
      </trkpt>
      <trkpt lat="43.77062" lon="3.86843">
        <ele>103.48</ele>
        <time>2016-02-07T12:54:55Z</time>
      </trkpt>
      <trkpt lat="43.77158" lon="3.86879">
        <ele>104.44</ele>
        <time>2016-02-07T12:55:05Z</time>
      </trkpt>
      <trkpt lat="43.77321" lon="3.86939">
        <ele>110.21</ele>
        <time>2016-02-07T12:55:19Z</time>
      </trkpt>
      <trkpt lat="43.77381" lon="3.86956">
        <ele>112.61</ele>
        <time>2016-02-07T12:55:25Z</time>
      </trkpt>
      <trkpt lat="43.77387" lon="3.8696">
        <ele>112.61</ele>
        <time>2016-02-07T12:55:26Z</time>
      </trkpt>
      <trkpt lat="43.77393" lon="3.86968">
        <ele>113.09</ele>
        <time>2016-02-07T12:55:27Z</time>
      </trkpt>
      <trkpt lat="43.77395" lon="3.86981">
        <ele>113.57</ele>
        <time>2016-02-07T12:55:28Z</time>
      </trkpt>
      <trkpt lat="43.77395" lon="3.86995">
        <ele>112.61</ele>
        <time>2016-02-07T12:55:29Z</time>
      </trkpt>
      <trkpt lat="43.77399" lon="3.8701">
        <ele>112.61</ele>
        <time>2016-02-07T12:55:30Z</time>
      </trkpt>
      <trkpt lat="43.77404" lon="3.87022">
        <ele>112.61</ele>
        <time>2016-02-07T12:55:31Z</time>
      </trkpt>
      <trkpt lat="43.77414" lon="3.87029">
        <ele>113.09</ele>
        <time>2016-02-07T12:55:32Z</time>
      </trkpt>
      <trkpt lat="43.77425" lon="3.87031">
        <ele>113.09</ele>
        <time>2016-02-07T12:55:33Z</time>
      </trkpt>
      <trkpt lat="43.77436" lon="3.87028">
        <ele>112.61</ele>
        <time>2016-02-07T12:55:34Z</time>
      </trkpt>
      <trkpt lat="43.77446" lon="3.87023">
        <ele>112.61</ele>
        <time>2016-02-07T12:55:35Z</time>
      </trkpt>
      <trkpt lat="43.77456" lon="3.87016">
        <ele>112.13</ele>
        <time>2016-02-07T12:55:36Z</time>
      </trkpt>
      <trkpt lat="43.77466" lon="3.87011">
        <ele>111.65</ele>
        <time>2016-02-07T12:55:37Z</time>
      </trkpt>
      <trkpt lat="43.77477" lon="3.87009">
        <ele>111.65</ele>
        <time>2016-02-07T12:55:38Z</time>
      </trkpt>
      <trkpt lat="43.77489" lon="3.87009">
        <ele>112.13</ele>
        <time>2016-02-07T12:55:39Z</time>
      </trkpt>
      <trkpt lat="43.77502" lon="3.8701">
        <ele>112.13</ele>
        <time>2016-02-07T12:55:40Z</time>
      </trkpt>
      <trkpt lat="43.77605" lon="3.8704">
        <ele>114.53</ele>
        <time>2016-02-07T12:55:46Z</time>
      </trkpt>
      <trkpt lat="43.77803" lon="3.87105">
        <ele>117.9</ele>
        <time>2016-02-07T12:55:56Z</time>
      </trkpt>
      <trkpt lat="43.78001" lon="3.87167">
        <ele>121.74</ele>
        <time>2016-02-07T12:56:06Z</time>
      </trkpt>
      <trkpt lat="43.7832" lon="3.87268">
        <ele>127.51</ele>
        <time>2016-02-07T12:56:22Z</time>
      </trkpt>
      <trkpt lat="43.78642" lon="3.87371">
        <ele>133.28</ele>
        <time>2016-02-07T12:56:38Z</time>
      </trkpt>
      <trkpt lat="43.79037" lon="3.87494">
        <ele>134.72</ele>
        <time>2016-02-07T12:56:57Z</time>
      </trkpt>
      <trkpt lat="43.79311" lon="3.87564">
        <ele>139.05</ele>
        <time>2016-02-07T12:57:10Z</time>
      </trkpt>
      <trkpt lat="43.79601" lon="3.87629">
        <ele>146.26</ele>
        <time>2016-02-07T12:57:24Z</time>
      </trkpt>
      <trkpt lat="43.79897" lon="3.87699">
        <ele>153.47</ele>
        <time>2016-02-07T12:57:39Z</time>
      </trkpt>
      <trkpt lat="43.80049" lon="3.87775">
        <ele>147.7</ele>
        <time>2016-02-07T12:57:47Z</time>
      </trkpt>
      <trkpt lat="43.80221" lon="3.87879">
        <ele>145.78</ele>
        <time>2016-02-07T12:57:57Z</time>
      </trkpt>
      <trkpt lat="43.80273" lon="3.87912">
        <ele>145.78</ele>
        <time>2016-02-07T12:58:02Z</time>
      </trkpt>
      <trkpt lat="43.8028" lon="3.8792">
        <ele>146.26</ele>
        <time>2016-02-07T12:58:03Z</time>
      </trkpt>
      <trkpt lat="43.80291" lon="3.87936">
        <ele>146.26</ele>
        <time>2016-02-07T12:58:05Z</time>
      </trkpt>
      <trkpt lat="43.80297" lon="3.87938">
        <ele>146.26</ele>
        <time>2016-02-07T12:58:06Z</time>
      </trkpt>
      <trkpt lat="43.80303" lon="3.87933">
        <ele>146.26</ele>
        <time>2016-02-07T12:58:07Z</time>
      </trkpt>
      <trkpt lat="43.80307" lon="3.87924">
        <ele>145.78</ele>
        <time>2016-02-07T12:58:08Z</time>
      </trkpt>
      <trkpt lat="43.80307" lon="3.87914">
        <ele>145.78</ele>
        <time>2016-02-07T12:58:09Z</time>
      </trkpt>
      <trkpt lat="43.80305" lon="3.87903">
        <ele>145.78</ele>
        <time>2016-02-07T12:58:10Z</time>
      </trkpt>
      <trkpt lat="43.80303" lon="3.8789">
        <ele>145.78</ele>
        <time>2016-02-07T12:58:11Z</time>
      </trkpt>
      <trkpt lat="43.80303" lon="3.87877">
        <ele>145.78</ele>
        <time>2016-02-07T12:58:12Z</time>
      </trkpt>
      <trkpt lat="43.80305" lon="3.87861">
        <ele>145.78</ele>
        <time>2016-02-07T12:58:13Z</time>
      </trkpt>
      <trkpt lat="43.80309" lon="3.87843">
        <ele>145.3</ele>
        <time>2016-02-07T12:58:14Z</time>
      </trkpt>
      <trkpt lat="43.80355" lon="3.87617">
        <ele>148.66</ele>
        <time>2016-02-07T12:58:27Z</time>
      </trkpt>
      <trkpt lat="43.80399" lon="3.87359">
        <ele>150.58</ele>
        <time>2016-02-07T12:58:42Z</time>
      </trkpt>
      <trkpt lat="43.80408" lon="3.87288">
        <ele>149.62</ele>
        <time>2016-02-07T12:58:47Z</time>
      </trkpt>
      <trkpt lat="43.80412" lon="3.87278">
        <ele>149.62</ele>
        <time>2016-02-07T12:58:48Z</time>
      </trkpt>
      <trkpt lat="43.80428" lon="3.87243">
        <ele>149.62</ele>
        <time>2016-02-07T12:58:51Z</time>
      </trkpt>
      <trkpt lat="43.80437" lon="3.87231">
        <ele>149.62</ele>
        <time>2016-02-07T12:58:52Z</time>
      </trkpt>
      <trkpt lat="43.80448" lon="3.8722">
        <ele>149.62</ele>
        <time>2016-02-07T12:58:53Z</time>
      </trkpt>
      <trkpt lat="43.80459" lon="3.87211">
        <ele>149.62</ele>
        <time>2016-02-07T12:58:54Z</time>
      </trkpt>
      <trkpt lat="43.80472" lon="3.87204">
        <ele>150.1</ele>
        <time>2016-02-07T12:58:55Z</time>
      </trkpt>
      <trkpt lat="43.80484" lon="3.87196">
        <ele>150.1</ele>
        <time>2016-02-07T12:58:56Z</time>
      </trkpt>
      <trkpt lat="43.80638" lon="3.871">
        <ele>155.39</ele>
        <time>2016-02-07T12:59:09Z</time>
      </trkpt>
      <trkpt lat="43.80775" lon="3.87013">
        <ele>158.27</ele>
        <time>2016-02-07T12:59:18Z</time>
      </trkpt>
      <trkpt lat="43.80857" lon="3.86958">
        <ele>160.2</ele>
        <time>2016-02-07T12:59:24Z</time>
      </trkpt>
      <trkpt lat="43.80868" lon="3.86945">
        <ele>160.2</ele>
        <time>2016-02-07T12:59:25Z</time>
      </trkpt>
      <trkpt lat="43.80877" lon="3.86929">
        <ele>160.2</ele>
        <time>2016-02-07T12:59:26Z</time>
      </trkpt>
      <trkpt lat="43.80885" lon="3.86911">
        <ele>160.2</ele>
        <time>2016-02-07T12:59:27Z</time>
      </trkpt>
      <trkpt lat="43.80893" lon="3.86893">
        <ele>160.2</ele>
        <time>2016-02-07T12:59:28Z</time>
      </trkpt>
      <trkpt lat="43.80988" lon="3.86686">
        <ele>162.6</ele>
        <time>2016-02-07T12:59:38Z</time>
      </trkpt>
      <trkpt lat="43.8105" lon="3.86563">
        <ele>164.52</ele>
        <time>2016-02-07T12:59:44Z</time>
      </trkpt>
      <trkpt lat="43.81064" lon="3.86544">
        <ele>165.48</ele>
        <time>2016-02-07T12:59:45Z</time>
      </trkpt>
      <trkpt lat="43.81212" lon="3.8637">
        <ele>172.21</ele>
        <time>2016-02-07T12:59:56Z</time>
      </trkpt>
      <trkpt lat="43.81348" lon="3.86218">
        <ele>178.94</ele>
        <time>2016-02-07T13:00:06Z</time>
      </trkpt>
      <trkpt lat="43.81364" lon="3.86208">
        <ele>179.42</ele>
        <time>2016-02-07T13:00:07Z</time>
      </trkpt>
      <trkpt lat="43.81381" lon="3.86201">
        <ele>179.9</ele>
        <time>2016-02-07T13:00:08Z</time>
      </trkpt>
      <trkpt lat="43.81398" lon="3.86196">
        <ele>180.87</ele>
        <time>2016-02-07T13:00:09Z</time>
      </trkpt>
      <trkpt lat="43.81414" lon="3.86192">
        <ele>181.35</ele>
        <time>2016-02-07T13:00:10Z</time>
      </trkpt>
      <trkpt lat="43.81468" lon="3.86176">
        <ele>184.23</ele>
        <time>2016-02-07T13:00:14Z</time>
      </trkpt>
      <trkpt lat="43.81481" lon="3.86169">
        <ele>185.19</ele>
        <time>2016-02-07T13:00:15Z</time>
      </trkpt>
      <trkpt lat="43.81493" lon="3.8616">
        <ele>186.15</ele>
        <time>2016-02-07T13:00:16Z</time>
      </trkpt>
      <trkpt lat="43.81504" lon="3.86151">
        <ele>186.63</ele>
        <time>2016-02-07T13:00:17Z</time>
      </trkpt>
      <trkpt lat="43.81513" lon="3.86141">
        <ele>187.59</ele>
        <time>2016-02-07T13:00:18Z</time>
      </trkpt>
      <trkpt lat="43.8152" lon="3.86129">
        <ele>188.08</ele>
        <time>2016-02-07T13:00:19Z</time>
      </trkpt>
      <trkpt lat="43.81521" lon="3.86114">
        <ele>188.56</ele>
        <time>2016-02-07T13:00:20Z</time>
      </trkpt>
      <trkpt lat="43.81518" lon="3.86098">
        <ele>189.04</ele>
        <time>2016-02-07T13:00:21Z</time>
      </trkpt>
      <trkpt lat="43.81513" lon="3.86082">
        <ele>189.52</ele>
        <time>2016-02-07T13:00:22Z</time>
      </trkpt>
      <trkpt lat="43.81505" lon="3.86063">
        <ele>190</ele>
        <time>2016-02-07T13:00:23Z</time>
      </trkpt>
      <trkpt lat="43.81498" lon="3.86043">
        <ele>190.48</ele>
        <time>2016-02-07T13:00:24Z</time>
      </trkpt>
      <trkpt lat="43.81489" lon="3.86022">
        <ele>190.48</ele>
        <time>2016-02-07T13:00:25Z</time>
      </trkpt>
      <trkpt lat="43.81447" lon="3.85914">
        <ele>193.84</ele>
        <time>2016-02-07T13:00:30Z</time>
      </trkpt>
      <trkpt lat="43.81436" lon="3.85895">
        <ele>194.32</ele>
        <time>2016-02-07T13:00:31Z</time>
      </trkpt>
      <trkpt lat="43.81425" lon="3.8588">
        <ele>195.28</ele>
        <time>2016-02-07T13:00:32Z</time>
      </trkpt>
      <trkpt lat="43.81393" lon="3.85842">
        <ele>197.21</ele>
        <time>2016-02-07T13:00:36Z</time>
      </trkpt>
      <trkpt lat="43.8139" lon="3.85835">
        <ele>197.69</ele>
        <time>2016-02-07T13:00:37Z</time>
      </trkpt>
      <trkpt lat="43.8139" lon="3.85828">
        <ele>198.17</ele>
        <time>2016-02-07T13:00:38Z</time>
      </trkpt>
      <trkpt lat="43.81394" lon="3.85826">
        <ele>198.65</ele>
        <time>2016-02-07T13:00:39Z</time>
      </trkpt>
      <trkpt lat="43.81401" lon="3.85828">
        <ele>199.61</ele>
        <time>2016-02-07T13:00:40Z</time>
      </trkpt>
      <trkpt lat="43.81408" lon="3.85835">
        <ele>200.09</ele>
        <time>2016-02-07T13:00:41Z</time>
      </trkpt>
      <trkpt lat="43.81416" lon="3.85843">
        <ele>200.09</ele>
        <time>2016-02-07T13:00:42Z</time>
      </trkpt>
      <trkpt lat="43.81426" lon="3.85851">
        <ele>200.57</ele>
        <time>2016-02-07T13:00:43Z</time>
      </trkpt>
      <trkpt lat="43.81438" lon="3.85857">
        <ele>201.05</ele>
        <time>2016-02-07T13:00:44Z</time>
      </trkpt>
      <trkpt lat="43.81451" lon="3.85861">
        <ele>201.53</ele>
        <time>2016-02-07T13:00:45Z</time>
      </trkpt>
      <trkpt lat="43.81466" lon="3.85863">
        <ele>202.01</ele>
        <time>2016-02-07T13:00:46Z</time>
      </trkpt>
      <trkpt lat="43.8148" lon="3.85863">
        <ele>202.49</ele>
        <time>2016-02-07T13:00:47Z</time>
      </trkpt>
      <trkpt lat="43.81495" lon="3.8586">
        <ele>202.98</ele>
        <time>2016-02-07T13:00:48Z</time>
      </trkpt>
      <trkpt lat="43.8151" lon="3.85857">
        <ele>202.98</ele>
        <time>2016-02-07T13:00:49Z</time>
      </trkpt>
      <trkpt lat="43.81527" lon="3.85859">
        <ele>202.98</ele>
        <time>2016-02-07T13:00:50Z</time>
      </trkpt>
      <trkpt lat="43.81543" lon="3.85864">
        <ele>203.94</ele>
        <time>2016-02-07T13:00:51Z</time>
      </trkpt>
      <trkpt lat="43.81559" lon="3.8587">
        <ele>204.9</ele>
        <time>2016-02-07T13:00:52Z</time>
      </trkpt>
      <trkpt lat="43.81575" lon="3.85874">
        <ele>205.38</ele>
        <time>2016-02-07T13:00:53Z</time>
      </trkpt>
      <trkpt lat="43.8163" lon="3.85881">
        <ele>208.26</ele>
        <time>2016-02-07T13:00:57Z</time>
      </trkpt>
      <trkpt lat="43.81643" lon="3.85875">
        <ele>209.22</ele>
        <time>2016-02-07T13:00:58Z</time>
      </trkpt>
      <trkpt lat="43.81655" lon="3.85868">
        <ele>210.19</ele>
        <time>2016-02-07T13:00:59Z</time>
      </trkpt>
      <trkpt lat="43.81681" lon="3.85855">
        <ele>212.11</ele>
        <time>2016-02-07T13:01:01Z</time>
      </trkpt>
      <trkpt lat="43.81694" lon="3.85855">
        <ele>213.07</ele>
        <time>2016-02-07T13:01:02Z</time>
      </trkpt>
      <trkpt lat="43.81709" lon="3.85861">
        <ele>214.51</ele>
        <time>2016-02-07T13:01:04Z</time>
      </trkpt>
      <trkpt lat="43.81724" lon="3.85853">
        <ele>215.95</ele>
        <time>2016-02-07T13:01:07Z</time>
      </trkpt>
      <trkpt lat="43.81721" lon="3.85846">
        <ele>215.95</ele>
        <time>2016-02-07T13:01:08Z</time>
      </trkpt>
      <trkpt lat="43.81715" lon="3.85839">
        <ele>215.95</ele>
        <time>2016-02-07T13:01:09Z</time>
      </trkpt>
      <trkpt lat="43.81705" lon="3.85833">
        <ele>215.47</ele>
        <time>2016-02-07T13:01:10Z</time>
      </trkpt>
      <trkpt lat="43.81692" lon="3.85828">
        <ele>215.47</ele>
        <time>2016-02-07T13:01:11Z</time>
      </trkpt>
      <trkpt lat="43.81676" lon="3.85825">
        <ele>215.95</ele>
        <time>2016-02-07T13:01:12Z</time>
      </trkpt>
      <trkpt lat="43.81659" lon="3.85823">
        <ele>216.91</ele>
        <time>2016-02-07T13:01:13Z</time>
      </trkpt>
      <trkpt lat="43.81645" lon="3.85823">
        <ele>218.84</ele>
        <time>2016-02-07T13:01:14Z</time>
      </trkpt>
      <trkpt lat="43.81631" lon="3.85821">
        <ele>219.8</ele>
        <time>2016-02-07T13:01:15Z</time>
      </trkpt>
      <trkpt lat="43.81617" lon="3.85817">
        <ele>220.28</ele>
        <time>2016-02-07T13:01:16Z</time>
      </trkpt>
      <trkpt lat="43.81603" lon="3.8581">
        <ele>221.72</ele>
        <time>2016-02-07T13:01:17Z</time>
      </trkpt>
      <trkpt lat="43.81591" lon="3.858">
        <ele>222.2</ele>
        <time>2016-02-07T13:01:18Z</time>
      </trkpt>
      <trkpt lat="43.81578" lon="3.85789">
        <ele>223.64</ele>
        <time>2016-02-07T13:01:19Z</time>
      </trkpt>
      <trkpt lat="43.81488" lon="3.85695">
        <ele>231.81</ele>
        <time>2016-02-07T13:01:26Z</time>
      </trkpt>
      <trkpt lat="43.81416" lon="3.85535">
        <ele>240.95</ele>
        <time>2016-02-07T13:01:34Z</time>
      </trkpt>
      <trkpt lat="43.81345" lon="3.85385">
        <ele>249.6</ele>
        <time>2016-02-07T13:01:42Z</time>
      </trkpt>
      <trkpt lat="43.81316" lon="3.85338">
        <ele>253.44</ele>
        <time>2016-02-07T13:01:47Z</time>
      </trkpt>
      <trkpt lat="43.81314" lon="3.8533">
        <ele>253.93</ele>
        <time>2016-02-07T13:01:48Z</time>
      </trkpt>
      <trkpt lat="43.81317" lon="3.85327">
        <ele>254.41</ele>
        <time>2016-02-07T13:01:49Z</time>
      </trkpt>
      <trkpt lat="43.81326" lon="3.85328">
        <ele>254.89</ele>
        <time>2016-02-07T13:01:50Z</time>
      </trkpt>
      <trkpt lat="43.81333" lon="3.85334">
        <ele>255.37</ele>
        <time>2016-02-07T13:01:51Z</time>
      </trkpt>
      <trkpt lat="43.8134" lon="3.85343">
        <ele>255.37</ele>
        <time>2016-02-07T13:01:52Z</time>
      </trkpt>
      <trkpt lat="43.81347" lon="3.85356">
        <ele>256.33</ele>
        <time>2016-02-07T13:01:53Z</time>
      </trkpt>
      <trkpt lat="43.81357" lon="3.85372">
        <ele>256.81</ele>
        <time>2016-02-07T13:01:54Z</time>
      </trkpt>
      <trkpt lat="43.81368" lon="3.85388">
        <ele>257.77</ele>
        <time>2016-02-07T13:01:55Z</time>
      </trkpt>
      <trkpt lat="43.81483" lon="3.85539">
        <ele>268.35</ele>
        <time>2016-02-07T13:02:04Z</time>
      </trkpt>
      <trkpt lat="43.81562" lon="3.85637">
        <ele>275.56</ele>
        <time>2016-02-07T13:02:10Z</time>
      </trkpt>
      <trkpt lat="43.81575" lon="3.85646">
        <ele>277</ele>
        <time>2016-02-07T13:02:11Z</time>
      </trkpt>
      <trkpt lat="43.8159" lon="3.85653">
        <ele>277.96</ele>
        <time>2016-02-07T13:02:12Z</time>
      </trkpt>
      <trkpt lat="43.81606" lon="3.85658">
        <ele>279.4</ele>
        <time>2016-02-07T13:02:13Z</time>
      </trkpt>
      <trkpt lat="43.81622" lon="3.85661">
        <ele>280.36</ele>
        <time>2016-02-07T13:02:14Z</time>
      </trkpt>
      <trkpt lat="43.81699" lon="3.85672">
        <ele>283.73</ele>
        <time>2016-02-07T13:02:19Z</time>
      </trkpt>
      <trkpt lat="43.81714" lon="3.85669">
        <ele>284.69</ele>
        <time>2016-02-07T13:02:20Z</time>
      </trkpt>
      <trkpt lat="43.8173" lon="3.85663">
        <ele>285.17</ele>
        <time>2016-02-07T13:02:21Z</time>
      </trkpt>
      <trkpt lat="43.81831" lon="3.85606">
        <ele>290.46</ele>
        <time>2016-02-07T13:02:28Z</time>
      </trkpt>
      <trkpt lat="43.81841" lon="3.85595">
        <ele>290.94</ele>
        <time>2016-02-07T13:02:29Z</time>
      </trkpt>
      <trkpt lat="43.81846" lon="3.85584">
        <ele>291.9</ele>
        <time>2016-02-07T13:02:30Z</time>
      </trkpt>
      <trkpt lat="43.81844" lon="3.8557">
        <ele>291.9</ele>
        <time>2016-02-07T13:02:31Z</time>
      </trkpt>
      <trkpt lat="43.81842" lon="3.85558">
        <ele>292.38</ele>
        <time>2016-02-07T13:02:32Z</time>
      </trkpt>
      <trkpt lat="43.81837" lon="3.85547">
        <ele>292.38</ele>
        <time>2016-02-07T13:02:33Z</time>
      </trkpt>
      <trkpt lat="43.81832" lon="3.85539">
        <ele>292.86</ele>
        <time>2016-02-07T13:02:34Z</time>
      </trkpt>
      <trkpt lat="43.81828" lon="3.85531">
        <ele>293.34</ele>
        <time>2016-02-07T13:02:35Z</time>
      </trkpt>
      <trkpt lat="43.81827" lon="3.85522">
        <ele>293.82</ele>
        <time>2016-02-07T13:02:36Z</time>
      </trkpt>
      <trkpt lat="43.81829" lon="3.85517">
        <ele>293.82</ele>
        <time>2016-02-07T13:02:37Z</time>
      </trkpt>
      <trkpt lat="43.81837" lon="3.85516">
        <ele>294.3</ele>
        <time>2016-02-07T13:02:38Z</time>
      </trkpt>
      <trkpt lat="43.81845" lon="3.8552">
        <ele>295.26</ele>
        <time>2016-02-07T13:02:39Z</time>
      </trkpt>
      <trkpt lat="43.81857" lon="3.85528">
        <ele>295.74</ele>
        <time>2016-02-07T13:02:40Z</time>
      </trkpt>
      <trkpt lat="43.81872" lon="3.85538">
        <ele>297.18</ele>
        <time>2016-02-07T13:02:41Z</time>
      </trkpt>
      <trkpt lat="43.81888" lon="3.85548">
        <ele>298.15</ele>
        <time>2016-02-07T13:02:42Z</time>
      </trkpt>
      <trkpt lat="43.81902" lon="3.85557">
        <ele>299.11</ele>
        <time>2016-02-07T13:02:43Z</time>
      </trkpt>
      <trkpt lat="43.81923" lon="3.85575">
        <ele>300.07</ele>
        <time>2016-02-07T13:02:45Z</time>
      </trkpt>
      <trkpt lat="43.8193" lon="3.85584">
        <ele>300.55</ele>
        <time>2016-02-07T13:02:46Z</time>
      </trkpt>
      <trkpt lat="43.81941" lon="3.85597">
        <ele>301.51</ele>
        <time>2016-02-07T13:02:48Z</time>
      </trkpt>
      <trkpt lat="43.81945" lon="3.85599">
        <ele>301.99</ele>
        <time>2016-02-07T13:02:49Z</time>
      </trkpt>
      <trkpt lat="43.81952" lon="3.85587">
        <ele>301.99</ele>
        <time>2016-02-07T13:02:51Z</time>
      </trkpt>
      <trkpt lat="43.81951" lon="3.85578">
        <ele>301.99</ele>
        <time>2016-02-07T13:02:52Z</time>
      </trkpt>
      <trkpt lat="43.81945" lon="3.85568">
        <ele>301.99</ele>
        <time>2016-02-07T13:02:53Z</time>
      </trkpt>
      <trkpt lat="43.81937" lon="3.85556">
        <ele>302.95</ele>
        <time>2016-02-07T13:02:54Z</time>
      </trkpt>
      <trkpt lat="43.81927" lon="3.85543">
        <ele>303.43</ele>
        <time>2016-02-07T13:02:55Z</time>
      </trkpt>
      <trkpt lat="43.81895" lon="3.85502">
        <ele>306.32</ele>
        <time>2016-02-07T13:02:58Z</time>
      </trkpt>
      <trkpt lat="43.81882" lon="3.85491">
        <ele>307.28</ele>
        <time>2016-02-07T13:02:59Z</time>
      </trkpt>
      <trkpt lat="43.81787" lon="3.85385">
        <ele>314.01</ele>
        <time>2016-02-07T13:03:07Z</time>
      </trkpt>
      <trkpt lat="43.81763" lon="3.8535">
        <ele>315.93</ele>
        <time>2016-02-07T13:03:10Z</time>
      </trkpt>
      <trkpt lat="43.81754" lon="3.85346">
        <ele>316.89</ele>
        <time>2016-02-07T13:03:11Z</time>
      </trkpt>
      <trkpt lat="43.81744" lon="3.85347">
        <ele>317.37</ele>
        <time>2016-02-07T13:03:12Z</time>
      </trkpt>
      <trkpt lat="43.81734" lon="3.85352">
        <ele>318.33</ele>
        <time>2016-02-07T13:03:13Z</time>
      </trkpt>
      <trkpt lat="43.81723" lon="3.85358">
        <ele>319.3</ele>
        <time>2016-02-07T13:03:14Z</time>
      </trkpt>
      <trkpt lat="43.81712" lon="3.85362">
        <ele>319.78</ele>
        <time>2016-02-07T13:03:15Z</time>
      </trkpt>
      <trkpt lat="43.81701" lon="3.8536">
        <ele>320.74</ele>
        <time>2016-02-07T13:03:16Z</time>
      </trkpt>
      <trkpt lat="43.8169" lon="3.85354">
        <ele>321.22</ele>
        <time>2016-02-07T13:03:17Z</time>
      </trkpt>
      <trkpt lat="43.81682" lon="3.85345">
        <ele>321.7</ele>
        <time>2016-02-07T13:03:18Z</time>
      </trkpt>
      <trkpt lat="43.81675" lon="3.85331">
        <ele>322.66</ele>
        <time>2016-02-07T13:03:19Z</time>
      </trkpt>
      <trkpt lat="43.81674" lon="3.85314">
        <ele>323.62</ele>
        <time>2016-02-07T13:03:20Z</time>
      </trkpt>
      <trkpt lat="43.81675" lon="3.85295">
        <ele>323.62</ele>
        <time>2016-02-07T13:03:21Z</time>
      </trkpt>
      <trkpt lat="43.81678" lon="3.85274">
        <ele>324.1</ele>
        <time>2016-02-07T13:03:22Z</time>
      </trkpt>
      <trkpt lat="43.81683" lon="3.85253">
        <ele>324.1</ele>
        <time>2016-02-07T13:03:23Z</time>
      </trkpt>
      <trkpt lat="43.81691" lon="3.85233">
        <ele>324.58</ele>
        <time>2016-02-07T13:03:24Z</time>
      </trkpt>
      <trkpt lat="43.817" lon="3.85217">
        <ele>325.06</ele>
        <time>2016-02-07T13:03:25Z</time>
      </trkpt>
      <trkpt lat="43.81711" lon="3.85205">
        <ele>325.54</ele>
        <time>2016-02-07T13:03:26Z</time>
      </trkpt>
      <trkpt lat="43.81722" lon="3.85202">
        <ele>325.06</ele>
        <time>2016-02-07T13:03:27Z</time>
      </trkpt>
      <trkpt lat="43.81733" lon="3.85202">
        <ele>325.06</ele>
        <time>2016-02-07T13:03:28Z</time>
      </trkpt>
      <trkpt lat="43.81746" lon="3.85206">
        <ele>326.02</ele>
        <time>2016-02-07T13:03:29Z</time>
      </trkpt>
      <trkpt lat="43.81761" lon="3.85215">
        <ele>326.02</ele>
        <time>2016-02-07T13:03:30Z</time>
      </trkpt>
      <trkpt lat="43.81776" lon="3.85227">
        <ele>325.54</ele>
        <time>2016-02-07T13:03:31Z</time>
      </trkpt>
      <trkpt lat="43.81792" lon="3.8524">
        <ele>325.06</ele>
        <time>2016-02-07T13:03:32Z</time>
      </trkpt>
      <trkpt lat="43.81959" lon="3.85369">
        <ele>328.91</ele>
        <time>2016-02-07T13:03:41Z</time>
      </trkpt>
      <trkpt lat="43.82193" lon="3.85544">
        <ele>331.31</ele>
        <time>2016-02-07T13:03:54Z</time>
      </trkpt>
      <trkpt lat="43.82412" lon="3.85704">
        <ele>330.83</ele>
        <time>2016-02-07T13:04:06Z</time>
      </trkpt>
      <trkpt lat="43.82431" lon="3.85712">
        <ele>331.31</ele>
        <time>2016-02-07T13:04:07Z</time>
      </trkpt>
      <trkpt lat="43.82449" lon="3.85717">
        <ele>331.79</ele>
        <time>2016-02-07T13:04:08Z</time>
      </trkpt>
      <trkpt lat="43.82468" lon="3.8572">
        <ele>332.27</ele>
        <time>2016-02-07T13:04:09Z</time>
      </trkpt>
      <trkpt lat="43.82652" lon="3.85738">
        <ele>329.87</ele>
        <time>2016-02-07T13:04:19Z</time>
      </trkpt>
      <trkpt lat="43.8267" lon="3.85746">
        <ele>329.39</ele>
        <time>2016-02-07T13:04:20Z</time>
      </trkpt>
      <trkpt lat="43.82686" lon="3.8576">
        <ele>328.91</ele>
        <time>2016-02-07T13:04:21Z</time>
      </trkpt>
      <trkpt lat="43.82702" lon="3.85776">
        <ele>328.43</ele>
        <time>2016-02-07T13:04:22Z</time>
      </trkpt>
      <trkpt lat="43.82716" lon="3.85794">
        <ele>328.43</ele>
        <time>2016-02-07T13:04:23Z</time>
      </trkpt>
      <trkpt lat="43.82747" lon="3.85826">
        <ele>328.43</ele>
        <time>2016-02-07T13:04:25Z</time>
      </trkpt>
      <trkpt lat="43.82765" lon="3.85837">
        <ele>328.43</ele>
        <time>2016-02-07T13:04:26Z</time>
      </trkpt>
      <trkpt lat="43.82783" lon="3.85842">
        <ele>328.43</ele>
        <time>2016-02-07T13:04:27Z</time>
      </trkpt>
      <trkpt lat="43.82801" lon="3.85845">
        <ele>328.91</ele>
        <time>2016-02-07T13:04:28Z</time>
      </trkpt>
      <trkpt lat="43.8282" lon="3.85846">
        <ele>328.91</ele>
        <time>2016-02-07T13:04:29Z</time>
      </trkpt>
      <trkpt lat="43.8284" lon="3.85845">
        <ele>328.43</ele>
        <time>2016-02-07T13:04:30Z</time>
      </trkpt>
      <trkpt lat="43.82861" lon="3.85842">
        <ele>328.43</ele>
        <time>2016-02-07T13:04:31Z</time>
      </trkpt>
      <trkpt lat="43.83069" lon="3.85822">
        <ele>324.58</ele>
        <time>2016-02-07T13:04:41Z</time>
      </trkpt>
      <trkpt lat="43.83395" lon="3.85793">
        <ele>320.74</ele>
        <time>2016-02-07T13:04:57Z</time>
      </trkpt>
      <trkpt lat="43.83699" lon="3.85766">
        <ele>319.3</ele>
        <time>2016-02-07T13:05:12Z</time>
      </trkpt>
      <trkpt lat="43.83992" lon="3.85729">
        <ele>320.74</ele>
        <time>2016-02-07T13:05:26Z</time>
      </trkpt>
      <trkpt lat="43.84311" lon="3.85629">
        <ele>320.74</ele>
        <time>2016-02-07T13:05:42Z</time>
      </trkpt>
      <trkpt lat="43.84583" lon="3.85544">
        <ele>313.53</ele>
        <time>2016-02-07T13:05:55Z</time>
      </trkpt>
      <trkpt lat="43.84899" lon="3.85445">
        <ele>315.45</ele>
        <time>2016-02-07T13:06:10Z</time>
      </trkpt>
      <trkpt lat="43.85218" lon="3.85369">
        <ele>319.78</ele>
        <time>2016-02-07T13:06:25Z</time>
      </trkpt>
      <trkpt lat="43.85554" lon="3.85341">
        <ele>317.85</ele>
        <time>2016-02-07T13:06:40Z</time>
      </trkpt>
      <trkpt lat="43.85934" lon="3.85311">
        <ele>320.74</ele>
        <time>2016-02-07T13:06:57Z</time>
      </trkpt>
      <trkpt lat="43.86298" lon="3.85281">
        <ele>323.14</ele>
        <time>2016-02-07T13:07:13Z</time>
      </trkpt>
      <trkpt lat="43.86565" lon="3.85232">
        <ele>326.02</ele>
        <time>2016-02-07T13:07:25Z</time>
      </trkpt>
      <trkpt lat="43.86891" lon="3.8516">
        <ele>325.54</ele>
        <time>2016-02-07T13:07:40Z</time>
      </trkpt>
      <trkpt lat="43.87001" lon="3.85146">
        <ele>323.62</ele>
        <time>2016-02-07T13:07:45Z</time>
      </trkpt>
      <trkpt lat="43.87024" lon="3.8515">
        <ele>323.62</ele>
        <time>2016-02-07T13:07:46Z</time>
      </trkpt>
      <trkpt lat="43.87206" lon="3.85196">
        <ele>326.5</ele>
        <time>2016-02-07T13:07:55Z</time>
      </trkpt>
      <trkpt lat="43.87291" lon="3.85219">
        <ele>329.39</ele>
        <time>2016-02-07T13:08:02Z</time>
      </trkpt>
      <trkpt lat="43.87305" lon="3.85222">
        <ele>329.87</ele>
        <time>2016-02-07T13:08:04Z</time>
      </trkpt>
      <trkpt lat="43.8731" lon="3.85221">
        <ele>329.87</ele>
        <time>2016-02-07T13:08:05Z</time>
      </trkpt>
      <trkpt lat="43.87313" lon="3.85217">
        <ele>330.35</ele>
        <time>2016-02-07T13:08:06Z</time>
      </trkpt>
      <trkpt lat="43.87313" lon="3.85211">
        <ele>329.87</ele>
        <time>2016-02-07T13:08:07Z</time>
      </trkpt>
      <trkpt lat="43.87311" lon="3.85205">
        <ele>329.87</ele>
        <time>2016-02-07T13:08:08Z</time>
      </trkpt>
      <trkpt lat="43.87308" lon="3.85198">
        <ele>329.87</ele>
        <time>2016-02-07T13:08:09Z</time>
      </trkpt>
      <trkpt lat="43.87303" lon="3.85189">
        <ele>329.39</ele>
        <time>2016-02-07T13:08:10Z</time>
      </trkpt>
      <trkpt lat="43.87254" lon="3.85103">
        <ele>328.43</ele>
        <time>2016-02-07T13:08:16Z</time>
      </trkpt>
      <trkpt lat="43.87176" lon="3.84968">
        <ele>328.91</ele>
        <time>2016-02-07T13:08:24Z</time>
      </trkpt>
      <trkpt lat="43.87163" lon="3.84952">
        <ele>328.91</ele>
        <time>2016-02-07T13:08:25Z</time>
      </trkpt>
      <trkpt lat="43.87148" lon="3.84937">
        <ele>328.91</ele>
        <time>2016-02-07T13:08:26Z</time>
      </trkpt>
      <trkpt lat="43.86999" lon="3.84792">
        <ele>329.87</ele>
        <time>2016-02-07T13:08:36Z</time>
      </trkpt>
      <trkpt lat="43.86976" lon="3.84755">
        <ele>329.87</ele>
        <time>2016-02-07T13:08:38Z</time>
      </trkpt>
      <trkpt lat="43.86966" lon="3.84734">
        <ele>329.87</ele>
        <time>2016-02-07T13:08:39Z</time>
      </trkpt>
      <trkpt lat="43.86957" lon="3.8471">
        <ele>329.87</ele>
        <time>2016-02-07T13:08:40Z</time>
      </trkpt>
      <trkpt lat="43.86868" lon="3.8446">
        <ele>327.95</ele>
        <time>2016-02-07T13:08:50Z</time>
      </trkpt>
      <trkpt lat="43.86845" lon="3.844">
        <ele>326.99</ele>
        <time>2016-02-07T13:08:53Z</time>
      </trkpt>
      <trkpt lat="43.86836" lon="3.84385">
        <ele>326.5</ele>
        <time>2016-02-07T13:08:54Z</time>
      </trkpt>
      <trkpt lat="43.86825" lon="3.84371">
        <ele>326.02</ele>
        <time>2016-02-07T13:08:55Z</time>
      </trkpt>
      <trkpt lat="43.86812" lon="3.84361">
        <ele>325.54</ele>
        <time>2016-02-07T13:08:56Z</time>
      </trkpt>
      <trkpt lat="43.86798" lon="3.84352">
        <ele>325.54</ele>
        <time>2016-02-07T13:08:57Z</time>
      </trkpt>
      <trkpt lat="43.86781" lon="3.84345">
        <ele>325.54</ele>
        <time>2016-02-07T13:08:58Z</time>
      </trkpt>
      <trkpt lat="43.86763" lon="3.84338">
        <ele>325.54</ele>
        <time>2016-02-07T13:08:59Z</time>
      </trkpt>
      <trkpt lat="43.86656" lon="3.84293">
        <ele>325.54</ele>
        <time>2016-02-07T13:09:05Z</time>
      </trkpt>
      <trkpt lat="43.8664" lon="3.84281">
        <ele>325.54</ele>
        <time>2016-02-07T13:09:06Z</time>
      </trkpt>
      <trkpt lat="43.86626" lon="3.84266">
        <ele>325.54</ele>
        <time>2016-02-07T13:09:07Z</time>
      </trkpt>
      <trkpt lat="43.86612" lon="3.8425">
        <ele>325.54</ele>
        <time>2016-02-07T13:09:08Z</time>
      </trkpt>
      <trkpt lat="43.866" lon="3.84231">
        <ele>326.02</ele>
        <time>2016-02-07T13:09:09Z</time>
      </trkpt>
      <trkpt lat="43.8659" lon="3.84211">
        <ele>326.99</ele>
        <time>2016-02-07T13:09:10Z</time>
      </trkpt>
      <trkpt lat="43.86582" lon="3.8419">
        <ele>327.47</ele>
        <time>2016-02-07T13:09:11Z</time>
      </trkpt>
      <trkpt lat="43.86575" lon="3.84168">
        <ele>327.95</ele>
        <time>2016-02-07T13:09:12Z</time>
      </trkpt>
      <trkpt lat="43.86568" lon="3.84146">
        <ele>327.95</ele>
        <time>2016-02-07T13:09:13Z</time>
      </trkpt>
      <trkpt lat="43.86501" lon="3.83981">
        <ele>326.5</ele>
        <time>2016-02-07T13:09:21Z</time>
      </trkpt>
      <trkpt lat="43.86498" lon="3.83956">
        <ele>326.5</ele>
        <time>2016-02-07T13:09:22Z</time>
      </trkpt>
      <trkpt lat="43.86497" lon="3.8393">
        <ele>326.02</ele>
        <time>2016-02-07T13:09:23Z</time>
      </trkpt>
      <trkpt lat="43.86496" lon="3.83903">
        <ele>325.54</ele>
        <time>2016-02-07T13:09:24Z</time>
      </trkpt>
      <trkpt lat="43.86495" lon="3.83876">
        <ele>325.06</ele>
        <time>2016-02-07T13:09:25Z</time>
      </trkpt>
      <trkpt lat="43.86494" lon="3.83756">
        <ele>320.74</ele>
        <time>2016-02-07T13:09:30Z</time>
      </trkpt>
      <trkpt lat="43.86498" lon="3.83736">
        <ele>320.26</ele>
        <time>2016-02-07T13:09:31Z</time>
      </trkpt>
      <trkpt lat="43.86505" lon="3.83719">
        <ele>319.3</ele>
        <time>2016-02-07T13:09:32Z</time>
      </trkpt>
      <trkpt lat="43.86516" lon="3.83706">
        <ele>318.81</ele>
        <time>2016-02-07T13:09:33Z</time>
      </trkpt>
      <trkpt lat="43.86527" lon="3.83692">
        <ele>318.33</ele>
        <time>2016-02-07T13:09:34Z</time>
      </trkpt>
      <trkpt lat="43.86538" lon="3.83676">
        <ele>317.85</ele>
        <time>2016-02-07T13:09:35Z</time>
      </trkpt>
      <trkpt lat="43.86546" lon="3.83658">
        <ele>317.37</ele>
        <time>2016-02-07T13:09:36Z</time>
      </trkpt>
      <trkpt lat="43.86552" lon="3.83638">
        <ele>316.89</ele>
        <time>2016-02-07T13:09:37Z</time>
      </trkpt>
      <trkpt lat="43.86556" lon="3.83617">
        <ele>316.89</ele>
        <time>2016-02-07T13:09:38Z</time>
      </trkpt>
      <trkpt lat="43.86558" lon="3.83594">
        <ele>316.41</ele>
        <time>2016-02-07T13:09:39Z</time>
      </trkpt>
      <trkpt lat="43.86557" lon="3.83571">
        <ele>315.93</ele>
        <time>2016-02-07T13:09:40Z</time>
      </trkpt>
      <trkpt lat="43.86557" lon="3.83546">
        <ele>315.45</ele>
        <time>2016-02-07T13:09:41Z</time>
      </trkpt>
      <trkpt lat="43.86552" lon="3.83371">
        <ele>310.64</ele>
        <time>2016-02-07T13:09:49Z</time>
      </trkpt>
      <trkpt lat="43.86545" lon="3.83357">
        <ele>310.64</ele>
        <time>2016-02-07T13:09:50Z</time>
      </trkpt>
      <trkpt lat="43.86534" lon="3.83343">
        <ele>310.16</ele>
        <time>2016-02-07T13:09:51Z</time>
      </trkpt>
      <trkpt lat="43.86521" lon="3.83327">
        <ele>310.64</ele>
        <time>2016-02-07T13:09:52Z</time>
      </trkpt>
      <trkpt lat="43.86507" lon="3.83311">
        <ele>311.12</ele>
        <time>2016-02-07T13:09:53Z</time>
      </trkpt>
      <trkpt lat="43.86432" lon="3.83226">
        <ele>311.12</ele>
        <time>2016-02-07T13:09:59Z</time>
      </trkpt>
      <trkpt lat="43.86424" lon="3.83209">
        <ele>311.12</ele>
        <time>2016-02-07T13:10:00Z</time>
      </trkpt>
      <trkpt lat="43.86421" lon="3.83189">
        <ele>310.64</ele>
        <time>2016-02-07T13:10:01Z</time>
      </trkpt>
      <trkpt lat="43.86422" lon="3.83167">
        <ele>310.16</ele>
        <time>2016-02-07T13:10:02Z</time>
      </trkpt>
      <trkpt lat="43.86425" lon="3.83144">
        <ele>310.16</ele>
        <time>2016-02-07T13:10:03Z</time>
      </trkpt>
      <trkpt lat="43.86428" lon="3.83118">
        <ele>310.16</ele>
        <time>2016-02-07T13:10:04Z</time>
      </trkpt>
      <trkpt lat="43.86446" lon="3.82944">
        <ele>310.16</ele>
        <time>2016-02-07T13:10:11Z</time>
      </trkpt>
      <trkpt lat="43.86452" lon="3.8292">
        <ele>309.68</ele>
        <time>2016-02-07T13:10:12Z</time>
      </trkpt>
      <trkpt lat="43.8646" lon="3.82897">
        <ele>309.68</ele>
        <time>2016-02-07T13:10:13Z</time>
      </trkpt>
      <trkpt lat="43.86482" lon="3.82824">
        <ele>309.2</ele>
        <time>2016-02-07T13:10:16Z</time>
      </trkpt>
      <trkpt lat="43.86512" lon="3.82656">
        <ele>308.72</ele>
        <time>2016-02-07T13:10:23Z</time>
      </trkpt>
      <trkpt lat="43.8652" lon="3.82637">
        <ele>308.72</ele>
        <time>2016-02-07T13:10:24Z</time>
      </trkpt>
      <trkpt lat="43.8653" lon="3.82619">
        <ele>308.72</ele>
        <time>2016-02-07T13:10:25Z</time>
      </trkpt>
      <trkpt lat="43.86543" lon="3.82604">
        <ele>308.24</ele>
        <time>2016-02-07T13:10:26Z</time>
      </trkpt>
      <trkpt lat="43.86557" lon="3.82588">
        <ele>308.24</ele>
        <time>2016-02-07T13:10:27Z</time>
      </trkpt>
      <trkpt lat="43.86582" lon="3.82551">
        <ele>308.24</ele>
        <time>2016-02-07T13:10:29Z</time>
      </trkpt>
      <trkpt lat="43.86592" lon="3.82529">
        <ele>308.24</ele>
        <time>2016-02-07T13:10:30Z</time>
      </trkpt>
      <trkpt lat="43.86658" lon="3.82319">
        <ele>306.32</ele>
        <time>2016-02-07T13:10:38Z</time>
      </trkpt>
      <trkpt lat="43.86664" lon="3.82302">
        <ele>306.32</ele>
        <time>2016-02-07T13:10:39Z</time>
      </trkpt>
      <trkpt lat="43.86671" lon="3.82288">
        <ele>306.32</ele>
        <time>2016-02-07T13:10:40Z</time>
      </trkpt>
      <trkpt lat="43.86679" lon="3.82278">
        <ele>305.84</ele>
        <time>2016-02-07T13:10:41Z</time>
      </trkpt>
      <trkpt lat="43.8669" lon="3.8227">
        <ele>305.84</ele>
        <time>2016-02-07T13:10:42Z</time>
      </trkpt>
      <trkpt lat="43.86703" lon="3.82262">
        <ele>305.36</ele>
        <time>2016-02-07T13:10:43Z</time>
      </trkpt>
      <trkpt lat="43.86769" lon="3.8221">
        <ele>300.07</ele>
        <time>2016-02-07T13:10:48Z</time>
      </trkpt>
      <trkpt lat="43.8678" lon="3.82197">
        <ele>299.11</ele>
        <time>2016-02-07T13:10:49Z</time>
      </trkpt>
      <trkpt lat="43.86789" lon="3.82181">
        <ele>298.15</ele>
        <time>2016-02-07T13:10:50Z</time>
      </trkpt>
      <trkpt lat="43.86797" lon="3.82162">
        <ele>297.18</ele>
        <time>2016-02-07T13:10:51Z</time>
      </trkpt>
      <trkpt lat="43.86804" lon="3.82142">
        <ele>296.22</ele>
        <time>2016-02-07T13:10:52Z</time>
      </trkpt>
      <trkpt lat="43.86811" lon="3.82123">
        <ele>295.74</ele>
        <time>2016-02-07T13:10:53Z</time>
      </trkpt>
      <trkpt lat="43.8682" lon="3.82106">
        <ele>295.74</ele>
        <time>2016-02-07T13:10:54Z</time>
      </trkpt>
      <trkpt lat="43.86832" lon="3.82091">
        <ele>295.26</ele>
        <time>2016-02-07T13:10:55Z</time>
      </trkpt>
      <trkpt lat="43.86846" lon="3.8208">
        <ele>295.26</ele>
        <time>2016-02-07T13:10:56Z</time>
      </trkpt>
      <trkpt lat="43.86861" lon="3.82068">
        <ele>295.26</ele>
        <time>2016-02-07T13:10:57Z</time>
      </trkpt>
      <trkpt lat="43.86907" lon="3.8203">
        <ele>296.7</ele>
        <time>2016-02-07T13:11:00Z</time>
      </trkpt>
      <trkpt lat="43.8692" lon="3.82013">
        <ele>297.67</ele>
        <time>2016-02-07T13:11:01Z</time>
      </trkpt>
      <trkpt lat="43.86931" lon="3.81993">
        <ele>299.11</ele>
        <time>2016-02-07T13:11:02Z</time>
      </trkpt>
      <trkpt lat="43.86973" lon="3.81893">
        <ele>304.39</ele>
        <time>2016-02-07T13:11:07Z</time>
      </trkpt>
      <trkpt lat="43.86972" lon="3.81874">
        <ele>305.36</ele>
        <time>2016-02-07T13:11:08Z</time>
      </trkpt>
      <trkpt lat="43.8697" lon="3.81853">
        <ele>306.8</ele>
        <time>2016-02-07T13:11:09Z</time>
      </trkpt>
      <trkpt lat="43.86949" lon="3.81645">
        <ele>310.16</ele>
        <time>2016-02-07T13:11:17Z</time>
      </trkpt>
      <trkpt lat="43.8694" lon="3.81324">
        <ele>313.53</ele>
        <time>2016-02-07T13:11:29Z</time>
      </trkpt>
      <trkpt lat="43.86951" lon="3.81262">
        <ele>313.53</ele>
        <time>2016-02-07T13:11:32Z</time>
      </trkpt>
      <trkpt lat="43.86959" lon="3.81249">
        <ele>314.01</ele>
        <time>2016-02-07T13:11:33Z</time>
      </trkpt>
      <trkpt lat="43.86969" lon="3.81237">
        <ele>314.01</ele>
        <time>2016-02-07T13:11:34Z</time>
      </trkpt>
      <trkpt lat="43.86982" lon="3.81226">
        <ele>313.53</ele>
        <time>2016-02-07T13:11:35Z</time>
      </trkpt>
      <trkpt lat="43.86996" lon="3.81215">
        <ele>313.05</ele>
        <time>2016-02-07T13:11:36Z</time>
      </trkpt>
      <trkpt lat="43.87011" lon="3.81204">
        <ele>312.57</ele>
        <time>2016-02-07T13:11:37Z</time>
      </trkpt>
      <trkpt lat="43.87027" lon="3.81196">
        <ele>312.09</ele>
        <time>2016-02-07T13:11:38Z</time>
      </trkpt>
      <trkpt lat="43.87043" lon="3.8119">
        <ele>311.6</ele>
        <time>2016-02-07T13:11:39Z</time>
      </trkpt>
      <trkpt lat="43.87058" lon="3.81183">
        <ele>311.12</ele>
        <time>2016-02-07T13:11:40Z</time>
      </trkpt>
      <trkpt lat="43.87072" lon="3.81176">
        <ele>310.64</ele>
        <time>2016-02-07T13:11:41Z</time>
      </trkpt>
      <trkpt lat="43.87086" lon="3.81169">
        <ele>310.16</ele>
        <time>2016-02-07T13:11:42Z</time>
      </trkpt>
      <trkpt lat="43.87101" lon="3.81164">
        <ele>309.2</ele>
        <time>2016-02-07T13:11:43Z</time>
      </trkpt>
      <trkpt lat="43.87118" lon="3.81161">
        <ele>308.72</ele>
        <time>2016-02-07T13:11:44Z</time>
      </trkpt>
      <trkpt lat="43.87136" lon="3.8116">
        <ele>308.24</ele>
        <time>2016-02-07T13:11:45Z</time>
      </trkpt>
      <trkpt lat="43.87237" lon="3.81149">
        <ele>303.91</ele>
        <time>2016-02-07T13:11:51Z</time>
      </trkpt>
      <trkpt lat="43.87254" lon="3.8115">
        <ele>302.95</ele>
        <time>2016-02-07T13:11:52Z</time>
      </trkpt>
      <trkpt lat="43.87269" lon="3.81155">
        <ele>301.99</ele>
        <time>2016-02-07T13:11:53Z</time>
      </trkpt>
      <trkpt lat="43.87309" lon="3.81168">
        <ele>299.11</ele>
        <time>2016-02-07T13:11:56Z</time>
      </trkpt>
      <trkpt lat="43.87319" lon="3.81164">
        <ele>298.15</ele>
        <time>2016-02-07T13:11:57Z</time>
      </trkpt>
      <trkpt lat="43.87328" lon="3.81152">
        <ele>297.18</ele>
        <time>2016-02-07T13:11:58Z</time>
      </trkpt>
      <trkpt lat="43.8734" lon="3.8114">
        <ele>296.7</ele>
        <time>2016-02-07T13:11:59Z</time>
      </trkpt>
      <trkpt lat="43.87352" lon="3.81126">
        <ele>296.22</ele>
        <time>2016-02-07T13:12:00Z</time>
      </trkpt>
      <trkpt lat="43.87366" lon="3.81113">
        <ele>295.74</ele>
        <time>2016-02-07T13:12:01Z</time>
      </trkpt>
      <trkpt lat="43.87394" lon="3.81081">
        <ele>296.22</ele>
        <time>2016-02-07T13:12:03Z</time>
      </trkpt>
      <trkpt lat="43.87405" lon="3.81064">
        <ele>296.22</ele>
        <time>2016-02-07T13:12:04Z</time>
      </trkpt>
      <trkpt lat="43.87413" lon="3.81046">
        <ele>296.7</ele>
        <time>2016-02-07T13:12:05Z</time>
      </trkpt>
      <trkpt lat="43.87417" lon="3.81029">
        <ele>296.22</ele>
        <time>2016-02-07T13:12:06Z</time>
      </trkpt>
      <trkpt lat="43.87413" lon="3.8101">
        <ele>296.22</ele>
        <time>2016-02-07T13:12:07Z</time>
      </trkpt>
      <trkpt lat="43.87408" lon="3.80991">
        <ele>296.22</ele>
        <time>2016-02-07T13:12:08Z</time>
      </trkpt>
      <trkpt lat="43.87401" lon="3.8097">
        <ele>296.22</ele>
        <time>2016-02-07T13:12:09Z</time>
      </trkpt>
      <trkpt lat="43.87392" lon="3.80948">
        <ele>296.22</ele>
        <time>2016-02-07T13:12:10Z</time>
      </trkpt>
      <trkpt lat="43.87382" lon="3.80927">
        <ele>296.22</ele>
        <time>2016-02-07T13:12:11Z</time>
      </trkpt>
      <trkpt lat="43.8737" lon="3.80908">
        <ele>296.7</ele>
        <time>2016-02-07T13:12:12Z</time>
      </trkpt>
      <trkpt lat="43.87356" lon="3.8089">
        <ele>297.67</ele>
        <time>2016-02-07T13:12:13Z</time>
      </trkpt>
      <trkpt lat="43.87343" lon="3.80876">
        <ele>298.63</ele>
        <time>2016-02-07T13:12:14Z</time>
      </trkpt>
      <trkpt lat="43.87329" lon="3.80863">
        <ele>299.59</ele>
        <time>2016-02-07T13:12:15Z</time>
      </trkpt>
      <trkpt lat="43.87316" lon="3.80853">
        <ele>301.03</ele>
        <time>2016-02-07T13:12:16Z</time>
      </trkpt>
      <trkpt lat="43.87306" lon="3.80846">
        <ele>301.99</ele>
        <time>2016-02-07T13:12:17Z</time>
      </trkpt>
      <trkpt lat="43.8729" lon="3.80835">
        <ele>303.43</ele>
        <time>2016-02-07T13:12:19Z</time>
      </trkpt>
      <trkpt lat="43.87285" lon="3.80828">
        <ele>304.39</ele>
        <time>2016-02-07T13:12:20Z</time>
      </trkpt>
      <trkpt lat="43.87282" lon="3.8082">
        <ele>304.88</ele>
        <time>2016-02-07T13:12:21Z</time>
      </trkpt>
      <trkpt lat="43.87281" lon="3.80812">
        <ele>305.84</ele>
        <time>2016-02-07T13:12:22Z</time>
      </trkpt>
      <trkpt lat="43.87282" lon="3.80804">
        <ele>306.32</ele>
        <time>2016-02-07T13:12:23Z</time>
      </trkpt>
      <trkpt lat="43.87287" lon="3.808">
        <ele>307.28</ele>
        <time>2016-02-07T13:12:24Z</time>
      </trkpt>
      <trkpt lat="43.87292" lon="3.80797">
        <ele>307.76</ele>
        <time>2016-02-07T13:12:25Z</time>
      </trkpt>
      <trkpt lat="43.873" lon="3.80797">
        <ele>308.72</ele>
        <time>2016-02-07T13:12:26Z</time>
      </trkpt>
      <trkpt lat="43.87309" lon="3.80799">
        <ele>309.2</ele>
        <time>2016-02-07T13:12:27Z</time>
      </trkpt>
      <trkpt lat="43.87322" lon="3.808">
        <ele>310.16</ele>
        <time>2016-02-07T13:12:28Z</time>
      </trkpt>
      <trkpt lat="43.87335" lon="3.80796">
        <ele>310.64</ele>
        <time>2016-02-07T13:12:29Z</time>
      </trkpt>
      <trkpt lat="43.87347" lon="3.8079">
        <ele>311.12</ele>
        <time>2016-02-07T13:12:30Z</time>
      </trkpt>
      <trkpt lat="43.87359" lon="3.80784">
        <ele>312.09</ele>
        <time>2016-02-07T13:12:31Z</time>
      </trkpt>
      <trkpt lat="43.8737" lon="3.8078">
        <ele>312.57</ele>
        <time>2016-02-07T13:12:32Z</time>
      </trkpt>
      <trkpt lat="43.87381" lon="3.80779">
        <ele>313.53</ele>
        <time>2016-02-07T13:12:33Z</time>
      </trkpt>
      <trkpt lat="43.87391" lon="3.80779">
        <ele>314.01</ele>
        <time>2016-02-07T13:12:34Z</time>
      </trkpt>
      <trkpt lat="43.87399" lon="3.80778">
        <ele>314.97</ele>
        <time>2016-02-07T13:12:35Z</time>
      </trkpt>
      <trkpt lat="43.87407" lon="3.80772">
        <ele>315.45</ele>
        <time>2016-02-07T13:12:36Z</time>
      </trkpt>
      <trkpt lat="43.87413" lon="3.8076">
        <ele>315.93</ele>
        <time>2016-02-07T13:12:37Z</time>
      </trkpt>
      <trkpt lat="43.87419" lon="3.80745">
        <ele>316.89</ele>
        <time>2016-02-07T13:12:38Z</time>
      </trkpt>
      <trkpt lat="43.87425" lon="3.80726">
        <ele>317.85</ele>
        <time>2016-02-07T13:12:39Z</time>
      </trkpt>
      <trkpt lat="43.87431" lon="3.80704">
        <ele>317.85</ele>
        <time>2016-02-07T13:12:40Z</time>
      </trkpt>
      <trkpt lat="43.87476" lon="3.80525">
        <ele>315.45</ele>
        <time>2016-02-07T13:12:48Z</time>
      </trkpt>
      <trkpt lat="43.87477" lon="3.80505">
        <ele>314.97</ele>
        <time>2016-02-07T13:12:49Z</time>
      </trkpt>
      <trkpt lat="43.87475" lon="3.80485">
        <ele>314.49</ele>
        <time>2016-02-07T13:12:50Z</time>
      </trkpt>
      <trkpt lat="43.87465" lon="3.80405">
        <ele>313.05</ele>
        <time>2016-02-07T13:12:54Z</time>
      </trkpt>
      <trkpt lat="43.87465" lon="3.80389">
        <ele>312.57</ele>
        <time>2016-02-07T13:12:55Z</time>
      </trkpt>
      <trkpt lat="43.87468" lon="3.80375">
        <ele>312.57</ele>
        <time>2016-02-07T13:12:56Z</time>
      </trkpt>
      <trkpt lat="43.87475" lon="3.80365">
        <ele>312.09</ele>
        <time>2016-02-07T13:12:57Z</time>
      </trkpt>
      <trkpt lat="43.87485" lon="3.80355">
        <ele>311.6</ele>
        <time>2016-02-07T13:12:58Z</time>
      </trkpt>
      <trkpt lat="43.87497" lon="3.80348">
        <ele>311.6</ele>
        <time>2016-02-07T13:12:59Z</time>
      </trkpt>
      <trkpt lat="43.8751" lon="3.8034">
        <ele>311.12</ele>
        <time>2016-02-07T13:13:00Z</time>
      </trkpt>
      <trkpt lat="43.87524" lon="3.80332">
        <ele>310.16</ele>
        <time>2016-02-07T13:13:01Z</time>
      </trkpt>
      <trkpt lat="43.87538" lon="3.80326">
        <ele>309.68</ele>
        <time>2016-02-07T13:13:02Z</time>
      </trkpt>
      <trkpt lat="43.87665" lon="3.80275">
        <ele>313.05</ele>
        <time>2016-02-07T13:13:10Z</time>
      </trkpt>
      <trkpt lat="43.87679" lon="3.80264">
        <ele>314.01</ele>
        <time>2016-02-07T13:13:11Z</time>
      </trkpt>
      <trkpt lat="43.87692" lon="3.8025">
        <ele>315.45</ele>
        <time>2016-02-07T13:13:12Z</time>
      </trkpt>
      <trkpt lat="43.8774" lon="3.80202">
        <ele>320.26</ele>
        <time>2016-02-07T13:13:16Z</time>
      </trkpt>
      <trkpt lat="43.87748" lon="3.8019">
        <ele>321.22</ele>
        <time>2016-02-07T13:13:17Z</time>
      </trkpt>
      <trkpt lat="43.87754" lon="3.80172">
        <ele>321.7</ele>
        <time>2016-02-07T13:13:18Z</time>
      </trkpt>
      <trkpt lat="43.8776" lon="3.80152">
        <ele>322.18</ele>
        <time>2016-02-07T13:13:19Z</time>
      </trkpt>
      <trkpt lat="43.87765" lon="3.80131">
        <ele>321.7</ele>
        <time>2016-02-07T13:13:20Z</time>
      </trkpt>
      <trkpt lat="43.87796" lon="3.7997">
        <ele>317.37</ele>
        <time>2016-02-07T13:13:28Z</time>
      </trkpt>
      <trkpt lat="43.87821" lon="3.79864">
        <ele>311.12</ele>
        <time>2016-02-07T13:13:34Z</time>
      </trkpt>
      <trkpt lat="43.87829" lon="3.79848">
        <ele>309.68</ele>
        <time>2016-02-07T13:13:35Z</time>
      </trkpt>
      <trkpt lat="43.87837" lon="3.79835">
        <ele>308.72</ele>
        <time>2016-02-07T13:13:36Z</time>
      </trkpt>
      <trkpt lat="43.87844" lon="3.79824">
        <ele>307.76</ele>
        <time>2016-02-07T13:13:37Z</time>
      </trkpt>
      <trkpt lat="43.87853" lon="3.79817">
        <ele>306.8</ele>
        <time>2016-02-07T13:13:38Z</time>
      </trkpt>
      <trkpt lat="43.87864" lon="3.79818">
        <ele>305.84</ele>
        <time>2016-02-07T13:13:39Z</time>
      </trkpt>
      <trkpt lat="43.87875" lon="3.7982">
        <ele>304.88</ele>
        <time>2016-02-07T13:13:40Z</time>
      </trkpt>
      <trkpt lat="43.87889" lon="3.79825">
        <ele>303.91</ele>
        <time>2016-02-07T13:13:41Z</time>
      </trkpt>
      <trkpt lat="43.87904" lon="3.79829">
        <ele>302.47</ele>
        <time>2016-02-07T13:13:42Z</time>
      </trkpt>
      <trkpt lat="43.8799" lon="3.79852">
        <ele>296.22</ele>
        <time>2016-02-07T13:13:50Z</time>
      </trkpt>
      <trkpt lat="43.87999" lon="3.79848">
        <ele>295.26</ele>
        <time>2016-02-07T13:13:51Z</time>
      </trkpt>
      <trkpt lat="43.88008" lon="3.79839">
        <ele>294.3</ele>
        <time>2016-02-07T13:13:52Z</time>
      </trkpt>
      <trkpt lat="43.88016" lon="3.79826">
        <ele>293.82</ele>
        <time>2016-02-07T13:13:53Z</time>
      </trkpt>
      <trkpt lat="43.88022" lon="3.79811">
        <ele>292.86</ele>
        <time>2016-02-07T13:13:54Z</time>
      </trkpt>
      <trkpt lat="43.88028" lon="3.79793">
        <ele>291.9</ele>
        <time>2016-02-07T13:13:55Z</time>
      </trkpt>
      <trkpt lat="43.88032" lon="3.79774">
        <ele>290.94</ele>
        <time>2016-02-07T13:13:56Z</time>
      </trkpt>
      <trkpt lat="43.88034" lon="3.79754">
        <ele>289.97</ele>
        <time>2016-02-07T13:13:57Z</time>
      </trkpt>
      <trkpt lat="43.88033" lon="3.79734">
        <ele>289.49</ele>
        <time>2016-02-07T13:13:58Z</time>
      </trkpt>
      <trkpt lat="43.88029" lon="3.79716">
        <ele>288.53</ele>
        <time>2016-02-07T13:13:59Z</time>
      </trkpt>
      <trkpt lat="43.88023" lon="3.79698">
        <ele>288.05</ele>
        <time>2016-02-07T13:14:00Z</time>
      </trkpt>
      <trkpt lat="43.88011" lon="3.79683">
        <ele>287.09</ele>
        <time>2016-02-07T13:14:01Z</time>
      </trkpt>
      <trkpt lat="43.87997" lon="3.79666">
        <ele>286.13</ele>
        <time>2016-02-07T13:14:02Z</time>
      </trkpt>
      <trkpt lat="43.87983" lon="3.7965">
        <ele>285.17</ele>
        <time>2016-02-07T13:14:03Z</time>
      </trkpt>
      <trkpt lat="43.87855" lon="3.79512">
        <ele>277.96</ele>
        <time>2016-02-07T13:14:11Z</time>
      </trkpt>
      <trkpt lat="43.87753" lon="3.79423">
        <ele>273.15</ele>
        <time>2016-02-07T13:14:18Z</time>
      </trkpt>
      <trkpt lat="43.87714" lon="3.79386">
        <ele>270.75</ele>
        <time>2016-02-07T13:14:21Z</time>
      </trkpt>
      <trkpt lat="43.87705" lon="3.79368">
        <ele>269.79</ele>
        <time>2016-02-07T13:14:22Z</time>
      </trkpt>
      <trkpt lat="43.87698" lon="3.79348">
        <ele>268.83</ele>
        <time>2016-02-07T13:14:23Z</time>
      </trkpt>
      <trkpt lat="43.87691" lon="3.79327">
        <ele>268.35</ele>
        <time>2016-02-07T13:14:24Z</time>
      </trkpt>
      <trkpt lat="43.87684" lon="3.79305">
        <ele>267.86</ele>
        <time>2016-02-07T13:14:25Z</time>
      </trkpt>
      <trkpt lat="43.87656" lon="3.79204">
        <ele>267.86</ele>
        <time>2016-02-07T13:14:30Z</time>
      </trkpt>
      <trkpt lat="43.87604" lon="3.79093">
        <ele>271.23</ele>
        <time>2016-02-07T13:14:36Z</time>
      </trkpt>
      <trkpt lat="43.87594" lon="3.79082">
        <ele>272.19</ele>
        <time>2016-02-07T13:14:37Z</time>
      </trkpt>
      <trkpt lat="43.87586" lon="3.79072">
        <ele>273.15</ele>
        <time>2016-02-07T13:14:38Z</time>
      </trkpt>
      <trkpt lat="43.87581" lon="3.79062">
        <ele>274.11</ele>
        <time>2016-02-07T13:14:39Z</time>
      </trkpt>
      <trkpt lat="43.8758" lon="3.79049">
        <ele>275.56</ele>
        <time>2016-02-07T13:14:40Z</time>
      </trkpt>
      <trkpt lat="43.87583" lon="3.79033">
        <ele>276.52</ele>
        <time>2016-02-07T13:14:41Z</time>
      </trkpt>
      <trkpt lat="43.87587" lon="3.79016">
        <ele>277.48</ele>
        <time>2016-02-07T13:14:42Z</time>
      </trkpt>
      <trkpt lat="43.87591" lon="3.78997">
        <ele>279.4</ele>
        <time>2016-02-07T13:14:43Z</time>
      </trkpt>
      <trkpt lat="43.87602" lon="3.78934">
        <ele>285.17</ele>
        <time>2016-02-07T13:14:46Z</time>
      </trkpt>
      <trkpt lat="43.87603" lon="3.78911">
        <ele>287.57</ele>
        <time>2016-02-07T13:14:47Z</time>
      </trkpt>
      <trkpt lat="43.87599" lon="3.78798">
        <ele>294.3</ele>
        <time>2016-02-07T13:14:52Z</time>
      </trkpt>
      <trkpt lat="43.87593" lon="3.78784">
        <ele>295.74</ele>
        <time>2016-02-07T13:14:53Z</time>
      </trkpt>
      <trkpt lat="43.87586" lon="3.78772">
        <ele>296.7</ele>
        <time>2016-02-07T13:14:54Z</time>
      </trkpt>
      <trkpt lat="43.87576" lon="3.7876">
        <ele>297.67</ele>
        <time>2016-02-07T13:14:55Z</time>
      </trkpt>
      <trkpt lat="43.87565" lon="3.78751">
        <ele>299.59</ele>
        <time>2016-02-07T13:14:56Z</time>
      </trkpt>
      <trkpt lat="43.87554" lon="3.7874">
        <ele>300.07</ele>
        <time>2016-02-07T13:14:57Z</time>
      </trkpt>
      <trkpt lat="43.87512" lon="3.78689">
        <ele>302.95</ele>
        <time>2016-02-07T13:15:01Z</time>
      </trkpt>
      <trkpt lat="43.87508" lon="3.78674">
        <ele>303.91</ele>
        <time>2016-02-07T13:15:02Z</time>
      </trkpt>
      <trkpt lat="43.87505" lon="3.78657">
        <ele>304.39</ele>
        <time>2016-02-07T13:15:03Z</time>
      </trkpt>
      <trkpt lat="43.87505" lon="3.78639">
        <ele>304.88</ele>
        <time>2016-02-07T13:15:04Z</time>
      </trkpt>
      <trkpt lat="43.87507" lon="3.7862">
        <ele>305.84</ele>
        <time>2016-02-07T13:15:05Z</time>
      </trkpt>
      <trkpt lat="43.87512" lon="3.78601">
        <ele>305.84</ele>
        <time>2016-02-07T13:15:06Z</time>
      </trkpt>
      <trkpt lat="43.87521" lon="3.78582">
        <ele>306.8</ele>
        <time>2016-02-07T13:15:07Z</time>
      </trkpt>
      <trkpt lat="43.8753" lon="3.78563">
        <ele>306.8</ele>
        <time>2016-02-07T13:15:08Z</time>
      </trkpt>
      <trkpt lat="43.87537" lon="3.78543">
        <ele>306.8</ele>
        <time>2016-02-07T13:15:09Z</time>
      </trkpt>
      <trkpt lat="43.87541" lon="3.78521">
        <ele>307.28</ele>
        <time>2016-02-07T13:15:10Z</time>
      </trkpt>
      <trkpt lat="43.87543" lon="3.78498">
        <ele>307.28</ele>
        <time>2016-02-07T13:15:11Z</time>
      </trkpt>
      <trkpt lat="43.87546" lon="3.78302">
        <ele>304.39</ele>
        <time>2016-02-07T13:15:18Z</time>
      </trkpt>
      <trkpt lat="43.87553" lon="3.78028">
        <ele>298.63</ele>
        <time>2016-02-07T13:15:28Z</time>
      </trkpt>
      <trkpt lat="43.87557" lon="3.78002">
        <ele>298.15</ele>
        <time>2016-02-07T13:15:29Z</time>
      </trkpt>
      <trkpt lat="43.87605" lon="3.77771">
        <ele>292.86</ele>
        <time>2016-02-07T13:15:38Z</time>
      </trkpt>
      <trkpt lat="43.87612" lon="3.77753">
        <ele>292.38</ele>
        <time>2016-02-07T13:15:39Z</time>
      </trkpt>
      <trkpt lat="43.87622" lon="3.77741">
        <ele>291.9</ele>
        <time>2016-02-07T13:15:40Z</time>
      </trkpt>
      <trkpt lat="43.87636" lon="3.77734">
        <ele>290.94</ele>
        <time>2016-02-07T13:15:41Z</time>
      </trkpt>
      <trkpt lat="43.87652" lon="3.77727">
        <ele>290.46</ele>
        <time>2016-02-07T13:15:42Z</time>
      </trkpt>
      <trkpt lat="43.87668" lon="3.77719">
        <ele>289.97</ele>
        <time>2016-02-07T13:15:43Z</time>
      </trkpt>
      <trkpt lat="43.87741" lon="3.77676">
        <ele>287.09</ele>
        <time>2016-02-07T13:15:48Z</time>
      </trkpt>
      <trkpt lat="43.87749" lon="3.77663">
        <ele>286.61</ele>
        <time>2016-02-07T13:15:49Z</time>
      </trkpt>
      <trkpt lat="43.87751" lon="3.7765">
        <ele>286.13</ele>
        <time>2016-02-07T13:15:50Z</time>
      </trkpt>
      <trkpt lat="43.8775" lon="3.77633">
        <ele>285.17</ele>
        <time>2016-02-07T13:15:51Z</time>
      </trkpt>
      <trkpt lat="43.87748" lon="3.77616">
        <ele>284.69</ele>
        <time>2016-02-07T13:15:52Z</time>
      </trkpt>
      <trkpt lat="43.87745" lon="3.77597">
        <ele>284.69</ele>
        <time>2016-02-07T13:15:53Z</time>
      </trkpt>
      <trkpt lat="43.87741" lon="3.7758">
        <ele>284.21</ele>
        <time>2016-02-07T13:15:54Z</time>
      </trkpt>
      <trkpt lat="43.87735" lon="3.77564">
        <ele>283.25</ele>
        <time>2016-02-07T13:15:55Z</time>
      </trkpt>
      <trkpt lat="43.87726" lon="3.77553">
        <ele>282.28</ele>
        <time>2016-02-07T13:15:56Z</time>
      </trkpt>
      <trkpt lat="43.87715" lon="3.77542">
        <ele>281.8</ele>
        <time>2016-02-07T13:15:57Z</time>
      </trkpt>
      <trkpt lat="43.87702" lon="3.77536">
        <ele>281.8</ele>
        <time>2016-02-07T13:15:58Z</time>
      </trkpt>
      <trkpt lat="43.87688" lon="3.77529">
        <ele>281.32</ele>
        <time>2016-02-07T13:15:59Z</time>
      </trkpt>
      <trkpt lat="43.87674" lon="3.77522">
        <ele>280.84</ele>
        <time>2016-02-07T13:16:00Z</time>
      </trkpt>
      <trkpt lat="43.87647" lon="3.77506">
        <ele>279.88</ele>
        <time>2016-02-07T13:16:02Z</time>
      </trkpt>
      <trkpt lat="43.87633" lon="3.77493">
        <ele>279.4</ele>
        <time>2016-02-07T13:16:03Z</time>
      </trkpt>
      <trkpt lat="43.8762" lon="3.77479">
        <ele>278.92</ele>
        <time>2016-02-07T13:16:04Z</time>
      </trkpt>
      <trkpt lat="43.8753" lon="3.77373">
        <ele>274.59</ele>
        <time>2016-02-07T13:16:12Z</time>
      </trkpt>
      <trkpt lat="43.87524" lon="3.77355">
        <ele>274.11</ele>
        <time>2016-02-07T13:16:13Z</time>
      </trkpt>
      <trkpt lat="43.87519" lon="3.77335">
        <ele>273.63</ele>
        <time>2016-02-07T13:16:14Z</time>
      </trkpt>
      <trkpt lat="43.87507" lon="3.77276">
        <ele>271.71</ele>
        <time>2016-02-07T13:16:17Z</time>
      </trkpt>
      <trkpt lat="43.87509" lon="3.77258">
        <ele>270.75</ele>
        <time>2016-02-07T13:16:18Z</time>
      </trkpt>
      <trkpt lat="43.87514" lon="3.77239">
        <ele>269.79</ele>
        <time>2016-02-07T13:16:19Z</time>
      </trkpt>
      <trkpt lat="43.87519" lon="3.7722">
        <ele>269.31</ele>
        <time>2016-02-07T13:16:20Z</time>
      </trkpt>
      <trkpt lat="43.87527" lon="3.77205">
        <ele>268.83</ele>
        <time>2016-02-07T13:16:21Z</time>
      </trkpt>
      <trkpt lat="43.87537" lon="3.77193">
        <ele>267.86</ele>
        <time>2016-02-07T13:16:22Z</time>
      </trkpt>
      <trkpt lat="43.87548" lon="3.77183">
        <ele>266.9</ele>
        <time>2016-02-07T13:16:23Z</time>
      </trkpt>
      <trkpt lat="43.87563" lon="3.77173">
        <ele>265.94</ele>
        <time>2016-02-07T13:16:24Z</time>
      </trkpt>
      <trkpt lat="43.87577" lon="3.77162">
        <ele>264.5</ele>
        <time>2016-02-07T13:16:25Z</time>
      </trkpt>
      <trkpt lat="43.87659" lon="3.77098">
        <ele>258.73</ele>
        <time>2016-02-07T13:16:31Z</time>
      </trkpt>
      <trkpt lat="43.87668" lon="3.77086">
        <ele>257.77</ele>
        <time>2016-02-07T13:16:32Z</time>
      </trkpt>
      <trkpt lat="43.87669" lon="3.77071">
        <ele>256.33</ele>
        <time>2016-02-07T13:16:33Z</time>
      </trkpt>
      <trkpt lat="43.87668" lon="3.77053">
        <ele>255.37</ele>
        <time>2016-02-07T13:16:34Z</time>
      </trkpt>
      <trkpt lat="43.87664" lon="3.77033">
        <ele>254.41</ele>
        <time>2016-02-07T13:16:35Z</time>
      </trkpt>
      <trkpt lat="43.87659" lon="3.77009">
        <ele>253.44</ele>
        <time>2016-02-07T13:16:36Z</time>
      </trkpt>
      <trkpt lat="43.87654" lon="3.76985">
        <ele>252</ele>
        <time>2016-02-07T13:16:37Z</time>
      </trkpt>
      <trkpt lat="43.87609" lon="3.76785">
        <ele>242.87</ele>
        <time>2016-02-07T13:16:46Z</time>
      </trkpt>
      <trkpt lat="43.87613" lon="3.76769">
        <ele>242.39</ele>
        <time>2016-02-07T13:16:47Z</time>
      </trkpt>
      <trkpt lat="43.87621" lon="3.76754">
        <ele>240.95</ele>
        <time>2016-02-07T13:16:48Z</time>
      </trkpt>
      <trkpt lat="43.87631" lon="3.76738">
        <ele>240.95</ele>
        <time>2016-02-07T13:16:49Z</time>
      </trkpt>
      <trkpt lat="43.87641" lon="3.76722">
        <ele>240.47</ele>
        <time>2016-02-07T13:16:50Z</time>
      </trkpt>
      <trkpt lat="43.87679" lon="3.76657">
        <ele>239.51</ele>
        <time>2016-02-07T13:16:54Z</time>
      </trkpt>
      <trkpt lat="43.8769" lon="3.76645">
        <ele>239.51</ele>
        <time>2016-02-07T13:16:55Z</time>
      </trkpt>
      <trkpt lat="43.87703" lon="3.76638">
        <ele>239.02</ele>
        <time>2016-02-07T13:16:56Z</time>
      </trkpt>
      <trkpt lat="43.87719" lon="3.76633">
        <ele>238.06</ele>
        <time>2016-02-07T13:16:57Z</time>
      </trkpt>
      <trkpt lat="43.87734" lon="3.76632">
        <ele>237.58</ele>
        <time>2016-02-07T13:16:58Z</time>
      </trkpt>
      <trkpt lat="43.87751" lon="3.76633">
        <ele>237.58</ele>
        <time>2016-02-07T13:16:59Z</time>
      </trkpt>
      <trkpt lat="43.87767" lon="3.76634">
        <ele>237.58</ele>
        <time>2016-02-07T13:17:00Z</time>
      </trkpt>
      <trkpt lat="43.87797" lon="3.76641">
        <ele>237.58</ele>
        <time>2016-02-07T13:17:02Z</time>
      </trkpt>
      <trkpt lat="43.8781" lon="3.76652">
        <ele>237.58</ele>
        <time>2016-02-07T13:17:03Z</time>
      </trkpt>
      <trkpt lat="43.87821" lon="3.76664">
        <ele>237.58</ele>
        <time>2016-02-07T13:17:04Z</time>
      </trkpt>
      <trkpt lat="43.87843" lon="3.76686">
        <ele>237.1</ele>
        <time>2016-02-07T13:17:06Z</time>
      </trkpt>
      <trkpt lat="43.87855" lon="3.7669">
        <ele>237.1</ele>
        <time>2016-02-07T13:17:07Z</time>
      </trkpt>
      <trkpt lat="43.87868" lon="3.76689">
        <ele>237.1</ele>
        <time>2016-02-07T13:17:08Z</time>
      </trkpt>
      <trkpt lat="43.87881" lon="3.76685">
        <ele>236.62</ele>
        <time>2016-02-07T13:17:09Z</time>
      </trkpt>
      <trkpt lat="43.87893" lon="3.7668">
        <ele>236.62</ele>
        <time>2016-02-07T13:17:10Z</time>
      </trkpt>
      <trkpt lat="43.87905" lon="3.76672">
        <ele>236.62</ele>
        <time>2016-02-07T13:17:11Z</time>
      </trkpt>
      <trkpt lat="43.87914" lon="3.76661">
        <ele>236.62</ele>
        <time>2016-02-07T13:17:12Z</time>
      </trkpt>
      <trkpt lat="43.87918" lon="3.76647">
        <ele>236.14</ele>
        <time>2016-02-07T13:17:13Z</time>
      </trkpt>
      <trkpt lat="43.87919" lon="3.7663">
        <ele>236.14</ele>
        <time>2016-02-07T13:17:14Z</time>
      </trkpt>
      <trkpt lat="43.87917" lon="3.76609">
        <ele>236.14</ele>
        <time>2016-02-07T13:17:15Z</time>
      </trkpt>
      <trkpt lat="43.87915" lon="3.76587">
        <ele>235.66</ele>
        <time>2016-02-07T13:17:16Z</time>
      </trkpt>
      <trkpt lat="43.87916" lon="3.76563">
        <ele>235.66</ele>
        <time>2016-02-07T13:17:17Z</time>
      </trkpt>
      <trkpt lat="43.87918" lon="3.76539">
        <ele>235.18</ele>
        <time>2016-02-07T13:17:18Z</time>
      </trkpt>
      <trkpt lat="43.87922" lon="3.76515">
        <ele>235.18</ele>
        <time>2016-02-07T13:17:19Z</time>
      </trkpt>
      <trkpt lat="43.87934" lon="3.76448">
        <ele>234.22</ele>
        <time>2016-02-07T13:17:22Z</time>
      </trkpt>
      <trkpt lat="43.87933" lon="3.76431">
        <ele>233.26</ele>
        <time>2016-02-07T13:17:23Z</time>
      </trkpt>
      <trkpt lat="43.87929" lon="3.76416">
        <ele>232.78</ele>
        <time>2016-02-07T13:17:24Z</time>
      </trkpt>
      <trkpt lat="43.8792" lon="3.76405">
        <ele>232.78</ele>
        <time>2016-02-07T13:17:25Z</time>
      </trkpt>
      <trkpt lat="43.8791" lon="3.76394">
        <ele>232.3</ele>
        <time>2016-02-07T13:17:26Z</time>
      </trkpt>
      <trkpt lat="43.87897" lon="3.76385">
        <ele>232.3</ele>
        <time>2016-02-07T13:17:27Z</time>
      </trkpt>
      <trkpt lat="43.87885" lon="3.76377">
        <ele>231.81</ele>
        <time>2016-02-07T13:17:28Z</time>
      </trkpt>
      <trkpt lat="43.87874" lon="3.76367">
        <ele>231.33</ele>
        <time>2016-02-07T13:17:29Z</time>
      </trkpt>
      <trkpt lat="43.87865" lon="3.76355">
        <ele>231.33</ele>
        <time>2016-02-07T13:17:30Z</time>
      </trkpt>
      <trkpt lat="43.8786" lon="3.76341">
        <ele>230.85</ele>
        <time>2016-02-07T13:17:31Z</time>
      </trkpt>
      <trkpt lat="43.8786" lon="3.76325">
        <ele>230.37</ele>
        <time>2016-02-07T13:17:32Z</time>
      </trkpt>
      <trkpt lat="43.87861" lon="3.76312">
        <ele>229.89</ele>
        <time>2016-02-07T13:17:33Z</time>
      </trkpt>
      <trkpt lat="43.87871" lon="3.76303">
        <ele>229.41</ele>
        <time>2016-02-07T13:17:34Z</time>
      </trkpt>
      <trkpt lat="43.87879" lon="3.76297">
        <ele>228.45</ele>
        <time>2016-02-07T13:17:35Z</time>
      </trkpt>
      <trkpt lat="43.87891" lon="3.76292">
        <ele>227.97</ele>
        <time>2016-02-07T13:17:36Z</time>
      </trkpt>
      <trkpt lat="43.87903" lon="3.76286">
        <ele>227.49</ele>
        <time>2016-02-07T13:17:37Z</time>
      </trkpt>
      <trkpt lat="43.87915" lon="3.76279">
        <ele>227.01</ele>
        <time>2016-02-07T13:17:38Z</time>
      </trkpt>
      <trkpt lat="43.87924" lon="3.7627">
        <ele>227.49</ele>
        <time>2016-02-07T13:17:39Z</time>
      </trkpt>
      <trkpt lat="43.87932" lon="3.76257">
        <ele>227.01</ele>
        <time>2016-02-07T13:17:40Z</time>
      </trkpt>
      <trkpt lat="43.87935" lon="3.76242">
        <ele>226.53</ele>
        <time>2016-02-07T13:17:41Z</time>
      </trkpt>
      <trkpt lat="43.87935" lon="3.76223">
        <ele>226.05</ele>
        <time>2016-02-07T13:17:42Z</time>
      </trkpt>
      <trkpt lat="43.87934" lon="3.76202">
        <ele>226.05</ele>
        <time>2016-02-07T13:17:43Z</time>
      </trkpt>
      <trkpt lat="43.87922" lon="3.76037">
        <ele>225.09</ele>
        <time>2016-02-07T13:17:50Z</time>
      </trkpt>
      <trkpt lat="43.87917" lon="3.76024">
        <ele>224.61</ele>
        <time>2016-02-07T13:17:51Z</time>
      </trkpt>
      <trkpt lat="43.87911" lon="3.76016">
        <ele>224.61</ele>
        <time>2016-02-07T13:17:52Z</time>
      </trkpt>
      <trkpt lat="43.87904" lon="3.76008">
        <ele>224.12</ele>
        <time>2016-02-07T13:17:53Z</time>
      </trkpt>
      <trkpt lat="43.87897" lon="3.76002">
        <ele>223.64</ele>
        <time>2016-02-07T13:17:54Z</time>
      </trkpt>
      <trkpt lat="43.87893" lon="3.75994">
        <ele>223.64</ele>
        <time>2016-02-07T13:17:55Z</time>
      </trkpt>
      <trkpt lat="43.87891" lon="3.75983">
        <ele>224.61</ele>
        <time>2016-02-07T13:17:56Z</time>
      </trkpt>
      <trkpt lat="43.87891" lon="3.7597">
        <ele>225.57</ele>
        <time>2016-02-07T13:17:57Z</time>
      </trkpt>
      <trkpt lat="43.87891" lon="3.75956">
        <ele>224.61</ele>
        <time>2016-02-07T13:17:58Z</time>
      </trkpt>
      <trkpt lat="43.8789" lon="3.75939">
        <ele>223.64</ele>
        <time>2016-02-07T13:17:59Z</time>
      </trkpt>
      <trkpt lat="43.8789" lon="3.759">
        <ele>222.68</ele>
        <time>2016-02-07T13:18:01Z</time>
      </trkpt>
      <trkpt lat="43.87886" lon="3.75878">
        <ele>222.2</ele>
        <time>2016-02-07T13:18:02Z</time>
      </trkpt>
      <trkpt lat="43.8788" lon="3.75837">
        <ele>221.72</ele>
        <time>2016-02-07T13:18:04Z</time>
      </trkpt>
      <trkpt lat="43.87879" lon="3.75816">
        <ele>221.24</ele>
        <time>2016-02-07T13:18:05Z</time>
      </trkpt>
      <trkpt lat="43.87882" lon="3.75796">
        <ele>221.24</ele>
        <time>2016-02-07T13:18:06Z</time>
      </trkpt>
      <trkpt lat="43.87889" lon="3.75778">
        <ele>220.76</ele>
        <time>2016-02-07T13:18:07Z</time>
      </trkpt>
      <trkpt lat="43.87898" lon="3.75761">
        <ele>220.76</ele>
        <time>2016-02-07T13:18:08Z</time>
      </trkpt>
      <trkpt lat="43.87909" lon="3.75744">
        <ele>220.76</ele>
        <time>2016-02-07T13:18:09Z</time>
      </trkpt>
      <trkpt lat="43.87946" lon="3.75671">
        <ele>220.28</ele>
        <time>2016-02-07T13:18:13Z</time>
      </trkpt>
      <trkpt lat="43.87951" lon="3.75655">
        <ele>219.8</ele>
        <time>2016-02-07T13:18:14Z</time>
      </trkpt>
      <trkpt lat="43.87952" lon="3.7564">
        <ele>219.32</ele>
        <time>2016-02-07T13:18:15Z</time>
      </trkpt>
      <trkpt lat="43.87951" lon="3.75626">
        <ele>218.84</ele>
        <time>2016-02-07T13:18:16Z</time>
      </trkpt>
      <trkpt lat="43.87946" lon="3.75612">
        <ele>217.88</ele>
        <time>2016-02-07T13:18:17Z</time>
      </trkpt>
      <trkpt lat="43.87942" lon="3.75596">
        <ele>217.4</ele>
        <time>2016-02-07T13:18:18Z</time>
      </trkpt>
      <trkpt lat="43.87939" lon="3.75578">
        <ele>216.91</ele>
        <time>2016-02-07T13:18:19Z</time>
      </trkpt>
      <trkpt lat="43.87937" lon="3.75559">
        <ele>216.91</ele>
        <time>2016-02-07T13:18:20Z</time>
      </trkpt>
      <trkpt lat="43.87932" lon="3.75519">
        <ele>216.43</ele>
        <time>2016-02-07T13:18:22Z</time>
      </trkpt>
      <trkpt lat="43.87929" lon="3.75501">
        <ele>215.47</ele>
        <time>2016-02-07T13:18:23Z</time>
      </trkpt>
      <trkpt lat="43.8792" lon="3.75486">
        <ele>214.51</ele>
        <time>2016-02-07T13:18:24Z</time>
      </trkpt>
      <trkpt lat="43.87911" lon="3.75474">
        <ele>214.03</ele>
        <time>2016-02-07T13:18:25Z</time>
      </trkpt>
      <trkpt lat="43.879" lon="3.75462">
        <ele>214.03</ele>
        <time>2016-02-07T13:18:26Z</time>
      </trkpt>
      <trkpt lat="43.8789" lon="3.75448">
        <ele>214.03</ele>
        <time>2016-02-07T13:18:27Z</time>
      </trkpt>
      <trkpt lat="43.87879" lon="3.75434">
        <ele>213.55</ele>
        <time>2016-02-07T13:18:28Z</time>
      </trkpt>
      <trkpt lat="43.87872" lon="3.75417">
        <ele>213.07</ele>
        <time>2016-02-07T13:18:29Z</time>
      </trkpt>
      <trkpt lat="43.87866" lon="3.754">
        <ele>213.07</ele>
        <time>2016-02-07T13:18:30Z</time>
      </trkpt>
      <trkpt lat="43.87859" lon="3.75385">
        <ele>212.59</ele>
        <time>2016-02-07T13:18:31Z</time>
      </trkpt>
      <trkpt lat="43.87851" lon="3.75376">
        <ele>212.59</ele>
        <time>2016-02-07T13:18:32Z</time>
      </trkpt>
      <trkpt lat="43.87841" lon="3.75371">
        <ele>212.59</ele>
        <time>2016-02-07T13:18:33Z</time>
      </trkpt>
      <trkpt lat="43.8783" lon="3.75368">
        <ele>212.11</ele>
        <time>2016-02-07T13:18:34Z</time>
      </trkpt>
      <trkpt lat="43.87816" lon="3.7537">
        <ele>212.11</ele>
        <time>2016-02-07T13:18:35Z</time>
      </trkpt>
      <trkpt lat="43.87801" lon="3.75376">
        <ele>212.11</ele>
        <time>2016-02-07T13:18:36Z</time>
      </trkpt>
      <trkpt lat="43.87789" lon="3.75386">
        <ele>212.11</ele>
        <time>2016-02-07T13:18:37Z</time>
      </trkpt>
      <trkpt lat="43.87779" lon="3.75399">
        <ele>211.63</ele>
        <time>2016-02-07T13:18:38Z</time>
      </trkpt>
      <trkpt lat="43.87771" lon="3.75414">
        <ele>211.15</ele>
        <time>2016-02-07T13:18:39Z</time>
      </trkpt>
      <trkpt lat="43.87763" lon="3.75426">
        <ele>211.15</ele>
        <time>2016-02-07T13:18:40Z</time>
      </trkpt>
      <trkpt lat="43.87753" lon="3.75437">
        <ele>210.67</ele>
        <time>2016-02-07T13:18:41Z</time>
      </trkpt>
      <trkpt lat="43.87741" lon="3.75442">
        <ele>210.67</ele>
        <time>2016-02-07T13:18:42Z</time>
      </trkpt>
      <trkpt lat="43.87728" lon="3.75441">
        <ele>210.67</ele>
        <time>2016-02-07T13:18:43Z</time>
      </trkpt>
      <trkpt lat="43.87714" lon="3.75435">
        <ele>210.19</ele>
        <time>2016-02-07T13:18:44Z</time>
      </trkpt>
      <trkpt lat="43.877" lon="3.75431">
        <ele>210.19</ele>
        <time>2016-02-07T13:18:45Z</time>
      </trkpt>
      <trkpt lat="43.87686" lon="3.75429">
        <ele>210.19</ele>
        <time>2016-02-07T13:18:46Z</time>
      </trkpt>
      <trkpt lat="43.87672" lon="3.75429">
        <ele>210.19</ele>
        <time>2016-02-07T13:18:47Z</time>
      </trkpt>
      <trkpt lat="43.87636" lon="3.75433">
        <ele>209.22</ele>
        <time>2016-02-07T13:18:50Z</time>
      </trkpt>
      <trkpt lat="43.87625" lon="3.75442">
        <ele>209.22</ele>
        <time>2016-02-07T13:18:51Z</time>
      </trkpt>
      <trkpt lat="43.87615" lon="3.75454">
        <ele>208.74</ele>
        <time>2016-02-07T13:18:52Z</time>
      </trkpt>
      <trkpt lat="43.87606" lon="3.75467">
        <ele>208.26</ele>
        <time>2016-02-07T13:18:53Z</time>
      </trkpt>
      <trkpt lat="43.87595" lon="3.7548">
        <ele>208.26</ele>
        <time>2016-02-07T13:18:54Z</time>
      </trkpt>
      <trkpt lat="43.87584" lon="3.75488">
        <ele>208.26</ele>
        <time>2016-02-07T13:18:55Z</time>
      </trkpt>
      <trkpt lat="43.87573" lon="3.75488">
        <ele>207.78</ele>
        <time>2016-02-07T13:18:56Z</time>
      </trkpt>
      <trkpt lat="43.87563" lon="3.75479">
        <ele>208.74</ele>
        <time>2016-02-07T13:18:57Z</time>
      </trkpt>
      <trkpt lat="43.8755" lon="3.75469">
        <ele>208.26</ele>
        <time>2016-02-07T13:18:58Z</time>
      </trkpt>
      <trkpt lat="43.87539" lon="3.75457">
        <ele>208.26</ele>
        <time>2016-02-07T13:18:59Z</time>
      </trkpt>
      <trkpt lat="43.87528" lon="3.75443">
        <ele>208.26</ele>
        <time>2016-02-07T13:19:00Z</time>
      </trkpt>
      <trkpt lat="43.87516" lon="3.75431">
        <ele>208.74</ele>
        <time>2016-02-07T13:19:01Z</time>
      </trkpt>
      <trkpt lat="43.87505" lon="3.75421">
        <ele>209.22</ele>
        <time>2016-02-07T13:19:02Z</time>
      </trkpt>
      <trkpt lat="43.87493" lon="3.75416">
        <ele>209.7</ele>
        <time>2016-02-07T13:19:03Z</time>
      </trkpt>
      <trkpt lat="43.8748" lon="3.75418">
        <ele>210.19</ele>
        <time>2016-02-07T13:19:04Z</time>
      </trkpt>
      <trkpt lat="43.87468" lon="3.75422">
        <ele>211.15</ele>
        <time>2016-02-07T13:19:05Z</time>
      </trkpt>
      <trkpt lat="43.87458" lon="3.7543">
        <ele>212.11</ele>
        <time>2016-02-07T13:19:06Z</time>
      </trkpt>
      <trkpt lat="43.87446" lon="3.75435">
        <ele>213.07</ele>
        <time>2016-02-07T13:19:07Z</time>
      </trkpt>
      <trkpt lat="43.87433" lon="3.75436">
        <ele>214.03</ele>
        <time>2016-02-07T13:19:08Z</time>
      </trkpt>
      <trkpt lat="43.87421" lon="3.7543">
        <ele>214.51</ele>
        <time>2016-02-07T13:19:09Z</time>
      </trkpt>
      <trkpt lat="43.87411" lon="3.75423">
        <ele>214.99</ele>
        <time>2016-02-07T13:19:10Z</time>
      </trkpt>
      <trkpt lat="43.874" lon="3.75413">
        <ele>215.47</ele>
        <time>2016-02-07T13:19:11Z</time>
      </trkpt>
      <trkpt lat="43.8731" lon="3.75352">
        <ele>210.19</ele>
        <time>2016-02-07T13:19:17Z</time>
      </trkpt>
      <trkpt lat="43.87295" lon="3.75348">
        <ele>208.74</ele>
        <time>2016-02-07T13:19:18Z</time>
      </trkpt>
      <trkpt lat="43.87271" lon="3.7534">
        <ele>206.82</ele>
        <time>2016-02-07T13:19:20Z</time>
      </trkpt>
      <trkpt lat="43.87261" lon="3.75333">
        <ele>205.86</ele>
        <time>2016-02-07T13:19:21Z</time>
      </trkpt>
      <trkpt lat="43.87252" lon="3.75322">
        <ele>204.42</ele>
        <time>2016-02-07T13:19:22Z</time>
      </trkpt>
      <trkpt lat="43.87245" lon="3.7531">
        <ele>202.49</ele>
        <time>2016-02-07T13:19:23Z</time>
      </trkpt>
      <trkpt lat="43.8724" lon="3.75295">
        <ele>200.09</ele>
        <time>2016-02-07T13:19:24Z</time>
      </trkpt>
      <trkpt lat="43.87241" lon="3.75278">
        <ele>196.73</ele>
        <time>2016-02-07T13:19:25Z</time>
      </trkpt>
      <trkpt lat="43.87243" lon="3.7526">
        <ele>194.32</ele>
        <time>2016-02-07T13:19:26Z</time>
      </trkpt>
      <trkpt lat="43.87244" lon="3.7524">
        <ele>192.88</ele>
        <time>2016-02-07T13:19:27Z</time>
      </trkpt>
      <trkpt lat="43.87243" lon="3.75221">
        <ele>190.96</ele>
        <time>2016-02-07T13:19:28Z</time>
      </trkpt>
      <trkpt lat="43.87241" lon="3.75202">
        <ele>189.52</ele>
        <time>2016-02-07T13:19:29Z</time>
      </trkpt>
      <trkpt lat="43.87239" lon="3.75182">
        <ele>188.08</ele>
        <time>2016-02-07T13:19:30Z</time>
      </trkpt>
      <trkpt lat="43.8724" lon="3.75163">
        <ele>186.63</ele>
        <time>2016-02-07T13:19:31Z</time>
      </trkpt>
      <trkpt lat="43.87252" lon="3.75143">
        <ele>191.92</ele>
        <time>2016-02-07T13:19:32Z</time>
      </trkpt>
      <trkpt lat="43.87259" lon="3.75126">
        <ele>193.36</ele>
        <time>2016-02-07T13:19:33Z</time>
      </trkpt>
      <trkpt lat="43.87263" lon="3.75109">
        <ele>193.36</ele>
        <time>2016-02-07T13:19:34Z</time>
      </trkpt>
      <trkpt lat="43.87262" lon="3.75094">
        <ele>193.36</ele>
        <time>2016-02-07T13:19:35Z</time>
      </trkpt>
      <trkpt lat="43.87259" lon="3.75079">
        <ele>192.4</ele>
        <time>2016-02-07T13:19:36Z</time>
      </trkpt>
      <trkpt lat="43.87254" lon="3.75066">
        <ele>191.92</ele>
        <time>2016-02-07T13:19:37Z</time>
      </trkpt>
      <trkpt lat="43.8725" lon="3.75051">
        <ele>192.4</ele>
        <time>2016-02-07T13:19:38Z</time>
      </trkpt>
      <trkpt lat="43.87246" lon="3.75035">
        <ele>191.92</ele>
        <time>2016-02-07T13:19:39Z</time>
      </trkpt>
      <trkpt lat="43.87245" lon="3.75017">
        <ele>191.92</ele>
        <time>2016-02-07T13:19:40Z</time>
      </trkpt>
      <trkpt lat="43.87248" lon="3.74998">
        <ele>192.4</ele>
        <time>2016-02-07T13:19:41Z</time>
      </trkpt>
      <trkpt lat="43.87253" lon="3.74979">
        <ele>192.88</ele>
        <time>2016-02-07T13:19:42Z</time>
      </trkpt>
      <trkpt lat="43.87257" lon="3.74959">
        <ele>193.36</ele>
        <time>2016-02-07T13:19:43Z</time>
      </trkpt>
      <trkpt lat="43.87263" lon="3.74918">
        <ele>193.84</ele>
        <time>2016-02-07T13:19:45Z</time>
      </trkpt>
      <trkpt lat="43.87262" lon="3.74896">
        <ele>193.84</ele>
        <time>2016-02-07T13:19:46Z</time>
      </trkpt>
      <trkpt lat="43.87261" lon="3.74875">
        <ele>193.36</ele>
        <time>2016-02-07T13:19:47Z</time>
      </trkpt>
      <trkpt lat="43.87259" lon="3.74853">
        <ele>193.36</ele>
        <time>2016-02-07T13:19:48Z</time>
      </trkpt>
      <trkpt lat="43.87256" lon="3.74832">
        <ele>193.84</ele>
        <time>2016-02-07T13:19:49Z</time>
      </trkpt>
      <trkpt lat="43.87251" lon="3.74812">
        <ele>193.84</ele>
        <time>2016-02-07T13:19:50Z</time>
      </trkpt>
      <trkpt lat="43.87245" lon="3.74793">
        <ele>194.32</ele>
        <time>2016-02-07T13:19:51Z</time>
      </trkpt>
      <trkpt lat="43.87238" lon="3.74774">
        <ele>194.8</ele>
        <time>2016-02-07T13:19:52Z</time>
      </trkpt>
      <trkpt lat="43.87231" lon="3.74754">
        <ele>194.8</ele>
        <time>2016-02-07T13:19:53Z</time>
      </trkpt>
      <trkpt lat="43.87203" lon="3.74671">
        <ele>193.36</ele>
        <time>2016-02-07T13:19:57Z</time>
      </trkpt>
      <trkpt lat="43.87198" lon="3.74647">
        <ele>192.4</ele>
        <time>2016-02-07T13:19:58Z</time>
      </trkpt>
      <trkpt lat="43.87195" lon="3.74621">
        <ele>191.44</ele>
        <time>2016-02-07T13:19:59Z</time>
      </trkpt>
      <trkpt lat="43.87184" lon="3.74382">
        <ele>190</ele>
        <time>2016-02-07T13:20:09Z</time>
      </trkpt>
      <trkpt lat="43.87196" lon="3.74259">
        <ele>189.52</ele>
        <time>2016-02-07T13:20:17Z</time>
      </trkpt>
      <trkpt lat="43.87196" lon="3.7425">
        <ele>189.52</ele>
        <time>2016-02-07T13:20:24Z</time>
      </trkpt>
      <trkpt lat="43.87192" lon="3.74242">
        <ele>190</ele>
        <time>2016-02-07T13:20:37Z</time>
      </trkpt>
      <trkpt lat="43.87186" lon="3.74238">
        <ele>190</ele>
        <time>2016-02-07T13:20:38Z</time>
      </trkpt>
      <trkpt lat="43.87174" lon="3.74235">
        <ele>190</ele>
        <time>2016-02-07T13:20:39Z</time>
      </trkpt>
      <trkpt lat="43.8708" lon="3.74217">
        <ele>192.88</ele>
        <time>2016-02-07T13:20:45Z</time>
      </trkpt>
      <trkpt lat="43.8695" lon="3.74166">
        <ele>198.17</ele>
        <time>2016-02-07T13:20:53Z</time>
      </trkpt>
      <trkpt lat="43.8679" lon="3.74065">
        <ele>204.9</ele>
        <time>2016-02-07T13:21:02Z</time>
      </trkpt>
      <trkpt lat="43.86678" lon="3.74026">
        <ele>209.22</ele>
        <time>2016-02-07T13:21:08Z</time>
      </trkpt>
      <trkpt lat="43.86553" lon="3.74061">
        <ele>213.07</ele>
        <time>2016-02-07T13:21:15Z</time>
      </trkpt>
      <trkpt lat="43.86356" lon="3.74203">
        <ele>216.43</ele>
        <time>2016-02-07T13:21:27Z</time>
      </trkpt>
      <trkpt lat="43.86239" lon="3.74287">
        <ele>220.76</ele>
        <time>2016-02-07T13:21:33Z</time>
      </trkpt>
      <trkpt lat="43.86169" lon="3.74308">
        <ele>226.53</ele>
        <time>2016-02-07T13:21:36Z</time>
      </trkpt>
      <trkpt lat="43.86146" lon="3.74309">
        <ele>228.93</ele>
        <time>2016-02-07T13:21:37Z</time>
      </trkpt>
      <trkpt lat="43.86123" lon="3.74308">
        <ele>230.85</ele>
        <time>2016-02-07T13:21:38Z</time>
      </trkpt>
      <trkpt lat="43.861" lon="3.74304">
        <ele>233.26</ele>
        <time>2016-02-07T13:21:39Z</time>
      </trkpt>
      <trkpt lat="43.86077" lon="3.74297">
        <ele>235.18</ele>
        <time>2016-02-07T13:21:40Z</time>
      </trkpt>
      <trkpt lat="43.86055" lon="3.74287">
        <ele>237.58</ele>
        <time>2016-02-07T13:21:41Z</time>
      </trkpt>
      <trkpt lat="43.86033" lon="3.74274">
        <ele>239.99</ele>
        <time>2016-02-07T13:21:42Z</time>
      </trkpt>
      <trkpt lat="43.86011" lon="3.74259">
        <ele>242.39</ele>
        <time>2016-02-07T13:21:43Z</time>
      </trkpt>
      <trkpt lat="43.85857" lon="3.74178">
        <ele>258.25</ele>
        <time>2016-02-07T13:21:50Z</time>
      </trkpt>
      <trkpt lat="43.85699" lon="3.74186">
        <ele>272.19</ele>
        <time>2016-02-07T13:21:57Z</time>
      </trkpt>
      <trkpt lat="43.85432" lon="3.74206">
        <ele>294.78</ele>
        <time>2016-02-07T13:22:09Z</time>
      </trkpt>
      <trkpt lat="43.85248" lon="3.74149">
        <ele>311.6</ele>
        <time>2016-02-07T13:22:18Z</time>
      </trkpt>
      <trkpt lat="43.85006" lon="3.74019">
        <ele>325.54</ele>
        <time>2016-02-07T13:22:31Z</time>
      </trkpt>
      <trkpt lat="43.84865" lon="3.73985">
        <ele>322.66</ele>
        <time>2016-02-07T13:22:38Z</time>
      </trkpt>
      <trkpt lat="43.84723" lon="3.74028">
        <ele>314.01</ele>
        <time>2016-02-07T13:22:45Z</time>
      </trkpt>
      <trkpt lat="43.84471" lon="3.74166">
        <ele>299.59</ele>
        <time>2016-02-07T13:22:58Z</time>
      </trkpt>
      <trkpt lat="43.8431" lon="3.74251">
        <ele>284.69</ele>
        <time>2016-02-07T13:23:08Z</time>
      </trkpt>
      <trkpt lat="43.84302" lon="3.7425">
        <ele>283.25</ele>
        <time>2016-02-07T13:23:09Z</time>
      </trkpt>
      <trkpt lat="43.84295" lon="3.74245">
        <ele>281.8</ele>
        <time>2016-02-07T13:23:10Z</time>
      </trkpt>
      <trkpt lat="43.8429" lon="3.74238">
        <ele>280.36</ele>
        <time>2016-02-07T13:23:11Z</time>
      </trkpt>
      <trkpt lat="43.84287" lon="3.74227">
        <ele>279.4</ele>
        <time>2016-02-07T13:23:12Z</time>
      </trkpt>
      <trkpt lat="43.84286" lon="3.74214">
        <ele>278.44</ele>
        <time>2016-02-07T13:23:13Z</time>
      </trkpt>
      <trkpt lat="43.84288" lon="3.74198">
        <ele>277.48</ele>
        <time>2016-02-07T13:23:14Z</time>
      </trkpt>
      <trkpt lat="43.84295" lon="3.74183">
        <ele>276.52</ele>
        <time>2016-02-07T13:23:15Z</time>
      </trkpt>
      <trkpt lat="43.84303" lon="3.74168">
        <ele>275.56</ele>
        <time>2016-02-07T13:23:16Z</time>
      </trkpt>
      <trkpt lat="43.84311" lon="3.74152">
        <ele>275.07</ele>
        <time>2016-02-07T13:23:17Z</time>
      </trkpt>
      <trkpt lat="43.84327" lon="3.74116">
        <ele>275.07</ele>
        <time>2016-02-07T13:23:19Z</time>
      </trkpt>
      <trkpt lat="43.84334" lon="3.74096">
        <ele>275.07</ele>
        <time>2016-02-07T13:23:20Z</time>
      </trkpt>
      <trkpt lat="43.84338" lon="3.74075">
        <ele>275.56</ele>
        <time>2016-02-07T13:23:21Z</time>
      </trkpt>
      <trkpt lat="43.84346" lon="3.7403">
        <ele>277</ele>
        <time>2016-02-07T13:23:23Z</time>
      </trkpt>
      <trkpt lat="43.84352" lon="3.74008">
        <ele>277.96</ele>
        <time>2016-02-07T13:23:24Z</time>
      </trkpt>
      <trkpt lat="43.84386" lon="3.73881">
        <ele>280.36</ele>
        <time>2016-02-07T13:23:30Z</time>
      </trkpt>
      <trkpt lat="43.84387" lon="3.73861">
        <ele>280.36</ele>
        <time>2016-02-07T13:23:31Z</time>
      </trkpt>
      <trkpt lat="43.84386" lon="3.7384">
        <ele>280.84</ele>
        <time>2016-02-07T13:23:32Z</time>
      </trkpt>
      <trkpt lat="43.84383" lon="3.73819">
        <ele>280.84</ele>
        <time>2016-02-07T13:23:33Z</time>
      </trkpt>
      <trkpt lat="43.84381" lon="3.73799">
        <ele>280.84</ele>
        <time>2016-02-07T13:23:34Z</time>
      </trkpt>
      <trkpt lat="43.8438" lon="3.73779">
        <ele>280.36</ele>
        <time>2016-02-07T13:23:35Z</time>
      </trkpt>
      <trkpt lat="43.84382" lon="3.7376">
        <ele>280.36</ele>
        <time>2016-02-07T13:23:36Z</time>
      </trkpt>
      <trkpt lat="43.84386" lon="3.73742">
        <ele>280.84</ele>
        <time>2016-02-07T13:23:37Z</time>
      </trkpt>
      <trkpt lat="43.84401" lon="3.73737">
        <ele>281.8</ele>
        <time>2016-02-07T13:23:38Z</time>
      </trkpt>
      <trkpt lat="43.84414" lon="3.7373">
        <ele>281.8</ele>
        <time>2016-02-07T13:23:39Z</time>
      </trkpt>
      <trkpt lat="43.84428" lon="3.73724">
        <ele>282.77</ele>
        <time>2016-02-07T13:23:40Z</time>
      </trkpt>
      <trkpt lat="43.84443" lon="3.73717">
        <ele>282.77</ele>
        <time>2016-02-07T13:23:41Z</time>
      </trkpt>
      <trkpt lat="43.84458" lon="3.73708">
        <ele>283.73</ele>
        <time>2016-02-07T13:23:42Z</time>
      </trkpt>
      <trkpt lat="43.84473" lon="3.73697">
        <ele>284.21</ele>
        <time>2016-02-07T13:23:43Z</time>
      </trkpt>
      <trkpt lat="43.84486" lon="3.73684">
        <ele>284.21</ele>
        <time>2016-02-07T13:23:44Z</time>
      </trkpt>
      <trkpt lat="43.845" lon="3.73668">
        <ele>285.65</ele>
        <time>2016-02-07T13:23:45Z</time>
      </trkpt>
      <trkpt lat="43.84513" lon="3.73649">
        <ele>287.09</ele>
        <time>2016-02-07T13:23:46Z</time>
      </trkpt>
      <trkpt lat="43.84525" lon="3.73628">
        <ele>289.01</ele>
        <time>2016-02-07T13:23:47Z</time>
      </trkpt>
      <trkpt lat="43.8463" lon="3.73448">
        <ele>306.32</ele>
        <time>2016-02-07T13:23:56Z</time>
      </trkpt>
      <trkpt lat="43.84639" lon="3.73426">
        <ele>307.76</ele>
        <time>2016-02-07T13:23:57Z</time>
      </trkpt>
      <trkpt lat="43.84645" lon="3.73403">
        <ele>309.68</ele>
        <time>2016-02-07T13:23:58Z</time>
      </trkpt>
      <trkpt lat="43.84695" lon="3.73205">
        <ele>324.1</ele>
        <time>2016-02-07T13:24:06Z</time>
      </trkpt>
      <trkpt lat="43.84725" lon="3.73102">
        <ele>331.31</ele>
        <time>2016-02-07T13:24:11Z</time>
      </trkpt>
      <trkpt lat="43.84728" lon="3.73076">
        <ele>331.79</ele>
        <time>2016-02-07T13:24:12Z</time>
      </trkpt>
      <trkpt lat="43.84729" lon="3.73049">
        <ele>331.79</ele>
        <time>2016-02-07T13:24:13Z</time>
      </trkpt>
      <trkpt lat="43.84727" lon="3.72915">
        <ele>331.79</ele>
        <time>2016-02-07T13:24:19Z</time>
      </trkpt>
      <trkpt lat="43.8472" lon="3.72865">
        <ele>330.83</ele>
        <time>2016-02-07T13:24:22Z</time>
      </trkpt>
      <trkpt lat="43.84682" lon="3.72731">
        <ele>326.02</ele>
        <time>2016-02-07T13:24:29Z</time>
      </trkpt>
      <trkpt lat="43.84675" lon="3.72715">
        <ele>325.06</ele>
        <time>2016-02-07T13:24:30Z</time>
      </trkpt>
      <trkpt lat="43.84665" lon="3.727">
        <ele>324.1</ele>
        <time>2016-02-07T13:24:31Z</time>
      </trkpt>
      <trkpt lat="43.84614" lon="3.72615">
        <ele>316.89</ele>
        <time>2016-02-07T13:24:37Z</time>
      </trkpt>
      <trkpt lat="43.8461" lon="3.72598">
        <ele>315.45</ele>
        <time>2016-02-07T13:24:38Z</time>
      </trkpt>
      <trkpt lat="43.84605" lon="3.72581">
        <ele>314.01</ele>
        <time>2016-02-07T13:24:39Z</time>
      </trkpt>
      <trkpt lat="43.84597" lon="3.72566">
        <ele>313.05</ele>
        <time>2016-02-07T13:24:40Z</time>
      </trkpt>
      <trkpt lat="43.84588" lon="3.72552">
        <ele>311.12</ele>
        <time>2016-02-07T13:24:41Z</time>
      </trkpt>
      <trkpt lat="43.84576" lon="3.72537">
        <ele>309.68</ele>
        <time>2016-02-07T13:24:42Z</time>
      </trkpt>
      <trkpt lat="43.84562" lon="3.72521">
        <ele>309.2</ele>
        <time>2016-02-07T13:24:43Z</time>
      </trkpt>
      <trkpt lat="43.84503" lon="3.72448">
        <ele>304.39</ele>
        <time>2016-02-07T13:24:48Z</time>
      </trkpt>
      <trkpt lat="43.84494" lon="3.72431">
        <ele>303.43</ele>
        <time>2016-02-07T13:24:49Z</time>
      </trkpt>
      <trkpt lat="43.84448" lon="3.72319">
        <ele>296.7</ele>
        <time>2016-02-07T13:24:55Z</time>
      </trkpt>
      <trkpt lat="43.84446" lon="3.72302">
        <ele>295.74</ele>
        <time>2016-02-07T13:24:56Z</time>
      </trkpt>
      <trkpt lat="43.84447" lon="3.72287">
        <ele>294.78</ele>
        <time>2016-02-07T13:24:57Z</time>
      </trkpt>
      <trkpt lat="43.84453" lon="3.72274">
        <ele>293.82</ele>
        <time>2016-02-07T13:24:58Z</time>
      </trkpt>
      <trkpt lat="43.84464" lon="3.72262">
        <ele>293.34</ele>
        <time>2016-02-07T13:24:59Z</time>
      </trkpt>
      <trkpt lat="43.84476" lon="3.72251">
        <ele>292.86</ele>
        <time>2016-02-07T13:25:00Z</time>
      </trkpt>
      <trkpt lat="43.8449" lon="3.7224">
        <ele>292.38</ele>
        <time>2016-02-07T13:25:01Z</time>
      </trkpt>
      <trkpt lat="43.84504" lon="3.72232">
        <ele>290.94</ele>
        <time>2016-02-07T13:25:02Z</time>
      </trkpt>
      <trkpt lat="43.84518" lon="3.72226">
        <ele>289.97</ele>
        <time>2016-02-07T13:25:03Z</time>
      </trkpt>
      <trkpt lat="43.84534" lon="3.72223">
        <ele>289.01</ele>
        <time>2016-02-07T13:25:04Z</time>
      </trkpt>
      <trkpt lat="43.84551" lon="3.72221">
        <ele>288.05</ele>
        <time>2016-02-07T13:25:05Z</time>
      </trkpt>
      <trkpt lat="43.84568" lon="3.72221">
        <ele>287.09</ele>
        <time>2016-02-07T13:25:06Z</time>
      </trkpt>
      <trkpt lat="43.84585" lon="3.72221">
        <ele>286.61</ele>
        <time>2016-02-07T13:25:07Z</time>
      </trkpt>
      <trkpt lat="43.84765" lon="3.72223">
        <ele>277</ele>
        <time>2016-02-07T13:25:18Z</time>
      </trkpt>
      <trkpt lat="43.84809" lon="3.72222">
        <ele>274.11</ele>
        <time>2016-02-07T13:25:21Z</time>
      </trkpt>
      <trkpt lat="43.84824" lon="3.72217">
        <ele>273.15</ele>
        <time>2016-02-07T13:25:22Z</time>
      </trkpt>
      <trkpt lat="43.84837" lon="3.72207">
        <ele>272.19</ele>
        <time>2016-02-07T13:25:23Z</time>
      </trkpt>
      <trkpt lat="43.8485" lon="3.72195">
        <ele>271.23</ele>
        <time>2016-02-07T13:25:24Z</time>
      </trkpt>
      <trkpt lat="43.84863" lon="3.72182">
        <ele>269.79</ele>
        <time>2016-02-07T13:25:25Z</time>
      </trkpt>
      <trkpt lat="43.84875" lon="3.72168">
        <ele>269.31</ele>
        <time>2016-02-07T13:25:26Z</time>
      </trkpt>
      <trkpt lat="43.84935" lon="3.72102">
        <ele>264.98</ele>
        <time>2016-02-07T13:25:31Z</time>
      </trkpt>
      <trkpt lat="43.84948" lon="3.72093">
        <ele>264.02</ele>
        <time>2016-02-07T13:25:32Z</time>
      </trkpt>
      <trkpt lat="43.84962" lon="3.7209">
        <ele>263.06</ele>
        <time>2016-02-07T13:25:33Z</time>
      </trkpt>
      <trkpt lat="43.84976" lon="3.72088">
        <ele>262.1</ele>
        <time>2016-02-07T13:25:34Z</time>
      </trkpt>
      <trkpt lat="43.8499" lon="3.72089">
        <ele>261.14</ele>
        <time>2016-02-07T13:25:35Z</time>
      </trkpt>
      <trkpt lat="43.85003" lon="3.72091">
        <ele>260.65</ele>
        <time>2016-02-07T13:25:36Z</time>
      </trkpt>
      <trkpt lat="43.85015" lon="3.72096">
        <ele>260.17</ele>
        <time>2016-02-07T13:25:37Z</time>
      </trkpt>
      <trkpt lat="43.85025" lon="3.72107">
        <ele>259.21</ele>
        <time>2016-02-07T13:25:38Z</time>
      </trkpt>
      <trkpt lat="43.85033" lon="3.72122">
        <ele>258.73</ele>
        <time>2016-02-07T13:25:39Z</time>
      </trkpt>
      <trkpt lat="43.85039" lon="3.72138">
        <ele>258.25</ele>
        <time>2016-02-07T13:25:40Z</time>
      </trkpt>
      <trkpt lat="43.85047" lon="3.72155">
        <ele>257.77</ele>
        <time>2016-02-07T13:25:41Z</time>
      </trkpt>
      <trkpt lat="43.8508" lon="3.7223">
        <ele>255.85</ele>
        <time>2016-02-07T13:25:46Z</time>
      </trkpt>
      <trkpt lat="43.85085" lon="3.72237">
        <ele>254.89</ele>
        <time>2016-02-07T13:25:47Z</time>
      </trkpt>
      <trkpt lat="43.85091" lon="3.72239">
        <ele>254.41</ele>
        <time>2016-02-07T13:25:48Z</time>
      </trkpt>
      <trkpt lat="43.85095" lon="3.72235">
        <ele>253.44</ele>
        <time>2016-02-07T13:25:49Z</time>
      </trkpt>
      <trkpt lat="43.851" lon="3.72229">
        <ele>252.48</ele>
        <time>2016-02-07T13:25:50Z</time>
      </trkpt>
      <trkpt lat="43.85101" lon="3.72218">
        <ele>252</ele>
        <time>2016-02-07T13:25:51Z</time>
      </trkpt>
      <trkpt lat="43.85099" lon="3.72207">
        <ele>251.52</ele>
        <time>2016-02-07T13:25:52Z</time>
      </trkpt>
      <trkpt lat="43.85094" lon="3.72193">
        <ele>251.52</ele>
        <time>2016-02-07T13:25:53Z</time>
      </trkpt>
      <trkpt lat="43.85087" lon="3.72177">
        <ele>250.56</ele>
        <time>2016-02-07T13:25:54Z</time>
      </trkpt>
      <trkpt lat="43.85075" lon="3.72119">
        <ele>248.64</ele>
        <time>2016-02-07T13:25:57Z</time>
      </trkpt>
      <trkpt lat="43.85073" lon="3.72097">
        <ele>247.2</ele>
        <time>2016-02-07T13:25:58Z</time>
      </trkpt>
      <trkpt lat="43.85073" lon="3.72076">
        <ele>246.72</ele>
        <time>2016-02-07T13:25:59Z</time>
      </trkpt>
      <trkpt lat="43.85073" lon="3.71992">
        <ele>244.31</ele>
        <time>2016-02-07T13:26:03Z</time>
      </trkpt>
      <trkpt lat="43.85071" lon="3.71972">
        <ele>243.83</ele>
        <time>2016-02-07T13:26:04Z</time>
      </trkpt>
      <trkpt lat="43.85067" lon="3.71954">
        <ele>243.35</ele>
        <time>2016-02-07T13:26:05Z</time>
      </trkpt>
      <trkpt lat="43.85057" lon="3.71907">
        <ele>241.91</ele>
        <time>2016-02-07T13:26:08Z</time>
      </trkpt>
      <trkpt lat="43.85057" lon="3.71893">
        <ele>241.43</ele>
        <time>2016-02-07T13:26:09Z</time>
      </trkpt>
      <trkpt lat="43.85063" lon="3.71882">
        <ele>240.47</ele>
        <time>2016-02-07T13:26:10Z</time>
      </trkpt>
      <trkpt lat="43.85072" lon="3.71874">
        <ele>239.99</ele>
        <time>2016-02-07T13:26:11Z</time>
      </trkpt>
      <trkpt lat="43.85082" lon="3.71869">
        <ele>239.51</ele>
        <time>2016-02-07T13:26:12Z</time>
      </trkpt>
      <trkpt lat="43.85093" lon="3.71865">
        <ele>239.02</ele>
        <time>2016-02-07T13:26:13Z</time>
      </trkpt>
      <trkpt lat="43.85106" lon="3.7186">
        <ele>237.58</ele>
        <time>2016-02-07T13:26:14Z</time>
      </trkpt>
      <trkpt lat="43.85119" lon="3.71854">
        <ele>236.62</ele>
        <time>2016-02-07T13:26:15Z</time>
      </trkpt>
      <trkpt lat="43.85133" lon="3.71845">
        <ele>236.14</ele>
        <time>2016-02-07T13:26:16Z</time>
      </trkpt>
      <trkpt lat="43.85146" lon="3.71834">
        <ele>235.18</ele>
        <time>2016-02-07T13:26:17Z</time>
      </trkpt>
      <trkpt lat="43.85202" lon="3.71782">
        <ele>232.3</ele>
        <time>2016-02-07T13:26:22Z</time>
      </trkpt>
      <trkpt lat="43.8521" lon="3.71768">
        <ele>231.33</ele>
        <time>2016-02-07T13:26:23Z</time>
      </trkpt>
      <trkpt lat="43.85214" lon="3.71752">
        <ele>230.37</ele>
        <time>2016-02-07T13:26:24Z</time>
      </trkpt>
      <trkpt lat="43.85216" lon="3.71736">
        <ele>229.89</ele>
        <time>2016-02-07T13:26:25Z</time>
      </trkpt>
      <trkpt lat="43.85217" lon="3.71721">
        <ele>228.93</ele>
        <time>2016-02-07T13:26:26Z</time>
      </trkpt>
      <trkpt lat="43.85219" lon="3.71706">
        <ele>227.97</ele>
        <time>2016-02-07T13:26:27Z</time>
      </trkpt>
      <trkpt lat="43.85223" lon="3.71696">
        <ele>227.49</ele>
        <time>2016-02-07T13:26:28Z</time>
      </trkpt>
      <trkpt lat="43.85229" lon="3.7169">
        <ele>227.01</ele>
        <time>2016-02-07T13:26:29Z</time>
      </trkpt>
      <trkpt lat="43.85238" lon="3.71692">
        <ele>226.53</ele>
        <time>2016-02-07T13:26:30Z</time>
      </trkpt>
      <trkpt lat="43.85246" lon="3.71699">
        <ele>226.05</ele>
        <time>2016-02-07T13:26:31Z</time>
      </trkpt>
      <trkpt lat="43.85252" lon="3.71711">
        <ele>225.57</ele>
        <time>2016-02-07T13:26:32Z</time>
      </trkpt>
      <trkpt lat="43.85255" lon="3.71728">
        <ele>225.57</ele>
        <time>2016-02-07T13:26:33Z</time>
      </trkpt>
      <trkpt lat="43.8526" lon="3.71746">
        <ele>224.61</ele>
        <time>2016-02-07T13:26:34Z</time>
      </trkpt>
      <trkpt lat="43.85264" lon="3.71766">
        <ele>224.12</ele>
        <time>2016-02-07T13:26:35Z</time>
      </trkpt>
      <trkpt lat="43.85273" lon="3.71819">
        <ele>222.2</ele>
        <time>2016-02-07T13:26:38Z</time>
      </trkpt>
      <trkpt lat="43.85272" lon="3.71835">
        <ele>221.24</ele>
        <time>2016-02-07T13:26:39Z</time>
      </trkpt>
      <trkpt lat="43.85268" lon="3.71849">
        <ele>220.76</ele>
        <time>2016-02-07T13:26:40Z</time>
      </trkpt>
      <trkpt lat="43.85262" lon="3.71861">
        <ele>220.28</ele>
        <time>2016-02-07T13:26:41Z</time>
      </trkpt>
      <trkpt lat="43.85256" lon="3.71871">
        <ele>219.8</ele>
        <time>2016-02-07T13:26:42Z</time>
      </trkpt>
      <trkpt lat="43.85251" lon="3.71881">
        <ele>218.84</ele>
        <time>2016-02-07T13:26:43Z</time>
      </trkpt>
      <trkpt lat="43.85251" lon="3.71891">
        <ele>217.88</ele>
        <time>2016-02-07T13:26:44Z</time>
      </trkpt>
      <trkpt lat="43.85256" lon="3.71896">
        <ele>217.4</ele>
        <time>2016-02-07T13:26:45Z</time>
      </trkpt>
      <trkpt lat="43.85263" lon="3.71898">
        <ele>216.43</ele>
        <time>2016-02-07T13:26:46Z</time>
      </trkpt>
      <trkpt lat="43.85273" lon="3.71895">
        <ele>214.99</ele>
        <time>2016-02-07T13:26:47Z</time>
      </trkpt>
      <trkpt lat="43.85282" lon="3.71891">
        <ele>213.55</ele>
        <time>2016-02-07T13:26:48Z</time>
      </trkpt>
      <trkpt lat="43.85294" lon="3.71883">
        <ele>213.07</ele>
        <time>2016-02-07T13:26:49Z</time>
      </trkpt>
      <trkpt lat="43.85367" lon="3.71827">
        <ele>209.22</ele>
        <time>2016-02-07T13:26:55Z</time>
      </trkpt>
      <trkpt lat="43.85375" lon="3.71812">
        <ele>208.74</ele>
        <time>2016-02-07T13:26:56Z</time>
      </trkpt>
      <trkpt lat="43.85383" lon="3.71795">
        <ele>208.26</ele>
        <time>2016-02-07T13:26:57Z</time>
      </trkpt>
      <trkpt lat="43.85389" lon="3.71776">
        <ele>207.78</ele>
        <time>2016-02-07T13:26:58Z</time>
      </trkpt>
      <trkpt lat="43.85393" lon="3.71756">
        <ele>207.3</ele>
        <time>2016-02-07T13:26:59Z</time>
      </trkpt>
      <trkpt lat="43.85397" lon="3.71736">
        <ele>206.82</ele>
        <time>2016-02-07T13:27:00Z</time>
      </trkpt>
      <trkpt lat="43.85401" lon="3.71715">
        <ele>206.34</ele>
        <time>2016-02-07T13:27:01Z</time>
      </trkpt>
      <trkpt lat="43.85408" lon="3.71694">
        <ele>205.86</ele>
        <time>2016-02-07T13:27:02Z</time>
      </trkpt>
      <trkpt lat="43.85479" lon="3.7153">
        <ele>199.61</ele>
        <time>2016-02-07T13:27:11Z</time>
      </trkpt>
      <trkpt lat="43.85489" lon="3.71517">
        <ele>199.13</ele>
        <time>2016-02-07T13:27:12Z</time>
      </trkpt>
      <trkpt lat="43.85501" lon="3.71504">
        <ele>198.17</ele>
        <time>2016-02-07T13:27:13Z</time>
      </trkpt>
      <trkpt lat="43.85515" lon="3.71494">
        <ele>197.69</ele>
        <time>2016-02-07T13:27:14Z</time>
      </trkpt>
      <trkpt lat="43.85594" lon="3.7142">
        <ele>191.92</ele>
        <time>2016-02-07T13:27:20Z</time>
      </trkpt>
      <trkpt lat="43.85607" lon="3.71411">
        <ele>190.96</ele>
        <time>2016-02-07T13:27:21Z</time>
      </trkpt>
      <trkpt lat="43.85635" lon="3.71394">
        <ele>189.04</ele>
        <time>2016-02-07T13:27:23Z</time>
      </trkpt>
      <trkpt lat="43.85648" lon="3.71383">
        <ele>188.08</ele>
        <time>2016-02-07T13:27:24Z</time>
      </trkpt>
      <trkpt lat="43.85661" lon="3.7137">
        <ele>187.11</ele>
        <time>2016-02-07T13:27:25Z</time>
      </trkpt>
      <trkpt lat="43.857" lon="3.71322">
        <ele>183.75</ele>
        <time>2016-02-07T13:27:29Z</time>
      </trkpt>
      <trkpt lat="43.85704" lon="3.71309">
        <ele>183.27</ele>
        <time>2016-02-07T13:27:30Z</time>
      </trkpt>
      <trkpt lat="43.85702" lon="3.71296">
        <ele>182.31</ele>
        <time>2016-02-07T13:27:31Z</time>
      </trkpt>
      <trkpt lat="43.85699" lon="3.71282">
        <ele>181.35</ele>
        <time>2016-02-07T13:27:32Z</time>
      </trkpt>
      <trkpt lat="43.85689" lon="3.71275">
        <ele>180.38</ele>
        <time>2016-02-07T13:27:33Z</time>
      </trkpt>
      <trkpt lat="43.8568" lon="3.71267">
        <ele>179.42</ele>
        <time>2016-02-07T13:27:34Z</time>
      </trkpt>
      <trkpt lat="43.85668" lon="3.71267">
        <ele>178.94</ele>
        <time>2016-02-07T13:27:35Z</time>
      </trkpt>
      <trkpt lat="43.85657" lon="3.71272">
        <ele>177.98</ele>
        <time>2016-02-07T13:27:36Z</time>
      </trkpt>
      <trkpt lat="43.85649" lon="3.71279">
        <ele>177.5</ele>
        <time>2016-02-07T13:27:37Z</time>
      </trkpt>
      <trkpt lat="43.8564" lon="3.71294">
        <ele>177.02</ele>
        <time>2016-02-07T13:27:38Z</time>
      </trkpt>
      <trkpt lat="43.85631" lon="3.71307">
        <ele>175.58</ele>
        <time>2016-02-07T13:27:39Z</time>
      </trkpt>
      <trkpt lat="43.85622" lon="3.71322">
        <ele>175.1</ele>
        <time>2016-02-07T13:27:40Z</time>
      </trkpt>
      <trkpt lat="43.85585" lon="3.71374">
        <ele>170.77</ele>
        <time>2016-02-07T13:27:44Z</time>
      </trkpt>
      <trkpt lat="43.85574" lon="3.71382">
        <ele>170.29</ele>
        <time>2016-02-07T13:27:45Z</time>
      </trkpt>
      <trkpt lat="43.85543" lon="3.71407">
        <ele>168.37</ele>
        <time>2016-02-07T13:27:48Z</time>
      </trkpt>
      <trkpt lat="43.85536" lon="3.71418">
        <ele>167.89</ele>
        <time>2016-02-07T13:27:49Z</time>
      </trkpt>
      <trkpt lat="43.8553" lon="3.71427">
        <ele>166.93</ele>
        <time>2016-02-07T13:27:50Z</time>
      </trkpt>
      <trkpt lat="43.85525" lon="3.71434">
        <ele>165.96</ele>
        <time>2016-02-07T13:27:51Z</time>
      </trkpt>
      <trkpt lat="43.85519" lon="3.71435">
        <ele>165.48</ele>
        <time>2016-02-07T13:27:52Z</time>
      </trkpt>
      <trkpt lat="43.85513" lon="3.7143">
        <ele>165.96</ele>
        <time>2016-02-07T13:27:53Z</time>
      </trkpt>
      <trkpt lat="43.85511" lon="3.71419">
        <ele>165.48</ele>
        <time>2016-02-07T13:27:54Z</time>
      </trkpt>
      <trkpt lat="43.8551" lon="3.71405">
        <ele>165</ele>
        <time>2016-02-07T13:27:55Z</time>
      </trkpt>
      <trkpt lat="43.85512" lon="3.71388">
        <ele>164.52</ele>
        <time>2016-02-07T13:27:56Z</time>
      </trkpt>
      <trkpt lat="43.85517" lon="3.7137">
        <ele>164.04</ele>
        <time>2016-02-07T13:27:57Z</time>
      </trkpt>
      <trkpt lat="43.85522" lon="3.71352">
        <ele>163.56</ele>
        <time>2016-02-07T13:27:58Z</time>
      </trkpt>
      <trkpt lat="43.85579" lon="3.71177">
        <ele>157.79</ele>
        <time>2016-02-07T13:28:08Z</time>
      </trkpt>
      <trkpt lat="43.85594" lon="3.71141">
        <ele>156.83</ele>
        <time>2016-02-07T13:28:11Z</time>
      </trkpt>
      <trkpt lat="43.85593" lon="3.7113">
        <ele>155.87</ele>
        <time>2016-02-07T13:28:12Z</time>
      </trkpt>
      <trkpt lat="43.85588" lon="3.71121">
        <ele>155.39</ele>
        <time>2016-02-07T13:28:13Z</time>
      </trkpt>
      <trkpt lat="43.85578" lon="3.71118">
        <ele>154.43</ele>
        <time>2016-02-07T13:28:14Z</time>
      </trkpt>
      <trkpt lat="43.85567" lon="3.7112">
        <ele>153.95</ele>
        <time>2016-02-07T13:28:15Z</time>
      </trkpt>
      <trkpt lat="43.85555" lon="3.71126">
        <ele>153.47</ele>
        <time>2016-02-07T13:28:16Z</time>
      </trkpt>
      <trkpt lat="43.85541" lon="3.71132">
        <ele>152.99</ele>
        <time>2016-02-07T13:28:17Z</time>
      </trkpt>
      <trkpt lat="43.85428" lon="3.71156">
        <ele>146.26</ele>
        <time>2016-02-07T13:28:25Z</time>
      </trkpt>
      <trkpt lat="43.85415" lon="3.71158">
        <ele>145.3</ele>
        <time>2016-02-07T13:28:26Z</time>
      </trkpt>
      <trkpt lat="43.85404" lon="3.71164">
        <ele>144.82</ele>
        <time>2016-02-07T13:28:27Z</time>
      </trkpt>
      <trkpt lat="43.85395" lon="3.71174">
        <ele>144.34</ele>
        <time>2016-02-07T13:28:28Z</time>
      </trkpt>
      <trkpt lat="43.85387" lon="3.71187">
        <ele>143.37</ele>
        <time>2016-02-07T13:28:29Z</time>
      </trkpt>
      <trkpt lat="43.85379" lon="3.71203">
        <ele>142.89</ele>
        <time>2016-02-07T13:28:30Z</time>
      </trkpt>
      <trkpt lat="43.85372" lon="3.71221">
        <ele>141.93</ele>
        <time>2016-02-07T13:28:31Z</time>
      </trkpt>
      <trkpt lat="43.85308" lon="3.71318">
        <ele>136.16</ele>
        <time>2016-02-07T13:28:38Z</time>
      </trkpt>
      <trkpt lat="43.85294" lon="3.71333">
        <ele>134.72</ele>
        <time>2016-02-07T13:28:40Z</time>
      </trkpt>
      <trkpt lat="43.85288" lon="3.71334">
        <ele>134.24</ele>
        <time>2016-02-07T13:28:41Z</time>
      </trkpt>
      <trkpt lat="43.85283" lon="3.71326">
        <ele>133.76</ele>
        <time>2016-02-07T13:28:42Z</time>
      </trkpt>
      <trkpt lat="43.8528" lon="3.71313">
        <ele>132.8</ele>
        <time>2016-02-07T13:28:43Z</time>
      </trkpt>
      <trkpt lat="43.85282" lon="3.71299">
        <ele>132.32</ele>
        <time>2016-02-07T13:28:44Z</time>
      </trkpt>
      <trkpt lat="43.85287" lon="3.71281">
        <ele>131.36</ele>
        <time>2016-02-07T13:28:45Z</time>
      </trkpt>
      <trkpt lat="43.85293" lon="3.71261">
        <ele>130.88</ele>
        <time>2016-02-07T13:28:46Z</time>
      </trkpt>
      <trkpt lat="43.8531" lon="3.71199">
        <ele>129.43</ele>
        <time>2016-02-07T13:28:49Z</time>
      </trkpt>
      <trkpt lat="43.85312" lon="3.71177">
        <ele>128.47</ele>
        <time>2016-02-07T13:28:50Z</time>
      </trkpt>
      <trkpt lat="43.85313" lon="3.71155">
        <ele>127.51</ele>
        <time>2016-02-07T13:28:51Z</time>
      </trkpt>
      <trkpt lat="43.85313" lon="3.71115">
        <ele>126.07</ele>
        <time>2016-02-07T13:28:53Z</time>
      </trkpt>
      <trkpt lat="43.85309" lon="3.71099">
        <ele>124.63</ele>
        <time>2016-02-07T13:28:54Z</time>
      </trkpt>
      <trkpt lat="43.85299" lon="3.71091">
        <ele>124.63</ele>
        <time>2016-02-07T13:28:55Z</time>
      </trkpt>
      <trkpt lat="43.85277" lon="3.71071">
        <ele>123.19</ele>
        <time>2016-02-07T13:28:57Z</time>
      </trkpt>
      <trkpt lat="43.85265" lon="3.71062">
        <ele>123.19</ele>
        <time>2016-02-07T13:28:58Z</time>
      </trkpt>
      <trkpt lat="43.85188" lon="3.70966">
        <ele>118.86</ele>
        <time>2016-02-07T13:29:05Z</time>
      </trkpt>
      <trkpt lat="43.85141" lon="3.70904">
        <ele>116.94</ele>
        <time>2016-02-07T13:29:10Z</time>
      </trkpt>
      <trkpt lat="43.85123" lon="3.70887">
        <ele>116.46</ele>
        <time>2016-02-07T13:29:12Z</time>
      </trkpt>
      <trkpt lat="43.85114" lon="3.70882">
        <ele>116.46</ele>
        <time>2016-02-07T13:29:13Z</time>
      </trkpt>
      <trkpt lat="43.85103" lon="3.70879">
        <ele>116.94</ele>
        <time>2016-02-07T13:29:14Z</time>
      </trkpt>
      <trkpt lat="43.85091" lon="3.7088">
        <ele>116.94</ele>
        <time>2016-02-07T13:29:15Z</time>
      </trkpt>
      <trkpt lat="43.8508" lon="3.70885">
        <ele>115.98</ele>
        <time>2016-02-07T13:29:16Z</time>
      </trkpt>
      <trkpt lat="43.85071" lon="3.70897">
        <ele>115.5</ele>
        <time>2016-02-07T13:29:17Z</time>
      </trkpt>
      <trkpt lat="43.85062" lon="3.70909">
        <ele>115.5</ele>
        <time>2016-02-07T13:29:18Z</time>
      </trkpt>
      <trkpt lat="43.85052" lon="3.70926">
        <ele>116.94</ele>
        <time>2016-02-07T13:29:19Z</time>
      </trkpt>
      <trkpt lat="43.85042" lon="3.7094">
        <ele>116.94</ele>
        <time>2016-02-07T13:29:20Z</time>
      </trkpt>
      <trkpt lat="43.84992" lon="3.7102">
        <ele>119.34</ele>
        <time>2016-02-07T13:29:25Z</time>
      </trkpt>
      <trkpt lat="43.8498" lon="3.71032">
        <ele>119.82</ele>
        <time>2016-02-07T13:29:26Z</time>
      </trkpt>
      <trkpt lat="43.84966" lon="3.71042">
        <ele>120.78</ele>
        <time>2016-02-07T13:29:27Z</time>
      </trkpt>
      <trkpt lat="43.84844" lon="3.71106">
        <ele>120.3</ele>
        <time>2016-02-07T13:29:35Z</time>
      </trkpt>
      <trkpt lat="43.84754" lon="3.71184">
        <ele>121.74</ele>
        <time>2016-02-07T13:29:42Z</time>
      </trkpt>
      <trkpt lat="43.84706" lon="3.71218">
        <ele>121.26</ele>
        <time>2016-02-07T13:29:46Z</time>
      </trkpt>
      <trkpt lat="43.84692" lon="3.71217">
        <ele>121.26</ele>
        <time>2016-02-07T13:29:47Z</time>
      </trkpt>
      <trkpt lat="43.84676" lon="3.71213">
        <ele>120.3</ele>
        <time>2016-02-07T13:29:48Z</time>
      </trkpt>
      <trkpt lat="43.84661" lon="3.71206">
        <ele>119.34</ele>
        <time>2016-02-07T13:29:49Z</time>
      </trkpt>
      <trkpt lat="43.84644" lon="3.71198">
        <ele>118.38</ele>
        <time>2016-02-07T13:29:50Z</time>
      </trkpt>
      <trkpt lat="43.84628" lon="3.71189">
        <ele>117.9</ele>
        <time>2016-02-07T13:29:51Z</time>
      </trkpt>
      <trkpt lat="43.84613" lon="3.71177">
        <ele>116.46</ele>
        <time>2016-02-07T13:29:52Z</time>
      </trkpt>
      <trkpt lat="43.84599" lon="3.71162">
        <ele>115.01</ele>
        <time>2016-02-07T13:29:53Z</time>
      </trkpt>
      <trkpt lat="43.84584" lon="3.71146">
        <ele>114.05</ele>
        <time>2016-02-07T13:29:54Z</time>
      </trkpt>
      <trkpt lat="43.84456" lon="3.71019">
        <ele>110.69</ele>
        <time>2016-02-07T13:30:02Z</time>
      </trkpt>
      <trkpt lat="43.84332" lon="3.7085">
        <ele>113.57</ele>
        <time>2016-02-07T13:30:11Z</time>
      </trkpt>
      <trkpt lat="43.84326" lon="3.7083">
        <ele>114.05</ele>
        <time>2016-02-07T13:30:12Z</time>
      </trkpt>
      <trkpt lat="43.84321" lon="3.70806">
        <ele>114.05</ele>
        <time>2016-02-07T13:30:13Z</time>
      </trkpt>
      <trkpt lat="43.84317" lon="3.70783">
        <ele>114.53</ele>
        <time>2016-02-07T13:30:14Z</time>
      </trkpt>
      <trkpt lat="43.84315" lon="3.70758">
        <ele>114.53</ele>
        <time>2016-02-07T13:30:15Z</time>
      </trkpt>
      <trkpt lat="43.84313" lon="3.70731">
        <ele>115.01</ele>
        <time>2016-02-07T13:30:16Z</time>
      </trkpt>
      <trkpt lat="43.84313" lon="3.70704">
        <ele>114.05</ele>
        <time>2016-02-07T13:30:17Z</time>
      </trkpt>
      <trkpt lat="43.84312" lon="3.70676">
        <ele>113.57</ele>
        <time>2016-02-07T13:30:18Z</time>
      </trkpt>
      <trkpt lat="43.84321" lon="3.7056">
        <ele>113.09</ele>
        <time>2016-02-07T13:30:22Z</time>
      </trkpt>
      <trkpt lat="43.84327" lon="3.70534">
        <ele>113.09</ele>
        <time>2016-02-07T13:30:23Z</time>
      </trkpt>
      <trkpt lat="43.84386" lon="3.70287">
        <ele>116.46</ele>
        <time>2016-02-07T13:30:33Z</time>
      </trkpt>
      <trkpt lat="43.84402" lon="3.7021">
        <ele>119.82</ele>
        <time>2016-02-07T13:30:37Z</time>
      </trkpt>
      <trkpt lat="43.84401" lon="3.70194">
        <ele>120.3</ele>
        <time>2016-02-07T13:30:38Z</time>
      </trkpt>
      <trkpt lat="43.84399" lon="3.70179">
        <ele>120.78</ele>
        <time>2016-02-07T13:30:39Z</time>
      </trkpt>
      <trkpt lat="43.84395" lon="3.70165">
        <ele>120.78</ele>
        <time>2016-02-07T13:30:40Z</time>
      </trkpt>
      <trkpt lat="43.8439" lon="3.70154">
        <ele>120.3</ele>
        <time>2016-02-07T13:30:41Z</time>
      </trkpt>
      <trkpt lat="43.84386" lon="3.70143">
        <ele>119.82</ele>
        <time>2016-02-07T13:30:42Z</time>
      </trkpt>
      <trkpt lat="43.84383" lon="3.70133">
        <ele>119.34</ele>
        <time>2016-02-07T13:30:43Z</time>
      </trkpt>
      <trkpt lat="43.84379" lon="3.70117">
        <ele>118.38</ele>
        <time>2016-02-07T13:30:45Z</time>
      </trkpt>
      <trkpt lat="43.84379" lon="3.7011">
        <ele>118.38</ele>
        <time>2016-02-07T13:30:46Z</time>
      </trkpt>
      <trkpt lat="43.8438" lon="3.70105">
        <ele>117.9</ele>
        <time>2016-02-07T13:30:47Z</time>
      </trkpt>
      <trkpt lat="43.84383" lon="3.70102">
        <ele>117.9</ele>
        <time>2016-02-07T13:30:48Z</time>
      </trkpt>
      <trkpt lat="43.84386" lon="3.701">
        <ele>117.9</ele>
        <time>2016-02-07T13:30:49Z</time>
      </trkpt>
      <trkpt lat="43.84389" lon="3.70099">
        <ele>117.9</ele>
        <time>2016-02-07T13:30:50Z</time>
      </trkpt>
      <trkpt lat="43.84392" lon="3.70098">
        <ele>117.9</ele>
        <time>2016-02-07T13:30:51Z</time>
      </trkpt>
      <trkpt lat="43.84437" lon="3.70088">
        <ele>118.86</ele>
        <time>2016-02-07T13:31:03Z</time>
      </trkpt>
      <trkpt lat="43.84441" lon="3.70085">
        <ele>118.38</ele>
        <time>2016-02-07T13:31:05Z</time>
      </trkpt>
      <trkpt lat="43.84441" lon="3.70081">
        <ele>118.38</ele>
        <time>2016-02-07T13:31:06Z</time>
      </trkpt>
      <trkpt lat="43.8444" lon="3.70075">
        <ele>117.9</ele>
        <time>2016-02-07T13:31:07Z</time>
      </trkpt>
      <trkpt lat="43.84437" lon="3.70066">
        <ele>117.9</ele>
        <time>2016-02-07T13:31:08Z</time>
      </trkpt>
      <trkpt lat="43.84434" lon="3.70052">
        <ele>117.9</ele>
        <time>2016-02-07T13:31:09Z</time>
      </trkpt>
      <trkpt lat="43.8443" lon="3.70037">
        <ele>116.94</ele>
        <time>2016-02-07T13:31:10Z</time>
      </trkpt>
      <trkpt lat="43.84428" lon="3.7002">
        <ele>116.46</ele>
        <time>2016-02-07T13:31:11Z</time>
      </trkpt>
      <trkpt lat="43.84418" lon="3.69937">
        <ele>115.01</ele>
        <time>2016-02-07T13:31:16Z</time>
      </trkpt>
      <trkpt lat="43.8442" lon="3.69918">
        <ele>114.53</ele>
        <time>2016-02-07T13:31:17Z</time>
      </trkpt>
      <trkpt lat="43.84423" lon="3.69899">
        <ele>114.53</ele>
        <time>2016-02-07T13:31:18Z</time>
      </trkpt>
      <trkpt lat="43.84436" lon="3.69813">
        <ele>114.53</ele>
        <time>2016-02-07T13:31:22Z</time>
      </trkpt>
      <trkpt lat="43.84436" lon="3.6979">
        <ele>114.53</ele>
        <time>2016-02-07T13:31:23Z</time>
      </trkpt>
      <trkpt lat="43.84432" lon="3.69767">
        <ele>115.01</ele>
        <time>2016-02-07T13:31:24Z</time>
      </trkpt>
      <trkpt lat="43.84427" lon="3.69745">
        <ele>115.01</ele>
        <time>2016-02-07T13:31:25Z</time>
      </trkpt>
      <trkpt lat="43.84418" lon="3.69724">
        <ele>115.5</ele>
        <time>2016-02-07T13:31:26Z</time>
      </trkpt>
      <trkpt lat="43.84405" lon="3.69707">
        <ele>115.5</ele>
        <time>2016-02-07T13:31:27Z</time>
      </trkpt>
      <trkpt lat="43.8439" lon="3.6969">
        <ele>115.98</ele>
        <time>2016-02-07T13:31:28Z</time>
      </trkpt>
      <trkpt lat="43.84376" lon="3.69675">
        <ele>116.46</ele>
        <time>2016-02-07T13:31:29Z</time>
      </trkpt>
      <trkpt lat="43.8435" lon="3.69639">
        <ele>117.9</ele>
        <time>2016-02-07T13:31:31Z</time>
      </trkpt>
      <trkpt lat="43.84341" lon="3.69617">
        <ele>118.38</ele>
        <time>2016-02-07T13:31:32Z</time>
      </trkpt>
      <trkpt lat="43.84335" lon="3.69592">
        <ele>118.38</ele>
        <time>2016-02-07T13:31:33Z</time>
      </trkpt>
      <trkpt lat="43.84331" lon="3.69566">
        <ele>118.38</ele>
        <time>2016-02-07T13:31:34Z</time>
      </trkpt>
      <trkpt lat="43.84331" lon="3.69538">
        <ele>118.38</ele>
        <time>2016-02-07T13:31:35Z</time>
      </trkpt>
      <trkpt lat="43.84333" lon="3.6951">
        <ele>117.9</ele>
        <time>2016-02-07T13:31:36Z</time>
      </trkpt>
      <trkpt lat="43.84336" lon="3.69483">
        <ele>116.94</ele>
        <time>2016-02-07T13:31:37Z</time>
      </trkpt>
      <trkpt lat="43.84337" lon="3.69456">
        <ele>116.46</ele>
        <time>2016-02-07T13:31:38Z</time>
      </trkpt>
      <trkpt lat="43.84336" lon="3.6943">
        <ele>115.98</ele>
        <time>2016-02-07T13:31:39Z</time>
      </trkpt>
      <trkpt lat="43.84332" lon="3.69405">
        <ele>115.5</ele>
        <time>2016-02-07T13:31:40Z</time>
      </trkpt>
      <trkpt lat="43.84325" lon="3.6938">
        <ele>115.01</ele>
        <time>2016-02-07T13:31:41Z</time>
      </trkpt>
      <trkpt lat="43.84318" lon="3.69357">
        <ele>115.01</ele>
        <time>2016-02-07T13:31:42Z</time>
      </trkpt>
      <trkpt lat="43.84313" lon="3.69333">
        <ele>114.53</ele>
        <time>2016-02-07T13:31:43Z</time>
      </trkpt>
      <trkpt lat="43.8431" lon="3.69309">
        <ele>114.53</ele>
        <time>2016-02-07T13:31:44Z</time>
      </trkpt>
      <trkpt lat="43.8431" lon="3.69286">
        <ele>114.05</ele>
        <time>2016-02-07T13:31:45Z</time>
      </trkpt>
      <trkpt lat="43.84308" lon="3.69262">
        <ele>114.05</ele>
        <time>2016-02-07T13:31:46Z</time>
      </trkpt>
      <trkpt lat="43.84305" lon="3.6924">
        <ele>114.05</ele>
        <time>2016-02-07T13:31:47Z</time>
      </trkpt>
      <trkpt lat="43.843" lon="3.69218">
        <ele>113.09</ele>
        <time>2016-02-07T13:31:48Z</time>
      </trkpt>
      <trkpt lat="43.84293" lon="3.69197">
        <ele>113.57</ele>
        <time>2016-02-07T13:31:49Z</time>
      </trkpt>
      <trkpt lat="43.84283" lon="3.69178">
        <ele>113.57</ele>
        <time>2016-02-07T13:31:50Z</time>
      </trkpt>
      <trkpt lat="43.84271" lon="3.69162">
        <ele>112.61</ele>
        <time>2016-02-07T13:31:51Z</time>
      </trkpt>
      <trkpt lat="43.84256" lon="3.69149">
        <ele>112.13</ele>
        <time>2016-02-07T13:31:52Z</time>
      </trkpt>
      <trkpt lat="43.84243" lon="3.69136">
        <ele>111.65</ele>
        <time>2016-02-07T13:31:53Z</time>
      </trkpt>
      <trkpt lat="43.84228" lon="3.69127">
        <ele>111.17</ele>
        <time>2016-02-07T13:31:54Z</time>
      </trkpt>
      <trkpt lat="43.84211" lon="3.69121">
        <ele>111.65</ele>
        <time>2016-02-07T13:31:55Z</time>
      </trkpt>
      <trkpt lat="43.84193" lon="3.69116">
        <ele>111.65</ele>
        <time>2016-02-07T13:31:56Z</time>
      </trkpt>
      <trkpt lat="43.84176" lon="3.69113">
        <ele>111.65</ele>
        <time>2016-02-07T13:31:57Z</time>
      </trkpt>
      <trkpt lat="43.84159" lon="3.69116">
        <ele>111.65</ele>
        <time>2016-02-07T13:31:58Z</time>
      </trkpt>
      <trkpt lat="43.84144" lon="3.6912">
        <ele>110.69</ele>
        <time>2016-02-07T13:31:59Z</time>
      </trkpt>
      <trkpt lat="43.8413" lon="3.69124">
        <ele>110.69</ele>
        <time>2016-02-07T13:32:00Z</time>
      </trkpt>
      <trkpt lat="43.84117" lon="3.69124">
        <ele>109.73</ele>
        <time>2016-02-07T13:32:01Z</time>
      </trkpt>
      <trkpt lat="43.84104" lon="3.69119">
        <ele>109.25</ele>
        <time>2016-02-07T13:32:02Z</time>
      </trkpt>
      <trkpt lat="43.84095" lon="3.69105">
        <ele>108.77</ele>
        <time>2016-02-07T13:32:03Z</time>
      </trkpt>
      <trkpt lat="43.84087" lon="3.69088">
        <ele>108.29</ele>
        <time>2016-02-07T13:32:04Z</time>
      </trkpt>
      <trkpt lat="43.84079" lon="3.69068">
        <ele>107.81</ele>
        <time>2016-02-07T13:32:05Z</time>
      </trkpt>
      <trkpt lat="43.84073" lon="3.69046">
        <ele>107.32</ele>
        <time>2016-02-07T13:32:06Z</time>
      </trkpt>
      <trkpt lat="43.84066" lon="3.69023">
        <ele>108.29</ele>
        <time>2016-02-07T13:32:07Z</time>
      </trkpt>
      <trkpt lat="43.84059" lon="3.68999">
        <ele>109.25</ele>
        <time>2016-02-07T13:32:08Z</time>
      </trkpt>
      <trkpt lat="43.83987" lon="3.68789">
        <ele>112.13</ele>
        <time>2016-02-07T13:32:16Z</time>
      </trkpt>
      <trkpt lat="43.8392" lon="3.6867">
        <ele>112.61</ele>
        <time>2016-02-07T13:32:22Z</time>
      </trkpt>
      <trkpt lat="43.83907" lon="3.68655">
        <ele>113.09</ele>
        <time>2016-02-07T13:32:23Z</time>
      </trkpt>
      <trkpt lat="43.83892" lon="3.68641">
        <ele>113.57</ele>
        <time>2016-02-07T13:32:24Z</time>
      </trkpt>
      <trkpt lat="43.83877" lon="3.68629">
        <ele>114.05</ele>
        <time>2016-02-07T13:32:25Z</time>
      </trkpt>
      <trkpt lat="43.83862" lon="3.68618">
        <ele>114.53</ele>
        <time>2016-02-07T13:32:26Z</time>
      </trkpt>
      <trkpt lat="43.83848" lon="3.68609">
        <ele>115.01</ele>
        <time>2016-02-07T13:32:27Z</time>
      </trkpt>
      <trkpt lat="43.83832" lon="3.68602">
        <ele>115.5</ele>
        <time>2016-02-07T13:32:28Z</time>
      </trkpt>
      <trkpt lat="43.83815" lon="3.68598">
        <ele>115.98</ele>
        <time>2016-02-07T13:32:29Z</time>
      </trkpt>
      <trkpt lat="43.83798" lon="3.68598">
        <ele>116.46</ele>
        <time>2016-02-07T13:32:30Z</time>
      </trkpt>
      <trkpt lat="43.83782" lon="3.686">
        <ele>117.42</ele>
        <time>2016-02-07T13:32:31Z</time>
      </trkpt>
      <trkpt lat="43.83764" lon="3.68604">
        <ele>117.9</ele>
        <time>2016-02-07T13:32:32Z</time>
      </trkpt>
      <trkpt lat="43.83747" lon="3.68609">
        <ele>118.38</ele>
        <time>2016-02-07T13:32:33Z</time>
      </trkpt>
      <trkpt lat="43.83669" lon="3.68658">
        <ele>116.46</ele>
        <time>2016-02-07T13:32:38Z</time>
      </trkpt>
      <trkpt lat="43.83656" lon="3.68669">
        <ele>116.46</ele>
        <time>2016-02-07T13:32:39Z</time>
      </trkpt>
      <trkpt lat="43.83646" lon="3.68682">
        <ele>115.5</ele>
        <time>2016-02-07T13:32:40Z</time>
      </trkpt>
      <trkpt lat="43.83636" lon="3.68694">
        <ele>114.53</ele>
        <time>2016-02-07T13:32:41Z</time>
      </trkpt>
      <trkpt lat="43.83626" lon="3.68705">
        <ele>114.05</ele>
        <time>2016-02-07T13:32:42Z</time>
      </trkpt>
      <trkpt lat="43.83616" lon="3.68712">
        <ele>114.05</ele>
        <time>2016-02-07T13:32:43Z</time>
      </trkpt>
      <trkpt lat="43.83605" lon="3.68716">
        <ele>114.05</ele>
        <time>2016-02-07T13:32:44Z</time>
      </trkpt>
      <trkpt lat="43.83594" lon="3.68711">
        <ele>113.09</ele>
        <time>2016-02-07T13:32:45Z</time>
      </trkpt>
      <trkpt lat="43.83581" lon="3.68704">
        <ele>113.09</ele>
        <time>2016-02-07T13:32:46Z</time>
      </trkpt>
      <trkpt lat="43.83567" lon="3.68697">
        <ele>113.57</ele>
        <time>2016-02-07T13:32:47Z</time>
      </trkpt>
      <trkpt lat="43.83504" lon="3.68658">
        <ele>115.5</ele>
        <time>2016-02-07T13:32:52Z</time>
      </trkpt>
      <trkpt lat="43.835" lon="3.68643">
        <ele>116.46</ele>
        <time>2016-02-07T13:32:53Z</time>
      </trkpt>
      <trkpt lat="43.835" lon="3.68623">
        <ele>115.98</ele>
        <time>2016-02-07T13:32:54Z</time>
      </trkpt>
      <trkpt lat="43.83504" lon="3.68605">
        <ele>116.46</ele>
        <time>2016-02-07T13:32:55Z</time>
      </trkpt>
      <trkpt lat="43.83513" lon="3.68591">
        <ele>116.94</ele>
        <time>2016-02-07T13:32:56Z</time>
      </trkpt>
      <trkpt lat="43.83522" lon="3.68575">
        <ele>117.9</ele>
        <time>2016-02-07T13:32:57Z</time>
      </trkpt>
      <trkpt lat="43.8353" lon="3.6856">
        <ele>118.86</ele>
        <time>2016-02-07T13:32:58Z</time>
      </trkpt>
      <trkpt lat="43.83558" lon="3.68497">
        <ele>121.74</ele>
        <time>2016-02-07T13:33:02Z</time>
      </trkpt>
      <trkpt lat="43.83562" lon="3.6848">
        <ele>122.71</ele>
        <time>2016-02-07T13:33:03Z</time>
      </trkpt>
      <trkpt lat="43.83565" lon="3.68463">
        <ele>123.67</ele>
        <time>2016-02-07T13:33:04Z</time>
      </trkpt>
      <trkpt lat="43.8357" lon="3.68396">
        <ele>126.07</ele>
        <time>2016-02-07T13:33:08Z</time>
      </trkpt>
      <trkpt lat="43.83566" lon="3.68383">
        <ele>126.55</ele>
        <time>2016-02-07T13:33:09Z</time>
      </trkpt>
      <trkpt lat="43.83555" lon="3.6837">
        <ele>127.51</ele>
        <time>2016-02-07T13:33:10Z</time>
      </trkpt>
      <trkpt lat="43.83545" lon="3.68355">
        <ele>127.99</ele>
        <time>2016-02-07T13:33:11Z</time>
      </trkpt>
      <trkpt lat="43.83534" lon="3.68342">
        <ele>128.95</ele>
        <time>2016-02-07T13:33:12Z</time>
      </trkpt>
      <trkpt lat="43.83522" lon="3.6833">
        <ele>129.43</ele>
        <time>2016-02-07T13:33:13Z</time>
      </trkpt>
      <trkpt lat="43.83509" lon="3.68317">
        <ele>129.92</ele>
        <time>2016-02-07T13:33:14Z</time>
      </trkpt>
      <trkpt lat="43.83494" lon="3.68304">
        <ele>130.4</ele>
        <time>2016-02-07T13:33:15Z</time>
      </trkpt>
      <trkpt lat="43.83407" lon="3.68238">
        <ele>135.2</ele>
        <time>2016-02-07T13:33:21Z</time>
      </trkpt>
      <trkpt lat="43.83391" lon="3.68234">
        <ele>136.16</ele>
        <time>2016-02-07T13:33:22Z</time>
      </trkpt>
      <trkpt lat="43.83373" lon="3.68232">
        <ele>137.13</ele>
        <time>2016-02-07T13:33:23Z</time>
      </trkpt>
      <trkpt lat="43.83218" lon="3.68251">
        <ele>144.82</ele>
        <time>2016-02-07T13:33:31Z</time>
      </trkpt>
      <trkpt lat="43.83132" lon="3.68306">
        <ele>149.14</ele>
        <time>2016-02-07T13:33:36Z</time>
      </trkpt>
      <trkpt lat="43.8312" lon="3.68325">
        <ele>150.1</ele>
        <time>2016-02-07T13:33:37Z</time>
      </trkpt>
      <trkpt lat="43.83113" lon="3.68347">
        <ele>150.58</ele>
        <time>2016-02-07T13:33:38Z</time>
      </trkpt>
      <trkpt lat="43.83106" lon="3.68368">
        <ele>151.54</ele>
        <time>2016-02-07T13:33:39Z</time>
      </trkpt>
      <trkpt lat="43.83098" lon="3.68389">
        <ele>152.03</ele>
        <time>2016-02-07T13:33:40Z</time>
      </trkpt>
      <trkpt lat="43.83089" lon="3.68407">
        <ele>152.99</ele>
        <time>2016-02-07T13:33:41Z</time>
      </trkpt>
      <trkpt lat="43.83077" lon="3.68422">
        <ele>153.95</ele>
        <time>2016-02-07T13:33:42Z</time>
      </trkpt>
      <trkpt lat="43.83064" lon="3.68432">
        <ele>154.91</ele>
        <time>2016-02-07T13:33:43Z</time>
      </trkpt>
      <trkpt lat="43.8305" lon="3.68435">
        <ele>155.39</ele>
        <time>2016-02-07T13:33:44Z</time>
      </trkpt>
      <trkpt lat="43.83036" lon="3.68433">
        <ele>156.35</ele>
        <time>2016-02-07T13:33:45Z</time>
      </trkpt>
      <trkpt lat="43.83022" lon="3.68428">
        <ele>157.31</ele>
        <time>2016-02-07T13:33:46Z</time>
      </trkpt>
      <trkpt lat="43.83008" lon="3.68417">
        <ele>158.27</ele>
        <time>2016-02-07T13:33:47Z</time>
      </trkpt>
      <trkpt lat="43.82996" lon="3.68404">
        <ele>158.75</ele>
        <time>2016-02-07T13:33:48Z</time>
      </trkpt>
      <trkpt lat="43.82983" lon="3.68391">
        <ele>159.24</ele>
        <time>2016-02-07T13:33:49Z</time>
      </trkpt>
      <trkpt lat="43.82972" lon="3.68376">
        <ele>160.2</ele>
        <time>2016-02-07T13:33:50Z</time>
      </trkpt>
      <trkpt lat="43.82961" lon="3.68359">
        <ele>160.68</ele>
        <time>2016-02-07T13:33:51Z</time>
      </trkpt>
      <trkpt lat="43.82952" lon="3.68341">
        <ele>161.64</ele>
        <time>2016-02-07T13:33:52Z</time>
      </trkpt>
      <trkpt lat="43.82943" lon="3.68323">
        <ele>162.12</ele>
        <time>2016-02-07T13:33:53Z</time>
      </trkpt>
      <trkpt lat="43.82936" lon="3.68303">
        <ele>163.08</ele>
        <time>2016-02-07T13:33:54Z</time>
      </trkpt>
      <trkpt lat="43.82931" lon="3.68283">
        <ele>163.56</ele>
        <time>2016-02-07T13:33:55Z</time>
      </trkpt>
      <trkpt lat="43.82915" lon="3.68256">
        <ele>165</ele>
        <time>2016-02-07T13:33:57Z</time>
      </trkpt>
      <trkpt lat="43.82904" lon="3.68249">
        <ele>165.96</ele>
        <time>2016-02-07T13:33:58Z</time>
      </trkpt>
      <trkpt lat="43.82893" lon="3.68248">
        <ele>166.45</ele>
        <time>2016-02-07T13:33:59Z</time>
      </trkpt>
      <trkpt lat="43.82878" lon="3.68247">
        <ele>167.89</ele>
        <time>2016-02-07T13:34:00Z</time>
      </trkpt>
      <trkpt lat="43.82861" lon="3.68245">
        <ele>168.85</ele>
        <time>2016-02-07T13:34:01Z</time>
      </trkpt>
      <trkpt lat="43.82843" lon="3.68239">
        <ele>169.33</ele>
        <time>2016-02-07T13:34:02Z</time>
      </trkpt>
      <trkpt lat="43.82827" lon="3.68227">
        <ele>169.81</ele>
        <time>2016-02-07T13:34:03Z</time>
      </trkpt>
      <trkpt lat="43.82813" lon="3.68212">
        <ele>171.25</ele>
        <time>2016-02-07T13:34:04Z</time>
      </trkpt>
      <trkpt lat="43.82701" lon="3.68102">
        <ele>179.9</ele>
        <time>2016-02-07T13:34:12Z</time>
      </trkpt>
      <trkpt lat="43.8269" lon="3.68092">
        <ele>180.87</ele>
        <time>2016-02-07T13:34:13Z</time>
      </trkpt>
      <trkpt lat="43.8268" lon="3.6808">
        <ele>181.83</ele>
        <time>2016-02-07T13:34:14Z</time>
      </trkpt>
      <trkpt lat="43.82672" lon="3.68065">
        <ele>182.79</ele>
        <time>2016-02-07T13:34:15Z</time>
      </trkpt>
      <trkpt lat="43.82653" lon="3.68032">
        <ele>184.23</ele>
        <time>2016-02-07T13:34:17Z</time>
      </trkpt>
      <trkpt lat="43.82597" lon="3.67942">
        <ele>188.08</ele>
        <time>2016-02-07T13:34:22Z</time>
      </trkpt>
      <trkpt lat="43.82585" lon="3.67928">
        <ele>188.56</ele>
        <time>2016-02-07T13:34:23Z</time>
      </trkpt>
      <trkpt lat="43.82572" lon="3.67919">
        <ele>189.52</ele>
        <time>2016-02-07T13:34:24Z</time>
      </trkpt>
      <trkpt lat="43.82551" lon="3.67901">
        <ele>190.96</ele>
        <time>2016-02-07T13:34:26Z</time>
      </trkpt>
      <trkpt lat="43.82545" lon="3.67887">
        <ele>191.44</ele>
        <time>2016-02-07T13:34:27Z</time>
      </trkpt>
      <trkpt lat="43.82539" lon="3.67871">
        <ele>191.92</ele>
        <time>2016-02-07T13:34:28Z</time>
      </trkpt>
      <trkpt lat="43.82534" lon="3.67854">
        <ele>193.36</ele>
        <time>2016-02-07T13:34:29Z</time>
      </trkpt>
      <trkpt lat="43.82528" lon="3.67837">
        <ele>193.84</ele>
        <time>2016-02-07T13:34:30Z</time>
      </trkpt>
      <trkpt lat="43.82518" lon="3.67827">
        <ele>194.8</ele>
        <time>2016-02-07T13:34:31Z</time>
      </trkpt>
      <trkpt lat="43.82506" lon="3.67815">
        <ele>195.77</ele>
        <time>2016-02-07T13:34:32Z</time>
      </trkpt>
      <trkpt lat="43.8249" lon="3.67807">
        <ele>196.73</ele>
        <time>2016-02-07T13:34:33Z</time>
      </trkpt>
      <trkpt lat="43.82474" lon="3.67797">
        <ele>197.21</ele>
        <time>2016-02-07T13:34:34Z</time>
      </trkpt>
      <trkpt lat="43.82374" lon="3.67747">
        <ele>202.49</ele>
        <time>2016-02-07T13:34:40Z</time>
      </trkpt>
      <trkpt lat="43.82357" lon="3.67745">
        <ele>203.94</ele>
        <time>2016-02-07T13:34:41Z</time>
      </trkpt>
      <trkpt lat="43.82341" lon="3.67744">
        <ele>204.9</ele>
        <time>2016-02-07T13:34:42Z</time>
      </trkpt>
      <trkpt lat="43.82314" lon="3.67743">
        <ele>206.82</ele>
        <time>2016-02-07T13:34:44Z</time>
      </trkpt>
      <trkpt lat="43.82302" lon="3.67739">
        <ele>207.3</ele>
        <time>2016-02-07T13:34:45Z</time>
      </trkpt>
      <trkpt lat="43.8229" lon="3.67729">
        <ele>208.26</ele>
        <time>2016-02-07T13:34:46Z</time>
      </trkpt>
      <trkpt lat="43.82278" lon="3.67714">
        <ele>209.22</ele>
        <time>2016-02-07T13:34:47Z</time>
      </trkpt>
      <trkpt lat="43.82266" lon="3.67699">
        <ele>210.19</ele>
        <time>2016-02-07T13:34:48Z</time>
      </trkpt>
      <trkpt lat="43.82254" lon="3.67681">
        <ele>211.15</ele>
        <time>2016-02-07T13:34:49Z</time>
      </trkpt>
      <trkpt lat="43.82209" lon="3.67597">
        <ele>214.51</ele>
        <time>2016-02-07T13:34:53Z</time>
      </trkpt>
      <trkpt lat="43.82202" lon="3.67571">
        <ele>214.99</ele>
        <time>2016-02-07T13:34:54Z</time>
      </trkpt>
      <trkpt lat="43.82196" lon="3.67545">
        <ele>215.95</ele>
        <time>2016-02-07T13:34:55Z</time>
      </trkpt>
      <trkpt lat="43.82193" lon="3.67519">
        <ele>216.91</ele>
        <time>2016-02-07T13:34:56Z</time>
      </trkpt>
      <trkpt lat="43.8219" lon="3.67492">
        <ele>218.36</ele>
        <time>2016-02-07T13:34:57Z</time>
      </trkpt>
      <trkpt lat="43.82188" lon="3.67466">
        <ele>219.32</ele>
        <time>2016-02-07T13:34:58Z</time>
      </trkpt>
      <trkpt lat="43.82166" lon="3.6734">
        <ele>223.64</ele>
        <time>2016-02-07T13:35:03Z</time>
      </trkpt>
      <trkpt lat="43.82157" lon="3.67317">
        <ele>224.12</ele>
        <time>2016-02-07T13:35:04Z</time>
      </trkpt>
      <trkpt lat="43.82148" lon="3.67294">
        <ele>224.12</ele>
        <time>2016-02-07T13:35:05Z</time>
      </trkpt>
      <trkpt lat="43.82056" lon="3.67127">
        <ele>225.09</ele>
        <time>2016-02-07T13:35:12Z</time>
      </trkpt>
      <trkpt lat="43.81887" lon="3.66833">
        <ele>228.45</ele>
        <time>2016-02-07T13:35:25Z</time>
      </trkpt>
      <trkpt lat="43.81657" lon="3.66429">
        <ele>230.37</ele>
        <time>2016-02-07T13:35:42Z</time>
      </trkpt>
      <trkpt lat="43.81463" lon="3.66088">
        <ele>239.02</ele>
        <time>2016-02-07T13:35:57Z</time>
      </trkpt>
      <trkpt lat="43.81366" lon="3.65988">
        <ele>248.16</ele>
        <time>2016-02-07T13:36:04Z</time>
      </trkpt>
      <trkpt lat="43.81228" lon="3.6586">
        <ele>252.96</ele>
        <time>2016-02-07T13:36:13Z</time>
      </trkpt>
      <trkpt lat="43.81092" lon="3.65652">
        <ele>250.56</ele>
        <time>2016-02-07T13:36:22Z</time>
      </trkpt>
      <trkpt lat="43.80848" lon="3.65275">
        <ele>242.87</ele>
        <time>2016-02-07T13:36:39Z</time>
      </trkpt>
      <trkpt lat="43.80694" lon="3.65038">
        <ele>247.2</ele>
        <time>2016-02-07T13:36:50Z</time>
      </trkpt>
      <trkpt lat="43.80618" lon="3.64926">
        <ele>246.23</ele>
        <time>2016-02-07T13:36:58Z</time>
      </trkpt>
      <trkpt lat="43.80595" lon="3.64888">
        <ele>245.27</ele>
        <time>2016-02-07T13:37:02Z</time>
      </trkpt>
      <trkpt lat="43.80592" lon="3.6488">
        <ele>245.27</ele>
        <time>2016-02-07T13:37:03Z</time>
      </trkpt>
      <trkpt lat="43.80591" lon="3.64872">
        <ele>245.27</ele>
        <time>2016-02-07T13:37:04Z</time>
      </trkpt>
      <trkpt lat="43.80589" lon="3.64865">
        <ele>245.27</ele>
        <time>2016-02-07T13:37:05Z</time>
      </trkpt>
      <trkpt lat="43.80586" lon="3.6486">
        <ele>245.27</ele>
        <time>2016-02-07T13:37:06Z</time>
      </trkpt>
      <trkpt lat="43.80582" lon="3.64857">
        <ele>245.27</ele>
        <time>2016-02-07T13:37:07Z</time>
      </trkpt>
      <trkpt lat="43.80576" lon="3.64854">
        <ele>244.79</ele>
        <time>2016-02-07T13:37:08Z</time>
      </trkpt>
      <trkpt lat="43.80569" lon="3.64849">
        <ele>244.79</ele>
        <time>2016-02-07T13:37:09Z</time>
      </trkpt>
      <trkpt lat="43.80561" lon="3.6484">
        <ele>244.79</ele>
        <time>2016-02-07T13:37:10Z</time>
      </trkpt>
      <trkpt lat="43.80554" lon="3.64829">
        <ele>244.79</ele>
        <time>2016-02-07T13:37:11Z</time>
      </trkpt>
      <trkpt lat="43.80493" lon="3.64732">
        <ele>245.75</ele>
        <time>2016-02-07T13:37:20Z</time>
      </trkpt>
      <trkpt lat="43.80478" lon="3.64695">
        <ele>246.23</ele>
        <time>2016-02-07T13:37:23Z</time>
      </trkpt>
      <trkpt lat="43.80474" lon="3.64682">
        <ele>246.23</ele>
        <time>2016-02-07T13:37:24Z</time>
      </trkpt>
      <trkpt lat="43.8044" lon="3.64526">
        <ele>251.04</ele>
        <time>2016-02-07T13:37:36Z</time>
      </trkpt>
      <trkpt lat="43.804" lon="3.64361">
        <ele>250.56</ele>
        <time>2016-02-07T13:37:46Z</time>
      </trkpt>
      <trkpt lat="43.80393" lon="3.64346">
        <ele>250.08</ele>
        <time>2016-02-07T13:37:47Z</time>
      </trkpt>
      <trkpt lat="43.80385" lon="3.64333">
        <ele>249.6</ele>
        <time>2016-02-07T13:37:48Z</time>
      </trkpt>
      <trkpt lat="43.80375" lon="3.6432">
        <ele>249.6</ele>
        <time>2016-02-07T13:37:49Z</time>
      </trkpt>
      <trkpt lat="43.80363" lon="3.64308">
        <ele>249.12</ele>
        <time>2016-02-07T13:37:50Z</time>
      </trkpt>
      <trkpt lat="43.80349" lon="3.64296">
        <ele>248.64</ele>
        <time>2016-02-07T13:37:51Z</time>
      </trkpt>
      <trkpt lat="43.80322" lon="3.64268">
        <ele>248.64</ele>
        <time>2016-02-07T13:37:53Z</time>
      </trkpt>
      <trkpt lat="43.80309" lon="3.64249">
        <ele>248.64</ele>
        <time>2016-02-07T13:37:54Z</time>
      </trkpt>
      <trkpt lat="43.803" lon="3.64227">
        <ele>248.16</ele>
        <time>2016-02-07T13:37:55Z</time>
      </trkpt>
      <trkpt lat="43.80295" lon="3.64203">
        <ele>248.16</ele>
        <time>2016-02-07T13:37:56Z</time>
      </trkpt>
      <trkpt lat="43.80293" lon="3.64178">
        <ele>247.68</ele>
        <time>2016-02-07T13:37:57Z</time>
      </trkpt>
      <trkpt lat="43.80292" lon="3.64153">
        <ele>247.68</ele>
        <time>2016-02-07T13:37:58Z</time>
      </trkpt>
      <trkpt lat="43.80292" lon="3.64129">
        <ele>248.16</ele>
        <time>2016-02-07T13:37:59Z</time>
      </trkpt>
      <trkpt lat="43.80289" lon="3.64086">
        <ele>248.16</ele>
        <time>2016-02-07T13:38:01Z</time>
      </trkpt>
      <trkpt lat="43.80284" lon="3.64066">
        <ele>248.16</ele>
        <time>2016-02-07T13:38:02Z</time>
      </trkpt>
      <trkpt lat="43.80276" lon="3.64046">
        <ele>248.16</ele>
        <time>2016-02-07T13:38:03Z</time>
      </trkpt>
      <trkpt lat="43.80266" lon="3.64029">
        <ele>248.16</ele>
        <time>2016-02-07T13:38:04Z</time>
      </trkpt>
      <trkpt lat="43.80252" lon="3.64016">
        <ele>248.16</ele>
        <time>2016-02-07T13:38:05Z</time>
      </trkpt>
      <trkpt lat="43.80236" lon="3.64005">
        <ele>249.6</ele>
        <time>2016-02-07T13:38:06Z</time>
      </trkpt>
      <trkpt lat="43.8022" lon="3.63993">
        <ele>251.04</ele>
        <time>2016-02-07T13:38:07Z</time>
      </trkpt>
      <trkpt lat="43.80174" lon="3.63952">
        <ele>253.93</ele>
        <time>2016-02-07T13:38:10Z</time>
      </trkpt>
      <trkpt lat="43.8016" lon="3.63932">
        <ele>254.89</ele>
        <time>2016-02-07T13:38:11Z</time>
      </trkpt>
      <trkpt lat="43.80149" lon="3.6391">
        <ele>255.85</ele>
        <time>2016-02-07T13:38:12Z</time>
      </trkpt>
      <trkpt lat="43.8014" lon="3.63885">
        <ele>256.33</ele>
        <time>2016-02-07T13:38:13Z</time>
      </trkpt>
      <trkpt lat="43.80134" lon="3.63856">
        <ele>257.29</ele>
        <time>2016-02-07T13:38:14Z</time>
      </trkpt>
      <trkpt lat="43.80128" lon="3.63827">
        <ele>258.25</ele>
        <time>2016-02-07T13:38:15Z</time>
      </trkpt>
      <trkpt lat="43.80123" lon="3.63796">
        <ele>259.21</ele>
        <time>2016-02-07T13:38:16Z</time>
      </trkpt>
      <trkpt lat="43.80103" lon="3.63664">
        <ele>263.54</ele>
        <time>2016-02-07T13:38:21Z</time>
      </trkpt>
      <trkpt lat="43.80105" lon="3.63638">
        <ele>264.5</ele>
        <time>2016-02-07T13:38:22Z</time>
      </trkpt>
      <trkpt lat="43.80113" lon="3.63532">
        <ele>268.83</ele>
        <time>2016-02-07T13:38:26Z</time>
      </trkpt>
      <trkpt lat="43.8011" lon="3.63506">
        <ele>269.79</ele>
        <time>2016-02-07T13:38:27Z</time>
      </trkpt>
      <trkpt lat="43.80103" lon="3.6348">
        <ele>271.23</ele>
        <time>2016-02-07T13:38:28Z</time>
      </trkpt>
      <trkpt lat="43.80035" lon="3.63298">
        <ele>278.92</ele>
        <time>2016-02-07T13:38:35Z</time>
      </trkpt>
      <trkpt lat="43.79918" lon="3.63058">
        <ele>288.53</ele>
        <time>2016-02-07T13:38:45Z</time>
      </trkpt>
      <trkpt lat="43.79771" lon="3.62799">
        <ele>285.65</ele>
        <time>2016-02-07T13:38:56Z</time>
      </trkpt>
      <trkpt lat="43.79535" lon="3.62414">
        <ele>283.25</ele>
        <time>2016-02-07T13:39:13Z</time>
      </trkpt>
      <trkpt lat="43.79352" lon="3.62155">
        <ele>285.17</ele>
        <time>2016-02-07T13:39:25Z</time>
      </trkpt>
      <trkpt lat="43.79131" lon="3.61937">
        <ele>285.17</ele>
        <time>2016-02-07T13:39:38Z</time>
      </trkpt>
      <trkpt lat="43.79031" lon="3.61797">
        <ele>286.13</ele>
        <time>2016-02-07T13:39:45Z</time>
      </trkpt>
      <trkpt lat="43.79022" lon="3.61771">
        <ele>286.13</ele>
        <time>2016-02-07T13:39:46Z</time>
      </trkpt>
      <trkpt lat="43.79015" lon="3.61744">
        <ele>286.61</ele>
        <time>2016-02-07T13:39:47Z</time>
      </trkpt>
      <trkpt lat="43.78949" lon="3.61607">
        <ele>289.49</ele>
        <time>2016-02-07T13:39:53Z</time>
      </trkpt>
      <trkpt lat="43.78932" lon="3.61592">
        <ele>291.42</ele>
        <time>2016-02-07T13:39:54Z</time>
      </trkpt>
      <trkpt lat="43.78915" lon="3.61576">
        <ele>293.34</ele>
        <time>2016-02-07T13:39:55Z</time>
      </trkpt>
      <trkpt lat="43.78898" lon="3.61559">
        <ele>294.78</ele>
        <time>2016-02-07T13:39:56Z</time>
      </trkpt>
      <trkpt lat="43.78883" lon="3.61538">
        <ele>295.74</ele>
        <time>2016-02-07T13:39:57Z</time>
      </trkpt>
      <trkpt lat="43.7871" lon="3.613">
        <ele>308.24</ele>
        <time>2016-02-07T13:40:08Z</time>
      </trkpt>
      <trkpt lat="43.78477" lon="3.6098">
        <ele>306.8</ele>
        <time>2016-02-07T13:40:23Z</time>
      </trkpt>
      <trkpt lat="43.78374" lon="3.60853">
        <ele>302.95</ele>
        <time>2016-02-07T13:40:30Z</time>
      </trkpt>
      <trkpt lat="43.78355" lon="3.60841">
        <ele>301.99</ele>
        <time>2016-02-07T13:40:31Z</time>
      </trkpt>
      <trkpt lat="43.78335" lon="3.60832">
        <ele>301.51</ele>
        <time>2016-02-07T13:40:32Z</time>
      </trkpt>
      <trkpt lat="43.78213" lon="3.60773">
        <ele>297.67</ele>
        <time>2016-02-07T13:40:39Z</time>
      </trkpt>
      <trkpt lat="43.78199" lon="3.60759">
        <ele>297.18</ele>
        <time>2016-02-07T13:40:40Z</time>
      </trkpt>
      <trkpt lat="43.78187" lon="3.60742">
        <ele>296.7</ele>
        <time>2016-02-07T13:40:41Z</time>
      </trkpt>
      <trkpt lat="43.78179" lon="3.60725">
        <ele>295.74</ele>
        <time>2016-02-07T13:40:42Z</time>
      </trkpt>
      <trkpt lat="43.78173" lon="3.60709">
        <ele>295.26</ele>
        <time>2016-02-07T13:40:43Z</time>
      </trkpt>
      <trkpt lat="43.78172" lon="3.60691">
        <ele>294.78</ele>
        <time>2016-02-07T13:40:44Z</time>
      </trkpt>
      <trkpt lat="43.78175" lon="3.60673">
        <ele>293.82</ele>
        <time>2016-02-07T13:40:45Z</time>
      </trkpt>
      <trkpt lat="43.7818" lon="3.60657">
        <ele>293.34</ele>
        <time>2016-02-07T13:40:46Z</time>
      </trkpt>
      <trkpt lat="43.78184" lon="3.60642">
        <ele>292.86</ele>
        <time>2016-02-07T13:40:47Z</time>
      </trkpt>
      <trkpt lat="43.78186" lon="3.60627">
        <ele>292.38</ele>
        <time>2016-02-07T13:40:48Z</time>
      </trkpt>
      <trkpt lat="43.78185" lon="3.60611">
        <ele>291.42</ele>
        <time>2016-02-07T13:40:49Z</time>
      </trkpt>
      <trkpt lat="43.78179" lon="3.606">
        <ele>290.94</ele>
        <time>2016-02-07T13:40:50Z</time>
      </trkpt>
      <trkpt lat="43.78172" lon="3.60587">
        <ele>289.97</ele>
        <time>2016-02-07T13:40:51Z</time>
      </trkpt>
      <trkpt lat="43.78161" lon="3.60573">
        <ele>289.49</ele>
        <time>2016-02-07T13:40:52Z</time>
      </trkpt>
      <trkpt lat="43.78154" lon="3.60555">
        <ele>289.01</ele>
        <time>2016-02-07T13:40:53Z</time>
      </trkpt>
      <trkpt lat="43.78147" lon="3.60537">
        <ele>288.05</ele>
        <time>2016-02-07T13:40:54Z</time>
      </trkpt>
      <trkpt lat="43.78114" lon="3.60464">
        <ele>282.77</ele>
        <time>2016-02-07T13:40:59Z</time>
      </trkpt>
      <trkpt lat="43.78102" lon="3.60461">
        <ele>281.32</ele>
        <time>2016-02-07T13:41:00Z</time>
      </trkpt>
      <trkpt lat="43.7809" lon="3.60462">
        <ele>280.36</ele>
        <time>2016-02-07T13:41:01Z</time>
      </trkpt>
      <trkpt lat="43.78078" lon="3.60463">
        <ele>279.88</ele>
        <time>2016-02-07T13:41:02Z</time>
      </trkpt>
      <trkpt lat="43.7807" lon="3.6046">
        <ele>278.92</ele>
        <time>2016-02-07T13:41:03Z</time>
      </trkpt>
      <trkpt lat="43.78064" lon="3.60451">
        <ele>277.96</ele>
        <time>2016-02-07T13:41:04Z</time>
      </trkpt>
      <trkpt lat="43.78062" lon="3.60437">
        <ele>277</ele>
        <time>2016-02-07T13:41:05Z</time>
      </trkpt>
      <trkpt lat="43.7806" lon="3.60422">
        <ele>276.52</ele>
        <time>2016-02-07T13:41:06Z</time>
      </trkpt>
      <trkpt lat="43.78058" lon="3.60407">
        <ele>276.52</ele>
        <time>2016-02-07T13:41:07Z</time>
      </trkpt>
      <trkpt lat="43.78051" lon="3.60397">
        <ele>276.04</ele>
        <time>2016-02-07T13:41:08Z</time>
      </trkpt>
      <trkpt lat="43.7804" lon="3.60389">
        <ele>276.52</ele>
        <time>2016-02-07T13:41:09Z</time>
      </trkpt>
      <trkpt lat="43.78028" lon="3.60388">
        <ele>276.04</ele>
        <time>2016-02-07T13:41:10Z</time>
      </trkpt>
      <trkpt lat="43.78014" lon="3.60388">
        <ele>276.52</ele>
        <time>2016-02-07T13:41:11Z</time>
      </trkpt>
      <trkpt lat="43.77999" lon="3.60388">
        <ele>275.07</ele>
        <time>2016-02-07T13:41:12Z</time>
      </trkpt>
      <trkpt lat="43.77983" lon="3.60389">
        <ele>273.63</ele>
        <time>2016-02-07T13:41:13Z</time>
      </trkpt>
      <trkpt lat="43.77966" lon="3.60388">
        <ele>273.63</ele>
        <time>2016-02-07T13:41:14Z</time>
      </trkpt>
      <trkpt lat="43.7795" lon="3.60384">
        <ele>273.15</ele>
        <time>2016-02-07T13:41:15Z</time>
      </trkpt>
      <trkpt lat="43.77932" lon="3.60377">
        <ele>272.67</ele>
        <time>2016-02-07T13:41:16Z</time>
      </trkpt>
      <trkpt lat="43.77916" lon="3.60367">
        <ele>272.19</ele>
        <time>2016-02-07T13:41:17Z</time>
      </trkpt>
      <trkpt lat="43.779" lon="3.60353">
        <ele>271.71</ele>
        <time>2016-02-07T13:41:18Z</time>
      </trkpt>
      <trkpt lat="43.77888" lon="3.60337">
        <ele>270.27</ele>
        <time>2016-02-07T13:41:19Z</time>
      </trkpt>
      <trkpt lat="43.77878" lon="3.60316">
        <ele>269.79</ele>
        <time>2016-02-07T13:41:20Z</time>
      </trkpt>
      <trkpt lat="43.77868" lon="3.60298">
        <ele>269.31</ele>
        <time>2016-02-07T13:41:21Z</time>
      </trkpt>
      <trkpt lat="43.77856" lon="3.60283">
        <ele>269.31</ele>
        <time>2016-02-07T13:41:22Z</time>
      </trkpt>
      <trkpt lat="43.77844" lon="3.60269">
        <ele>268.83</ele>
        <time>2016-02-07T13:41:23Z</time>
      </trkpt>
      <trkpt lat="43.77822" lon="3.60241">
        <ele>267.86</ele>
        <time>2016-02-07T13:41:25Z</time>
      </trkpt>
      <trkpt lat="43.77814" lon="3.60225">
        <ele>267.38</ele>
        <time>2016-02-07T13:41:26Z</time>
      </trkpt>
      <trkpt lat="43.77797" lon="3.60202">
        <ele>266.42</ele>
        <time>2016-02-07T13:41:28Z</time>
      </trkpt>
      <trkpt lat="43.77785" lon="3.60196">
        <ele>265.94</ele>
        <time>2016-02-07T13:41:29Z</time>
      </trkpt>
      <trkpt lat="43.77772" lon="3.60193">
        <ele>265.46</ele>
        <time>2016-02-07T13:41:30Z</time>
      </trkpt>
      <trkpt lat="43.77758" lon="3.60193">
        <ele>264.98</ele>
        <time>2016-02-07T13:41:31Z</time>
      </trkpt>
      <trkpt lat="43.77745" lon="3.60193">
        <ele>264.5</ele>
        <time>2016-02-07T13:41:32Z</time>
      </trkpt>
      <trkpt lat="43.7772" lon="3.6019">
        <ele>263.06</ele>
        <time>2016-02-07T13:41:34Z</time>
      </trkpt>
      <trkpt lat="43.77709" lon="3.60186">
        <ele>263.06</ele>
        <time>2016-02-07T13:41:35Z</time>
      </trkpt>
      <trkpt lat="43.77702" lon="3.60178">
        <ele>262.58</ele>
        <time>2016-02-07T13:41:36Z</time>
      </trkpt>
      <trkpt lat="43.77696" lon="3.60165">
        <ele>262.58</ele>
        <time>2016-02-07T13:41:37Z</time>
      </trkpt>
      <trkpt lat="43.77696" lon="3.6015">
        <ele>262.1</ele>
        <time>2016-02-07T13:41:38Z</time>
      </trkpt>
      <trkpt lat="43.77693" lon="3.60135">
        <ele>262.1</ele>
        <time>2016-02-07T13:41:39Z</time>
      </trkpt>
      <trkpt lat="43.77688" lon="3.60122">
        <ele>262.1</ele>
        <time>2016-02-07T13:41:40Z</time>
      </trkpt>
      <trkpt lat="43.77679" lon="3.60111">
        <ele>262.1</ele>
        <time>2016-02-07T13:41:41Z</time>
      </trkpt>
      <trkpt lat="43.77667" lon="3.60104">
        <ele>261.14</ele>
        <time>2016-02-07T13:41:42Z</time>
      </trkpt>
      <trkpt lat="43.77654" lon="3.601">
        <ele>260.65</ele>
        <time>2016-02-07T13:41:43Z</time>
      </trkpt>
      <trkpt lat="43.7764" lon="3.60097">
        <ele>260.17</ele>
        <time>2016-02-07T13:41:44Z</time>
      </trkpt>
      <trkpt lat="43.77628" lon="3.60096">
        <ele>259.21</ele>
        <time>2016-02-07T13:41:45Z</time>
      </trkpt>
      <trkpt lat="43.77616" lon="3.60097">
        <ele>258.73</ele>
        <time>2016-02-07T13:41:46Z</time>
      </trkpt>
      <trkpt lat="43.77607" lon="3.60098">
        <ele>258.25</ele>
        <time>2016-02-07T13:41:47Z</time>
      </trkpt>
      <trkpt lat="43.77598" lon="3.60097">
        <ele>257.29</ele>
        <time>2016-02-07T13:41:48Z</time>
      </trkpt>
      <trkpt lat="43.77593" lon="3.60091">
        <ele>256.81</ele>
        <time>2016-02-07T13:41:49Z</time>
      </trkpt>
      <trkpt lat="43.77593" lon="3.60082">
        <ele>256.81</ele>
        <time>2016-02-07T13:41:50Z</time>
      </trkpt>
      <trkpt lat="43.77595" lon="3.60072">
        <ele>256.81</ele>
        <time>2016-02-07T13:41:51Z</time>
      </trkpt>
      <trkpt lat="43.776" lon="3.60061">
        <ele>256.81</ele>
        <time>2016-02-07T13:41:52Z</time>
      </trkpt>
      <trkpt lat="43.77606" lon="3.60047">
        <ele>257.29</ele>
        <time>2016-02-07T13:41:53Z</time>
      </trkpt>
      <trkpt lat="43.77611" lon="3.60031">
        <ele>257.29</ele>
        <time>2016-02-07T13:41:54Z</time>
      </trkpt>
      <trkpt lat="43.77613" lon="3.60014">
        <ele>257.29</ele>
        <time>2016-02-07T13:41:55Z</time>
      </trkpt>
      <trkpt lat="43.77612" lon="3.59996">
        <ele>256.81</ele>
        <time>2016-02-07T13:41:56Z</time>
      </trkpt>
      <trkpt lat="43.77609" lon="3.59979">
        <ele>256.33</ele>
        <time>2016-02-07T13:41:57Z</time>
      </trkpt>
      <trkpt lat="43.77602" lon="3.59963">
        <ele>255.37</ele>
        <time>2016-02-07T13:41:58Z</time>
      </trkpt>
      <trkpt lat="43.77592" lon="3.59948">
        <ele>254.41</ele>
        <time>2016-02-07T13:41:59Z</time>
      </trkpt>
      <trkpt lat="43.77575" lon="3.59937">
        <ele>253.93</ele>
        <time>2016-02-07T13:42:00Z</time>
      </trkpt>
      <trkpt lat="43.7756" lon="3.59926">
        <ele>253.44</ele>
        <time>2016-02-07T13:42:01Z</time>
      </trkpt>
      <trkpt lat="43.77545" lon="3.59917">
        <ele>252.96</ele>
        <time>2016-02-07T13:42:02Z</time>
      </trkpt>
      <trkpt lat="43.77528" lon="3.59914">
        <ele>252.96</ele>
        <time>2016-02-07T13:42:03Z</time>
      </trkpt>
      <trkpt lat="43.7751" lon="3.59914">
        <ele>252.96</ele>
        <time>2016-02-07T13:42:04Z</time>
      </trkpt>
      <trkpt lat="43.77492" lon="3.59916">
        <ele>252</ele>
        <time>2016-02-07T13:42:05Z</time>
      </trkpt>
      <trkpt lat="43.77474" lon="3.59919">
        <ele>251.52</ele>
        <time>2016-02-07T13:42:06Z</time>
      </trkpt>
      <trkpt lat="43.77424" lon="3.59926">
        <ele>249.6</ele>
        <time>2016-02-07T13:42:09Z</time>
      </trkpt>
      <trkpt lat="43.77408" lon="3.59924">
        <ele>248.64</ele>
        <time>2016-02-07T13:42:10Z</time>
      </trkpt>
      <trkpt lat="43.77392" lon="3.59918">
        <ele>248.16</ele>
        <time>2016-02-07T13:42:11Z</time>
      </trkpt>
      <trkpt lat="43.77377" lon="3.59908">
        <ele>247.68</ele>
        <time>2016-02-07T13:42:12Z</time>
      </trkpt>
      <trkpt lat="43.77365" lon="3.59896">
        <ele>247.2</ele>
        <time>2016-02-07T13:42:13Z</time>
      </trkpt>
      <trkpt lat="43.77353" lon="3.59886">
        <ele>246.72</ele>
        <time>2016-02-07T13:42:14Z</time>
      </trkpt>
      <trkpt lat="43.77342" lon="3.59879">
        <ele>245.75</ele>
        <time>2016-02-07T13:42:15Z</time>
      </trkpt>
      <trkpt lat="43.77333" lon="3.59878">
        <ele>245.27</ele>
        <time>2016-02-07T13:42:16Z</time>
      </trkpt>
      <trkpt lat="43.77324" lon="3.59879">
        <ele>244.31</ele>
        <time>2016-02-07T13:42:17Z</time>
      </trkpt>
      <trkpt lat="43.77317" lon="3.59878">
        <ele>243.35</ele>
        <time>2016-02-07T13:42:18Z</time>
      </trkpt>
      <trkpt lat="43.77313" lon="3.59871">
        <ele>242.39</ele>
        <time>2016-02-07T13:42:19Z</time>
      </trkpt>
      <trkpt lat="43.77311" lon="3.5986">
        <ele>241.91</ele>
        <time>2016-02-07T13:42:20Z</time>
      </trkpt>
      <trkpt lat="43.77312" lon="3.59847">
        <ele>240.47</ele>
        <time>2016-02-07T13:42:21Z</time>
      </trkpt>
      <trkpt lat="43.77314" lon="3.59831">
        <ele>239.99</ele>
        <time>2016-02-07T13:42:22Z</time>
      </trkpt>
      <trkpt lat="43.77312" lon="3.59816">
        <ele>239.51</ele>
        <time>2016-02-07T13:42:23Z</time>
      </trkpt>
      <trkpt lat="43.77309" lon="3.598">
        <ele>239.02</ele>
        <time>2016-02-07T13:42:24Z</time>
      </trkpt>
      <trkpt lat="43.77302" lon="3.59789">
        <ele>238.54</ele>
        <time>2016-02-07T13:42:25Z</time>
      </trkpt>
      <trkpt lat="43.77293" lon="3.59784">
        <ele>237.58</ele>
        <time>2016-02-07T13:42:26Z</time>
      </trkpt>
      <trkpt lat="43.77282" lon="3.59784">
        <ele>236.62</ele>
        <time>2016-02-07T13:42:27Z</time>
      </trkpt>
      <trkpt lat="43.7727" lon="3.59786">
        <ele>235.66</ele>
        <time>2016-02-07T13:42:28Z</time>
      </trkpt>
      <trkpt lat="43.77256" lon="3.59795">
        <ele>234.7</ele>
        <time>2016-02-07T13:42:29Z</time>
      </trkpt>
      <trkpt lat="43.77242" lon="3.59801">
        <ele>233.74</ele>
        <time>2016-02-07T13:42:30Z</time>
      </trkpt>
      <trkpt lat="43.77167" lon="3.59826">
        <ele>230.37</ele>
        <time>2016-02-07T13:42:36Z</time>
      </trkpt>
      <trkpt lat="43.77158" lon="3.59822">
        <ele>229.89</ele>
        <time>2016-02-07T13:42:37Z</time>
      </trkpt>
      <trkpt lat="43.77151" lon="3.59812">
        <ele>229.41</ele>
        <time>2016-02-07T13:42:38Z</time>
      </trkpt>
      <trkpt lat="43.77149" lon="3.59796">
        <ele>227.97</ele>
        <time>2016-02-07T13:42:39Z</time>
      </trkpt>
      <trkpt lat="43.77148" lon="3.59781">
        <ele>227.01</ele>
        <time>2016-02-07T13:42:40Z</time>
      </trkpt>
      <trkpt lat="43.77153" lon="3.59764">
        <ele>226.53</ele>
        <time>2016-02-07T13:42:41Z</time>
      </trkpt>
      <trkpt lat="43.77162" lon="3.59747">
        <ele>226.05</ele>
        <time>2016-02-07T13:42:42Z</time>
      </trkpt>
      <trkpt lat="43.77172" lon="3.59734">
        <ele>225.57</ele>
        <time>2016-02-07T13:42:43Z</time>
      </trkpt>
      <trkpt lat="43.7718" lon="3.59722">
        <ele>224.61</ele>
        <time>2016-02-07T13:42:44Z</time>
      </trkpt>
      <trkpt lat="43.77185" lon="3.59707">
        <ele>223.64</ele>
        <time>2016-02-07T13:42:45Z</time>
      </trkpt>
      <trkpt lat="43.77187" lon="3.59689">
        <ele>223.64</ele>
        <time>2016-02-07T13:42:46Z</time>
      </trkpt>
      <trkpt lat="43.77187" lon="3.59673">
        <ele>222.68</ele>
        <time>2016-02-07T13:42:47Z</time>
      </trkpt>
      <trkpt lat="43.77185" lon="3.59658">
        <ele>221.24</ele>
        <time>2016-02-07T13:42:48Z</time>
      </trkpt>
      <trkpt lat="43.77178" lon="3.59644">
        <ele>219.8</ele>
        <time>2016-02-07T13:42:49Z</time>
      </trkpt>
      <trkpt lat="43.77166" lon="3.59636">
        <ele>220.28</ele>
        <time>2016-02-07T13:42:50Z</time>
      </trkpt>
      <trkpt lat="43.77151" lon="3.5963">
        <ele>220.28</ele>
        <time>2016-02-07T13:42:51Z</time>
      </trkpt>
      <trkpt lat="43.77136" lon="3.59626">
        <ele>220.28</ele>
        <time>2016-02-07T13:42:52Z</time>
      </trkpt>
      <trkpt lat="43.77118" lon="3.59623">
        <ele>219.8</ele>
        <time>2016-02-07T13:42:53Z</time>
      </trkpt>
      <trkpt lat="43.77101" lon="3.59621">
        <ele>219.32</ele>
        <time>2016-02-07T13:42:54Z</time>
      </trkpt>
      <trkpt lat="43.77084" lon="3.59622">
        <ele>218.84</ele>
        <time>2016-02-07T13:42:55Z</time>
      </trkpt>
      <trkpt lat="43.77068" lon="3.59626">
        <ele>217.88</ele>
        <time>2016-02-07T13:42:56Z</time>
      </trkpt>
      <trkpt lat="43.77055" lon="3.59631">
        <ele>217.4</ele>
        <time>2016-02-07T13:42:57Z</time>
      </trkpt>
      <trkpt lat="43.77043" lon="3.59635">
        <ele>216.91</ele>
        <time>2016-02-07T13:42:58Z</time>
      </trkpt>
      <trkpt lat="43.77033" lon="3.59634">
        <ele>216.43</ele>
        <time>2016-02-07T13:42:59Z</time>
      </trkpt>
      <trkpt lat="43.77024" lon="3.59627">
        <ele>215.95</ele>
        <time>2016-02-07T13:43:00Z</time>
      </trkpt>
      <trkpt lat="43.77017" lon="3.59617">
        <ele>214.99</ele>
        <time>2016-02-07T13:43:01Z</time>
      </trkpt>
      <trkpt lat="43.7701" lon="3.59605">
        <ele>214.03</ele>
        <time>2016-02-07T13:43:02Z</time>
      </trkpt>
      <trkpt lat="43.77002" lon="3.59597">
        <ele>213.55</ele>
        <time>2016-02-07T13:43:03Z</time>
      </trkpt>
      <trkpt lat="43.76991" lon="3.59597">
        <ele>212.11</ele>
        <time>2016-02-07T13:43:04Z</time>
      </trkpt>
      <trkpt lat="43.76979" lon="3.59601">
        <ele>211.63</ele>
        <time>2016-02-07T13:43:05Z</time>
      </trkpt>
      <trkpt lat="43.76968" lon="3.59606">
        <ele>211.15</ele>
        <time>2016-02-07T13:43:06Z</time>
      </trkpt>
      <trkpt lat="43.76956" lon="3.59608">
        <ele>209.7</ele>
        <time>2016-02-07T13:43:07Z</time>
      </trkpt>
      <trkpt lat="43.76943" lon="3.59605">
        <ele>208.74</ele>
        <time>2016-02-07T13:43:08Z</time>
      </trkpt>
      <trkpt lat="43.7693" lon="3.59596">
        <ele>208.26</ele>
        <time>2016-02-07T13:43:09Z</time>
      </trkpt>
      <trkpt lat="43.76917" lon="3.59585">
        <ele>207.78</ele>
        <time>2016-02-07T13:43:10Z</time>
      </trkpt>
      <trkpt lat="43.76906" lon="3.59575">
        <ele>206.82</ele>
        <time>2016-02-07T13:43:11Z</time>
      </trkpt>
      <trkpt lat="43.76897" lon="3.59563">
        <ele>205.86</ele>
        <time>2016-02-07T13:43:12Z</time>
      </trkpt>
      <trkpt lat="43.7689" lon="3.59551">
        <ele>204.9</ele>
        <time>2016-02-07T13:43:13Z</time>
      </trkpt>
      <trkpt lat="43.76887" lon="3.59538">
        <ele>204.42</ele>
        <time>2016-02-07T13:43:14Z</time>
      </trkpt>
      <trkpt lat="43.76887" lon="3.59523">
        <ele>203.46</ele>
        <time>2016-02-07T13:43:15Z</time>
      </trkpt>
      <trkpt lat="43.76886" lon="3.59508">
        <ele>202.49</ele>
        <time>2016-02-07T13:43:16Z</time>
      </trkpt>
      <trkpt lat="43.76881" lon="3.59497">
        <ele>201.53</ele>
        <time>2016-02-07T13:43:17Z</time>
      </trkpt>
      <trkpt lat="43.76872" lon="3.59488">
        <ele>200.09</ele>
        <time>2016-02-07T13:43:18Z</time>
      </trkpt>
      <trkpt lat="43.7686" lon="3.5948">
        <ele>200.09</ele>
        <time>2016-02-07T13:43:19Z</time>
      </trkpt>
      <trkpt lat="43.76847" lon="3.59473">
        <ele>198.65</ele>
        <time>2016-02-07T13:43:20Z</time>
      </trkpt>
      <trkpt lat="43.76835" lon="3.59468">
        <ele>198.17</ele>
        <time>2016-02-07T13:43:21Z</time>
      </trkpt>
      <trkpt lat="43.76822" lon="3.5947">
        <ele>197.21</ele>
        <time>2016-02-07T13:43:22Z</time>
      </trkpt>
      <trkpt lat="43.7681" lon="3.59477">
        <ele>196.73</ele>
        <time>2016-02-07T13:43:23Z</time>
      </trkpt>
      <trkpt lat="43.768" lon="3.59485">
        <ele>196.73</ele>
        <time>2016-02-07T13:43:24Z</time>
      </trkpt>
      <trkpt lat="43.7679" lon="3.59491">
        <ele>196.25</ele>
        <time>2016-02-07T13:43:25Z</time>
      </trkpt>
      <trkpt lat="43.7678" lon="3.59494">
        <ele>195.77</ele>
        <time>2016-02-07T13:43:26Z</time>
      </trkpt>
      <trkpt lat="43.76771" lon="3.59494">
        <ele>194.32</ele>
        <time>2016-02-07T13:43:27Z</time>
      </trkpt>
      <trkpt lat="43.7676" lon="3.59492">
        <ele>193.36</ele>
        <time>2016-02-07T13:43:28Z</time>
      </trkpt>
      <trkpt lat="43.76751" lon="3.59488">
        <ele>192.4</ele>
        <time>2016-02-07T13:43:29Z</time>
      </trkpt>
      <trkpt lat="43.76742" lon="3.59462">
        <ele>189.04</ele>
        <time>2016-02-07T13:43:32Z</time>
      </trkpt>
      <trkpt lat="43.76744" lon="3.59439">
        <ele>188.08</ele>
        <time>2016-02-07T13:43:34Z</time>
      </trkpt>
      <trkpt lat="43.76742" lon="3.59428">
        <ele>187.59</ele>
        <time>2016-02-07T13:43:35Z</time>
      </trkpt>
      <trkpt lat="43.76738" lon="3.59418">
        <ele>186.63</ele>
        <time>2016-02-07T13:43:36Z</time>
      </trkpt>
      <trkpt lat="43.76728" lon="3.59416">
        <ele>185.67</ele>
        <time>2016-02-07T13:43:37Z</time>
      </trkpt>
      <trkpt lat="43.76717" lon="3.59416">
        <ele>184.71</ele>
        <time>2016-02-07T13:43:38Z</time>
      </trkpt>
      <trkpt lat="43.76702" lon="3.5942">
        <ele>183.75</ele>
        <time>2016-02-07T13:43:39Z</time>
      </trkpt>
      <trkpt lat="43.76685" lon="3.59425">
        <ele>182.31</ele>
        <time>2016-02-07T13:43:40Z</time>
      </trkpt>
      <trkpt lat="43.76665" lon="3.59429">
        <ele>179.9</ele>
        <time>2016-02-07T13:43:41Z</time>
      </trkpt>
      <trkpt lat="43.76531" lon="3.59453">
        <ele>171.25</ele>
        <time>2016-02-07T13:43:49Z</time>
      </trkpt>
      <trkpt lat="43.7652" lon="3.59463">
        <ele>170.29</ele>
        <time>2016-02-07T13:43:50Z</time>
      </trkpt>
      <trkpt lat="43.76508" lon="3.59478">
        <ele>168.85</ele>
        <time>2016-02-07T13:43:51Z</time>
      </trkpt>
      <trkpt lat="43.76494" lon="3.59495">
        <ele>167.89</ele>
        <time>2016-02-07T13:43:52Z</time>
      </trkpt>
      <trkpt lat="43.76481" lon="3.59514">
        <ele>166.45</ele>
        <time>2016-02-07T13:43:53Z</time>
      </trkpt>
      <trkpt lat="43.7647" lon="3.59531">
        <ele>165.48</ele>
        <time>2016-02-07T13:43:54Z</time>
      </trkpt>
      <trkpt lat="43.76445" lon="3.59562">
        <ele>162.12</ele>
        <time>2016-02-07T13:43:57Z</time>
      </trkpt>
      <trkpt lat="43.76437" lon="3.59564">
        <ele>161.64</ele>
        <time>2016-02-07T13:43:58Z</time>
      </trkpt>
      <trkpt lat="43.76428" lon="3.59557">
        <ele>160.68</ele>
        <time>2016-02-07T13:43:59Z</time>
      </trkpt>
      <trkpt lat="43.76418" lon="3.59549">
        <ele>161.16</ele>
        <time>2016-02-07T13:44:00Z</time>
      </trkpt>
      <trkpt lat="43.76407" lon="3.59544">
        <ele>160.2</ele>
        <time>2016-02-07T13:44:01Z</time>
      </trkpt>
      <trkpt lat="43.76393" lon="3.59544">
        <ele>159.24</ele>
        <time>2016-02-07T13:44:02Z</time>
      </trkpt>
      <trkpt lat="43.7638" lon="3.59548">
        <ele>158.27</ele>
        <time>2016-02-07T13:44:03Z</time>
      </trkpt>
      <trkpt lat="43.76365" lon="3.59553">
        <ele>157.79</ele>
        <time>2016-02-07T13:44:04Z</time>
      </trkpt>
      <trkpt lat="43.76352" lon="3.59555">
        <ele>157.31</ele>
        <time>2016-02-07T13:44:05Z</time>
      </trkpt>
      <trkpt lat="43.76339" lon="3.59555">
        <ele>156.35</ele>
        <time>2016-02-07T13:44:06Z</time>
      </trkpt>
      <trkpt lat="43.76327" lon="3.59556">
        <ele>155.87</ele>
        <time>2016-02-07T13:44:07Z</time>
      </trkpt>
      <trkpt lat="43.76314" lon="3.59562">
        <ele>154.91</ele>
        <time>2016-02-07T13:44:08Z</time>
      </trkpt>
      <trkpt lat="43.76302" lon="3.59571">
        <ele>153.95</ele>
        <time>2016-02-07T13:44:09Z</time>
      </trkpt>
      <trkpt lat="43.76292" lon="3.59585">
        <ele>152.99</ele>
        <time>2016-02-07T13:44:10Z</time>
      </trkpt>
      <trkpt lat="43.76282" lon="3.59602">
        <ele>151.54</ele>
        <time>2016-02-07T13:44:11Z</time>
      </trkpt>
      <trkpt lat="43.76273" lon="3.59621">
        <ele>150.58</ele>
        <time>2016-02-07T13:44:12Z</time>
      </trkpt>
      <trkpt lat="43.76263" lon="3.59641">
        <ele>149.14</ele>
        <time>2016-02-07T13:44:13Z</time>
      </trkpt>
      <trkpt lat="43.76235" lon="3.59694">
        <ele>145.3</ele>
        <time>2016-02-07T13:44:16Z</time>
      </trkpt>
      <trkpt lat="43.76224" lon="3.59706">
        <ele>144.82</ele>
        <time>2016-02-07T13:44:17Z</time>
      </trkpt>
      <trkpt lat="43.76213" lon="3.59718">
        <ele>143.85</ele>
        <time>2016-02-07T13:44:18Z</time>
      </trkpt>
      <trkpt lat="43.76204" lon="3.59729">
        <ele>142.89</ele>
        <time>2016-02-07T13:44:19Z</time>
      </trkpt>
      <trkpt lat="43.76196" lon="3.59744">
        <ele>142.89</ele>
        <time>2016-02-07T13:44:20Z</time>
      </trkpt>
      <trkpt lat="43.76192" lon="3.59761">
        <ele>142.41</ele>
        <time>2016-02-07T13:44:21Z</time>
      </trkpt>
      <trkpt lat="43.76191" lon="3.59779">
        <ele>141.93</ele>
        <time>2016-02-07T13:44:22Z</time>
      </trkpt>
      <trkpt lat="43.76189" lon="3.59797">
        <ele>141.45</ele>
        <time>2016-02-07T13:44:23Z</time>
      </trkpt>
      <trkpt lat="43.76185" lon="3.59814">
        <ele>140.49</ele>
        <time>2016-02-07T13:44:24Z</time>
      </trkpt>
      <trkpt lat="43.76177" lon="3.5983">
        <ele>140.01</ele>
        <time>2016-02-07T13:44:25Z</time>
      </trkpt>
      <trkpt lat="43.76168" lon="3.59846">
        <ele>139.53</ele>
        <time>2016-02-07T13:44:26Z</time>
      </trkpt>
      <trkpt lat="43.76133" lon="3.59902">
        <ele>136.64</ele>
        <time>2016-02-07T13:44:30Z</time>
      </trkpt>
      <trkpt lat="43.76123" lon="3.59907">
        <ele>135.68</ele>
        <time>2016-02-07T13:44:31Z</time>
      </trkpt>
      <trkpt lat="43.76111" lon="3.59908">
        <ele>135.2</ele>
        <time>2016-02-07T13:44:32Z</time>
      </trkpt>
      <trkpt lat="43.76099" lon="3.59905">
        <ele>134.72</ele>
        <time>2016-02-07T13:44:33Z</time>
      </trkpt>
      <trkpt lat="43.76086" lon="3.59899">
        <ele>134.24</ele>
        <time>2016-02-07T13:44:34Z</time>
      </trkpt>
      <trkpt lat="43.76072" lon="3.59892">
        <ele>133.76</ele>
        <time>2016-02-07T13:44:35Z</time>
      </trkpt>
      <trkpt lat="43.76021" lon="3.5986">
        <ele>132.8</ele>
        <time>2016-02-07T13:44:39Z</time>
      </trkpt>
      <trkpt lat="43.7601" lon="3.59858">
        <ele>131.36</ele>
        <time>2016-02-07T13:44:40Z</time>
      </trkpt>
      <trkpt lat="43.75999" lon="3.59864">
        <ele>130.4</ele>
        <time>2016-02-07T13:44:41Z</time>
      </trkpt>
      <trkpt lat="43.75989" lon="3.59871">
        <ele>129.43</ele>
        <time>2016-02-07T13:44:42Z</time>
      </trkpt>
      <trkpt lat="43.75979" lon="3.59876">
        <ele>128.47</ele>
        <time>2016-02-07T13:44:43Z</time>
      </trkpt>
      <trkpt lat="43.75968" lon="3.59878">
        <ele>127.99</ele>
        <time>2016-02-07T13:44:44Z</time>
      </trkpt>
      <trkpt lat="43.75955" lon="3.59874">
        <ele>127.99</ele>
        <time>2016-02-07T13:44:45Z</time>
      </trkpt>
      <trkpt lat="43.7594" lon="3.59866">
        <ele>127.03</ele>
        <time>2016-02-07T13:44:46Z</time>
      </trkpt>
      <trkpt lat="43.75925" lon="3.59859">
        <ele>126.55</ele>
        <time>2016-02-07T13:44:47Z</time>
      </trkpt>
      <trkpt lat="43.7591" lon="3.59853">
        <ele>125.59</ele>
        <time>2016-02-07T13:44:48Z</time>
      </trkpt>
      <trkpt lat="43.75893" lon="3.5985">
        <ele>124.63</ele>
        <time>2016-02-07T13:44:49Z</time>
      </trkpt>
      <trkpt lat="43.75877" lon="3.59846">
        <ele>123.67</ele>
        <time>2016-02-07T13:44:50Z</time>
      </trkpt>
      <trkpt lat="43.75861" lon="3.59842">
        <ele>123.19</ele>
        <time>2016-02-07T13:44:51Z</time>
      </trkpt>
      <trkpt lat="43.75846" lon="3.59835">
        <ele>122.71</ele>
        <time>2016-02-07T13:44:52Z</time>
      </trkpt>
      <trkpt lat="43.75818" lon="3.59824">
        <ele>121.26</ele>
        <time>2016-02-07T13:44:54Z</time>
      </trkpt>
      <trkpt lat="43.75803" lon="3.59824">
        <ele>120.3</ele>
        <time>2016-02-07T13:44:55Z</time>
      </trkpt>
      <trkpt lat="43.75788" lon="3.59827">
        <ele>119.34</ele>
        <time>2016-02-07T13:44:56Z</time>
      </trkpt>
      <trkpt lat="43.75772" lon="3.59828">
        <ele>118.38</ele>
        <time>2016-02-07T13:44:57Z</time>
      </trkpt>
      <trkpt lat="43.75757" lon="3.59828">
        <ele>117.9</ele>
        <time>2016-02-07T13:44:58Z</time>
      </trkpt>
      <trkpt lat="43.75742" lon="3.59826">
        <ele>117.42</ele>
        <time>2016-02-07T13:44:59Z</time>
      </trkpt>
      <trkpt lat="43.75727" lon="3.59826">
        <ele>116.46</ele>
        <time>2016-02-07T13:45:00Z</time>
      </trkpt>
      <trkpt lat="43.75714" lon="3.5983">
        <ele>115.98</ele>
        <time>2016-02-07T13:45:01Z</time>
      </trkpt>
      <trkpt lat="43.757" lon="3.59838">
        <ele>115.98</ele>
        <time>2016-02-07T13:45:02Z</time>
      </trkpt>
      <trkpt lat="43.75686" lon="3.59845">
        <ele>115.01</ele>
        <time>2016-02-07T13:45:03Z</time>
      </trkpt>
      <trkpt lat="43.75672" lon="3.59849">
        <ele>114.53</ele>
        <time>2016-02-07T13:45:04Z</time>
      </trkpt>
      <trkpt lat="43.75658" lon="3.59849">
        <ele>113.57</ele>
        <time>2016-02-07T13:45:05Z</time>
      </trkpt>
      <trkpt lat="43.75645" lon="3.59846">
        <ele>113.09</ele>
        <time>2016-02-07T13:45:06Z</time>
      </trkpt>
      <trkpt lat="43.75631" lon="3.59841">
        <ele>112.61</ele>
        <time>2016-02-07T13:45:07Z</time>
      </trkpt>
      <trkpt lat="43.75618" lon="3.59833">
        <ele>111.65</ele>
        <time>2016-02-07T13:45:08Z</time>
      </trkpt>
      <trkpt lat="43.75605" lon="3.59827">
        <ele>111.17</ele>
        <time>2016-02-07T13:45:09Z</time>
      </trkpt>
      <trkpt lat="43.75591" lon="3.59825">
        <ele>110.69</ele>
        <time>2016-02-07T13:45:10Z</time>
      </trkpt>
      <trkpt lat="43.75576" lon="3.59826">
        <ele>110.21</ele>
        <time>2016-02-07T13:45:11Z</time>
      </trkpt>
      <trkpt lat="43.7556" lon="3.59829">
        <ele>109.25</ele>
        <time>2016-02-07T13:45:12Z</time>
      </trkpt>
      <trkpt lat="43.7553" lon="3.59832">
        <ele>108.29</ele>
        <time>2016-02-07T13:45:14Z</time>
      </trkpt>
      <trkpt lat="43.75515" lon="3.59829">
        <ele>107.32</ele>
        <time>2016-02-07T13:45:15Z</time>
      </trkpt>
      <trkpt lat="43.75502" lon="3.59824">
        <ele>106.84</ele>
        <time>2016-02-07T13:45:16Z</time>
      </trkpt>
      <trkpt lat="43.75491" lon="3.59816">
        <ele>105.88</ele>
        <time>2016-02-07T13:45:17Z</time>
      </trkpt>
      <trkpt lat="43.7548" lon="3.59809">
        <ele>105.88</ele>
        <time>2016-02-07T13:45:18Z</time>
      </trkpt>
      <trkpt lat="43.75469" lon="3.59804">
        <ele>104.92</ele>
        <time>2016-02-07T13:45:19Z</time>
      </trkpt>
      <trkpt lat="43.75456" lon="3.59805">
        <ele>104.44</ele>
        <time>2016-02-07T13:45:20Z</time>
      </trkpt>
      <trkpt lat="43.75443" lon="3.59811">
        <ele>103.96</ele>
        <time>2016-02-07T13:45:21Z</time>
      </trkpt>
      <trkpt lat="43.75432" lon="3.5982">
        <ele>103.48</ele>
        <time>2016-02-07T13:45:22Z</time>
      </trkpt>
      <trkpt lat="43.75421" lon="3.59832">
        <ele>103</ele>
        <time>2016-02-07T13:45:23Z</time>
      </trkpt>
      <trkpt lat="43.75412" lon="3.59845">
        <ele>102.52</ele>
        <time>2016-02-07T13:45:24Z</time>
      </trkpt>
      <trkpt lat="43.75406" lon="3.59859">
        <ele>102.04</ele>
        <time>2016-02-07T13:45:25Z</time>
      </trkpt>
      <trkpt lat="43.75402" lon="3.59873">
        <ele>101.56</ele>
        <time>2016-02-07T13:45:26Z</time>
      </trkpt>
      <trkpt lat="43.75397" lon="3.59885">
        <ele>101.08</ele>
        <time>2016-02-07T13:45:27Z</time>
      </trkpt>
      <trkpt lat="43.75392" lon="3.59894">
        <ele>100.6</ele>
        <time>2016-02-07T13:45:28Z</time>
      </trkpt>
      <trkpt lat="43.75384" lon="3.59897">
        <ele>100.11</ele>
        <time>2016-02-07T13:45:29Z</time>
      </trkpt>
      <trkpt lat="43.75374" lon="3.59894">
        <ele>100.11</ele>
        <time>2016-02-07T13:45:30Z</time>
      </trkpt>
      <trkpt lat="43.75365" lon="3.59889">
        <ele>100.11</ele>
        <time>2016-02-07T13:45:31Z</time>
      </trkpt>
      <trkpt lat="43.75355" lon="3.59886">
        <ele>99.63</ele>
        <time>2016-02-07T13:45:32Z</time>
      </trkpt>
      <trkpt lat="43.75344" lon="3.59887">
        <ele>99.15</ele>
        <time>2016-02-07T13:45:33Z</time>
      </trkpt>
      <trkpt lat="43.75333" lon="3.59894">
        <ele>98.19</ele>
        <time>2016-02-07T13:45:34Z</time>
      </trkpt>
      <trkpt lat="43.75323" lon="3.59907">
        <ele>97.71</ele>
        <time>2016-02-07T13:45:35Z</time>
      </trkpt>
      <trkpt lat="43.75314" lon="3.5992">
        <ele>96.75</ele>
        <time>2016-02-07T13:45:36Z</time>
      </trkpt>
      <trkpt lat="43.75304" lon="3.59933">
        <ele>95.79</ele>
        <time>2016-02-07T13:45:37Z</time>
      </trkpt>
      <trkpt lat="43.75294" lon="3.59949">
        <ele>94.83</ele>
        <time>2016-02-07T13:45:38Z</time>
      </trkpt>
      <trkpt lat="43.75238" lon="3.60019">
        <ele>90.98</ele>
        <time>2016-02-07T13:45:43Z</time>
      </trkpt>
      <trkpt lat="43.75223" lon="3.60031">
        <ele>90.02</ele>
        <time>2016-02-07T13:45:44Z</time>
      </trkpt>
      <trkpt lat="43.75207" lon="3.6004">
        <ele>89.54</ele>
        <time>2016-02-07T13:45:45Z</time>
      </trkpt>
      <trkpt lat="43.75191" lon="3.60048">
        <ele>89.06</ele>
        <time>2016-02-07T13:45:46Z</time>
      </trkpt>
      <trkpt lat="43.75174" lon="3.60052">
        <ele>88.58</ele>
        <time>2016-02-07T13:45:47Z</time>
      </trkpt>
      <trkpt lat="43.75159" lon="3.60054">
        <ele>88.58</ele>
        <time>2016-02-07T13:45:48Z</time>
      </trkpt>
      <trkpt lat="43.75146" lon="3.60053">
        <ele>88.58</ele>
        <time>2016-02-07T13:45:49Z</time>
      </trkpt>
      <trkpt lat="43.75135" lon="3.60052">
        <ele>88.58</ele>
        <time>2016-02-07T13:45:50Z</time>
      </trkpt>
      <trkpt lat="43.75107" lon="3.6005">
        <ele>88.1</ele>
        <time>2016-02-07T13:45:53Z</time>
      </trkpt>
      <trkpt lat="43.75099" lon="3.60047">
        <ele>87.62</ele>
        <time>2016-02-07T13:45:54Z</time>
      </trkpt>
      <trkpt lat="43.7509" lon="3.6004">
        <ele>87.62</ele>
        <time>2016-02-07T13:45:55Z</time>
      </trkpt>
      <trkpt lat="43.75081" lon="3.60031">
        <ele>87.14</ele>
        <time>2016-02-07T13:45:56Z</time>
      </trkpt>
      <trkpt lat="43.75072" lon="3.60021">
        <ele>87.14</ele>
        <time>2016-02-07T13:45:57Z</time>
      </trkpt>
      <trkpt lat="43.75063" lon="3.60011">
        <ele>87.14</ele>
        <time>2016-02-07T13:45:58Z</time>
      </trkpt>
      <trkpt lat="43.74979" lon="3.59946">
        <ele>87.14</ele>
        <time>2016-02-07T13:46:05Z</time>
      </trkpt>
      <trkpt lat="43.7497" lon="3.59938">
        <ele>86.66</ele>
        <time>2016-02-07T13:46:06Z</time>
      </trkpt>
      <trkpt lat="43.74964" lon="3.59926">
        <ele>86.66</ele>
        <time>2016-02-07T13:46:07Z</time>
      </trkpt>
      <trkpt lat="43.74961" lon="3.5991">
        <ele>86.66</ele>
        <time>2016-02-07T13:46:08Z</time>
      </trkpt>
      <trkpt lat="43.74964" lon="3.59892">
        <ele>86.66</ele>
        <time>2016-02-07T13:46:09Z</time>
      </trkpt>
      <trkpt lat="43.74969" lon="3.59872">
        <ele>87.14</ele>
        <time>2016-02-07T13:46:10Z</time>
      </trkpt>
      <trkpt lat="43.74974" lon="3.59849">
        <ele>87.14</ele>
        <time>2016-02-07T13:46:11Z</time>
      </trkpt>
      <trkpt lat="43.75018" lon="3.59619">
        <ele>85.69</ele>
        <time>2016-02-07T13:46:20Z</time>
      </trkpt>
      <trkpt lat="43.75047" lon="3.59332">
        <ele>85.21</ele>
        <time>2016-02-07T13:46:31Z</time>
      </trkpt>
      <trkpt lat="43.75047" lon="3.59308">
        <ele>85.21</ele>
        <time>2016-02-07T13:46:32Z</time>
      </trkpt>
      <trkpt lat="43.75045" lon="3.59284">
        <ele>85.21</ele>
        <time>2016-02-07T13:46:33Z</time>
      </trkpt>
      <trkpt lat="43.75041" lon="3.5926">
        <ele>85.69</ele>
        <time>2016-02-07T13:46:34Z</time>
      </trkpt>
      <trkpt lat="43.75036" lon="3.59235">
        <ele>85.69</ele>
        <time>2016-02-07T13:46:35Z</time>
      </trkpt>
      <trkpt lat="43.75028" lon="3.59211">
        <ele>85.69</ele>
        <time>2016-02-07T13:46:36Z</time>
      </trkpt>
      <trkpt lat="43.7502" lon="3.59188">
        <ele>85.69</ele>
        <time>2016-02-07T13:46:37Z</time>
      </trkpt>
      <trkpt lat="43.7501" lon="3.59165">
        <ele>85.21</ele>
        <time>2016-02-07T13:46:38Z</time>
      </trkpt>
      <trkpt lat="43.74999" lon="3.59145">
        <ele>85.21</ele>
        <time>2016-02-07T13:46:39Z</time>
      </trkpt>
      <trkpt lat="43.74987" lon="3.59125">
        <ele>84.73</ele>
        <time>2016-02-07T13:46:40Z</time>
      </trkpt>
      <trkpt lat="43.74973" lon="3.59106">
        <ele>85.21</ele>
        <time>2016-02-07T13:46:41Z</time>
      </trkpt>
      <trkpt lat="43.74958" lon="3.5909">
        <ele>85.21</ele>
        <time>2016-02-07T13:46:42Z</time>
      </trkpt>
      <trkpt lat="43.74942" lon="3.59075">
        <ele>85.21</ele>
        <time>2016-02-07T13:46:43Z</time>
      </trkpt>
      <trkpt lat="43.74925" lon="3.59061">
        <ele>85.21</ele>
        <time>2016-02-07T13:46:44Z</time>
      </trkpt>
      <trkpt lat="43.74907" lon="3.59049">
        <ele>85.21</ele>
        <time>2016-02-07T13:46:45Z</time>
      </trkpt>
      <trkpt lat="43.74888" lon="3.59038">
        <ele>85.21</ele>
        <time>2016-02-07T13:46:46Z</time>
      </trkpt>
      <trkpt lat="43.74676" lon="3.58925">
        <ele>85.21</ele>
        <time>2016-02-07T13:46:57Z</time>
      </trkpt>
      <trkpt lat="43.74625" lon="3.58894">
        <ele>84.73</ele>
        <time>2016-02-07T13:47:01Z</time>
      </trkpt>
      <trkpt lat="43.74618" lon="3.5888">
        <ele>83.77</ele>
        <time>2016-02-07T13:47:02Z</time>
      </trkpt>
      <trkpt lat="43.74618" lon="3.58859">
        <ele>84.25</ele>
        <time>2016-02-07T13:47:03Z</time>
      </trkpt>
      <trkpt lat="43.74617" lon="3.58839">
        <ele>84.25</ele>
        <time>2016-02-07T13:47:04Z</time>
      </trkpt>
      <trkpt lat="43.74619" lon="3.58817">
        <ele>85.21</ele>
        <time>2016-02-07T13:47:05Z</time>
      </trkpt>
      <trkpt lat="43.74623" lon="3.58795">
        <ele>85.21</ele>
        <time>2016-02-07T13:47:06Z</time>
      </trkpt>
      <trkpt lat="43.7463" lon="3.58774">
        <ele>84.73</ele>
        <time>2016-02-07T13:47:07Z</time>
      </trkpt>
      <trkpt lat="43.74639" lon="3.58753">
        <ele>84.25</ele>
        <time>2016-02-07T13:47:08Z</time>
      </trkpt>
      <trkpt lat="43.74648" lon="3.5873">
        <ele>83.77</ele>
        <time>2016-02-07T13:47:09Z</time>
      </trkpt>
      <trkpt lat="43.74656" lon="3.58705">
        <ele>83.29</ele>
        <time>2016-02-07T13:47:10Z</time>
      </trkpt>
      <trkpt lat="43.74664" lon="3.58678">
        <ele>82.81</ele>
        <time>2016-02-07T13:47:11Z</time>
      </trkpt>
      <trkpt lat="43.74743" lon="3.584">
        <ele>79.93</ele>
        <time>2016-02-07T13:47:22Z</time>
      </trkpt>
      <trkpt lat="43.74796" lon="3.58229">
        <ele>79.93</ele>
        <time>2016-02-07T13:47:29Z</time>
      </trkpt>
      <trkpt lat="43.74807" lon="3.58209">
        <ele>80.41</ele>
        <time>2016-02-07T13:47:30Z</time>
      </trkpt>
      <trkpt lat="43.74818" lon="3.58191">
        <ele>80.41</ele>
        <time>2016-02-07T13:47:31Z</time>
      </trkpt>
      <trkpt lat="43.74831" lon="3.58175">
        <ele>80.41</ele>
        <time>2016-02-07T13:47:32Z</time>
      </trkpt>
      <trkpt lat="43.74844" lon="3.5816">
        <ele>80.41</ele>
        <time>2016-02-07T13:47:33Z</time>
      </trkpt>
      <trkpt lat="43.74856" lon="3.58147">
        <ele>80.89</ele>
        <time>2016-02-07T13:47:34Z</time>
      </trkpt>
      <trkpt lat="43.74865" lon="3.58132">
        <ele>80.89</ele>
        <time>2016-02-07T13:47:35Z</time>
      </trkpt>
      <trkpt lat="43.74871" lon="3.58114">
        <ele>80.89</ele>
        <time>2016-02-07T13:47:36Z</time>
      </trkpt>
      <trkpt lat="43.74877" lon="3.58093">
        <ele>80.89</ele>
        <time>2016-02-07T13:47:37Z</time>
      </trkpt>
      <trkpt lat="43.74934" lon="3.57935">
        <ele>81.37</ele>
        <time>2016-02-07T13:47:44Z</time>
      </trkpt>
      <trkpt lat="43.74939" lon="3.57912">
        <ele>81.37</ele>
        <time>2016-02-07T13:47:45Z</time>
      </trkpt>
      <trkpt lat="43.74957" lon="3.57804">
        <ele>81.85</ele>
        <time>2016-02-07T13:47:50Z</time>
      </trkpt>
      <trkpt lat="43.74956" lon="3.57783">
        <ele>81.85</ele>
        <time>2016-02-07T13:47:51Z</time>
      </trkpt>
      <trkpt lat="43.74953" lon="3.57761">
        <ele>81.85</ele>
        <time>2016-02-07T13:47:52Z</time>
      </trkpt>
      <trkpt lat="43.74948" lon="3.57737">
        <ele>81.85</ele>
        <time>2016-02-07T13:47:53Z</time>
      </trkpt>
      <trkpt lat="43.74942" lon="3.57712">
        <ele>81.85</ele>
        <time>2016-02-07T13:47:54Z</time>
      </trkpt>
      <trkpt lat="43.74925" lon="3.57645">
        <ele>80.89</ele>
        <time>2016-02-07T13:47:57Z</time>
      </trkpt>
      <trkpt lat="43.74915" lon="3.57628">
        <ele>80.89</ele>
        <time>2016-02-07T13:47:58Z</time>
      </trkpt>
      <trkpt lat="43.74902" lon="3.57611">
        <ele>80.89</ele>
        <time>2016-02-07T13:47:59Z</time>
      </trkpt>
      <trkpt lat="43.74837" lon="3.57516">
        <ele>79.93</ele>
        <time>2016-02-07T13:48:04Z</time>
      </trkpt>
      <trkpt lat="43.74822" lon="3.57501">
        <ele>79.93</ele>
        <time>2016-02-07T13:48:05Z</time>
      </trkpt>
      <trkpt lat="43.7478" lon="3.57459">
        <ele>79.93</ele>
        <time>2016-02-07T13:48:08Z</time>
      </trkpt>
      <trkpt lat="43.74767" lon="3.57442">
        <ele>79.93</ele>
        <time>2016-02-07T13:48:09Z</time>
      </trkpt>
      <trkpt lat="43.74689" lon="3.5733">
        <ele>79.93</ele>
        <time>2016-02-07T13:48:15Z</time>
      </trkpt>
      <trkpt lat="43.7468" lon="3.57311">
        <ele>79.93</ele>
        <time>2016-02-07T13:48:16Z</time>
      </trkpt>
      <trkpt lat="43.74672" lon="3.5729">
        <ele>79.93</ele>
        <time>2016-02-07T13:48:17Z</time>
      </trkpt>
      <trkpt lat="43.74666" lon="3.57266">
        <ele>79.93</ele>
        <time>2016-02-07T13:48:18Z</time>
      </trkpt>
      <trkpt lat="43.74659" lon="3.57242">
        <ele>79.45</ele>
        <time>2016-02-07T13:48:19Z</time>
      </trkpt>
      <trkpt lat="43.74602" lon="3.57066">
        <ele>78.97</ele>
        <time>2016-02-07T13:48:27Z</time>
      </trkpt>
      <trkpt lat="43.74515" lon="3.56877">
        <ele>78.48</ele>
        <time>2016-02-07T13:48:36Z</time>
      </trkpt>
      <trkpt lat="43.7442" lon="3.5673">
        <ele>79.93</ele>
        <time>2016-02-07T13:48:44Z</time>
      </trkpt>
      <trkpt lat="43.74396" lon="3.56693">
        <ele>79.93</ele>
        <time>2016-02-07T13:48:46Z</time>
      </trkpt>
      <trkpt lat="43.74385" lon="3.56673">
        <ele>79.93</ele>
        <time>2016-02-07T13:48:47Z</time>
      </trkpt>
      <trkpt lat="43.74377" lon="3.5665">
        <ele>79.93</ele>
        <time>2016-02-07T13:48:48Z</time>
      </trkpt>
      <trkpt lat="43.74343" lon="3.56543">
        <ele>79.45</ele>
        <time>2016-02-07T13:48:53Z</time>
      </trkpt>
      <trkpt lat="43.74343" lon="3.56524">
        <ele>78.48</ele>
        <time>2016-02-07T13:48:54Z</time>
      </trkpt>
      <trkpt lat="43.7435" lon="3.56509">
        <ele>78</ele>
        <time>2016-02-07T13:48:55Z</time>
      </trkpt>
      <trkpt lat="43.74359" lon="3.56495">
        <ele>77.52</ele>
        <time>2016-02-07T13:48:56Z</time>
      </trkpt>
      <trkpt lat="43.7437" lon="3.56482">
        <ele>78.48</ele>
        <time>2016-02-07T13:48:57Z</time>
      </trkpt>
      <trkpt lat="43.74387" lon="3.56474">
        <ele>78.48</ele>
        <time>2016-02-07T13:48:58Z</time>
      </trkpt>
      <trkpt lat="43.744" lon="3.56463">
        <ele>77.52</ele>
        <time>2016-02-07T13:48:59Z</time>
      </trkpt>
      <trkpt lat="43.74412" lon="3.5645">
        <ele>77.52</ele>
        <time>2016-02-07T13:49:00Z</time>
      </trkpt>
      <trkpt lat="43.74421" lon="3.56435">
        <ele>76.56</ele>
        <time>2016-02-07T13:49:01Z</time>
      </trkpt>
      <trkpt lat="43.74428" lon="3.56417">
        <ele>76.08</ele>
        <time>2016-02-07T13:49:02Z</time>
      </trkpt>
      <trkpt lat="43.74431" lon="3.56396">
        <ele>75.6</ele>
        <time>2016-02-07T13:49:03Z</time>
      </trkpt>
      <trkpt lat="43.74432" lon="3.56373">
        <ele>75.6</ele>
        <time>2016-02-07T13:49:04Z</time>
      </trkpt>
      <trkpt lat="43.74433" lon="3.56352">
        <ele>75.12</ele>
        <time>2016-02-07T13:49:05Z</time>
      </trkpt>
      <trkpt lat="43.7443" lon="3.56195">
        <ele>75.12</ele>
        <time>2016-02-07T13:49:12Z</time>
      </trkpt>
      <trkpt lat="43.74426" lon="3.56173">
        <ele>74.64</ele>
        <time>2016-02-07T13:49:13Z</time>
      </trkpt>
      <trkpt lat="43.74418" lon="3.56149">
        <ele>74.64</ele>
        <time>2016-02-07T13:49:14Z</time>
      </trkpt>
      <trkpt lat="43.74409" lon="3.56125">
        <ele>74.16</ele>
        <time>2016-02-07T13:49:15Z</time>
      </trkpt>
      <trkpt lat="43.74397" lon="3.56102">
        <ele>73.68</ele>
        <time>2016-02-07T13:49:16Z</time>
      </trkpt>
      <trkpt lat="43.74383" lon="3.5608">
        <ele>73.68</ele>
        <time>2016-02-07T13:49:17Z</time>
      </trkpt>
      <trkpt lat="43.74367" lon="3.56056">
        <ele>74.16</ele>
        <time>2016-02-07T13:49:18Z</time>
      </trkpt>
      <trkpt lat="43.74352" lon="3.56035">
        <ele>74.16</ele>
        <time>2016-02-07T13:49:19Z</time>
      </trkpt>
      <trkpt lat="43.74337" lon="3.56014">
        <ele>74.16</ele>
        <time>2016-02-07T13:49:20Z</time>
      </trkpt>
      <trkpt lat="43.74291" lon="3.55958">
        <ele>75.12</ele>
        <time>2016-02-07T13:49:23Z</time>
      </trkpt>
      <trkpt lat="43.74273" lon="3.55944">
        <ele>76.56</ele>
        <time>2016-02-07T13:49:24Z</time>
      </trkpt>
      <trkpt lat="43.74221" lon="3.5591">
        <ele>77.04</ele>
        <time>2016-02-07T13:49:27Z</time>
      </trkpt>
      <trkpt lat="43.74202" lon="3.55903">
        <ele>77.04</ele>
        <time>2016-02-07T13:49:28Z</time>
      </trkpt>
      <trkpt lat="43.74183" lon="3.559">
        <ele>77.52</ele>
        <time>2016-02-07T13:49:29Z</time>
      </trkpt>
      <trkpt lat="43.74163" lon="3.559">
        <ele>77.52</ele>
        <time>2016-02-07T13:49:30Z</time>
      </trkpt>
      <trkpt lat="43.74144" lon="3.55901">
        <ele>78</ele>
        <time>2016-02-07T13:49:31Z</time>
      </trkpt>
      <trkpt lat="43.74125" lon="3.55904">
        <ele>78</ele>
        <time>2016-02-07T13:49:32Z</time>
      </trkpt>
      <trkpt lat="43.7404" lon="3.55913">
        <ele>76.08</ele>
        <time>2016-02-07T13:49:38Z</time>
      </trkpt>
      <trkpt lat="43.74028" lon="3.55912">
        <ele>75.6</ele>
        <time>2016-02-07T13:49:39Z</time>
      </trkpt>
      <trkpt lat="43.74016" lon="3.55907">
        <ele>75.6</ele>
        <time>2016-02-07T13:49:40Z</time>
      </trkpt>
      <trkpt lat="43.74006" lon="3.55898">
        <ele>75.6</ele>
        <time>2016-02-07T13:49:41Z</time>
      </trkpt>
      <trkpt lat="43.73994" lon="3.55886">
        <ele>75.6</ele>
        <time>2016-02-07T13:49:42Z</time>
      </trkpt>
      <trkpt lat="43.73979" lon="3.55873">
        <ele>75.6</ele>
        <time>2016-02-07T13:49:43Z</time>
      </trkpt>
      <trkpt lat="43.73877" lon="3.55782">
        <ele>76.56</ele>
        <time>2016-02-07T13:49:49Z</time>
      </trkpt>
      <trkpt lat="43.73829" lon="3.55739">
        <ele>75.6</ele>
        <time>2016-02-07T13:49:52Z</time>
      </trkpt>
      <trkpt lat="43.7381" lon="3.55728">
        <ele>75.12</ele>
        <time>2016-02-07T13:49:53Z</time>
      </trkpt>
      <trkpt lat="43.73626" lon="3.5563">
        <ele>75.6</ele>
        <time>2016-02-07T13:50:03Z</time>
      </trkpt>
      <trkpt lat="43.73548" lon="3.55559">
        <ele>76.56</ele>
        <time>2016-02-07T13:50:09Z</time>
      </trkpt>
      <trkpt lat="43.73455" lon="3.55476">
        <ele>77.04</ele>
        <time>2016-02-07T13:50:19Z</time>
      </trkpt>
      <trkpt lat="43.73363" lon="3.55411">
        <ele>79.45</ele>
        <time>2016-02-07T13:50:30Z</time>
      </trkpt>
      <trkpt lat="43.73307" lon="3.55376">
        <ele>82.33</ele>
        <time>2016-02-07T13:50:40Z</time>
      </trkpt>
      <trkpt lat="43.73288" lon="3.55368">
        <ele>82.81</ele>
        <time>2016-02-07T13:50:48Z</time>
      </trkpt>
      <trkpt lat="43.73291" lon="3.55369">
        <ele>79.93</ele>
        <time>2016-02-07T13:51:10Z</time>
      </trkpt>
      <trkpt lat="43.73291" lon="3.55365">
        <ele>80.41</ele>
        <time>2016-02-07T13:51:11Z</time>
      </trkpt>
      <trkpt lat="43.73294" lon="3.5535">
        <ele>81.85</ele>
        <time>2016-02-07T13:51:13Z</time>
      </trkpt>
      <trkpt lat="43.73296" lon="3.5534">
        <ele>82.33</ele>
        <time>2016-02-07T13:51:14Z</time>
      </trkpt>
      <trkpt lat="43.73301" lon="3.55328">
        <ele>82.81</ele>
        <time>2016-02-07T13:51:15Z</time>
      </trkpt>
      <trkpt lat="43.73307" lon="3.55316">
        <ele>83.77</ele>
        <time>2016-02-07T13:51:16Z</time>
      </trkpt>
      <trkpt lat="43.73314" lon="3.55305">
        <ele>83.77</ele>
        <time>2016-02-07T13:51:17Z</time>
      </trkpt>
      <trkpt lat="43.7332" lon="3.55294">
        <ele>84.25</ele>
        <time>2016-02-07T13:51:18Z</time>
      </trkpt>
      <trkpt lat="43.73325" lon="3.5528">
        <ele>84.73</ele>
        <time>2016-02-07T13:51:19Z</time>
      </trkpt>
      <trkpt lat="43.73347" lon="3.55215">
        <ele>87.62</ele>
        <time>2016-02-07T13:51:24Z</time>
      </trkpt>
      <trkpt lat="43.73347" lon="3.55203">
        <ele>88.58</ele>
        <time>2016-02-07T13:51:25Z</time>
      </trkpt>
      <trkpt lat="43.73346" lon="3.5519">
        <ele>89.06</ele>
        <time>2016-02-07T13:51:26Z</time>
      </trkpt>
      <trkpt lat="43.73342" lon="3.55176">
        <ele>89.54</ele>
        <time>2016-02-07T13:51:27Z</time>
      </trkpt>
      <trkpt lat="43.73337" lon="3.55161">
        <ele>90.02</ele>
        <time>2016-02-07T13:51:28Z</time>
      </trkpt>
      <trkpt lat="43.73328" lon="3.5513">
        <ele>91.46</ele>
        <time>2016-02-07T13:51:30Z</time>
      </trkpt>
      <trkpt lat="43.73325" lon="3.55113">
        <ele>91.94</ele>
        <time>2016-02-07T13:51:31Z</time>
      </trkpt>
      <trkpt lat="43.73322" lon="3.55076">
        <ele>93.87</ele>
        <time>2016-02-07T13:51:33Z</time>
      </trkpt>
      <trkpt lat="43.73314" lon="3.54989">
        <ele>99.15</ele>
        <time>2016-02-07T13:51:38Z</time>
      </trkpt>
      <trkpt lat="43.73307" lon="3.54979">
        <ele>100.11</ele>
        <time>2016-02-07T13:51:39Z</time>
      </trkpt>
      <trkpt lat="43.73301" lon="3.54969">
        <ele>101.56</ele>
        <time>2016-02-07T13:51:40Z</time>
      </trkpt>
      <trkpt lat="43.73297" lon="3.54958">
        <ele>103.48</ele>
        <time>2016-02-07T13:51:41Z</time>
      </trkpt>
      <trkpt lat="43.73295" lon="3.54944">
        <ele>104.44</ele>
        <time>2016-02-07T13:51:42Z</time>
      </trkpt>
      <trkpt lat="43.73296" lon="3.54931">
        <ele>104.92</ele>
        <time>2016-02-07T13:51:43Z</time>
      </trkpt>
      <trkpt lat="43.73299" lon="3.54916">
        <ele>105.4</ele>
        <time>2016-02-07T13:51:44Z</time>
      </trkpt>
      <trkpt lat="43.73303" lon="3.54898">
        <ele>106.36</ele>
        <time>2016-02-07T13:51:45Z</time>
      </trkpt>
      <trkpt lat="43.73308" lon="3.5488">
        <ele>106.84</ele>
        <time>2016-02-07T13:51:46Z</time>
      </trkpt>
      <trkpt lat="43.7332" lon="3.54836">
        <ele>108.29</ele>
        <time>2016-02-07T13:51:49Z</time>
      </trkpt>
      <trkpt lat="43.73327" lon="3.54827">
        <ele>108.77</ele>
        <time>2016-02-07T13:51:50Z</time>
      </trkpt>
      <trkpt lat="43.73334" lon="3.54821">
        <ele>108.77</ele>
        <time>2016-02-07T13:51:51Z</time>
      </trkpt>
      <trkpt lat="43.73341" lon="3.54816">
        <ele>109.73</ele>
        <time>2016-02-07T13:51:52Z</time>
      </trkpt>
      <trkpt lat="43.73348" lon="3.54815">
        <ele>110.21</ele>
        <time>2016-02-07T13:51:53Z</time>
      </trkpt>
      <trkpt lat="43.73356" lon="3.54817">
        <ele>111.17</ele>
        <time>2016-02-07T13:51:54Z</time>
      </trkpt>
      <trkpt lat="43.73362" lon="3.54821">
        <ele>109.73</ele>
        <time>2016-02-07T13:51:55Z</time>
      </trkpt>
      <trkpt lat="43.73367" lon="3.54827">
        <ele>108.77</ele>
        <time>2016-02-07T13:51:56Z</time>
      </trkpt>
      <trkpt lat="43.73372" lon="3.54829">
        <ele>109.25</ele>
        <time>2016-02-07T13:51:57Z</time>
      </trkpt>
      <trkpt lat="43.73376" lon="3.5483">
        <ele>109.25</ele>
        <time>2016-02-07T13:51:58Z</time>
      </trkpt>
      <trkpt lat="43.73379" lon="3.54829">
        <ele>109.25</ele>
        <time>2016-02-07T13:51:59Z</time>
      </trkpt>
      <trkpt lat="43.73382" lon="3.54826">
        <ele>108.77</ele>
        <time>2016-02-07T13:52:00Z</time>
      </trkpt>
      <trkpt lat="43.73384" lon="3.54824">
        <ele>109.25</ele>
        <time>2016-02-07T13:52:01Z</time>
      </trkpt>
      <trkpt lat="43.73385" lon="3.54824">
        <ele>109.73</ele>
        <time>2016-02-07T13:52:02Z</time>
      </trkpt>
      <trkpt lat="43.73386" lon="3.54824">
        <ele>109.25</ele>
        <time>2016-02-07T13:52:03Z</time>
      </trkpt>
      <trkpt lat="43.73387" lon="3.54826">
        <ele>108.77</ele>
        <time>2016-02-07T13:52:04Z</time>
      </trkpt>
      <trkpt lat="43.73391" lon="3.54825">
        <ele>108.29</ele>
        <time>2016-02-07T13:52:11Z</time>
      </trkpt>
      <trkpt lat="43.73393" lon="3.54823">
        <ele>108.77</ele>
        <time>2016-02-07T13:52:12Z</time>
      </trkpt>
      <trkpt lat="43.73396" lon="3.54822">
        <ele>108.77</ele>
        <time>2016-02-07T13:52:13Z</time>
      </trkpt>
      <trkpt lat="43.73399" lon="3.5482">
        <ele>109.25</ele>
        <time>2016-02-07T13:52:14Z</time>
      </trkpt>
      <trkpt lat="43.73401" lon="3.54819">
        <ele>108.77</ele>
        <time>2016-02-07T13:52:15Z</time>
      </trkpt>
      <trkpt lat="43.73404" lon="3.54819">
        <ele>108.77</ele>
        <time>2016-02-07T13:52:16Z</time>
      </trkpt>
      <trkpt lat="43.73406" lon="3.54818">
        <ele>108.77</ele>
        <time>2016-02-07T13:52:17Z</time>
      </trkpt>
      <trkpt lat="43.73406" lon="3.54817">
        <ele>109.73</ele>
        <time>2016-02-07T13:52:28Z</time>
      </trkpt>
      <trkpt lat="43.73407" lon="3.54816">
        <ele>86.18</ele>
        <time>2016-02-07T14:28:30Z</time>
      </trkpt>
      <trkpt lat="43.73407" lon="3.54817">
        <ele>87.62</ele>
        <time>2016-02-07T14:29:43Z</time>
      </trkpt>
      <trkpt lat="43.73416" lon="3.54807">
        <ele>90.5</ele>
        <time>2016-02-07T14:29:48Z</time>
      </trkpt>
      <trkpt lat="43.73409" lon="3.54788">
        <ele>90.98</ele>
        <time>2016-02-07T14:29:53Z</time>
      </trkpt>
      <trkpt lat="43.73398" lon="3.54787">
        <ele>93.39</ele>
        <time>2016-02-07T14:29:57Z</time>
      </trkpt>
      <trkpt lat="43.7339" lon="3.548">
        <ele>99.15</ele>
        <time>2016-02-07T14:30:08Z</time>
      </trkpt>
      <trkpt lat="43.73379" lon="3.5482">
        <ele>105.4</ele>
        <time>2016-02-07T14:30:27Z</time>
      </trkpt>
      <trkpt lat="43.73372" lon="3.54831">
        <ele>103.48</ele>
        <time>2016-02-07T14:30:32Z</time>
      </trkpt>
      <trkpt lat="43.73365" lon="3.54829">
        <ele>103.48</ele>
        <time>2016-02-07T14:30:34Z</time>
      </trkpt>
      <trkpt lat="43.73355" lon="3.54823">
        <ele>102.52</ele>
        <time>2016-02-07T14:30:36Z</time>
      </trkpt>
      <trkpt lat="43.73349" lon="3.54822">
        <ele>103.48</ele>
        <time>2016-02-07T14:30:37Z</time>
      </trkpt>
      <trkpt lat="43.73342" lon="3.54823">
        <ele>103.48</ele>
        <time>2016-02-07T14:30:38Z</time>
      </trkpt>
      <trkpt lat="43.73336" lon="3.54826">
        <ele>103.48</ele>
        <time>2016-02-07T14:30:39Z</time>
      </trkpt>
      <trkpt lat="43.73329" lon="3.5483">
        <ele>103.48</ele>
        <time>2016-02-07T14:30:40Z</time>
      </trkpt>
      <trkpt lat="43.73324" lon="3.54836">
        <ele>103</ele>
        <time>2016-02-07T14:30:41Z</time>
      </trkpt>
      <trkpt lat="43.73319" lon="3.54844">
        <ele>102.52</ele>
        <time>2016-02-07T14:30:42Z</time>
      </trkpt>
      <trkpt lat="43.73315" lon="3.54852">
        <ele>101.56</ele>
        <time>2016-02-07T14:30:43Z</time>
      </trkpt>
      <trkpt lat="43.73311" lon="3.54862">
        <ele>102.04</ele>
        <time>2016-02-07T14:30:44Z</time>
      </trkpt>
      <trkpt lat="43.73308" lon="3.54874">
        <ele>102.04</ele>
        <time>2016-02-07T14:30:45Z</time>
      </trkpt>
      <trkpt lat="43.73291" lon="3.54954">
        <ele>101.08</ele>
        <time>2016-02-07T14:30:52Z</time>
      </trkpt>
      <trkpt lat="43.73292" lon="3.54964">
        <ele>100.11</ele>
        <time>2016-02-07T14:30:53Z</time>
      </trkpt>
      <trkpt lat="43.73295" lon="3.54974">
        <ele>99.63</ele>
        <time>2016-02-07T14:30:54Z</time>
      </trkpt>
      <trkpt lat="43.73298" lon="3.54984">
        <ele>99.15</ele>
        <time>2016-02-07T14:30:55Z</time>
      </trkpt>
      <trkpt lat="43.73303" lon="3.54992">
        <ele>98.67</ele>
        <time>2016-02-07T14:30:56Z</time>
      </trkpt>
      <trkpt lat="43.73308" lon="3.55">
        <ele>98.19</ele>
        <time>2016-02-07T14:30:57Z</time>
      </trkpt>
      <trkpt lat="43.73312" lon="3.55009">
        <ele>97.71</ele>
        <time>2016-02-07T14:30:58Z</time>
      </trkpt>
      <trkpt lat="43.73315" lon="3.55018">
        <ele>97.23</ele>
        <time>2016-02-07T14:30:59Z</time>
      </trkpt>
      <trkpt lat="43.73317" lon="3.55027">
        <ele>96.75</ele>
        <time>2016-02-07T14:31:00Z</time>
      </trkpt>
      <trkpt lat="43.73318" lon="3.55036">
        <ele>96.75</ele>
        <time>2016-02-07T14:31:01Z</time>
      </trkpt>
      <trkpt lat="43.73319" lon="3.55046">
        <ele>96.75</ele>
        <time>2016-02-07T14:31:02Z</time>
      </trkpt>
      <trkpt lat="43.73325" lon="3.55129">
        <ele>93.87</ele>
        <time>2016-02-07T14:31:09Z</time>
      </trkpt>
      <trkpt lat="43.73328" lon="3.55142">
        <ele>93.39</ele>
        <time>2016-02-07T14:31:10Z</time>
      </trkpt>
      <trkpt lat="43.73331" lon="3.55154">
        <ele>92.42</ele>
        <time>2016-02-07T14:31:11Z</time>
      </trkpt>
      <trkpt lat="43.73335" lon="3.55165">
        <ele>91.94</ele>
        <time>2016-02-07T14:31:12Z</time>
      </trkpt>
      <trkpt lat="43.73338" lon="3.55176">
        <ele>91.46</ele>
        <time>2016-02-07T14:31:13Z</time>
      </trkpt>
      <trkpt lat="43.73345" lon="3.55196">
        <ele>90.02</ele>
        <time>2016-02-07T14:31:15Z</time>
      </trkpt>
      <trkpt lat="43.73346" lon="3.55205">
        <ele>89.54</ele>
        <time>2016-02-07T14:31:16Z</time>
      </trkpt>
      <trkpt lat="43.73347" lon="3.55215">
        <ele>89.06</ele>
        <time>2016-02-07T14:31:17Z</time>
      </trkpt>
      <trkpt lat="43.73345" lon="3.55225">
        <ele>89.06</ele>
        <time>2016-02-07T14:31:18Z</time>
      </trkpt>
      <trkpt lat="43.73343" lon="3.55234">
        <ele>88.58</ele>
        <time>2016-02-07T14:31:19Z</time>
      </trkpt>
      <trkpt lat="43.7334" lon="3.55243">
        <ele>88.1</ele>
        <time>2016-02-07T14:31:20Z</time>
      </trkpt>
      <trkpt lat="43.73319" lon="3.55302">
        <ele>85.69</ele>
        <time>2016-02-07T14:31:27Z</time>
      </trkpt>
      <trkpt lat="43.73314" lon="3.5531">
        <ele>85.21</ele>
        <time>2016-02-07T14:31:28Z</time>
      </trkpt>
      <trkpt lat="43.73301" lon="3.55333">
        <ele>84.25</ele>
        <time>2016-02-07T14:31:31Z</time>
      </trkpt>
      <trkpt lat="43.73298" lon="3.55341">
        <ele>83.77</ele>
        <time>2016-02-07T14:31:32Z</time>
      </trkpt>
      <trkpt lat="43.73295" lon="3.55349">
        <ele>83.29</ele>
        <time>2016-02-07T14:31:33Z</time>
      </trkpt>
      <trkpt lat="43.73287" lon="3.55374">
        <ele>79.45</ele>
        <time>2016-02-07T14:31:38Z</time>
      </trkpt>
      <trkpt lat="43.73284" lon="3.55375">
        <ele>78.48</ele>
        <time>2016-02-07T14:31:39Z</time>
      </trkpt>
      <trkpt lat="43.73278" lon="3.55374">
        <ele>78</ele>
        <time>2016-02-07T14:31:40Z</time>
      </trkpt>
      <trkpt lat="43.73205" lon="3.55348">
        <ele>70.79</ele>
        <time>2016-02-07T14:31:49Z</time>
      </trkpt>
      <trkpt lat="43.73116" lon="3.55311">
        <ele>67.43</ele>
        <time>2016-02-07T14:31:59Z</time>
      </trkpt>
      <trkpt lat="43.73008" lon="3.5526">
        <ele>64.55</ele>
        <time>2016-02-07T14:32:08Z</time>
      </trkpt>
      <trkpt lat="43.7288" lon="3.55153">
        <ele>70.79</ele>
        <time>2016-02-07T14:32:17Z</time>
      </trkpt>
      <trkpt lat="43.72743" lon="3.55039">
        <ele>74.16</ele>
        <time>2016-02-07T14:32:26Z</time>
      </trkpt>
      <trkpt lat="43.72728" lon="3.55029">
        <ele>74.16</ele>
        <time>2016-02-07T14:32:27Z</time>
      </trkpt>
      <trkpt lat="43.72711" lon="3.55021">
        <ele>74.16</ele>
        <time>2016-02-07T14:32:28Z</time>
      </trkpt>
      <trkpt lat="43.72634" lon="3.55003">
        <ele>71.76</ele>
        <time>2016-02-07T14:32:32Z</time>
      </trkpt>
      <trkpt lat="43.72613" lon="3.55003">
        <ele>70.79</ele>
        <time>2016-02-07T14:32:33Z</time>
      </trkpt>
      <trkpt lat="43.7246" lon="3.55038">
        <ele>67.91</ele>
        <time>2016-02-07T14:32:41Z</time>
      </trkpt>
      <trkpt lat="43.7243" lon="3.55054">
        <ele>67.43</ele>
        <time>2016-02-07T14:32:43Z</time>
      </trkpt>
      <trkpt lat="43.72418" lon="3.55066">
        <ele>66.95</ele>
        <time>2016-02-07T14:32:44Z</time>
      </trkpt>
      <trkpt lat="43.72407" lon="3.5508">
        <ele>66.95</ele>
        <time>2016-02-07T14:32:45Z</time>
      </trkpt>
      <trkpt lat="43.72397" lon="3.55095">
        <ele>66.95</ele>
        <time>2016-02-07T14:32:46Z</time>
      </trkpt>
      <trkpt lat="43.72388" lon="3.55112">
        <ele>66.95</ele>
        <time>2016-02-07T14:32:47Z</time>
      </trkpt>
      <trkpt lat="43.72378" lon="3.5513">
        <ele>66.95</ele>
        <time>2016-02-07T14:32:48Z</time>
      </trkpt>
      <trkpt lat="43.72301" lon="3.55258">
        <ele>68.39</ele>
        <time>2016-02-07T14:32:55Z</time>
      </trkpt>
      <trkpt lat="43.72288" lon="3.55271">
        <ele>68.87</ele>
        <time>2016-02-07T14:32:56Z</time>
      </trkpt>
      <trkpt lat="43.72274" lon="3.55281">
        <ele>69.35</ele>
        <time>2016-02-07T14:32:57Z</time>
      </trkpt>
      <trkpt lat="43.7226" lon="3.55288">
        <ele>69.35</ele>
        <time>2016-02-07T14:32:58Z</time>
      </trkpt>
      <trkpt lat="43.72244" lon="3.55293">
        <ele>69.83</ele>
        <time>2016-02-07T14:32:59Z</time>
      </trkpt>
      <trkpt lat="43.72227" lon="3.55296">
        <ele>69.83</ele>
        <time>2016-02-07T14:33:00Z</time>
      </trkpt>
      <trkpt lat="43.7221" lon="3.55298">
        <ele>70.31</ele>
        <time>2016-02-07T14:33:01Z</time>
      </trkpt>
      <trkpt lat="43.7208" lon="3.55343">
        <ele>71.76</ele>
        <time>2016-02-07T14:33:09Z</time>
      </trkpt>
      <trkpt lat="43.71951" lon="3.55348">
        <ele>71.27</ele>
        <time>2016-02-07T14:33:16Z</time>
      </trkpt>
      <trkpt lat="43.71785" lon="3.55324">
        <ele>66.47</ele>
        <time>2016-02-07T14:33:26Z</time>
      </trkpt>
      <trkpt lat="43.71736" lon="3.55299">
        <ele>66.47</ele>
        <time>2016-02-07T14:33:29Z</time>
      </trkpt>
      <trkpt lat="43.71721" lon="3.55288">
        <ele>67.43</ele>
        <time>2016-02-07T14:33:30Z</time>
      </trkpt>
      <trkpt lat="43.71693" lon="3.55268">
        <ele>69.35</ele>
        <time>2016-02-07T14:33:32Z</time>
      </trkpt>
      <trkpt lat="43.71677" lon="3.5526">
        <ele>69.35</ele>
        <time>2016-02-07T14:33:33Z</time>
      </trkpt>
      <trkpt lat="43.7166" lon="3.55254">
        <ele>69.35</ele>
        <time>2016-02-07T14:33:34Z</time>
      </trkpt>
      <trkpt lat="43.71641" lon="3.55249">
        <ele>68.87</ele>
        <time>2016-02-07T14:33:35Z</time>
      </trkpt>
      <trkpt lat="43.71622" lon="3.55246">
        <ele>67.91</ele>
        <time>2016-02-07T14:33:36Z</time>
      </trkpt>
      <trkpt lat="43.71602" lon="3.55244">
        <ele>67.43</ele>
        <time>2016-02-07T14:33:37Z</time>
      </trkpt>
      <trkpt lat="43.71433" lon="3.55248">
        <ele>64.55</ele>
        <time>2016-02-07T14:33:46Z</time>
      </trkpt>
      <trkpt lat="43.71328" lon="3.55262">
        <ele>64.55</ele>
        <time>2016-02-07T14:33:52Z</time>
      </trkpt>
      <trkpt lat="43.7131" lon="3.55258">
        <ele>65.03</ele>
        <time>2016-02-07T14:33:53Z</time>
      </trkpt>
      <trkpt lat="43.71293" lon="3.5525">
        <ele>65.03</ele>
        <time>2016-02-07T14:33:54Z</time>
      </trkpt>
      <trkpt lat="43.71261" lon="3.55236">
        <ele>66.47</ele>
        <time>2016-02-07T14:33:56Z</time>
      </trkpt>
      <trkpt lat="43.71243" lon="3.55233">
        <ele>65.99</ele>
        <time>2016-02-07T14:33:57Z</time>
      </trkpt>
      <trkpt lat="43.7114" lon="3.55232">
        <ele>65.03</ele>
        <time>2016-02-07T14:34:03Z</time>
      </trkpt>
      <trkpt lat="43.71123" lon="3.55238">
        <ele>64.55</ele>
        <time>2016-02-07T14:34:04Z</time>
      </trkpt>
      <trkpt lat="43.70991" lon="3.55307">
        <ele>64.55</ele>
        <time>2016-02-07T14:34:13Z</time>
      </trkpt>
      <trkpt lat="43.7098" lon="3.55323">
        <ele>64.55</ele>
        <time>2016-02-07T14:34:14Z</time>
      </trkpt>
      <trkpt lat="43.70969" lon="3.55344">
        <ele>64.07</ele>
        <time>2016-02-07T14:34:15Z</time>
      </trkpt>
      <trkpt lat="43.70959" lon="3.55366">
        <ele>64.07</ele>
        <time>2016-02-07T14:34:16Z</time>
      </trkpt>
      <trkpt lat="43.70949" lon="3.55389">
        <ele>63.58</ele>
        <time>2016-02-07T14:34:17Z</time>
      </trkpt>
      <trkpt lat="43.70888" lon="3.55555">
        <ele>63.1</ele>
        <time>2016-02-07T14:34:25Z</time>
      </trkpt>
      <trkpt lat="43.70879" lon="3.55573">
        <ele>63.58</ele>
        <time>2016-02-07T14:34:26Z</time>
      </trkpt>
      <trkpt lat="43.7087" lon="3.55589">
        <ele>63.58</ele>
        <time>2016-02-07T14:34:27Z</time>
      </trkpt>
      <trkpt lat="43.70806" lon="3.55667">
        <ele>66.47</ele>
        <time>2016-02-07T14:34:34Z</time>
      </trkpt>
      <trkpt lat="43.70784" lon="3.5569">
        <ele>68.39</ele>
        <time>2016-02-07T14:34:39Z</time>
      </trkpt>
      <trkpt lat="43.70784" lon="3.55694">
        <ele>67.43</ele>
        <time>2016-02-07T14:34:40Z</time>
      </trkpt>
      <trkpt lat="43.70786" lon="3.55699">
        <ele>66.95</ele>
        <time>2016-02-07T14:34:41Z</time>
      </trkpt>
      <trkpt lat="43.70789" lon="3.55707">
        <ele>66.47</ele>
        <time>2016-02-07T14:34:42Z</time>
      </trkpt>
      <trkpt lat="43.70793" lon="3.55716">
        <ele>66.47</ele>
        <time>2016-02-07T14:34:43Z</time>
      </trkpt>
      <trkpt lat="43.70813" lon="3.5577">
        <ele>65.51</ele>
        <time>2016-02-07T14:34:48Z</time>
      </trkpt>
      <trkpt lat="43.70813" lon="3.55782">
        <ele>65.51</ele>
        <time>2016-02-07T14:34:49Z</time>
      </trkpt>
      <trkpt lat="43.7081" lon="3.55793">
        <ele>65.51</ele>
        <time>2016-02-07T14:34:50Z</time>
      </trkpt>
      <trkpt lat="43.70805" lon="3.55804">
        <ele>65.03</ele>
        <time>2016-02-07T14:34:51Z</time>
      </trkpt>
      <trkpt lat="43.70798" lon="3.55815">
        <ele>65.03</ele>
        <time>2016-02-07T14:34:52Z</time>
      </trkpt>
      <trkpt lat="43.7079" lon="3.55827">
        <ele>65.03</ele>
        <time>2016-02-07T14:34:53Z</time>
      </trkpt>
      <trkpt lat="43.70708" lon="3.55955">
        <ele>62.62</ele>
        <time>2016-02-07T14:35:02Z</time>
      </trkpt>
      <trkpt lat="43.70695" lon="3.55971">
        <ele>62.14</ele>
        <time>2016-02-07T14:35:03Z</time>
      </trkpt>
      <trkpt lat="43.70682" lon="3.55985">
        <ele>61.66</ele>
        <time>2016-02-07T14:35:04Z</time>
      </trkpt>
      <trkpt lat="43.70559" lon="3.56102">
        <ele>63.1</ele>
        <time>2016-02-07T14:35:12Z</time>
      </trkpt>
      <trkpt lat="43.70395" lon="3.56204">
        <ele>63.1</ele>
        <time>2016-02-07T14:35:22Z</time>
      </trkpt>
      <trkpt lat="43.70365" lon="3.5623">
        <ele>63.1</ele>
        <time>2016-02-07T14:35:24Z</time>
      </trkpt>
      <trkpt lat="43.70352" lon="3.56246">
        <ele>63.1</ele>
        <time>2016-02-07T14:35:25Z</time>
      </trkpt>
      <trkpt lat="43.70339" lon="3.56264">
        <ele>63.58</ele>
        <time>2016-02-07T14:35:26Z</time>
      </trkpt>
      <trkpt lat="43.70327" lon="3.56284">
        <ele>63.58</ele>
        <time>2016-02-07T14:35:27Z</time>
      </trkpt>
      <trkpt lat="43.70317" lon="3.56305">
        <ele>63.58</ele>
        <time>2016-02-07T14:35:28Z</time>
      </trkpt>
      <trkpt lat="43.7024" lon="3.56517">
        <ele>65.99</ele>
        <time>2016-02-07T14:35:37Z</time>
      </trkpt>
      <trkpt lat="43.70153" lon="3.5678">
        <ele>66.47</ele>
        <time>2016-02-07T14:35:47Z</time>
      </trkpt>
      <trkpt lat="43.70057" lon="3.57015">
        <ele>65.99</ele>
        <time>2016-02-07T14:35:56Z</time>
      </trkpt>
      <trkpt lat="43.69903" lon="3.57439">
        <ele>65.99</ele>
        <time>2016-02-07T14:36:12Z</time>
      </trkpt>
      <trkpt lat="43.69793" lon="3.57622">
        <ele>65.51</ele>
        <time>2016-02-07T14:36:20Z</time>
      </trkpt>
      <trkpt lat="43.69621" lon="3.57798">
        <ele>63.58</ele>
        <time>2016-02-07T14:36:30Z</time>
      </trkpt>
      <trkpt lat="43.69361" lon="3.58016">
        <ele>56.37</ele>
        <time>2016-02-07T14:36:44Z</time>
      </trkpt>
      <trkpt lat="43.69347" lon="3.58036">
        <ele>56.37</ele>
        <time>2016-02-07T14:36:45Z</time>
      </trkpt>
      <trkpt lat="43.69258" lon="3.58166">
        <ele>57.82</ele>
        <time>2016-02-07T14:36:52Z</time>
      </trkpt>
      <trkpt lat="43.692" lon="3.58235">
        <ele>60.22</ele>
        <time>2016-02-07T14:36:58Z</time>
      </trkpt>
      <trkpt lat="43.69188" lon="3.58242">
        <ele>60.22</ele>
        <time>2016-02-07T14:36:59Z</time>
      </trkpt>
      <trkpt lat="43.69057" lon="3.58331">
        <ele>61.66</ele>
        <time>2016-02-07T14:37:10Z</time>
      </trkpt>
      <trkpt lat="43.68937" lon="3.58413">
        <ele>63.1</ele>
        <time>2016-02-07T14:37:20Z</time>
      </trkpt>
      <trkpt lat="43.6882" lon="3.58474">
        <ele>64.55</ele>
        <time>2016-02-07T14:37:31Z</time>
      </trkpt>
      <trkpt lat="43.68784" lon="3.58495">
        <ele>65.99</ele>
        <time>2016-02-07T14:37:39Z</time>
      </trkpt>
      <trkpt lat="43.68756" lon="3.58513">
        <ele>66.47</ele>
        <time>2016-02-07T14:37:45Z</time>
      </trkpt>
      <trkpt lat="43.68657" lon="3.58563">
        <ele>67.91</ele>
        <time>2016-02-07T14:37:56Z</time>
      </trkpt>
      <trkpt lat="43.68584" lon="3.58606">
        <ele>75.12</ele>
        <time>2016-02-07T14:38:07Z</time>
      </trkpt>
      <trkpt lat="43.68562" lon="3.58626">
        <ele>77.52</ele>
        <time>2016-02-07T14:38:14Z</time>
      </trkpt>
      <trkpt lat="43.68561" lon="3.58636">
        <ele>77.52</ele>
        <time>2016-02-07T14:38:15Z</time>
      </trkpt>
      <trkpt lat="43.68561" lon="3.58649">
        <ele>78</ele>
        <time>2016-02-07T14:38:16Z</time>
      </trkpt>
      <trkpt lat="43.68543" lon="3.58768">
        <ele>73.68</ele>
        <time>2016-02-07T14:38:27Z</time>
      </trkpt>
      <trkpt lat="43.68508" lon="3.58891">
        <ele>77.04</ele>
        <time>2016-02-07T14:38:38Z</time>
      </trkpt>
      <trkpt lat="43.68467" lon="3.58985">
        <ele>79.93</ele>
        <time>2016-02-07T14:38:48Z</time>
      </trkpt>
      <trkpt lat="43.68457" lon="3.59003">
        <ele>78.97</ele>
        <time>2016-02-07T14:38:50Z</time>
      </trkpt>
      <trkpt lat="43.68454" lon="3.59014">
        <ele>78.48</ele>
        <time>2016-02-07T14:38:51Z</time>
      </trkpt>
      <trkpt lat="43.68453" lon="3.59026">
        <ele>78</ele>
        <time>2016-02-07T14:38:52Z</time>
      </trkpt>
      <trkpt lat="43.68452" lon="3.59038">
        <ele>77.52</ele>
        <time>2016-02-07T14:38:53Z</time>
      </trkpt>
      <trkpt lat="43.68452" lon="3.5905">
        <ele>77.52</ele>
        <time>2016-02-07T14:38:54Z</time>
      </trkpt>
      <trkpt lat="43.68459" lon="3.59194">
        <ele>76.08</ele>
        <time>2016-02-07T14:39:06Z</time>
      </trkpt>
      <trkpt lat="43.68475" lon="3.59307">
        <ele>75.12</ele>
        <time>2016-02-07T14:39:16Z</time>
      </trkpt>
      <trkpt lat="43.68486" lon="3.59348">
        <ele>74.64</ele>
        <time>2016-02-07T14:39:20Z</time>
      </trkpt>
      <trkpt lat="43.68487" lon="3.5936">
        <ele>74.64</ele>
        <time>2016-02-07T14:39:21Z</time>
      </trkpt>
      <trkpt lat="43.68486" lon="3.59374">
        <ele>74.64</ele>
        <time>2016-02-07T14:39:22Z</time>
      </trkpt>
      <trkpt lat="43.68483" lon="3.59387">
        <ele>74.64</ele>
        <time>2016-02-07T14:39:23Z</time>
      </trkpt>
      <trkpt lat="43.68479" lon="3.594">
        <ele>74.16</ele>
        <time>2016-02-07T14:39:24Z</time>
      </trkpt>
      <trkpt lat="43.68472" lon="3.5941">
        <ele>74.16</ele>
        <time>2016-02-07T14:39:25Z</time>
      </trkpt>
      <trkpt lat="43.68464" lon="3.59418">
        <ele>73.2</ele>
        <time>2016-02-07T14:39:26Z</time>
      </trkpt>
      <trkpt lat="43.68455" lon="3.59424">
        <ele>72.72</ele>
        <time>2016-02-07T14:39:27Z</time>
      </trkpt>
      <trkpt lat="43.68442" lon="3.59426">
        <ele>72.24</ele>
        <time>2016-02-07T14:39:28Z</time>
      </trkpt>
      <trkpt lat="43.6843" lon="3.59427">
        <ele>71.76</ele>
        <time>2016-02-07T14:39:29Z</time>
      </trkpt>
      <trkpt lat="43.68417" lon="3.59427">
        <ele>71.27</ele>
        <time>2016-02-07T14:39:30Z</time>
      </trkpt>
      <trkpt lat="43.68404" lon="3.59427">
        <ele>71.27</ele>
        <time>2016-02-07T14:39:31Z</time>
      </trkpt>
      <trkpt lat="43.68368" lon="3.59421">
        <ele>71.27</ele>
        <time>2016-02-07T14:39:34Z</time>
      </trkpt>
      <trkpt lat="43.68246" lon="3.59379">
        <ele>75.12</ele>
        <time>2016-02-07T14:39:44Z</time>
      </trkpt>
      <trkpt lat="43.68123" lon="3.59371">
        <ele>79.93</ele>
        <time>2016-02-07T14:39:54Z</time>
      </trkpt>
      <trkpt lat="43.68103" lon="3.59384">
        <ele>82.81</ele>
        <time>2016-02-07T14:40:00Z</time>
      </trkpt>
      <trkpt lat="43.68089" lon="3.59399">
        <ele>84.25</ele>
        <time>2016-02-07T14:40:05Z</time>
      </trkpt>
      <trkpt lat="43.68081" lon="3.59409">
        <ele>83.77</ele>
        <time>2016-02-07T14:40:06Z</time>
      </trkpt>
      <trkpt lat="43.68061" lon="3.59433">
        <ele>84.73</ele>
        <time>2016-02-07T14:40:08Z</time>
      </trkpt>
      <trkpt lat="43.67965" lon="3.59529">
        <ele>87.14</ele>
        <time>2016-02-07T14:40:15Z</time>
      </trkpt>
      <trkpt lat="43.67952" lon="3.59544">
        <ele>87.62</ele>
        <time>2016-02-07T14:40:16Z</time>
      </trkpt>
      <trkpt lat="43.67942" lon="3.59566">
        <ele>89.06</ele>
        <time>2016-02-07T14:40:17Z</time>
      </trkpt>
      <trkpt lat="43.67935" lon="3.59586">
        <ele>90.5</ele>
        <time>2016-02-07T14:40:18Z</time>
      </trkpt>
      <trkpt lat="43.67928" lon="3.59607">
        <ele>91.46</ele>
        <time>2016-02-07T14:40:19Z</time>
      </trkpt>
      <trkpt lat="43.67923" lon="3.5963">
        <ele>93.39</ele>
        <time>2016-02-07T14:40:20Z</time>
      </trkpt>
      <trkpt lat="43.67922" lon="3.59655">
        <ele>95.31</ele>
        <time>2016-02-07T14:40:21Z</time>
      </trkpt>
      <trkpt lat="43.67922" lon="3.5968">
        <ele>97.23</ele>
        <time>2016-02-07T14:40:22Z</time>
      </trkpt>
      <trkpt lat="43.67917" lon="3.5984">
        <ele>104.44</ele>
        <time>2016-02-07T14:40:29Z</time>
      </trkpt>
      <trkpt lat="43.67913" lon="3.59856">
        <ele>105.4</ele>
        <time>2016-02-07T14:40:30Z</time>
      </trkpt>
      <trkpt lat="43.67905" lon="3.59866">
        <ele>106.36</ele>
        <time>2016-02-07T14:40:31Z</time>
      </trkpt>
      <trkpt lat="43.67895" lon="3.59873">
        <ele>106.84</ele>
        <time>2016-02-07T14:40:32Z</time>
      </trkpt>
      <trkpt lat="43.67881" lon="3.59876">
        <ele>108.29</ele>
        <time>2016-02-07T14:40:33Z</time>
      </trkpt>
      <trkpt lat="43.67867" lon="3.59871">
        <ele>108.77</ele>
        <time>2016-02-07T14:40:34Z</time>
      </trkpt>
      <trkpt lat="43.67856" lon="3.5986">
        <ele>109.73</ele>
        <time>2016-02-07T14:40:35Z</time>
      </trkpt>
      <trkpt lat="43.67848" lon="3.59842">
        <ele>110.69</ele>
        <time>2016-02-07T14:40:36Z</time>
      </trkpt>
      <trkpt lat="43.67845" lon="3.59824">
        <ele>111.17</ele>
        <time>2016-02-07T14:40:37Z</time>
      </trkpt>
      <trkpt lat="43.67844" lon="3.59806">
        <ele>111.65</ele>
        <time>2016-02-07T14:40:38Z</time>
      </trkpt>
      <trkpt lat="43.67847" lon="3.59791">
        <ele>112.13</ele>
        <time>2016-02-07T14:40:39Z</time>
      </trkpt>
      <trkpt lat="43.67848" lon="3.59775">
        <ele>112.61</ele>
        <time>2016-02-07T14:40:40Z</time>
      </trkpt>
      <trkpt lat="43.67845" lon="3.59761">
        <ele>113.57</ele>
        <time>2016-02-07T14:40:41Z</time>
      </trkpt>
      <trkpt lat="43.6784" lon="3.5975">
        <ele>113.57</ele>
        <time>2016-02-07T14:40:42Z</time>
      </trkpt>
      <trkpt lat="43.67832" lon="3.59742">
        <ele>114.05</ele>
        <time>2016-02-07T14:40:43Z</time>
      </trkpt>
      <trkpt lat="43.67816" lon="3.59744">
        <ele>116.46</ele>
        <time>2016-02-07T14:40:44Z</time>
      </trkpt>
      <trkpt lat="43.67802" lon="3.59744">
        <ele>116.94</ele>
        <time>2016-02-07T14:40:45Z</time>
      </trkpt>
      <trkpt lat="43.67786" lon="3.59744">
        <ele>117.9</ele>
        <time>2016-02-07T14:40:46Z</time>
      </trkpt>
      <trkpt lat="43.67639" lon="3.5974">
        <ele>123.67</ele>
        <time>2016-02-07T14:40:54Z</time>
      </trkpt>
      <trkpt lat="43.67541" lon="3.59736">
        <ele>127.51</ele>
        <time>2016-02-07T14:40:59Z</time>
      </trkpt>
      <trkpt lat="43.67523" lon="3.5973">
        <ele>128.47</ele>
        <time>2016-02-07T14:41:00Z</time>
      </trkpt>
      <trkpt lat="43.67506" lon="3.59721">
        <ele>129.43</ele>
        <time>2016-02-07T14:41:01Z</time>
      </trkpt>
      <trkpt lat="43.6749" lon="3.59709">
        <ele>129.92</ele>
        <time>2016-02-07T14:41:02Z</time>
      </trkpt>
      <trkpt lat="43.67473" lon="3.59696">
        <ele>130.88</ele>
        <time>2016-02-07T14:41:03Z</time>
      </trkpt>
      <trkpt lat="43.67421" lon="3.59659">
        <ele>132.8</ele>
        <time>2016-02-07T14:41:06Z</time>
      </trkpt>
      <trkpt lat="43.67402" lon="3.59651">
        <ele>133.28</ele>
        <time>2016-02-07T14:41:07Z</time>
      </trkpt>
      <trkpt lat="43.67382" lon="3.59647">
        <ele>133.76</ele>
        <time>2016-02-07T14:41:08Z</time>
      </trkpt>
      <trkpt lat="43.67228" lon="3.59634">
        <ele>139.53</ele>
        <time>2016-02-07T14:41:16Z</time>
      </trkpt>
      <trkpt lat="43.67213" lon="3.59637">
        <ele>140.01</ele>
        <time>2016-02-07T14:41:17Z</time>
      </trkpt>
      <trkpt lat="43.672" lon="3.59648">
        <ele>140.97</ele>
        <time>2016-02-07T14:41:18Z</time>
      </trkpt>
      <trkpt lat="43.67189" lon="3.59662">
        <ele>141.45</ele>
        <time>2016-02-07T14:41:19Z</time>
      </trkpt>
      <trkpt lat="43.67182" lon="3.5968">
        <ele>141.93</ele>
        <time>2016-02-07T14:41:20Z</time>
      </trkpt>
      <trkpt lat="43.67175" lon="3.597">
        <ele>141.93</ele>
        <time>2016-02-07T14:41:21Z</time>
      </trkpt>
      <trkpt lat="43.67172" lon="3.59723">
        <ele>142.41</ele>
        <time>2016-02-07T14:41:22Z</time>
      </trkpt>
      <trkpt lat="43.6717" lon="3.59749">
        <ele>142.41</ele>
        <time>2016-02-07T14:41:23Z</time>
      </trkpt>
      <trkpt lat="43.67168" lon="3.59775">
        <ele>141.93</ele>
        <time>2016-02-07T14:41:24Z</time>
      </trkpt>
      <trkpt lat="43.67132" lon="3.60013">
        <ele>136.64</ele>
        <time>2016-02-07T14:41:33Z</time>
      </trkpt>
      <trkpt lat="43.67131" lon="3.60038">
        <ele>135.68</ele>
        <time>2016-02-07T14:41:34Z</time>
      </trkpt>
      <trkpt lat="43.67129" lon="3.60063">
        <ele>134.24</ele>
        <time>2016-02-07T14:41:35Z</time>
      </trkpt>
      <trkpt lat="43.67126" lon="3.60086">
        <ele>133.28</ele>
        <time>2016-02-07T14:41:36Z</time>
      </trkpt>
      <trkpt lat="43.67122" lon="3.60107">
        <ele>132.8</ele>
        <time>2016-02-07T14:41:37Z</time>
      </trkpt>
      <trkpt lat="43.67116" lon="3.60126">
        <ele>131.36</ele>
        <time>2016-02-07T14:41:38Z</time>
      </trkpt>
      <trkpt lat="43.67112" lon="3.60143">
        <ele>130.88</ele>
        <time>2016-02-07T14:41:39Z</time>
      </trkpt>
      <trkpt lat="43.67113" lon="3.60159">
        <ele>129.92</ele>
        <time>2016-02-07T14:41:40Z</time>
      </trkpt>
      <trkpt lat="43.67118" lon="3.60173">
        <ele>129.43</ele>
        <time>2016-02-07T14:41:41Z</time>
      </trkpt>
      <trkpt lat="43.67126" lon="3.60187">
        <ele>128.95</ele>
        <time>2016-02-07T14:41:42Z</time>
      </trkpt>
      <trkpt lat="43.67136" lon="3.60197">
        <ele>127.51</ele>
        <time>2016-02-07T14:41:43Z</time>
      </trkpt>
      <trkpt lat="43.67154" lon="3.60206">
        <ele>127.03</ele>
        <time>2016-02-07T14:41:44Z</time>
      </trkpt>
      <trkpt lat="43.67169" lon="3.60215">
        <ele>126.55</ele>
        <time>2016-02-07T14:41:45Z</time>
      </trkpt>
      <trkpt lat="43.67183" lon="3.60227">
        <ele>125.59</ele>
        <time>2016-02-07T14:41:46Z</time>
      </trkpt>
      <trkpt lat="43.67195" lon="3.60243">
        <ele>125.11</ele>
        <time>2016-02-07T14:41:47Z</time>
      </trkpt>
      <trkpt lat="43.67206" lon="3.60262">
        <ele>124.15</ele>
        <time>2016-02-07T14:41:48Z</time>
      </trkpt>
      <trkpt lat="43.67214" lon="3.60283">
        <ele>123.19</ele>
        <time>2016-02-07T14:41:49Z</time>
      </trkpt>
      <trkpt lat="43.67222" lon="3.60304">
        <ele>122.22</ele>
        <time>2016-02-07T14:41:50Z</time>
      </trkpt>
      <trkpt lat="43.67229" lon="3.60326">
        <ele>121.74</ele>
        <time>2016-02-07T14:41:51Z</time>
      </trkpt>
      <trkpt lat="43.67255" lon="3.60404">
        <ele>120.3</ele>
        <time>2016-02-07T14:41:55Z</time>
      </trkpt>
      <trkpt lat="43.67264" lon="3.60421">
        <ele>120.3</ele>
        <time>2016-02-07T14:41:56Z</time>
      </trkpt>
      <trkpt lat="43.67276" lon="3.60436">
        <ele>119.34</ele>
        <time>2016-02-07T14:41:57Z</time>
      </trkpt>
      <trkpt lat="43.67292" lon="3.60449">
        <ele>119.34</ele>
        <time>2016-02-07T14:41:58Z</time>
      </trkpt>
      <trkpt lat="43.67309" lon="3.60462">
        <ele>119.82</ele>
        <time>2016-02-07T14:41:59Z</time>
      </trkpt>
      <trkpt lat="43.67324" lon="3.60477">
        <ele>119.82</ele>
        <time>2016-02-07T14:42:00Z</time>
      </trkpt>
      <trkpt lat="43.67336" lon="3.60496">
        <ele>120.3</ele>
        <time>2016-02-07T14:42:01Z</time>
      </trkpt>
      <trkpt lat="43.67347" lon="3.60518">
        <ele>120.78</ele>
        <time>2016-02-07T14:42:02Z</time>
      </trkpt>
      <trkpt lat="43.67357" lon="3.60542">
        <ele>122.22</ele>
        <time>2016-02-07T14:42:03Z</time>
      </trkpt>
      <trkpt lat="43.67366" lon="3.60567">
        <ele>123.19</ele>
        <time>2016-02-07T14:42:04Z</time>
      </trkpt>
      <trkpt lat="43.67407" lon="3.60659">
        <ele>126.55</ele>
        <time>2016-02-07T14:42:08Z</time>
      </trkpt>
      <trkpt lat="43.6742" lon="3.60678">
        <ele>127.03</ele>
        <time>2016-02-07T14:42:09Z</time>
      </trkpt>
      <trkpt lat="43.67436" lon="3.60695">
        <ele>127.99</ele>
        <time>2016-02-07T14:42:10Z</time>
      </trkpt>
      <trkpt lat="43.67454" lon="3.60709">
        <ele>129.43</ele>
        <time>2016-02-07T14:42:11Z</time>
      </trkpt>
      <trkpt lat="43.67472" lon="3.60722">
        <ele>129.92</ele>
        <time>2016-02-07T14:42:12Z</time>
      </trkpt>
      <trkpt lat="43.67555" lon="3.60791">
        <ele>134.72</ele>
        <time>2016-02-07T14:42:17Z</time>
      </trkpt>
      <trkpt lat="43.67568" lon="3.6081">
        <ele>135.2</ele>
        <time>2016-02-07T14:42:18Z</time>
      </trkpt>
      <trkpt lat="43.6758" lon="3.6083">
        <ele>135.68</ele>
        <time>2016-02-07T14:42:19Z</time>
      </trkpt>
      <trkpt lat="43.67592" lon="3.60852">
        <ele>136.16</ele>
        <time>2016-02-07T14:42:20Z</time>
      </trkpt>
      <trkpt lat="43.67601" lon="3.60876">
        <ele>137.13</ele>
        <time>2016-02-07T14:42:21Z</time>
      </trkpt>
      <trkpt lat="43.67608" lon="3.60901">
        <ele>137.61</ele>
        <time>2016-02-07T14:42:22Z</time>
      </trkpt>
      <trkpt lat="43.67613" lon="3.60926">
        <ele>138.09</ele>
        <time>2016-02-07T14:42:23Z</time>
      </trkpt>
      <trkpt lat="43.67617" lon="3.60952">
        <ele>138.57</ele>
        <time>2016-02-07T14:42:24Z</time>
      </trkpt>
      <trkpt lat="43.67625" lon="3.61054">
        <ele>140.97</ele>
        <time>2016-02-07T14:42:28Z</time>
      </trkpt>
      <trkpt lat="43.67622" lon="3.61075">
        <ele>141.45</ele>
        <time>2016-02-07T14:42:29Z</time>
      </trkpt>
      <trkpt lat="43.67613" lon="3.61095">
        <ele>142.41</ele>
        <time>2016-02-07T14:42:30Z</time>
      </trkpt>
      <trkpt lat="43.676" lon="3.61113">
        <ele>142.89</ele>
        <time>2016-02-07T14:42:31Z</time>
      </trkpt>
      <trkpt lat="43.67587" lon="3.61129">
        <ele>143.37</ele>
        <time>2016-02-07T14:42:32Z</time>
      </trkpt>
      <trkpt lat="43.67571" lon="3.61144">
        <ele>144.34</ele>
        <time>2016-02-07T14:42:33Z</time>
      </trkpt>
      <trkpt lat="43.67553" lon="3.61158">
        <ele>144.82</ele>
        <time>2016-02-07T14:42:34Z</time>
      </trkpt>
      <trkpt lat="43.67536" lon="3.6117">
        <ele>145.3</ele>
        <time>2016-02-07T14:42:35Z</time>
      </trkpt>
      <trkpt lat="43.67519" lon="3.61181">
        <ele>146.26</ele>
        <time>2016-02-07T14:42:36Z</time>
      </trkpt>
      <trkpt lat="43.67488" lon="3.61204">
        <ele>147.22</ele>
        <time>2016-02-07T14:42:38Z</time>
      </trkpt>
      <trkpt lat="43.67474" lon="3.6122">
        <ele>147.7</ele>
        <time>2016-02-07T14:42:39Z</time>
      </trkpt>
      <trkpt lat="43.67464" lon="3.61238">
        <ele>149.14</ele>
        <time>2016-02-07T14:42:40Z</time>
      </trkpt>
      <trkpt lat="43.67455" lon="3.61258">
        <ele>149.62</ele>
        <time>2016-02-07T14:42:41Z</time>
      </trkpt>
      <trkpt lat="43.67448" lon="3.61279">
        <ele>150.58</ele>
        <time>2016-02-07T14:42:42Z</time>
      </trkpt>
      <trkpt lat="43.67441" lon="3.613">
        <ele>151.06</ele>
        <time>2016-02-07T14:42:43Z</time>
      </trkpt>
      <trkpt lat="43.67429" lon="3.61342">
        <ele>152.51</ele>
        <time>2016-02-07T14:42:45Z</time>
      </trkpt>
      <trkpt lat="43.67426" lon="3.61365">
        <ele>153.47</ele>
        <time>2016-02-07T14:42:46Z</time>
      </trkpt>
      <trkpt lat="43.67425" lon="3.61388">
        <ele>153.95</ele>
        <time>2016-02-07T14:42:47Z</time>
      </trkpt>
      <trkpt lat="43.67429" lon="3.61414">
        <ele>155.39</ele>
        <time>2016-02-07T14:42:48Z</time>
      </trkpt>
      <trkpt lat="43.67433" lon="3.6144">
        <ele>156.35</ele>
        <time>2016-02-07T14:42:49Z</time>
      </trkpt>
      <trkpt lat="43.6746" lon="3.61596">
        <ele>163.56</ele>
        <time>2016-02-07T14:42:55Z</time>
      </trkpt>
      <trkpt lat="43.67467" lon="3.61619">
        <ele>164.52</ele>
        <time>2016-02-07T14:42:56Z</time>
      </trkpt>
      <trkpt lat="43.67477" lon="3.6164">
        <ele>165.48</ele>
        <time>2016-02-07T14:42:57Z</time>
      </trkpt>
      <trkpt lat="43.6749" lon="3.61659">
        <ele>166.45</ele>
        <time>2016-02-07T14:42:58Z</time>
      </trkpt>
      <trkpt lat="43.67504" lon="3.61679">
        <ele>167.41</ele>
        <time>2016-02-07T14:42:59Z</time>
      </trkpt>
      <trkpt lat="43.6754" lon="3.61739">
        <ele>169.33</ele>
        <time>2016-02-07T14:43:02Z</time>
      </trkpt>
      <trkpt lat="43.67548" lon="3.61761">
        <ele>169.81</ele>
        <time>2016-02-07T14:43:03Z</time>
      </trkpt>
      <trkpt lat="43.67554" lon="3.61785">
        <ele>169.81</ele>
        <time>2016-02-07T14:43:04Z</time>
      </trkpt>
      <trkpt lat="43.67554" lon="3.61812">
        <ele>169.81</ele>
        <time>2016-02-07T14:43:05Z</time>
      </trkpt>
      <trkpt lat="43.67555" lon="3.6184">
        <ele>169.81</ele>
        <time>2016-02-07T14:43:06Z</time>
      </trkpt>
      <trkpt lat="43.6756" lon="3.62069">
        <ele>170.29</ele>
        <time>2016-02-07T14:43:14Z</time>
      </trkpt>
      <trkpt lat="43.67557" lon="3.62093">
        <ele>170.77</ele>
        <time>2016-02-07T14:43:15Z</time>
      </trkpt>
      <trkpt lat="43.67551" lon="3.62116">
        <ele>170.77</ele>
        <time>2016-02-07T14:43:16Z</time>
      </trkpt>
      <trkpt lat="43.67542" lon="3.62139">
        <ele>170.77</ele>
        <time>2016-02-07T14:43:17Z</time>
      </trkpt>
      <trkpt lat="43.6753" lon="3.62163">
        <ele>170.29</ele>
        <time>2016-02-07T14:43:18Z</time>
      </trkpt>
      <trkpt lat="43.67519" lon="3.62188">
        <ele>170.77</ele>
        <time>2016-02-07T14:43:19Z</time>
      </trkpt>
      <trkpt lat="43.67401" lon="3.62399">
        <ele>175.1</ele>
        <time>2016-02-07T14:43:28Z</time>
      </trkpt>
      <trkpt lat="43.67285" lon="3.62631">
        <ele>181.35</ele>
        <time>2016-02-07T14:43:38Z</time>
      </trkpt>
      <trkpt lat="43.67168" lon="3.62856">
        <ele>179.9</ele>
        <time>2016-02-07T14:43:47Z</time>
      </trkpt>
      <trkpt lat="43.67053" lon="3.63078">
        <ele>179.42</ele>
        <time>2016-02-07T14:43:56Z</time>
      </trkpt>
      <trkpt lat="43.66895" lon="3.63398">
        <ele>181.83</ele>
        <time>2016-02-07T14:44:09Z</time>
      </trkpt>
      <trkpt lat="43.66739" lon="3.63713">
        <ele>189.04</ele>
        <time>2016-02-07T14:44:22Z</time>
      </trkpt>
      <trkpt lat="43.66564" lon="3.64124">
        <ele>199.61</ele>
        <time>2016-02-07T14:44:39Z</time>
      </trkpt>
      <trkpt lat="43.66509" lon="3.64257">
        <ele>204.42</ele>
        <time>2016-02-07T14:44:47Z</time>
      </trkpt>
      <trkpt lat="43.66455" lon="3.64375">
        <ele>207.78</ele>
        <time>2016-02-07T14:44:57Z</time>
      </trkpt>
      <trkpt lat="43.6645" lon="3.64383">
        <ele>208.26</ele>
        <time>2016-02-07T14:44:58Z</time>
      </trkpt>
      <trkpt lat="43.66444" lon="3.6439">
        <ele>208.26</ele>
        <time>2016-02-07T14:44:59Z</time>
      </trkpt>
      <trkpt lat="43.66438" lon="3.64396">
        <ele>208.74</ele>
        <time>2016-02-07T14:45:00Z</time>
      </trkpt>
      <trkpt lat="43.66429" lon="3.64397">
        <ele>208.74</ele>
        <time>2016-02-07T14:45:01Z</time>
      </trkpt>
      <trkpt lat="43.6642" lon="3.64399">
        <ele>209.22</ele>
        <time>2016-02-07T14:45:02Z</time>
      </trkpt>
      <trkpt lat="43.66411" lon="3.64401">
        <ele>209.22</ele>
        <time>2016-02-07T14:45:03Z</time>
      </trkpt>
      <trkpt lat="43.66328" lon="3.64434">
        <ele>208.74</ele>
        <time>2016-02-07T14:45:15Z</time>
      </trkpt>
      <trkpt lat="43.66288" lon="3.64452">
        <ele>207.3</ele>
        <time>2016-02-07T14:45:20Z</time>
      </trkpt>
      <trkpt lat="43.66278" lon="3.64454">
        <ele>206.82</ele>
        <time>2016-02-07T14:45:21Z</time>
      </trkpt>
      <trkpt lat="43.66267" lon="3.64453">
        <ele>206.82</ele>
        <time>2016-02-07T14:45:22Z</time>
      </trkpt>
      <trkpt lat="43.66257" lon="3.6445">
        <ele>206.34</ele>
        <time>2016-02-07T14:45:23Z</time>
      </trkpt>
      <trkpt lat="43.66247" lon="3.64446">
        <ele>206.34</ele>
        <time>2016-02-07T14:45:24Z</time>
      </trkpt>
      <trkpt lat="43.66238" lon="3.64441">
        <ele>205.86</ele>
        <time>2016-02-07T14:45:25Z</time>
      </trkpt>
      <trkpt lat="43.66214" lon="3.64429">
        <ele>205.86</ele>
        <time>2016-02-07T14:45:28Z</time>
      </trkpt>
      <trkpt lat="43.66204" lon="3.64426">
        <ele>204.9</ele>
        <time>2016-02-07T14:45:29Z</time>
      </trkpt>
      <trkpt lat="43.66194" lon="3.64425">
        <ele>204.42</ele>
        <time>2016-02-07T14:45:30Z</time>
      </trkpt>
      <trkpt lat="43.66184" lon="3.64426">
        <ele>203.46</ele>
        <time>2016-02-07T14:45:31Z</time>
      </trkpt>
      <trkpt lat="43.66175" lon="3.64426">
        <ele>202.98</ele>
        <time>2016-02-07T14:45:32Z</time>
      </trkpt>
      <trkpt lat="43.66167" lon="3.64425">
        <ele>202.98</ele>
        <time>2016-02-07T14:45:33Z</time>
      </trkpt>
      <trkpt lat="43.66161" lon="3.64422">
        <ele>202.98</ele>
        <time>2016-02-07T14:45:34Z</time>
      </trkpt>
      <trkpt lat="43.66155" lon="3.64419">
        <ele>202.98</ele>
        <time>2016-02-07T14:45:35Z</time>
      </trkpt>
      <trkpt lat="43.66149" lon="3.64418">
        <ele>202.49</ele>
        <time>2016-02-07T14:45:36Z</time>
      </trkpt>
      <trkpt lat="43.66143" lon="3.64421">
        <ele>202.01</ele>
        <time>2016-02-07T14:45:37Z</time>
      </trkpt>
      <trkpt lat="43.66139" lon="3.64429">
        <ele>201.53</ele>
        <time>2016-02-07T14:45:38Z</time>
      </trkpt>
      <trkpt lat="43.66139" lon="3.64438">
        <ele>201.05</ele>
        <time>2016-02-07T14:45:39Z</time>
      </trkpt>
      <trkpt lat="43.66141" lon="3.64448">
        <ele>200.57</ele>
        <time>2016-02-07T14:45:40Z</time>
      </trkpt>
      <trkpt lat="43.66146" lon="3.64456">
        <ele>201.53</ele>
        <time>2016-02-07T14:45:41Z</time>
      </trkpt>
      <trkpt lat="43.66152" lon="3.64464">
        <ele>200.57</ele>
        <time>2016-02-07T14:45:42Z</time>
      </trkpt>
      <trkpt lat="43.6616" lon="3.64472">
        <ele>199.61</ele>
        <time>2016-02-07T14:45:43Z</time>
      </trkpt>
      <trkpt lat="43.66227" lon="3.64576">
        <ele>191.44</ele>
        <time>2016-02-07T14:45:51Z</time>
      </trkpt>
      <trkpt lat="43.66317" lon="3.64741">
        <ele>183.75</ele>
        <time>2016-02-07T14:46:01Z</time>
      </trkpt>
      <trkpt lat="43.66368" lon="3.64831">
        <ele>178.46</ele>
        <time>2016-02-07T14:46:07Z</time>
      </trkpt>
      <trkpt lat="43.66371" lon="3.64845">
        <ele>177.5</ele>
        <time>2016-02-07T14:46:08Z</time>
      </trkpt>
      <trkpt lat="43.66371" lon="3.64858">
        <ele>177.02</ele>
        <time>2016-02-07T14:46:09Z</time>
      </trkpt>
      <trkpt lat="43.66368" lon="3.64869">
        <ele>176.54</ele>
        <time>2016-02-07T14:46:10Z</time>
      </trkpt>
      <trkpt lat="43.66362" lon="3.6488">
        <ele>176.06</ele>
        <time>2016-02-07T14:46:11Z</time>
      </trkpt>
      <trkpt lat="43.66354" lon="3.64891">
        <ele>175.58</ele>
        <time>2016-02-07T14:46:12Z</time>
      </trkpt>
      <trkpt lat="43.66346" lon="3.64905">
        <ele>175.58</ele>
        <time>2016-02-07T14:46:13Z</time>
      </trkpt>
      <trkpt lat="43.66279" lon="3.6502">
        <ele>177.98</ele>
        <time>2016-02-07T14:46:19Z</time>
      </trkpt>
      <trkpt lat="43.66131" lon="3.65321">
        <ele>189.52</ele>
        <time>2016-02-07T14:46:32Z</time>
      </trkpt>
      <trkpt lat="43.66119" lon="3.65341">
        <ele>191.44</ele>
        <time>2016-02-07T14:46:33Z</time>
      </trkpt>
      <trkpt lat="43.66069" lon="3.65424">
        <ele>193.84</ele>
        <time>2016-02-07T14:46:37Z</time>
      </trkpt>
      <trkpt lat="43.66059" lon="3.6545">
        <ele>193.84</ele>
        <time>2016-02-07T14:46:38Z</time>
      </trkpt>
      <trkpt lat="43.6605" lon="3.65477">
        <ele>193.36</ele>
        <time>2016-02-07T14:46:39Z</time>
      </trkpt>
      <trkpt lat="43.66043" lon="3.65505">
        <ele>192.4</ele>
        <time>2016-02-07T14:46:40Z</time>
      </trkpt>
      <trkpt lat="43.66038" lon="3.65535">
        <ele>191.92</ele>
        <time>2016-02-07T14:46:41Z</time>
      </trkpt>
      <trkpt lat="43.66035" lon="3.65565">
        <ele>191.44</ele>
        <time>2016-02-07T14:46:42Z</time>
      </trkpt>
      <trkpt lat="43.66033" lon="3.65594">
        <ele>190.96</ele>
        <time>2016-02-07T14:46:43Z</time>
      </trkpt>
      <trkpt lat="43.66023" lon="3.65841">
        <ele>196.25</ele>
        <time>2016-02-07T14:46:52Z</time>
      </trkpt>
      <trkpt lat="43.66027" lon="3.65868">
        <ele>198.17</ele>
        <time>2016-02-07T14:46:53Z</time>
      </trkpt>
      <trkpt lat="43.66034" lon="3.65894">
        <ele>200.09</ele>
        <time>2016-02-07T14:46:54Z</time>
      </trkpt>
      <trkpt lat="43.66054" lon="3.65964">
        <ele>204.9</ele>
        <time>2016-02-07T14:46:57Z</time>
      </trkpt>
      <trkpt lat="43.66057" lon="3.65988">
        <ele>206.82</ele>
        <time>2016-02-07T14:46:58Z</time>
      </trkpt>
      <trkpt lat="43.66057" lon="3.66014">
        <ele>208.74</ele>
        <time>2016-02-07T14:46:59Z</time>
      </trkpt>
      <trkpt lat="43.66053" lon="3.66039">
        <ele>210.19</ele>
        <time>2016-02-07T14:47:00Z</time>
      </trkpt>
      <trkpt lat="43.66046" lon="3.66063">
        <ele>211.63</ele>
        <time>2016-02-07T14:47:01Z</time>
      </trkpt>
      <trkpt lat="43.66036" lon="3.66084">
        <ele>213.55</ele>
        <time>2016-02-07T14:47:02Z</time>
      </trkpt>
      <trkpt lat="43.66021" lon="3.66101">
        <ele>214.51</ele>
        <time>2016-02-07T14:47:03Z</time>
      </trkpt>
      <trkpt lat="43.66003" lon="3.66115">
        <ele>215.95</ele>
        <time>2016-02-07T14:47:04Z</time>
      </trkpt>
      <trkpt lat="43.65984" lon="3.66128">
        <ele>217.4</ele>
        <time>2016-02-07T14:47:05Z</time>
      </trkpt>
      <trkpt lat="43.65963" lon="3.66142">
        <ele>218.36</ele>
        <time>2016-02-07T14:47:06Z</time>
      </trkpt>
      <trkpt lat="43.65942" lon="3.66155">
        <ele>219.32</ele>
        <time>2016-02-07T14:47:07Z</time>
      </trkpt>
      <trkpt lat="43.65817" lon="3.66229">
        <ele>226.05</ele>
        <time>2016-02-07T14:47:14Z</time>
      </trkpt>
      <trkpt lat="43.65804" lon="3.66242">
        <ele>227.01</ele>
        <time>2016-02-07T14:47:15Z</time>
      </trkpt>
      <trkpt lat="43.65792" lon="3.66258">
        <ele>227.49</ele>
        <time>2016-02-07T14:47:16Z</time>
      </trkpt>
      <trkpt lat="43.65783" lon="3.66276">
        <ele>228.45</ele>
        <time>2016-02-07T14:47:17Z</time>
      </trkpt>
      <trkpt lat="43.65775" lon="3.66292">
        <ele>229.41</ele>
        <time>2016-02-07T14:47:18Z</time>
      </trkpt>
      <trkpt lat="43.65767" lon="3.66309">
        <ele>229.89</ele>
        <time>2016-02-07T14:47:19Z</time>
      </trkpt>
      <trkpt lat="43.65723" lon="3.66466">
        <ele>235.66</ele>
        <time>2016-02-07T14:47:26Z</time>
      </trkpt>
      <trkpt lat="43.65712" lon="3.66516">
        <ele>239.02</ele>
        <time>2016-02-07T14:47:28Z</time>
      </trkpt>
      <trkpt lat="43.65709" lon="3.66542">
        <ele>240.47</ele>
        <time>2016-02-07T14:47:29Z</time>
      </trkpt>
      <trkpt lat="43.65705" lon="3.66566">
        <ele>242.39</ele>
        <time>2016-02-07T14:47:30Z</time>
      </trkpt>
      <trkpt lat="43.65689" lon="3.66634">
        <ele>246.23</ele>
        <time>2016-02-07T14:47:33Z</time>
      </trkpt>
      <trkpt lat="43.65664" lon="3.66688">
        <ele>247.68</ele>
        <time>2016-02-07T14:47:36Z</time>
      </trkpt>
      <trkpt lat="43.65652" lon="3.66703">
        <ele>248.16</ele>
        <time>2016-02-07T14:47:37Z</time>
      </trkpt>
      <trkpt lat="43.65588" lon="3.66853">
        <ele>246.23</ele>
        <time>2016-02-07T14:47:44Z</time>
      </trkpt>
      <trkpt lat="43.65583" lon="3.66878">
        <ele>244.79</ele>
        <time>2016-02-07T14:47:45Z</time>
      </trkpt>
      <trkpt lat="43.65553" lon="3.67032">
        <ele>241.91</ele>
        <time>2016-02-07T14:47:51Z</time>
      </trkpt>
      <trkpt lat="43.6551" lon="3.6712">
        <ele>243.83</ele>
        <time>2016-02-07T14:47:55Z</time>
      </trkpt>
      <trkpt lat="43.65496" lon="3.67138">
        <ele>245.27</ele>
        <time>2016-02-07T14:47:56Z</time>
      </trkpt>
      <trkpt lat="43.65482" lon="3.67153">
        <ele>246.72</ele>
        <time>2016-02-07T14:47:57Z</time>
      </trkpt>
      <trkpt lat="43.65458" lon="3.67183">
        <ele>249.12</ele>
        <time>2016-02-07T14:47:59Z</time>
      </trkpt>
      <trkpt lat="43.65449" lon="3.67202">
        <ele>250.08</ele>
        <time>2016-02-07T14:48:00Z</time>
      </trkpt>
      <trkpt lat="43.65443" lon="3.67225">
        <ele>250.56</ele>
        <time>2016-02-07T14:48:01Z</time>
      </trkpt>
      <trkpt lat="43.65413" lon="3.67423">
        <ele>253.44</ele>
        <time>2016-02-07T14:48:08Z</time>
      </trkpt>
      <trkpt lat="43.65354" lon="3.67767">
        <ele>255.85</ele>
        <time>2016-02-07T14:48:21Z</time>
      </trkpt>
      <trkpt lat="43.65346" lon="3.67785">
        <ele>256.81</ele>
        <time>2016-02-07T14:48:22Z</time>
      </trkpt>
      <trkpt lat="43.65335" lon="3.67801">
        <ele>257.29</ele>
        <time>2016-02-07T14:48:23Z</time>
      </trkpt>
      <trkpt lat="43.65323" lon="3.67817">
        <ele>257.77</ele>
        <time>2016-02-07T14:48:24Z</time>
      </trkpt>
      <trkpt lat="43.6531" lon="3.67833">
        <ele>258.25</ele>
        <time>2016-02-07T14:48:25Z</time>
      </trkpt>
      <trkpt lat="43.65185" lon="3.67978">
        <ele>251.04</ele>
        <time>2016-02-07T14:48:33Z</time>
      </trkpt>
      <trkpt lat="43.65121" lon="3.68047">
        <ele>246.23</ele>
        <time>2016-02-07T14:48:37Z</time>
      </trkpt>
      <trkpt lat="43.65104" lon="3.6806">
        <ele>244.31</ele>
        <time>2016-02-07T14:48:38Z</time>
      </trkpt>
      <trkpt lat="43.65025" lon="3.68109">
        <ele>238.06</ele>
        <time>2016-02-07T14:48:43Z</time>
      </trkpt>
      <trkpt lat="43.6501" lon="3.68112">
        <ele>236.62</ele>
        <time>2016-02-07T14:48:44Z</time>
      </trkpt>
      <trkpt lat="43.64995" lon="3.68106">
        <ele>235.18</ele>
        <time>2016-02-07T14:48:45Z</time>
      </trkpt>
      <trkpt lat="43.64977" lon="3.68096">
        <ele>234.22</ele>
        <time>2016-02-07T14:48:46Z</time>
      </trkpt>
      <trkpt lat="43.64958" lon="3.68087">
        <ele>232.78</ele>
        <time>2016-02-07T14:48:47Z</time>
      </trkpt>
      <trkpt lat="43.64939" lon="3.68079">
        <ele>231.81</ele>
        <time>2016-02-07T14:48:48Z</time>
      </trkpt>
      <trkpt lat="43.64825" lon="3.68048">
        <ele>225.57</ele>
        <time>2016-02-07T14:48:54Z</time>
      </trkpt>
      <trkpt lat="43.64807" lon="3.68054">
        <ele>224.61</ele>
        <time>2016-02-07T14:48:55Z</time>
      </trkpt>
      <trkpt lat="43.6479" lon="3.68063">
        <ele>223.16</ele>
        <time>2016-02-07T14:48:56Z</time>
      </trkpt>
      <trkpt lat="43.64678" lon="3.6813">
        <ele>213.07</ele>
        <time>2016-02-07T14:49:03Z</time>
      </trkpt>
      <trkpt lat="43.64668" lon="3.68144">
        <ele>211.63</ele>
        <time>2016-02-07T14:49:04Z</time>
      </trkpt>
      <trkpt lat="43.64662" lon="3.68162">
        <ele>210.19</ele>
        <time>2016-02-07T14:49:05Z</time>
      </trkpt>
      <trkpt lat="43.64658" lon="3.6818">
        <ele>208.26</ele>
        <time>2016-02-07T14:49:06Z</time>
      </trkpt>
      <trkpt lat="43.64659" lon="3.682">
        <ele>207.3</ele>
        <time>2016-02-07T14:49:07Z</time>
      </trkpt>
      <trkpt lat="43.64659" lon="3.6822">
        <ele>205.86</ele>
        <time>2016-02-07T14:49:08Z</time>
      </trkpt>
      <trkpt lat="43.64655" lon="3.68238">
        <ele>203.94</ele>
        <time>2016-02-07T14:49:09Z</time>
      </trkpt>
      <trkpt lat="43.64648" lon="3.68254">
        <ele>202.49</ele>
        <time>2016-02-07T14:49:10Z</time>
      </trkpt>
      <trkpt lat="43.64637" lon="3.68268">
        <ele>200.57</ele>
        <time>2016-02-07T14:49:11Z</time>
      </trkpt>
      <trkpt lat="43.64624" lon="3.68283">
        <ele>199.13</ele>
        <time>2016-02-07T14:49:12Z</time>
      </trkpt>
      <trkpt lat="43.64608" lon="3.68297">
        <ele>198.17</ele>
        <time>2016-02-07T14:49:13Z</time>
      </trkpt>
      <trkpt lat="43.64592" lon="3.68313">
        <ele>197.21</ele>
        <time>2016-02-07T14:49:14Z</time>
      </trkpt>
      <trkpt lat="43.64451" lon="3.68461">
        <ele>190.48</ele>
        <time>2016-02-07T14:49:23Z</time>
      </trkpt>
      <trkpt lat="43.64438" lon="3.6848">
        <ele>190</ele>
        <time>2016-02-07T14:49:24Z</time>
      </trkpt>
      <trkpt lat="43.64428" lon="3.685">
        <ele>189.04</ele>
        <time>2016-02-07T14:49:25Z</time>
      </trkpt>
      <trkpt lat="43.64354" lon="3.68698">
        <ele>180.87</ele>
        <time>2016-02-07T14:49:34Z</time>
      </trkpt>
      <trkpt lat="43.64356" lon="3.68726">
        <ele>179.9</ele>
        <time>2016-02-07T14:49:35Z</time>
      </trkpt>
      <trkpt lat="43.64358" lon="3.68753">
        <ele>178.94</ele>
        <time>2016-02-07T14:49:36Z</time>
      </trkpt>
      <trkpt lat="43.64362" lon="3.68831">
        <ele>175.58</ele>
        <time>2016-02-07T14:49:39Z</time>
      </trkpt>
      <trkpt lat="43.64365" lon="3.68854">
        <ele>173.66</ele>
        <time>2016-02-07T14:49:40Z</time>
      </trkpt>
      <trkpt lat="43.64372" lon="3.68877">
        <ele>172.21</ele>
        <time>2016-02-07T14:49:41Z</time>
      </trkpt>
      <trkpt lat="43.64381" lon="3.68901">
        <ele>170.77</ele>
        <time>2016-02-07T14:49:42Z</time>
      </trkpt>
      <trkpt lat="43.64391" lon="3.68924">
        <ele>169.33</ele>
        <time>2016-02-07T14:49:43Z</time>
      </trkpt>
      <trkpt lat="43.64461" lon="3.69085">
        <ele>163.08</ele>
        <time>2016-02-07T14:49:50Z</time>
      </trkpt>
      <trkpt lat="43.64535" lon="3.69199">
        <ele>159.24</ele>
        <time>2016-02-07T14:49:57Z</time>
      </trkpt>
      <trkpt lat="43.64541" lon="3.69217">
        <ele>158.75</ele>
        <time>2016-02-07T14:49:58Z</time>
      </trkpt>
      <trkpt lat="43.64547" lon="3.69236">
        <ele>158.27</ele>
        <time>2016-02-07T14:49:59Z</time>
      </trkpt>
      <trkpt lat="43.64552" lon="3.69255">
        <ele>157.79</ele>
        <time>2016-02-07T14:50:00Z</time>
      </trkpt>
      <trkpt lat="43.64561" lon="3.69273">
        <ele>157.31</ele>
        <time>2016-02-07T14:50:01Z</time>
      </trkpt>
      <trkpt lat="43.64571" lon="3.69289">
        <ele>156.35</ele>
        <time>2016-02-07T14:50:02Z</time>
      </trkpt>
      <trkpt lat="43.64583" lon="3.69306">
        <ele>155.39</ele>
        <time>2016-02-07T14:50:03Z</time>
      </trkpt>
      <trkpt lat="43.64596" lon="3.69322">
        <ele>153.95</ele>
        <time>2016-02-07T14:50:04Z</time>
      </trkpt>
      <trkpt lat="43.64723" lon="3.6945">
        <ele>143.85</ele>
        <time>2016-02-07T14:50:13Z</time>
      </trkpt>
      <trkpt lat="43.64768" lon="3.69508">
        <ele>139.53</ele>
        <time>2016-02-07T14:50:17Z</time>
      </trkpt>
      <trkpt lat="43.64777" lon="3.69526">
        <ele>138.09</ele>
        <time>2016-02-07T14:50:18Z</time>
      </trkpt>
      <trkpt lat="43.64828" lon="3.69664">
        <ele>128.47</ele>
        <time>2016-02-07T14:50:26Z</time>
      </trkpt>
      <trkpt lat="43.64835" lon="3.69688">
        <ele>126.07</ele>
        <time>2016-02-07T14:50:32Z</time>
      </trkpt>
      <trkpt lat="43.64835" lon="3.69689">
        <ele>128.47</ele>
        <time>2016-02-07T14:51:03Z</time>
      </trkpt>
      <trkpt lat="43.64835" lon="3.6969">
        <ele>128.47</ele>
        <time>2016-02-07T14:51:04Z</time>
      </trkpt>
      <trkpt lat="43.64837" lon="3.69691">
        <ele>128.47</ele>
        <time>2016-02-07T14:51:05Z</time>
      </trkpt>
      <trkpt lat="43.64839" lon="3.69693">
        <ele>128.47</ele>
        <time>2016-02-07T14:51:06Z</time>
      </trkpt>
      <trkpt lat="43.64843" lon="3.69695">
        <ele>127.99</ele>
        <time>2016-02-07T14:51:07Z</time>
      </trkpt>
      <trkpt lat="43.64848" lon="3.697">
        <ele>127.99</ele>
        <time>2016-02-07T14:51:08Z</time>
      </trkpt>
      <trkpt lat="43.64854" lon="3.69708">
        <ele>127.51</ele>
        <time>2016-02-07T14:51:09Z</time>
      </trkpt>
      <trkpt lat="43.64919" lon="3.69799">
        <ele>125.59</ele>
        <time>2016-02-07T14:51:20Z</time>
      </trkpt>
      <trkpt lat="43.64923" lon="3.69807">
        <ele>125.59</ele>
        <time>2016-02-07T14:51:21Z</time>
      </trkpt>
      <trkpt lat="43.64926" lon="3.69815">
        <ele>125.11</ele>
        <time>2016-02-07T14:51:22Z</time>
      </trkpt>
      <trkpt lat="43.64929" lon="3.69822">
        <ele>125.11</ele>
        <time>2016-02-07T14:51:23Z</time>
      </trkpt>
      <trkpt lat="43.6493" lon="3.69827">
        <ele>124.15</ele>
        <time>2016-02-07T14:51:24Z</time>
      </trkpt>
      <trkpt lat="43.6493" lon="3.69831">
        <ele>123.67</ele>
        <time>2016-02-07T14:51:25Z</time>
      </trkpt>
      <trkpt lat="43.6493" lon="3.69836">
        <ele>123.19</ele>
        <time>2016-02-07T14:51:29Z</time>
      </trkpt>
      <trkpt lat="43.64931" lon="3.69837">
        <ele>123.67</ele>
        <time>2016-02-07T14:51:30Z</time>
      </trkpt>
      <trkpt lat="43.64934" lon="3.6984">
        <ele>124.15</ele>
        <time>2016-02-07T14:51:31Z</time>
      </trkpt>
      <trkpt lat="43.64936" lon="3.69843">
        <ele>124.15</ele>
        <time>2016-02-07T14:51:32Z</time>
      </trkpt>
      <trkpt lat="43.64941" lon="3.69844">
        <ele>124.15</ele>
        <time>2016-02-07T14:51:33Z</time>
      </trkpt>
      <trkpt lat="43.64948" lon="3.69844">
        <ele>123.67</ele>
        <time>2016-02-07T14:51:34Z</time>
      </trkpt>
      <trkpt lat="43.64955" lon="3.69843">
        <ele>122.71</ele>
        <time>2016-02-07T14:51:35Z</time>
      </trkpt>
      <trkpt lat="43.64963" lon="3.69838">
        <ele>122.22</ele>
        <time>2016-02-07T14:51:36Z</time>
      </trkpt>
      <trkpt lat="43.64969" lon="3.69832">
        <ele>122.22</ele>
        <time>2016-02-07T14:51:37Z</time>
      </trkpt>
      <trkpt lat="43.65035" lon="3.69777">
        <ele>122.22</ele>
        <time>2016-02-07T14:51:47Z</time>
      </trkpt>
      <trkpt lat="43.65106" lon="3.6972">
        <ele>129.43</ele>
        <time>2016-02-07T14:51:56Z</time>
      </trkpt>
      <trkpt lat="43.65113" lon="3.69718">
        <ele>129.43</ele>
        <time>2016-02-07T14:51:57Z</time>
      </trkpt>
      <trkpt lat="43.65118" lon="3.69715">
        <ele>130.88</ele>
        <time>2016-02-07T14:51:58Z</time>
      </trkpt>
      <trkpt lat="43.65123" lon="3.69713">
        <ele>131.84</ele>
        <time>2016-02-07T14:51:59Z</time>
      </trkpt>
      <trkpt lat="43.65128" lon="3.69712">
        <ele>132.32</ele>
        <time>2016-02-07T14:52:00Z</time>
      </trkpt>
      <trkpt lat="43.65132" lon="3.69712">
        <ele>132.32</ele>
        <time>2016-02-07T14:52:01Z</time>
      </trkpt>
      <trkpt lat="43.65137" lon="3.69714">
        <ele>131.36</ele>
        <time>2016-02-07T14:52:02Z</time>
      </trkpt>
      <trkpt lat="43.65144" lon="3.69716">
        <ele>130.88</ele>
        <time>2016-02-07T14:52:03Z</time>
      </trkpt>
      <trkpt lat="43.65211" lon="3.69753">
        <ele>127.03</ele>
        <time>2016-02-07T14:52:11Z</time>
      </trkpt>
      <trkpt lat="43.65308" lon="3.69816">
        <ele>120.3</ele>
        <time>2016-02-07T14:52:21Z</time>
      </trkpt>
      <trkpt lat="43.65372" lon="3.69861">
        <ele>116.46</ele>
        <time>2016-02-07T14:52:28Z</time>
      </trkpt>
      <trkpt lat="43.65379" lon="3.69871">
        <ele>115.98</ele>
        <time>2016-02-07T14:52:29Z</time>
      </trkpt>
      <trkpt lat="43.65383" lon="3.69884">
        <ele>115.98</ele>
        <time>2016-02-07T14:52:30Z</time>
      </trkpt>
      <trkpt lat="43.65384" lon="3.69899">
        <ele>115.5</ele>
        <time>2016-02-07T14:52:31Z</time>
      </trkpt>
      <trkpt lat="43.65381" lon="3.69916">
        <ele>115.01</ele>
        <time>2016-02-07T14:52:32Z</time>
      </trkpt>
      <trkpt lat="43.65381" lon="3.69934">
        <ele>114.53</ele>
        <time>2016-02-07T14:52:33Z</time>
      </trkpt>
      <trkpt lat="43.65383" lon="3.69953">
        <ele>114.53</ele>
        <time>2016-02-07T14:52:34Z</time>
      </trkpt>
      <trkpt lat="43.65387" lon="3.69972">
        <ele>114.05</ele>
        <time>2016-02-07T14:52:35Z</time>
      </trkpt>
      <trkpt lat="43.65393" lon="3.69989">
        <ele>114.05</ele>
        <time>2016-02-07T14:52:36Z</time>
      </trkpt>
      <trkpt lat="43.65403" lon="3.70007">
        <ele>113.57</ele>
        <time>2016-02-07T14:52:37Z</time>
      </trkpt>
      <trkpt lat="43.65414" lon="3.70027">
        <ele>112.61</ele>
        <time>2016-02-07T14:52:38Z</time>
      </trkpt>
      <trkpt lat="43.65456" lon="3.70118">
        <ele>110.21</ele>
        <time>2016-02-07T14:52:42Z</time>
      </trkpt>
      <trkpt lat="43.65469" lon="3.70138">
        <ele>109.73</ele>
        <time>2016-02-07T14:52:43Z</time>
      </trkpt>
      <trkpt lat="43.65527" lon="3.70214">
        <ele>106.36</ele>
        <time>2016-02-07T14:52:47Z</time>
      </trkpt>
      <trkpt lat="43.65544" lon="3.70229">
        <ele>105.88</ele>
        <time>2016-02-07T14:52:48Z</time>
      </trkpt>
      <trkpt lat="43.65565" lon="3.70247">
        <ele>105.88</ele>
        <time>2016-02-07T14:52:49Z</time>
      </trkpt>
      <trkpt lat="43.65585" lon="3.7027">
        <ele>105.88</ele>
        <time>2016-02-07T14:52:50Z</time>
      </trkpt>
      <trkpt lat="43.65601" lon="3.70295">
        <ele>106.36</ele>
        <time>2016-02-07T14:52:51Z</time>
      </trkpt>
      <trkpt lat="43.65613" lon="3.70322">
        <ele>107.32</ele>
        <time>2016-02-07T14:52:52Z</time>
      </trkpt>
      <trkpt lat="43.65623" lon="3.70347">
        <ele>108.29</ele>
        <time>2016-02-07T14:52:53Z</time>
      </trkpt>
      <trkpt lat="43.65646" lon="3.70394">
        <ele>110.21</ele>
        <time>2016-02-07T14:52:55Z</time>
      </trkpt>
      <trkpt lat="43.6566" lon="3.70416">
        <ele>110.69</ele>
        <time>2016-02-07T14:52:56Z</time>
      </trkpt>
      <trkpt lat="43.65679" lon="3.70436">
        <ele>111.17</ele>
        <time>2016-02-07T14:52:57Z</time>
      </trkpt>
      <trkpt lat="43.657" lon="3.70454">
        <ele>112.13</ele>
        <time>2016-02-07T14:52:58Z</time>
      </trkpt>
      <trkpt lat="43.65721" lon="3.70472">
        <ele>113.57</ele>
        <time>2016-02-07T14:52:59Z</time>
      </trkpt>
      <trkpt lat="43.65781" lon="3.70533">
        <ele>116.46</ele>
        <time>2016-02-07T14:53:02Z</time>
      </trkpt>
      <trkpt lat="43.65798" lon="3.70556">
        <ele>117.42</ele>
        <time>2016-02-07T14:53:03Z</time>
      </trkpt>
      <trkpt lat="43.65829" lon="3.70603">
        <ele>119.82</ele>
        <time>2016-02-07T14:53:05Z</time>
      </trkpt>
      <trkpt lat="43.65847" lon="3.70623">
        <ele>121.26</ele>
        <time>2016-02-07T14:53:06Z</time>
      </trkpt>
      <trkpt lat="43.65869" lon="3.70639">
        <ele>122.71</ele>
        <time>2016-02-07T14:53:07Z</time>
      </trkpt>
      <trkpt lat="43.65941" lon="3.70698">
        <ele>126.07</ele>
        <time>2016-02-07T14:53:11Z</time>
      </trkpt>
      <trkpt lat="43.65954" lon="3.70713">
        <ele>126.55</ele>
        <time>2016-02-07T14:53:12Z</time>
      </trkpt>
      <trkpt lat="43.65962" lon="3.7073">
        <ele>126.55</ele>
        <time>2016-02-07T14:53:13Z</time>
      </trkpt>
      <trkpt lat="43.65969" lon="3.70748">
        <ele>127.03</ele>
        <time>2016-02-07T14:53:14Z</time>
      </trkpt>
      <trkpt lat="43.65979" lon="3.70766">
        <ele>127.03</ele>
        <time>2016-02-07T14:53:15Z</time>
      </trkpt>
      <trkpt lat="43.65991" lon="3.70782">
        <ele>127.51</ele>
        <time>2016-02-07T14:53:16Z</time>
      </trkpt>
      <trkpt lat="43.66005" lon="3.70797">
        <ele>127.99</ele>
        <time>2016-02-07T14:53:17Z</time>
      </trkpt>
      <trkpt lat="43.66021" lon="3.70811">
        <ele>127.99</ele>
        <time>2016-02-07T14:53:18Z</time>
      </trkpt>
      <trkpt lat="43.66039" lon="3.70823">
        <ele>127.99</ele>
        <time>2016-02-07T14:53:19Z</time>
      </trkpt>
      <trkpt lat="43.66155" lon="3.70886">
        <ele>126.55</ele>
        <time>2016-02-07T14:53:24Z</time>
      </trkpt>
      <trkpt lat="43.66312" lon="3.70969">
        <ele>127.03</ele>
        <time>2016-02-07T14:53:31Z</time>
      </trkpt>
      <trkpt lat="43.66345" lon="3.70998">
        <ele>127.99</ele>
        <time>2016-02-07T14:53:33Z</time>
      </trkpt>
      <trkpt lat="43.66359" lon="3.71016">
        <ele>128.47</ele>
        <time>2016-02-07T14:53:34Z</time>
      </trkpt>
      <trkpt lat="43.66372" lon="3.71035">
        <ele>128.95</ele>
        <time>2016-02-07T14:53:35Z</time>
      </trkpt>
      <trkpt lat="43.66384" lon="3.71055">
        <ele>129.92</ele>
        <time>2016-02-07T14:53:36Z</time>
      </trkpt>
      <trkpt lat="43.66394" lon="3.71074">
        <ele>130.4</ele>
        <time>2016-02-07T14:53:37Z</time>
      </trkpt>
      <trkpt lat="43.66439" lon="3.71172">
        <ele>130.88</ele>
        <time>2016-02-07T14:53:43Z</time>
      </trkpt>
      <trkpt lat="43.66474" lon="3.71248">
        <ele>129.92</ele>
        <time>2016-02-07T14:53:47Z</time>
      </trkpt>
      <trkpt lat="43.66485" lon="3.71264">
        <ele>129.43</ele>
        <time>2016-02-07T14:53:48Z</time>
      </trkpt>
      <trkpt lat="43.66497" lon="3.71277">
        <ele>128.95</ele>
        <time>2016-02-07T14:53:49Z</time>
      </trkpt>
      <trkpt lat="43.66509" lon="3.71287">
        <ele>128.47</ele>
        <time>2016-02-07T14:53:50Z</time>
      </trkpt>
      <trkpt lat="43.6652" lon="3.71297">
        <ele>127.99</ele>
        <time>2016-02-07T14:53:51Z</time>
      </trkpt>
      <trkpt lat="43.6663" lon="3.7139">
        <ele>122.71</ele>
        <time>2016-02-07T14:53:59Z</time>
      </trkpt>
      <trkpt lat="43.66712" lon="3.71451">
        <ele>120.78</ele>
        <time>2016-02-07T14:54:06Z</time>
      </trkpt>
      <trkpt lat="43.6682" lon="3.71506">
        <ele>123.67</ele>
        <time>2016-02-07T14:54:14Z</time>
      </trkpt>
      <trkpt lat="43.66881" lon="3.71551">
        <ele>125.59</ele>
        <time>2016-02-07T14:54:20Z</time>
      </trkpt>
      <trkpt lat="43.66886" lon="3.71559">
        <ele>125.59</ele>
        <time>2016-02-07T14:54:21Z</time>
      </trkpt>
      <trkpt lat="43.66886" lon="3.71568">
        <ele>125.11</ele>
        <time>2016-02-07T14:54:22Z</time>
      </trkpt>
      <trkpt lat="43.66884" lon="3.71576">
        <ele>124.63</ele>
        <time>2016-02-07T14:54:23Z</time>
      </trkpt>
      <trkpt lat="43.6688" lon="3.71586">
        <ele>124.63</ele>
        <time>2016-02-07T14:54:24Z</time>
      </trkpt>
      <trkpt lat="43.66873" lon="3.71595">
        <ele>124.15</ele>
        <time>2016-02-07T14:54:25Z</time>
      </trkpt>
      <trkpt lat="43.66865" lon="3.71605">
        <ele>123.67</ele>
        <time>2016-02-07T14:54:26Z</time>
      </trkpt>
      <trkpt lat="43.66857" lon="3.71615">
        <ele>123.19</ele>
        <time>2016-02-07T14:54:27Z</time>
      </trkpt>
      <trkpt lat="43.66769" lon="3.7169">
        <ele>116.46</ele>
        <time>2016-02-07T14:54:36Z</time>
      </trkpt>
      <trkpt lat="43.66761" lon="3.71699">
        <ele>115.98</ele>
        <time>2016-02-07T14:54:37Z</time>
      </trkpt>
      <trkpt lat="43.66753" lon="3.71707">
        <ele>115.01</ele>
        <time>2016-02-07T14:54:38Z</time>
      </trkpt>
      <trkpt lat="43.66748" lon="3.71716">
        <ele>114.53</ele>
        <time>2016-02-07T14:54:39Z</time>
      </trkpt>
      <trkpt lat="43.66745" lon="3.71722">
        <ele>114.05</ele>
        <time>2016-02-07T14:54:40Z</time>
      </trkpt>
      <trkpt lat="43.66744" lon="3.71726">
        <ele>113.57</ele>
        <time>2016-02-07T14:54:41Z</time>
      </trkpt>
      <trkpt lat="43.66745" lon="3.7173">
        <ele>113.09</ele>
        <time>2016-02-07T14:54:42Z</time>
      </trkpt>
      <trkpt lat="43.66747" lon="3.71735">
        <ele>112.61</ele>
        <time>2016-02-07T14:54:43Z</time>
      </trkpt>
      <trkpt lat="43.66752" lon="3.7174">
        <ele>112.61</ele>
        <time>2016-02-07T14:54:44Z</time>
      </trkpt>
      <trkpt lat="43.6676" lon="3.71747">
        <ele>112.13</ele>
        <time>2016-02-07T14:54:45Z</time>
      </trkpt>
      <trkpt lat="43.66831" lon="3.71825">
        <ele>115.98</ele>
        <time>2016-02-07T14:54:52Z</time>
      </trkpt>
      <trkpt lat="43.66891" lon="3.71928">
        <ele>115.98</ele>
        <time>2016-02-07T14:55:01Z</time>
      </trkpt>
      <trkpt lat="43.66936" lon="3.72039">
        <ele>118.86</ele>
        <time>2016-02-07T14:55:09Z</time>
      </trkpt>
      <trkpt lat="43.66938" lon="3.72051">
        <ele>118.86</ele>
        <time>2016-02-07T14:55:10Z</time>
      </trkpt>
      <trkpt lat="43.66938" lon="3.72064">
        <ele>118.86</ele>
        <time>2016-02-07T14:55:11Z</time>
      </trkpt>
      <trkpt lat="43.66936" lon="3.72078">
        <ele>118.86</ele>
        <time>2016-02-07T14:55:12Z</time>
      </trkpt>
      <trkpt lat="43.66932" lon="3.72091">
        <ele>118.38</ele>
        <time>2016-02-07T14:55:13Z</time>
      </trkpt>
      <trkpt lat="43.66927" lon="3.72104">
        <ele>117.9</ele>
        <time>2016-02-07T14:55:14Z</time>
      </trkpt>
      <trkpt lat="43.6692" lon="3.72117">
        <ele>117.42</ele>
        <time>2016-02-07T14:55:15Z</time>
      </trkpt>
      <trkpt lat="43.66913" lon="3.72128">
        <ele>116.94</ele>
        <time>2016-02-07T14:55:16Z</time>
      </trkpt>
      <trkpt lat="43.66904" lon="3.72138">
        <ele>116.46</ele>
        <time>2016-02-07T14:55:17Z</time>
      </trkpt>
      <trkpt lat="43.66894" lon="3.72149">
        <ele>115.98</ele>
        <time>2016-02-07T14:55:18Z</time>
      </trkpt>
      <trkpt lat="43.66884" lon="3.72158">
        <ele>115.5</ele>
        <time>2016-02-07T14:55:19Z</time>
      </trkpt>
      <trkpt lat="43.66873" lon="3.72165">
        <ele>114.53</ele>
        <time>2016-02-07T14:55:20Z</time>
      </trkpt>
      <trkpt lat="43.66862" lon="3.72171">
        <ele>114.05</ele>
        <time>2016-02-07T14:55:21Z</time>
      </trkpt>
      <trkpt lat="43.6685" lon="3.72175">
        <ele>114.05</ele>
        <time>2016-02-07T14:55:22Z</time>
      </trkpt>
      <trkpt lat="43.66838" lon="3.72177">
        <ele>113.57</ele>
        <time>2016-02-07T14:55:23Z</time>
      </trkpt>
      <trkpt lat="43.66825" lon="3.72179">
        <ele>113.09</ele>
        <time>2016-02-07T14:55:24Z</time>
      </trkpt>
      <trkpt lat="43.66812" lon="3.72179">
        <ele>112.61</ele>
        <time>2016-02-07T14:55:25Z</time>
      </trkpt>
      <trkpt lat="43.66717" lon="3.72179">
        <ele>108.29</ele>
        <time>2016-02-07T14:55:33Z</time>
      </trkpt>
      <trkpt lat="43.66603" lon="3.72179">
        <ele>102.04</ele>
        <time>2016-02-07T14:55:41Z</time>
      </trkpt>
      <trkpt lat="43.66592" lon="3.72184">
        <ele>101.08</ele>
        <time>2016-02-07T14:55:42Z</time>
      </trkpt>
      <trkpt lat="43.66582" lon="3.72195">
        <ele>100.11</ele>
        <time>2016-02-07T14:55:43Z</time>
      </trkpt>
      <trkpt lat="43.66575" lon="3.72208">
        <ele>99.15</ele>
        <time>2016-02-07T14:55:44Z</time>
      </trkpt>
      <trkpt lat="43.66569" lon="3.72223">
        <ele>98.19</ele>
        <time>2016-02-07T14:55:45Z</time>
      </trkpt>
      <trkpt lat="43.66565" lon="3.72239">
        <ele>97.23</ele>
        <time>2016-02-07T14:55:46Z</time>
      </trkpt>
      <trkpt lat="43.66562" lon="3.72258">
        <ele>96.27</ele>
        <time>2016-02-07T14:55:47Z</time>
      </trkpt>
      <trkpt lat="43.66557" lon="3.72274">
        <ele>95.31</ele>
        <time>2016-02-07T14:55:48Z</time>
      </trkpt>
      <trkpt lat="43.66552" lon="3.72288">
        <ele>94.83</ele>
        <time>2016-02-07T14:55:49Z</time>
      </trkpt>
      <trkpt lat="43.66545" lon="3.723">
        <ele>94.35</ele>
        <time>2016-02-07T14:55:50Z</time>
      </trkpt>
      <trkpt lat="43.66539" lon="3.72311">
        <ele>93.87</ele>
        <time>2016-02-07T14:55:51Z</time>
      </trkpt>
      <trkpt lat="43.66531" lon="3.72321">
        <ele>92.9</ele>
        <time>2016-02-07T14:55:52Z</time>
      </trkpt>
      <trkpt lat="43.66525" lon="3.7233">
        <ele>92.42</ele>
        <time>2016-02-07T14:55:53Z</time>
      </trkpt>
      <trkpt lat="43.66451" lon="3.72404">
        <ele>93.87</ele>
        <time>2016-02-07T14:56:02Z</time>
      </trkpt>
      <trkpt lat="43.6644" lon="3.72412">
        <ele>94.35</ele>
        <time>2016-02-07T14:56:04Z</time>
      </trkpt>
      <trkpt lat="43.66439" lon="3.72417">
        <ele>94.35</ele>
        <time>2016-02-07T14:56:05Z</time>
      </trkpt>
      <trkpt lat="43.66441" lon="3.72427">
        <ele>94.35</ele>
        <time>2016-02-07T14:56:06Z</time>
      </trkpt>
      <trkpt lat="43.66445" lon="3.7244">
        <ele>94.35</ele>
        <time>2016-02-07T14:56:07Z</time>
      </trkpt>
      <trkpt lat="43.6645" lon="3.72455">
        <ele>94.35</ele>
        <time>2016-02-07T14:56:08Z</time>
      </trkpt>
      <trkpt lat="43.66471" lon="3.72506">
        <ele>94.35</ele>
        <time>2016-02-07T14:56:11Z</time>
      </trkpt>
      <trkpt lat="43.6648" lon="3.72521">
        <ele>94.35</ele>
        <time>2016-02-07T14:56:12Z</time>
      </trkpt>
      <trkpt lat="43.66491" lon="3.72534">
        <ele>93.87</ele>
        <time>2016-02-07T14:56:13Z</time>
      </trkpt>
      <trkpt lat="43.66506" lon="3.72546">
        <ele>94.35</ele>
        <time>2016-02-07T14:56:14Z</time>
      </trkpt>
      <trkpt lat="43.66524" lon="3.72557">
        <ele>94.35</ele>
        <time>2016-02-07T14:56:15Z</time>
      </trkpt>
      <trkpt lat="43.66543" lon="3.72568">
        <ele>93.87</ele>
        <time>2016-02-07T14:56:16Z</time>
      </trkpt>
      <trkpt lat="43.66595" lon="3.72602">
        <ele>93.39</ele>
        <time>2016-02-07T14:56:19Z</time>
      </trkpt>
      <trkpt lat="43.66612" lon="3.7262">
        <ele>93.39</ele>
        <time>2016-02-07T14:56:20Z</time>
      </trkpt>
      <trkpt lat="43.66625" lon="3.72639">
        <ele>92.9</ele>
        <time>2016-02-07T14:56:21Z</time>
      </trkpt>
      <trkpt lat="43.66639" lon="3.72653">
        <ele>92.9</ele>
        <time>2016-02-07T14:56:22Z</time>
      </trkpt>
      <trkpt lat="43.66655" lon="3.72667">
        <ele>92.9</ele>
        <time>2016-02-07T14:56:23Z</time>
      </trkpt>
      <trkpt lat="43.66673" lon="3.72681">
        <ele>92.9</ele>
        <time>2016-02-07T14:56:24Z</time>
      </trkpt>
      <trkpt lat="43.66692" lon="3.72694">
        <ele>92.9</ele>
        <time>2016-02-07T14:56:25Z</time>
      </trkpt>
      <trkpt lat="43.66855" lon="3.72789">
        <ele>93.39</ele>
        <time>2016-02-07T14:56:33Z</time>
      </trkpt>
      <trkpt lat="43.66925" lon="3.7284">
        <ele>92.42</ele>
        <time>2016-02-07T14:56:37Z</time>
      </trkpt>
      <trkpt lat="43.6694" lon="3.72857">
        <ele>91.94</ele>
        <time>2016-02-07T14:56:38Z</time>
      </trkpt>
      <trkpt lat="43.66953" lon="3.72876">
        <ele>91.46</ele>
        <time>2016-02-07T14:56:39Z</time>
      </trkpt>
      <trkpt lat="43.6696" lon="3.72899">
        <ele>91.94</ele>
        <time>2016-02-07T14:56:40Z</time>
      </trkpt>
      <trkpt lat="43.66964" lon="3.72923">
        <ele>91.94</ele>
        <time>2016-02-07T14:56:41Z</time>
      </trkpt>
      <trkpt lat="43.66965" lon="3.7295">
        <ele>91.94</ele>
        <time>2016-02-07T14:56:42Z</time>
      </trkpt>
      <trkpt lat="43.66961" lon="3.7298">
        <ele>91.94</ele>
        <time>2016-02-07T14:56:43Z</time>
      </trkpt>
      <trkpt lat="43.66953" lon="3.73009">
        <ele>91.94</ele>
        <time>2016-02-07T14:56:44Z</time>
      </trkpt>
      <trkpt lat="43.66944" lon="3.73038">
        <ele>91.46</ele>
        <time>2016-02-07T14:56:45Z</time>
      </trkpt>
      <trkpt lat="43.66933" lon="3.73067">
        <ele>91.46</ele>
        <time>2016-02-07T14:56:46Z</time>
      </trkpt>
      <trkpt lat="43.66922" lon="3.73097">
        <ele>91.46</ele>
        <time>2016-02-07T14:56:47Z</time>
      </trkpt>
      <trkpt lat="43.66885" lon="3.73263">
        <ele>90.5</ele>
        <time>2016-02-07T14:56:53Z</time>
      </trkpt>
      <trkpt lat="43.66878" lon="3.73279">
        <ele>90.02</ele>
        <time>2016-02-07T14:56:54Z</time>
      </trkpt>
      <trkpt lat="43.66865" lon="3.73292">
        <ele>90.02</ele>
        <time>2016-02-07T14:56:55Z</time>
      </trkpt>
      <trkpt lat="43.66846" lon="3.73302">
        <ele>90.02</ele>
        <time>2016-02-07T14:56:56Z</time>
      </trkpt>
      <trkpt lat="43.66826" lon="3.73312">
        <ele>90.02</ele>
        <time>2016-02-07T14:56:57Z</time>
      </trkpt>
      <trkpt lat="43.66805" lon="3.7332">
        <ele>90.5</ele>
        <time>2016-02-07T14:56:58Z</time>
      </trkpt>
      <trkpt lat="43.66784" lon="3.7333">
        <ele>90.98</ele>
        <time>2016-02-07T14:56:59Z</time>
      </trkpt>
      <trkpt lat="43.66762" lon="3.73343">
        <ele>90.98</ele>
        <time>2016-02-07T14:57:00Z</time>
      </trkpt>
      <trkpt lat="43.6674" lon="3.73358">
        <ele>91.46</ele>
        <time>2016-02-07T14:57:01Z</time>
      </trkpt>
      <trkpt lat="43.66718" lon="3.73374">
        <ele>91.94</ele>
        <time>2016-02-07T14:57:02Z</time>
      </trkpt>
      <trkpt lat="43.66686" lon="3.73408">
        <ele>91.46</ele>
        <time>2016-02-07T14:57:04Z</time>
      </trkpt>
      <trkpt lat="43.66676" lon="3.73428">
        <ele>91.94</ele>
        <time>2016-02-07T14:57:05Z</time>
      </trkpt>
      <trkpt lat="43.66668" lon="3.73451">
        <ele>92.42</ele>
        <time>2016-02-07T14:57:06Z</time>
      </trkpt>
      <trkpt lat="43.6666" lon="3.73481">
        <ele>92.9</ele>
        <time>2016-02-07T14:57:07Z</time>
      </trkpt>
      <trkpt lat="43.6665" lon="3.73511">
        <ele>92.9</ele>
        <time>2016-02-07T14:57:08Z</time>
      </trkpt>
      <trkpt lat="43.66638" lon="3.73543">
        <ele>92.9</ele>
        <time>2016-02-07T14:57:09Z</time>
      </trkpt>
      <trkpt lat="43.66582" lon="3.73754">
        <ele>90.5</ele>
        <time>2016-02-07T14:57:15Z</time>
      </trkpt>
      <trkpt lat="43.66555" lon="3.73846">
        <ele>90.98</ele>
        <time>2016-02-07T14:57:18Z</time>
      </trkpt>
      <trkpt lat="43.6654" lon="3.73869">
        <ele>90.98</ele>
        <time>2016-02-07T14:57:19Z</time>
      </trkpt>
      <trkpt lat="43.66527" lon="3.73891">
        <ele>90.98</ele>
        <time>2016-02-07T14:57:20Z</time>
      </trkpt>
      <trkpt lat="43.66504" lon="3.73972">
        <ele>90.98</ele>
        <time>2016-02-07T14:57:23Z</time>
      </trkpt>
      <trkpt lat="43.66503" lon="3.74012">
        <ele>90.98</ele>
        <time>2016-02-07T14:57:24Z</time>
      </trkpt>
      <trkpt lat="43.66462" lon="3.74216">
        <ele>89.54</ele>
        <time>2016-02-07T14:57:30Z</time>
      </trkpt>
      <trkpt lat="43.6645" lon="3.74247">
        <ele>89.54</ele>
        <time>2016-02-07T14:57:31Z</time>
      </trkpt>
      <trkpt lat="43.66433" lon="3.74278">
        <ele>90.02</ele>
        <time>2016-02-07T14:57:32Z</time>
      </trkpt>
      <trkpt lat="43.6641" lon="3.74309">
        <ele>89.06</ele>
        <time>2016-02-07T14:57:33Z</time>
      </trkpt>
      <trkpt lat="43.66392" lon="3.74341">
        <ele>89.06</ele>
        <time>2016-02-07T14:57:34Z</time>
      </trkpt>
      <trkpt lat="43.66286" lon="3.74536">
        <ele>87.14</ele>
        <time>2016-02-07T14:57:41Z</time>
      </trkpt>
      <trkpt lat="43.66279" lon="3.74564">
        <ele>87.14</ele>
        <time>2016-02-07T14:57:42Z</time>
      </trkpt>
      <trkpt lat="43.66273" lon="3.74594">
        <ele>87.14</ele>
        <time>2016-02-07T14:57:43Z</time>
      </trkpt>
      <trkpt lat="43.66269" lon="3.74626">
        <ele>87.14</ele>
        <time>2016-02-07T14:57:44Z</time>
      </trkpt>
      <trkpt lat="43.6624" lon="3.74845">
        <ele>86.66</ele>
        <time>2016-02-07T14:57:51Z</time>
      </trkpt>
      <trkpt lat="43.66233" lon="3.74872">
        <ele>86.18</ele>
        <time>2016-02-07T14:57:52Z</time>
      </trkpt>
      <trkpt lat="43.66223" lon="3.74899">
        <ele>86.18</ele>
        <time>2016-02-07T14:57:53Z</time>
      </trkpt>
      <trkpt lat="43.66211" lon="3.74926">
        <ele>86.18</ele>
        <time>2016-02-07T14:57:54Z</time>
      </trkpt>
      <trkpt lat="43.6616" lon="3.75052">
        <ele>84.73</ele>
        <time>2016-02-07T14:57:59Z</time>
      </trkpt>
      <trkpt lat="43.66154" lon="3.75085">
        <ele>84.73</ele>
        <time>2016-02-07T14:58:00Z</time>
      </trkpt>
      <trkpt lat="43.66151" lon="3.75121">
        <ele>84.73</ele>
        <time>2016-02-07T14:58:01Z</time>
      </trkpt>
      <trkpt lat="43.66124" lon="3.75341">
        <ele>87.14</ele>
        <time>2016-02-07T14:58:08Z</time>
      </trkpt>
      <trkpt lat="43.66133" lon="3.75404">
        <ele>88.1</ele>
        <time>2016-02-07T14:58:11Z</time>
      </trkpt>
      <trkpt lat="43.6615" lon="3.75438">
        <ele>87.62</ele>
        <time>2016-02-07T14:58:13Z</time>
      </trkpt>
      <trkpt lat="43.66165" lon="3.75454">
        <ele>88.1</ele>
        <time>2016-02-07T14:58:14Z</time>
      </trkpt>
      <trkpt lat="43.66193" lon="3.75466">
        <ele>87.62</ele>
        <time>2016-02-07T14:58:15Z</time>
      </trkpt>
      <trkpt lat="43.66211" lon="3.75484">
        <ele>87.62</ele>
        <time>2016-02-07T14:58:16Z</time>
      </trkpt>
      <trkpt lat="43.66226" lon="3.75507">
        <ele>87.14</ele>
        <time>2016-02-07T14:58:17Z</time>
      </trkpt>
      <trkpt lat="43.66241" lon="3.75534">
        <ele>86.66</ele>
        <time>2016-02-07T14:58:18Z</time>
      </trkpt>
      <trkpt lat="43.66336" lon="3.75747">
        <ele>79.93</ele>
        <time>2016-02-07T14:58:25Z</time>
      </trkpt>
      <trkpt lat="43.66429" lon="3.75886">
        <ele>75.12</ele>
        <time>2016-02-07T14:58:31Z</time>
      </trkpt>
      <trkpt lat="43.66549" lon="3.7602">
        <ele>75.6</ele>
        <time>2016-02-07T14:58:37Z</time>
      </trkpt>
      <trkpt lat="43.6656" lon="3.76044">
        <ele>75.12</ele>
        <time>2016-02-07T14:58:38Z</time>
      </trkpt>
      <trkpt lat="43.66562" lon="3.76074">
        <ele>76.08</ele>
        <time>2016-02-07T14:58:39Z</time>
      </trkpt>
      <trkpt lat="43.66565" lon="3.76106">
        <ele>75.6</ele>
        <time>2016-02-07T14:58:40Z</time>
      </trkpt>
      <trkpt lat="43.66566" lon="3.7614">
        <ele>75.6</ele>
        <time>2016-02-07T14:58:41Z</time>
      </trkpt>
      <trkpt lat="43.66565" lon="3.76176">
        <ele>75.6</ele>
        <time>2016-02-07T14:58:42Z</time>
      </trkpt>
      <trkpt lat="43.66564" lon="3.76212">
        <ele>75.6</ele>
        <time>2016-02-07T14:58:43Z</time>
      </trkpt>
      <trkpt lat="43.66548" lon="3.76319">
        <ele>75.6</ele>
        <time>2016-02-07T14:58:46Z</time>
      </trkpt>
      <trkpt lat="43.66538" lon="3.76354">
        <ele>75.6</ele>
        <time>2016-02-07T14:58:47Z</time>
      </trkpt>
      <trkpt lat="43.66526" lon="3.76388">
        <ele>75.12</ele>
        <time>2016-02-07T14:58:48Z</time>
      </trkpt>
      <trkpt lat="43.6651" lon="3.76419">
        <ele>74.64</ele>
        <time>2016-02-07T14:58:49Z</time>
      </trkpt>
      <trkpt lat="43.6649" lon="3.76447">
        <ele>74.64</ele>
        <time>2016-02-07T14:58:50Z</time>
      </trkpt>
      <trkpt lat="43.6647" lon="3.76474">
        <ele>74.64</ele>
        <time>2016-02-07T14:58:51Z</time>
      </trkpt>
      <trkpt lat="43.6645" lon="3.76501">
        <ele>74.64</ele>
        <time>2016-02-07T14:58:52Z</time>
      </trkpt>
      <trkpt lat="43.66352" lon="3.76638">
        <ele>76.08</ele>
        <time>2016-02-07T14:58:58Z</time>
      </trkpt>
      <trkpt lat="43.66343" lon="3.76664">
        <ele>76.08</ele>
        <time>2016-02-07T14:58:59Z</time>
      </trkpt>
      <trkpt lat="43.66338" lon="3.76696">
        <ele>76.08</ele>
        <time>2016-02-07T14:59:00Z</time>
      </trkpt>
      <trkpt lat="43.66328" lon="3.76729">
        <ele>76.56</ele>
        <time>2016-02-07T14:59:01Z</time>
      </trkpt>
      <trkpt lat="43.66251" lon="3.77027">
        <ele>79.45</ele>
        <time>2016-02-07T14:59:10Z</time>
      </trkpt>
      <trkpt lat="43.66248" lon="3.77055">
        <ele>79.45</ele>
        <time>2016-02-07T14:59:11Z</time>
      </trkpt>
      <trkpt lat="43.66247" lon="3.77083">
        <ele>79.93</ele>
        <time>2016-02-07T14:59:12Z</time>
      </trkpt>
      <trkpt lat="43.66251" lon="3.77111">
        <ele>80.41</ele>
        <time>2016-02-07T14:59:13Z</time>
      </trkpt>
      <trkpt lat="43.6626" lon="3.77142">
        <ele>80.41</ele>
        <time>2016-02-07T14:59:14Z</time>
      </trkpt>
      <trkpt lat="43.6627" lon="3.77175">
        <ele>79.93</ele>
        <time>2016-02-07T14:59:15Z</time>
      </trkpt>
      <trkpt lat="43.66339" lon="3.77443">
        <ele>78</ele>
        <time>2016-02-07T14:59:22Z</time>
      </trkpt>
      <trkpt lat="43.66422" lon="3.77774">
        <ele>75.12</ele>
        <time>2016-02-07T14:59:31Z</time>
      </trkpt>
      <trkpt lat="43.66438" lon="3.77814">
        <ele>74.64</ele>
        <time>2016-02-07T14:59:33Z</time>
      </trkpt>
      <trkpt lat="43.66448" lon="3.77831">
        <ele>74.64</ele>
        <time>2016-02-07T14:59:34Z</time>
      </trkpt>
      <trkpt lat="43.66461" lon="3.77847">
        <ele>74.16</ele>
        <time>2016-02-07T14:59:35Z</time>
      </trkpt>
      <trkpt lat="43.66479" lon="3.77855">
        <ele>73.2</ele>
        <time>2016-02-07T14:59:36Z</time>
      </trkpt>
      <trkpt lat="43.665" lon="3.7786">
        <ele>72.72</ele>
        <time>2016-02-07T14:59:37Z</time>
      </trkpt>
      <trkpt lat="43.66523" lon="3.77864">
        <ele>72.24</ele>
        <time>2016-02-07T14:59:38Z</time>
      </trkpt>
      <trkpt lat="43.66544" lon="3.77867">
        <ele>71.76</ele>
        <time>2016-02-07T14:59:39Z</time>
      </trkpt>
      <trkpt lat="43.66585" lon="3.77881">
        <ele>69.83</ele>
        <time>2016-02-07T14:59:41Z</time>
      </trkpt>
      <trkpt lat="43.66605" lon="3.77897">
        <ele>69.35</ele>
        <time>2016-02-07T14:59:42Z</time>
      </trkpt>
      <trkpt lat="43.66625" lon="3.77921">
        <ele>68.87</ele>
        <time>2016-02-07T14:59:43Z</time>
      </trkpt>
      <trkpt lat="43.66645" lon="3.77947">
        <ele>69.35</ele>
        <time>2016-02-07T14:59:44Z</time>
      </trkpt>
      <trkpt lat="43.66664" lon="3.77975">
        <ele>69.35</ele>
        <time>2016-02-07T14:59:45Z</time>
      </trkpt>
      <trkpt lat="43.66782" lon="3.78138">
        <ele>70.79</ele>
        <time>2016-02-07T14:59:52Z</time>
      </trkpt>
      <trkpt lat="43.66795" lon="3.78184">
        <ele>72.24</ele>
        <time>2016-02-07T14:59:54Z</time>
      </trkpt>
      <trkpt lat="43.66819" lon="3.78365">
        <ele>72.72</ele>
        <time>2016-02-07T15:00:00Z</time>
      </trkpt>
      <trkpt lat="43.66835" lon="3.78512">
        <ele>71.27</ele>
        <time>2016-02-07T15:00:05Z</time>
      </trkpt>
      <trkpt lat="43.66834" lon="3.78542">
        <ele>71.27</ele>
        <time>2016-02-07T15:00:06Z</time>
      </trkpt>
      <trkpt lat="43.6683" lon="3.78572">
        <ele>71.27</ele>
        <time>2016-02-07T15:00:07Z</time>
      </trkpt>
      <trkpt lat="43.66823" lon="3.78601">
        <ele>70.79</ele>
        <time>2016-02-07T15:00:08Z</time>
      </trkpt>
      <trkpt lat="43.66813" lon="3.78629">
        <ele>70.31</ele>
        <time>2016-02-07T15:00:09Z</time>
      </trkpt>
      <trkpt lat="43.66795" lon="3.78653">
        <ele>69.83</ele>
        <time>2016-02-07T15:00:10Z</time>
      </trkpt>
      <trkpt lat="43.66776" lon="3.78676">
        <ele>69.35</ele>
        <time>2016-02-07T15:00:11Z</time>
      </trkpt>
      <trkpt lat="43.66756" lon="3.78698">
        <ele>68.87</ele>
        <time>2016-02-07T15:00:12Z</time>
      </trkpt>
      <trkpt lat="43.66734" lon="3.78718">
        <ele>68.39</ele>
        <time>2016-02-07T15:00:13Z</time>
      </trkpt>
      <trkpt lat="43.66712" lon="3.78739">
        <ele>67.91</ele>
        <time>2016-02-07T15:00:14Z</time>
      </trkpt>
      <trkpt lat="43.66532" lon="3.78915">
        <ele>66.95</ele>
        <time>2016-02-07T15:00:22Z</time>
      </trkpt>
      <trkpt lat="43.66292" lon="3.79141">
        <ele>65.51</ele>
        <time>2016-02-07T15:00:32Z</time>
      </trkpt>
      <trkpt lat="43.66267" lon="3.79156">
        <ele>65.51</ele>
        <time>2016-02-07T15:00:33Z</time>
      </trkpt>
      <trkpt lat="43.66241" lon="3.79165">
        <ele>65.51</ele>
        <time>2016-02-07T15:00:34Z</time>
      </trkpt>
      <trkpt lat="43.66216" lon="3.79168">
        <ele>65.03</ele>
        <time>2016-02-07T15:00:35Z</time>
      </trkpt>
      <trkpt lat="43.66192" lon="3.79169">
        <ele>65.03</ele>
        <time>2016-02-07T15:00:36Z</time>
      </trkpt>
      <trkpt lat="43.66169" lon="3.7917">
        <ele>65.51</ele>
        <time>2016-02-07T15:00:37Z</time>
      </trkpt>
      <trkpt lat="43.66148" lon="3.79173">
        <ele>65.51</ele>
        <time>2016-02-07T15:00:38Z</time>
      </trkpt>
      <trkpt lat="43.66129" lon="3.79178">
        <ele>65.51</ele>
        <time>2016-02-07T15:00:39Z</time>
      </trkpt>
      <trkpt lat="43.66112" lon="3.79186">
        <ele>65.51</ele>
        <time>2016-02-07T15:00:40Z</time>
      </trkpt>
      <trkpt lat="43.66097" lon="3.79196">
        <ele>65.99</ele>
        <time>2016-02-07T15:00:41Z</time>
      </trkpt>
      <trkpt lat="43.66083" lon="3.79208">
        <ele>66.95</ele>
        <time>2016-02-07T15:00:42Z</time>
      </trkpt>
      <trkpt lat="43.6607" lon="3.79221">
        <ele>67.91</ele>
        <time>2016-02-07T15:00:43Z</time>
      </trkpt>
      <trkpt lat="43.66058" lon="3.79235">
        <ele>69.35</ele>
        <time>2016-02-07T15:00:44Z</time>
      </trkpt>
      <trkpt lat="43.66047" lon="3.7925">
        <ele>70.31</ele>
        <time>2016-02-07T15:00:45Z</time>
      </trkpt>
      <trkpt lat="43.66038" lon="3.79265">
        <ele>71.27</ele>
        <time>2016-02-07T15:00:46Z</time>
      </trkpt>
      <trkpt lat="43.6603" lon="3.79279">
        <ele>71.76</ele>
        <time>2016-02-07T15:00:47Z</time>
      </trkpt>
      <trkpt lat="43.66007" lon="3.79316">
        <ele>74.16</ele>
        <time>2016-02-07T15:00:51Z</time>
      </trkpt>
      <trkpt lat="43.66005" lon="3.79318">
        <ele>74.64</ele>
        <time>2016-02-07T15:00:52Z</time>
      </trkpt>
      <trkpt lat="43.66003" lon="3.7932">
        <ele>75.12</ele>
        <time>2016-02-07T15:00:53Z</time>
      </trkpt>
      <trkpt lat="43.66" lon="3.79321">
        <ele>75.6</ele>
        <time>2016-02-07T15:00:54Z</time>
      </trkpt>
      <trkpt lat="43.65994" lon="3.79319">
        <ele>76.08</ele>
        <time>2016-02-07T15:00:55Z</time>
      </trkpt>
      <trkpt lat="43.65984" lon="3.79316">
        <ele>76.56</ele>
        <time>2016-02-07T15:00:56Z</time>
      </trkpt>
      <trkpt lat="43.6597" lon="3.79313">
        <ele>76.08</ele>
        <time>2016-02-07T15:00:57Z</time>
      </trkpt>
      <trkpt lat="43.65849" lon="3.79287">
        <ele>74.64</ele>
        <time>2016-02-07T15:01:04Z</time>
      </trkpt>
      <trkpt lat="43.65748" lon="3.79258">
        <ele>74.16</ele>
        <time>2016-02-07T15:01:10Z</time>
      </trkpt>
      <trkpt lat="43.65733" lon="3.79247">
        <ele>74.16</ele>
        <time>2016-02-07T15:01:11Z</time>
      </trkpt>
      <trkpt lat="43.6572" lon="3.79234">
        <ele>74.16</ele>
        <time>2016-02-07T15:01:12Z</time>
      </trkpt>
      <trkpt lat="43.65706" lon="3.7922">
        <ele>73.68</ele>
        <time>2016-02-07T15:01:13Z</time>
      </trkpt>
      <trkpt lat="43.65691" lon="3.79209">
        <ele>73.2</ele>
        <time>2016-02-07T15:01:14Z</time>
      </trkpt>
      <trkpt lat="43.65673" lon="3.792">
        <ele>72.72</ele>
        <time>2016-02-07T15:01:15Z</time>
      </trkpt>
      <trkpt lat="43.65653" lon="3.79193">
        <ele>71.76</ele>
        <time>2016-02-07T15:01:16Z</time>
      </trkpt>
      <trkpt lat="43.65561" lon="3.79154">
        <ele>69.35</ele>
        <time>2016-02-07T15:01:21Z</time>
      </trkpt>
      <trkpt lat="43.65545" lon="3.79141">
        <ele>69.35</ele>
        <time>2016-02-07T15:01:22Z</time>
      </trkpt>
      <trkpt lat="43.6553" lon="3.79126">
        <ele>68.87</ele>
        <time>2016-02-07T15:01:23Z</time>
      </trkpt>
      <trkpt lat="43.65464" lon="3.79056">
        <ele>67.43</ele>
        <time>2016-02-07T15:01:28Z</time>
      </trkpt>
      <trkpt lat="43.6545" lon="3.79046">
        <ele>66.95</ele>
        <time>2016-02-07T15:01:29Z</time>
      </trkpt>
      <trkpt lat="43.65358" lon="3.78994">
        <ele>65.51</ele>
        <time>2016-02-07T15:01:36Z</time>
      </trkpt>
      <trkpt lat="43.65345" lon="3.78993">
        <ele>65.51</ele>
        <time>2016-02-07T15:01:37Z</time>
      </trkpt>
      <trkpt lat="43.65332" lon="3.78996">
        <ele>65.03</ele>
        <time>2016-02-07T15:01:38Z</time>
      </trkpt>
      <trkpt lat="43.65318" lon="3.79002">
        <ele>65.03</ele>
        <time>2016-02-07T15:01:39Z</time>
      </trkpt>
      <trkpt lat="43.65304" lon="3.79009">
        <ele>65.03</ele>
        <time>2016-02-07T15:01:40Z</time>
      </trkpt>
      <trkpt lat="43.65182" lon="3.79057">
        <ele>64.07</ele>
        <time>2016-02-07T15:01:49Z</time>
      </trkpt>
      <trkpt lat="43.65131" lon="3.79056">
        <ele>63.58</ele>
        <time>2016-02-07T15:01:53Z</time>
      </trkpt>
      <trkpt lat="43.6512" lon="3.79059">
        <ele>63.58</ele>
        <time>2016-02-07T15:01:54Z</time>
      </trkpt>
      <trkpt lat="43.65109" lon="3.79064">
        <ele>63.1</ele>
        <time>2016-02-07T15:01:55Z</time>
      </trkpt>
      <trkpt lat="43.65084" lon="3.79082">
        <ele>64.55</ele>
        <time>2016-02-07T15:02:01Z</time>
      </trkpt>
      <trkpt lat="43.65079" lon="3.79086">
        <ele>67.43</ele>
        <time>2016-02-07T15:02:12Z</time>
      </trkpt>
      <trkpt lat="43.65065" lon="3.79098">
        <ele>68.39</ele>
        <time>2016-02-07T15:02:25Z</time>
      </trkpt>
      <trkpt lat="43.65057" lon="3.79107">
        <ele>68.39</ele>
        <time>2016-02-07T15:02:26Z</time>
      </trkpt>
      <trkpt lat="43.65051" lon="3.79119">
        <ele>66.95</ele>
        <time>2016-02-07T15:02:27Z</time>
      </trkpt>
      <trkpt lat="43.65046" lon="3.79131">
        <ele>65.51</ele>
        <time>2016-02-07T15:02:28Z</time>
      </trkpt>
      <trkpt lat="43.65042" lon="3.79143">
        <ele>65.51</ele>
        <time>2016-02-07T15:02:29Z</time>
      </trkpt>
      <trkpt lat="43.65034" lon="3.79164">
        <ele>65.03</ele>
        <time>2016-02-07T15:02:31Z</time>
      </trkpt>
      <trkpt lat="43.65027" lon="3.79174">
        <ele>64.55</ele>
        <time>2016-02-07T15:02:32Z</time>
      </trkpt>
      <trkpt lat="43.65009" lon="3.79194">
        <ele>64.07</ele>
        <time>2016-02-07T15:02:34Z</time>
      </trkpt>
      <trkpt lat="43.65002" lon="3.79207">
        <ele>63.58</ele>
        <time>2016-02-07T15:02:35Z</time>
      </trkpt>
      <trkpt lat="43.64997" lon="3.79221">
        <ele>63.58</ele>
        <time>2016-02-07T15:02:36Z</time>
      </trkpt>
      <trkpt lat="43.64992" lon="3.79235">
        <ele>63.1</ele>
        <time>2016-02-07T15:02:37Z</time>
      </trkpt>
      <trkpt lat="43.64989" lon="3.79248">
        <ele>63.1</ele>
        <time>2016-02-07T15:02:38Z</time>
      </trkpt>
      <trkpt lat="43.64986" lon="3.7926">
        <ele>63.1</ele>
        <time>2016-02-07T15:02:39Z</time>
      </trkpt>
      <trkpt lat="43.64973" lon="3.79334">
        <ele>60.7</ele>
        <time>2016-02-07T15:02:47Z</time>
      </trkpt>
      <trkpt lat="43.64942" lon="3.79447">
        <ele>60.7</ele>
        <time>2016-02-07T15:02:57Z</time>
      </trkpt>
      <trkpt lat="43.64905" lon="3.79534">
        <ele>61.66</ele>
        <time>2016-02-07T15:03:05Z</time>
      </trkpt>
      <trkpt lat="43.64849" lon="3.79647">
        <ele>64.07</ele>
        <time>2016-02-07T15:03:16Z</time>
      </trkpt>
      <trkpt lat="43.64823" lon="3.79706">
        <ele>68.39</ele>
        <time>2016-02-07T15:03:25Z</time>
      </trkpt>
      <trkpt lat="43.64822" lon="3.79712">
        <ele>69.35</ele>
        <time>2016-02-07T15:03:32Z</time>
      </trkpt>
      <trkpt lat="43.64819" lon="3.79718">
        <ele>71.76</ele>
        <time>2016-02-07T15:03:33Z</time>
      </trkpt>
      <trkpt lat="43.64816" lon="3.79724">
        <ele>73.68</ele>
        <time>2016-02-07T15:03:34Z</time>
      </trkpt>
      <trkpt lat="43.64811" lon="3.7973">
        <ele>74.64</ele>
        <time>2016-02-07T15:03:35Z</time>
      </trkpt>
      <trkpt lat="43.64805" lon="3.79736">
        <ele>75.12</ele>
        <time>2016-02-07T15:03:36Z</time>
      </trkpt>
      <trkpt lat="43.6478" lon="3.79779">
        <ele>71.76</ele>
        <time>2016-02-07T15:03:41Z</time>
      </trkpt>
      <trkpt lat="43.64776" lon="3.7979">
        <ele>70.79</ele>
        <time>2016-02-07T15:03:42Z</time>
      </trkpt>
      <trkpt lat="43.64769" lon="3.79814">
        <ele>69.35</ele>
        <time>2016-02-07T15:03:44Z</time>
      </trkpt>
      <trkpt lat="43.64769" lon="3.79828">
        <ele>68.87</ele>
        <time>2016-02-07T15:03:45Z</time>
      </trkpt>
      <trkpt lat="43.6477" lon="3.79842">
        <ele>69.35</ele>
        <time>2016-02-07T15:03:46Z</time>
      </trkpt>
      <trkpt lat="43.6475" lon="3.80022">
        <ele>64.07</ele>
        <time>2016-02-07T15:03:58Z</time>
      </trkpt>
      <trkpt lat="43.64746" lon="3.80037">
        <ele>63.58</ele>
        <time>2016-02-07T15:03:59Z</time>
      </trkpt>
      <trkpt lat="43.64688" lon="3.802">
        <ele>60.22</ele>
        <time>2016-02-07T15:04:10Z</time>
      </trkpt>
      <trkpt lat="43.64676" lon="3.80303">
        <ele>59.74</ele>
        <time>2016-02-07T15:04:18Z</time>
      </trkpt>
      <trkpt lat="43.6467" lon="3.80398">
        <ele>58.78</ele>
        <time>2016-02-07T15:04:26Z</time>
      </trkpt>
      <trkpt lat="43.64681" lon="3.80553">
        <ele>58.78</ele>
        <time>2016-02-07T15:04:36Z</time>
      </trkpt>
      <trkpt lat="43.64683" lon="3.80679">
        <ele>59.74</ele>
        <time>2016-02-07T15:04:46Z</time>
      </trkpt>
      <trkpt lat="43.6467" lon="3.80757">
        <ele>60.22</ele>
        <time>2016-02-07T15:04:54Z</time>
      </trkpt>
      <trkpt lat="43.64652" lon="3.80816">
        <ele>60.7</ele>
        <time>2016-02-07T15:05:01Z</time>
      </trkpt>
      <trkpt lat="43.6463" lon="3.80893">
        <ele>61.66</ele>
        <time>2016-02-07T15:05:10Z</time>
      </trkpt>
      <trkpt lat="43.64594" lon="3.81033">
        <ele>63.1</ele>
        <time>2016-02-07T15:05:22Z</time>
      </trkpt>
      <trkpt lat="43.64593" lon="3.81044">
        <ele>63.1</ele>
        <time>2016-02-07T15:05:23Z</time>
      </trkpt>
      <trkpt lat="43.64595" lon="3.81055">
        <ele>63.1</ele>
        <time>2016-02-07T15:05:24Z</time>
      </trkpt>
      <trkpt lat="43.64597" lon="3.81068">
        <ele>63.1</ele>
        <time>2016-02-07T15:05:25Z</time>
      </trkpt>
      <trkpt lat="43.64597" lon="3.81082">
        <ele>63.1</ele>
        <time>2016-02-07T15:05:26Z</time>
      </trkpt>
      <trkpt lat="43.64596" lon="3.81096">
        <ele>63.1</ele>
        <time>2016-02-07T15:05:27Z</time>
      </trkpt>
      <trkpt lat="43.64595" lon="3.8111">
        <ele>63.58</ele>
        <time>2016-02-07T15:05:28Z</time>
      </trkpt>
      <trkpt lat="43.64593" lon="3.8127">
        <ele>65.51</ele>
        <time>2016-02-07T15:05:37Z</time>
      </trkpt>
      <trkpt lat="43.64596" lon="3.81478">
        <ele>71.27</ele>
        <time>2016-02-07T15:05:49Z</time>
      </trkpt>
      <trkpt lat="43.64594" lon="3.81488">
        <ele>71.27</ele>
        <time>2016-02-07T15:05:50Z</time>
      </trkpt>
      <trkpt lat="43.64592" lon="3.81499">
        <ele>71.76</ele>
        <time>2016-02-07T15:05:51Z</time>
      </trkpt>
      <trkpt lat="43.64594" lon="3.8151">
        <ele>71.76</ele>
        <time>2016-02-07T15:05:52Z</time>
      </trkpt>
      <trkpt lat="43.64597" lon="3.81523">
        <ele>72.24</ele>
        <time>2016-02-07T15:05:53Z</time>
      </trkpt>
      <trkpt lat="43.646" lon="3.81537">
        <ele>72.24</ele>
        <time>2016-02-07T15:05:54Z</time>
      </trkpt>
      <trkpt lat="43.64601" lon="3.81553">
        <ele>72.72</ele>
        <time>2016-02-07T15:05:55Z</time>
      </trkpt>
      <trkpt lat="43.64607" lon="3.81732">
        <ele>78</ele>
        <time>2016-02-07T15:06:05Z</time>
      </trkpt>
      <trkpt lat="43.64615" lon="3.81966">
        <ele>84.25</ele>
        <time>2016-02-07T15:06:15Z</time>
      </trkpt>
      <trkpt lat="43.64589" lon="3.82139">
        <ele>90.02</ele>
        <time>2016-02-07T15:06:22Z</time>
      </trkpt>
      <trkpt lat="43.64569" lon="3.82183">
        <ele>91.94</ele>
        <time>2016-02-07T15:06:24Z</time>
      </trkpt>
      <trkpt lat="43.64557" lon="3.82202">
        <ele>92.9</ele>
        <time>2016-02-07T15:06:25Z</time>
      </trkpt>
      <trkpt lat="43.64545" lon="3.8222">
        <ele>93.87</ele>
        <time>2016-02-07T15:06:26Z</time>
      </trkpt>
      <trkpt lat="43.64533" lon="3.82236">
        <ele>94.83</ele>
        <time>2016-02-07T15:06:27Z</time>
      </trkpt>
      <trkpt lat="43.64521" lon="3.82249">
        <ele>95.31</ele>
        <time>2016-02-07T15:06:28Z</time>
      </trkpt>
      <trkpt lat="43.64509" lon="3.8226">
        <ele>95.79</ele>
        <time>2016-02-07T15:06:29Z</time>
      </trkpt>
      <trkpt lat="43.64498" lon="3.82268">
        <ele>96.27</ele>
        <time>2016-02-07T15:06:30Z</time>
      </trkpt>
      <trkpt lat="43.64488" lon="3.82275">
        <ele>96.27</ele>
        <time>2016-02-07T15:06:31Z</time>
      </trkpt>
      <trkpt lat="43.6446" lon="3.8229">
        <ele>97.23</ele>
        <time>2016-02-07T15:06:36Z</time>
      </trkpt>
      <trkpt lat="43.64455" lon="3.8229">
        <ele>97.71</ele>
        <time>2016-02-07T15:06:37Z</time>
      </trkpt>
      <trkpt lat="43.64448" lon="3.82288">
        <ele>98.19</ele>
        <time>2016-02-07T15:06:38Z</time>
      </trkpt>
      <trkpt lat="43.6444" lon="3.82282">
        <ele>98.67</ele>
        <time>2016-02-07T15:06:39Z</time>
      </trkpt>
      <trkpt lat="43.6443" lon="3.82275">
        <ele>98.67</ele>
        <time>2016-02-07T15:06:40Z</time>
      </trkpt>
      <trkpt lat="43.64419" lon="3.8227">
        <ele>98.67</ele>
        <time>2016-02-07T15:06:41Z</time>
      </trkpt>
      <trkpt lat="43.64408" lon="3.82269">
        <ele>99.15</ele>
        <time>2016-02-07T15:06:42Z</time>
      </trkpt>
      <trkpt lat="43.64397" lon="3.82269">
        <ele>99.15</ele>
        <time>2016-02-07T15:06:43Z</time>
      </trkpt>
      <trkpt lat="43.64388" lon="3.82274">
        <ele>99.15</ele>
        <time>2016-02-07T15:06:44Z</time>
      </trkpt>
      <trkpt lat="43.6438" lon="3.82284">
        <ele>99.15</ele>
        <time>2016-02-07T15:06:45Z</time>
      </trkpt>
      <trkpt lat="43.64374" lon="3.82296">
        <ele>98.67</ele>
        <time>2016-02-07T15:06:46Z</time>
      </trkpt>
      <trkpt lat="43.6437" lon="3.8231">
        <ele>98.67</ele>
        <time>2016-02-07T15:06:47Z</time>
      </trkpt>
      <trkpt lat="43.64367" lon="3.82325">
        <ele>98.19</ele>
        <time>2016-02-07T15:06:48Z</time>
      </trkpt>
      <trkpt lat="43.64364" lon="3.82339">
        <ele>97.71</ele>
        <time>2016-02-07T15:06:49Z</time>
      </trkpt>
      <trkpt lat="43.64358" lon="3.82351">
        <ele>97.71</ele>
        <time>2016-02-07T15:06:50Z</time>
      </trkpt>
      <trkpt lat="43.64349" lon="3.82361">
        <ele>97.23</ele>
        <time>2016-02-07T15:06:51Z</time>
      </trkpt>
      <trkpt lat="43.64338" lon="3.82371">
        <ele>97.23</ele>
        <time>2016-02-07T15:06:52Z</time>
      </trkpt>
      <trkpt lat="43.64328" lon="3.82382">
        <ele>96.75</ele>
        <time>2016-02-07T15:06:53Z</time>
      </trkpt>
      <trkpt lat="43.64317" lon="3.82395">
        <ele>96.75</ele>
        <time>2016-02-07T15:06:54Z</time>
      </trkpt>
      <trkpt lat="43.64307" lon="3.82409">
        <ele>96.27</ele>
        <time>2016-02-07T15:06:55Z</time>
      </trkpt>
      <trkpt lat="43.64298" lon="3.82424">
        <ele>96.27</ele>
        <time>2016-02-07T15:06:56Z</time>
      </trkpt>
      <trkpt lat="43.64289" lon="3.8244">
        <ele>95.79</ele>
        <time>2016-02-07T15:06:57Z</time>
      </trkpt>
      <trkpt lat="43.64281" lon="3.82457">
        <ele>95.79</ele>
        <time>2016-02-07T15:06:58Z</time>
      </trkpt>
      <trkpt lat="43.64273" lon="3.82475">
        <ele>95.31</ele>
        <time>2016-02-07T15:06:59Z</time>
      </trkpt>
      <trkpt lat="43.64167" lon="3.82668">
        <ele>90.02</ele>
        <time>2016-02-07T15:07:11Z</time>
      </trkpt>
      <trkpt lat="43.64072" lon="3.82764">
        <ele>86.18</ele>
        <time>2016-02-07T15:07:21Z</time>
      </trkpt>
      <trkpt lat="43.64066" lon="3.8277">
        <ele>85.69</ele>
        <time>2016-02-07T15:07:22Z</time>
      </trkpt>
      <trkpt lat="43.64061" lon="3.82775">
        <ele>85.69</ele>
        <time>2016-02-07T15:07:23Z</time>
      </trkpt>
      <trkpt lat="43.64056" lon="3.8278">
        <ele>85.21</ele>
        <time>2016-02-07T15:07:24Z</time>
      </trkpt>
      <trkpt lat="43.64051" lon="3.82785">
        <ele>85.21</ele>
        <time>2016-02-07T15:07:25Z</time>
      </trkpt>
      <trkpt lat="43.64045" lon="3.82789">
        <ele>85.21</ele>
        <time>2016-02-07T15:07:26Z</time>
      </trkpt>
      <trkpt lat="43.64021" lon="3.82803">
        <ele>84.25</ele>
        <time>2016-02-07T15:07:33Z</time>
      </trkpt>
      <trkpt lat="43.64014" lon="3.82804">
        <ele>84.25</ele>
        <time>2016-02-07T15:07:34Z</time>
      </trkpt>
      <trkpt lat="43.63978" lon="3.82808">
        <ele>83.29</ele>
        <time>2016-02-07T15:07:38Z</time>
      </trkpt>
      <trkpt lat="43.63968" lon="3.82814">
        <ele>82.81</ele>
        <time>2016-02-07T15:07:39Z</time>
      </trkpt>
      <trkpt lat="43.63958" lon="3.82823">
        <ele>82.33</ele>
        <time>2016-02-07T15:07:40Z</time>
      </trkpt>
      <trkpt lat="43.6395" lon="3.82834">
        <ele>81.85</ele>
        <time>2016-02-07T15:07:41Z</time>
      </trkpt>
      <trkpt lat="43.63942" lon="3.82847">
        <ele>81.37</ele>
        <time>2016-02-07T15:07:42Z</time>
      </trkpt>
      <trkpt lat="43.63934" lon="3.8286">
        <ele>80.89</ele>
        <time>2016-02-07T15:07:43Z</time>
      </trkpt>
      <trkpt lat="43.63926" lon="3.82875">
        <ele>80.41</ele>
        <time>2016-02-07T15:07:44Z</time>
      </trkpt>
      <trkpt lat="43.6383" lon="3.8303">
        <ele>76.08</ele>
        <time>2016-02-07T15:07:54Z</time>
      </trkpt>
      <trkpt lat="43.63749" lon="3.83104">
        <ele>74.64</ele>
        <time>2016-02-07T15:08:01Z</time>
      </trkpt>
      <trkpt lat="43.63741" lon="3.83105">
        <ele>74.64</ele>
        <time>2016-02-07T15:08:02Z</time>
      </trkpt>
      <trkpt lat="43.63733" lon="3.83103">
        <ele>75.12</ele>
        <time>2016-02-07T15:08:03Z</time>
      </trkpt>
      <trkpt lat="43.63726" lon="3.83097">
        <ele>75.12</ele>
        <time>2016-02-07T15:08:04Z</time>
      </trkpt>
      <trkpt lat="43.63719" lon="3.83089">
        <ele>74.64</ele>
        <time>2016-02-07T15:08:05Z</time>
      </trkpt>
      <trkpt lat="43.63711" lon="3.83082">
        <ele>74.16</ele>
        <time>2016-02-07T15:08:06Z</time>
      </trkpt>
      <trkpt lat="43.63701" lon="3.83076">
        <ele>74.16</ele>
        <time>2016-02-07T15:08:07Z</time>
      </trkpt>
      <trkpt lat="43.6369" lon="3.83075">
        <ele>73.68</ele>
        <time>2016-02-07T15:08:08Z</time>
      </trkpt>
      <trkpt lat="43.63679" lon="3.83079">
        <ele>73.2</ele>
        <time>2016-02-07T15:08:09Z</time>
      </trkpt>
      <trkpt lat="43.63668" lon="3.83088">
        <ele>72.72</ele>
        <time>2016-02-07T15:08:10Z</time>
      </trkpt>
      <trkpt lat="43.63658" lon="3.83101">
        <ele>72.72</ele>
        <time>2016-02-07T15:08:11Z</time>
      </trkpt>
      <trkpt lat="43.63652" lon="3.83117">
        <ele>73.2</ele>
        <time>2016-02-07T15:08:12Z</time>
      </trkpt>
      <trkpt lat="43.63648" lon="3.83134">
        <ele>72.72</ele>
        <time>2016-02-07T15:08:13Z</time>
      </trkpt>
      <trkpt lat="43.63646" lon="3.8315">
        <ele>73.2</ele>
        <time>2016-02-07T15:08:14Z</time>
      </trkpt>
      <trkpt lat="43.63642" lon="3.83166">
        <ele>73.2</ele>
        <time>2016-02-07T15:08:15Z</time>
      </trkpt>
      <trkpt lat="43.63635" lon="3.83178">
        <ele>73.68</ele>
        <time>2016-02-07T15:08:16Z</time>
      </trkpt>
      <trkpt lat="43.63624" lon="3.83189">
        <ele>73.68</ele>
        <time>2016-02-07T15:08:17Z</time>
      </trkpt>
      <trkpt lat="43.63611" lon="3.832">
        <ele>73.68</ele>
        <time>2016-02-07T15:08:18Z</time>
      </trkpt>
      <trkpt lat="43.63596" lon="3.83212">
        <ele>73.68</ele>
        <time>2016-02-07T15:08:19Z</time>
      </trkpt>
      <trkpt lat="43.6349" lon="3.83323">
        <ele>71.27</ele>
        <time>2016-02-07T15:08:27Z</time>
      </trkpt>
      <trkpt lat="43.6344" lon="3.83402">
        <ele>69.83</ele>
        <time>2016-02-07T15:08:34Z</time>
      </trkpt>
      <trkpt lat="43.63393" lon="3.83512">
        <ele>66.47</ele>
        <time>2016-02-07T15:08:39Z</time>
      </trkpt>
      <trkpt lat="43.63292" lon="3.83697">
        <ele>60.22</ele>
        <time>2016-02-07T15:08:48Z</time>
      </trkpt>
      <trkpt lat="43.63183" lon="3.83829">
        <ele>59.74</ele>
        <time>2016-02-07T15:08:57Z</time>
      </trkpt>
      <trkpt lat="43.63137" lon="3.83949">
        <ele>57.82</ele>
        <time>2016-02-07T15:09:03Z</time>
      </trkpt>
      <trkpt lat="43.63115" lon="3.84099">
        <ele>55.41</ele>
        <time>2016-02-07T15:09:11Z</time>
      </trkpt>
      <trkpt lat="43.63106" lon="3.84145">
        <ele>54.93</ele>
        <time>2016-02-07T15:09:16Z</time>
      </trkpt>
      <trkpt lat="43.63103" lon="3.84154">
        <ele>54.93</ele>
        <time>2016-02-07T15:09:17Z</time>
      </trkpt>
      <trkpt lat="43.63098" lon="3.84162">
        <ele>55.41</ele>
        <time>2016-02-07T15:09:18Z</time>
      </trkpt>
      <trkpt lat="43.63091" lon="3.84169">
        <ele>54.93</ele>
        <time>2016-02-07T15:09:19Z</time>
      </trkpt>
      <trkpt lat="43.63084" lon="3.84175">
        <ele>54.93</ele>
        <time>2016-02-07T15:09:20Z</time>
      </trkpt>
      <trkpt lat="43.63075" lon="3.84181">
        <ele>54.93</ele>
        <time>2016-02-07T15:09:21Z</time>
      </trkpt>
      <trkpt lat="43.63061" lon="3.84182">
        <ele>54.93</ele>
        <time>2016-02-07T15:09:22Z</time>
      </trkpt>
      <trkpt lat="43.63046" lon="3.84181">
        <ele>54.45</ele>
        <time>2016-02-07T15:09:23Z</time>
      </trkpt>
      <trkpt lat="43.63029" lon="3.84178">
        <ele>54.45</ele>
        <time>2016-02-07T15:09:24Z</time>
      </trkpt>
      <trkpt lat="43.63011" lon="3.84175">
        <ele>54.45</ele>
        <time>2016-02-07T15:09:25Z</time>
      </trkpt>
      <trkpt lat="43.62912" lon="3.84146">
        <ele>54.45</ele>
        <time>2016-02-07T15:09:30Z</time>
      </trkpt>
      <trkpt lat="43.62891" lon="3.84133">
        <ele>54.93</ele>
        <time>2016-02-07T15:09:31Z</time>
      </trkpt>
      <trkpt lat="43.62871" lon="3.84117">
        <ele>54.93</ele>
        <time>2016-02-07T15:09:32Z</time>
      </trkpt>
      <trkpt lat="43.62734" lon="3.83971">
        <ele>59.74</ele>
        <time>2016-02-07T15:09:39Z</time>
      </trkpt>
      <trkpt lat="43.626" lon="3.83749">
        <ele>66.95</ele>
        <time>2016-02-07T15:09:48Z</time>
      </trkpt>
      <trkpt lat="43.62554" lon="3.83666">
        <ele>69.83</ele>
        <time>2016-02-07T15:09:53Z</time>
      </trkpt>
      <trkpt lat="43.62553" lon="3.8365">
        <ele>70.79</ele>
        <time>2016-02-07T15:09:54Z</time>
      </trkpt>
      <trkpt lat="43.62554" lon="3.83632">
        <ele>71.27</ele>
        <time>2016-02-07T15:09:55Z</time>
      </trkpt>
      <trkpt lat="43.62553" lon="3.83615">
        <ele>71.76</ele>
        <time>2016-02-07T15:09:56Z</time>
      </trkpt>
      <trkpt lat="43.62549" lon="3.83598">
        <ele>72.24</ele>
        <time>2016-02-07T15:09:57Z</time>
      </trkpt>
      <trkpt lat="43.62542" lon="3.83584">
        <ele>72.72</ele>
        <time>2016-02-07T15:09:58Z</time>
      </trkpt>
      <trkpt lat="43.62532" lon="3.83576">
        <ele>72.24</ele>
        <time>2016-02-07T15:09:59Z</time>
      </trkpt>
      <trkpt lat="43.62519" lon="3.83566">
        <ele>72.24</ele>
        <time>2016-02-07T15:10:00Z</time>
      </trkpt>
      <trkpt lat="43.62508" lon="3.83553">
        <ele>72.24</ele>
        <time>2016-02-07T15:10:01Z</time>
      </trkpt>
      <trkpt lat="43.62499" lon="3.83536">
        <ele>72.24</ele>
        <time>2016-02-07T15:10:02Z</time>
      </trkpt>
      <trkpt lat="43.62491" lon="3.83517">
        <ele>72.24</ele>
        <time>2016-02-07T15:10:03Z</time>
      </trkpt>
      <trkpt lat="43.62471" lon="3.83477">
        <ele>72.24</ele>
        <time>2016-02-07T15:10:05Z</time>
      </trkpt>
      <trkpt lat="43.62459" lon="3.83458">
        <ele>71.76</ele>
        <time>2016-02-07T15:10:06Z</time>
      </trkpt>
      <trkpt lat="43.62444" lon="3.83442">
        <ele>71.76</ele>
        <time>2016-02-07T15:10:07Z</time>
      </trkpt>
      <trkpt lat="43.62429" lon="3.83426">
        <ele>71.27</ele>
        <time>2016-02-07T15:10:08Z</time>
      </trkpt>
      <trkpt lat="43.62412" lon="3.83414">
        <ele>70.79</ele>
        <time>2016-02-07T15:10:09Z</time>
      </trkpt>
      <trkpt lat="43.62396" lon="3.83404">
        <ele>70.79</ele>
        <time>2016-02-07T15:10:10Z</time>
      </trkpt>
      <trkpt lat="43.6238" lon="3.83396">
        <ele>70.79</ele>
        <time>2016-02-07T15:10:11Z</time>
      </trkpt>
      <trkpt lat="43.62355" lon="3.8338">
        <ele>70.79</ele>
        <time>2016-02-07T15:10:13Z</time>
      </trkpt>
      <trkpt lat="43.62347" lon="3.8337">
        <ele>70.79</ele>
        <time>2016-02-07T15:10:14Z</time>
      </trkpt>
      <trkpt lat="43.62343" lon="3.83358">
        <ele>71.27</ele>
        <time>2016-02-07T15:10:15Z</time>
      </trkpt>
      <trkpt lat="43.62331" lon="3.83334">
        <ele>71.27</ele>
        <time>2016-02-07T15:10:17Z</time>
      </trkpt>
      <trkpt lat="43.62321" lon="3.83328">
        <ele>71.27</ele>
        <time>2016-02-07T15:10:18Z</time>
      </trkpt>
      <trkpt lat="43.6231" lon="3.83328">
        <ele>70.79</ele>
        <time>2016-02-07T15:10:19Z</time>
      </trkpt>
      <trkpt lat="43.62299" lon="3.83334">
        <ele>70.79</ele>
        <time>2016-02-07T15:10:20Z</time>
      </trkpt>
      <trkpt lat="43.62291" lon="3.83346">
        <ele>70.31</ele>
        <time>2016-02-07T15:10:21Z</time>
      </trkpt>
      <trkpt lat="43.62287" lon="3.83365">
        <ele>70.31</ele>
        <time>2016-02-07T15:10:22Z</time>
      </trkpt>
      <trkpt lat="43.62287" lon="3.83386">
        <ele>70.31</ele>
        <time>2016-02-07T15:10:23Z</time>
      </trkpt>
      <trkpt lat="43.62288" lon="3.83407">
        <ele>70.31</ele>
        <time>2016-02-07T15:10:24Z</time>
      </trkpt>
      <trkpt lat="43.62286" lon="3.8343">
        <ele>70.31</ele>
        <time>2016-02-07T15:10:25Z</time>
      </trkpt>
      <trkpt lat="43.62281" lon="3.83449">
        <ele>71.76</ele>
        <time>2016-02-07T15:10:26Z</time>
      </trkpt>
      <trkpt lat="43.62274" lon="3.83467">
        <ele>72.24</ele>
        <time>2016-02-07T15:10:27Z</time>
      </trkpt>
      <trkpt lat="43.62268" lon="3.83482">
        <ele>73.2</ele>
        <time>2016-02-07T15:10:28Z</time>
      </trkpt>
      <trkpt lat="43.62256" lon="3.83508">
        <ele>74.64</ele>
        <time>2016-02-07T15:10:33Z</time>
      </trkpt>
      <trkpt lat="43.62238" lon="3.83548">
        <ele>78</ele>
        <time>2016-02-07T15:11:04Z</time>
      </trkpt>
      <trkpt lat="43.62208" lon="3.83592">
        <ele>78</ele>
        <time>2016-02-07T15:11:07Z</time>
      </trkpt>
      <trkpt lat="43.62195" lon="3.83606">
        <ele>78.48</ele>
        <time>2016-02-07T15:11:08Z</time>
      </trkpt>
      <trkpt lat="43.62179" lon="3.83618">
        <ele>78.48</ele>
        <time>2016-02-07T15:11:09Z</time>
      </trkpt>
      <trkpt lat="43.62055" lon="3.83714">
        <ele>78.97</ele>
        <time>2016-02-07T15:11:18Z</time>
      </trkpt>
      <trkpt lat="43.61989" lon="3.83767">
        <ele>79.45</ele>
        <time>2016-02-07T15:11:26Z</time>
      </trkpt>
      <trkpt lat="43.61984" lon="3.8377">
        <ele>80.41</ele>
        <time>2016-02-07T15:11:32Z</time>
      </trkpt>
      <trkpt lat="43.61972" lon="3.8378">
        <ele>84.25</ele>
        <time>2016-02-07T15:11:39Z</time>
      </trkpt>
      <trkpt lat="43.6197" lon="3.83787">
        <ele>84.25</ele>
        <time>2016-02-07T15:11:40Z</time>
      </trkpt>
      <trkpt lat="43.6197" lon="3.83794">
        <ele>84.25</ele>
        <time>2016-02-07T15:11:41Z</time>
      </trkpt>
      <trkpt lat="43.61973" lon="3.83802">
        <ele>84.25</ele>
        <time>2016-02-07T15:11:42Z</time>
      </trkpt>
      <trkpt lat="43.61978" lon="3.83809">
        <ele>84.73</ele>
        <time>2016-02-07T15:11:43Z</time>
      </trkpt>
      <trkpt lat="43.61987" lon="3.83818">
        <ele>85.21</ele>
        <time>2016-02-07T15:11:44Z</time>
      </trkpt>
      <trkpt lat="43.61997" lon="3.83829">
        <ele>85.21</ele>
        <time>2016-02-07T15:11:45Z</time>
      </trkpt>
      <trkpt lat="43.62091" lon="3.8394">
        <ele>80.41</ele>
        <time>2016-02-07T15:11:56Z</time>
      </trkpt>
      <trkpt lat="43.621" lon="3.83961">
        <ele>78</ele>
        <time>2016-02-07T15:11:58Z</time>
      </trkpt>
      <trkpt lat="43.62101" lon="3.83972">
        <ele>77.04</ele>
        <time>2016-02-07T15:11:59Z</time>
      </trkpt>
      <trkpt lat="43.62111" lon="3.84037">
        <ele>70.79</ele>
        <time>2016-02-07T15:12:05Z</time>
      </trkpt>
      <trkpt lat="43.6211" lon="3.84044">
        <ele>69.35</ele>
        <time>2016-02-07T15:12:06Z</time>
      </trkpt>
      <trkpt lat="43.62105" lon="3.84048">
        <ele>68.39</ele>
        <time>2016-02-07T15:12:07Z</time>
      </trkpt>
      <trkpt lat="43.621" lon="3.8405">
        <ele>67.43</ele>
        <time>2016-02-07T15:12:08Z</time>
      </trkpt>
      <trkpt lat="43.62095" lon="3.84052">
        <ele>66.47</ele>
        <time>2016-02-07T15:12:09Z</time>
      </trkpt>
      <trkpt lat="43.62087" lon="3.84053">
        <ele>65.51</ele>
        <time>2016-02-07T15:12:11Z</time>
      </trkpt>
      <trkpt lat="43.62083" lon="3.84051">
        <ele>65.51</ele>
        <time>2016-02-07T15:12:12Z</time>
      </trkpt>
      <trkpt lat="43.62082" lon="3.84042">
        <ele>66.95</ele>
        <time>2016-02-07T15:12:19Z</time>
      </trkpt>
      <trkpt lat="43.62084" lon="3.84036">
        <ele>64.55</ele>
        <time>2016-02-07T15:12:57Z</time>
      </trkpt>
      <trkpt lat="43.62085" lon="3.84029">
        <ele>63.58</ele>
        <time>2016-02-07T15:13:07Z</time>
      </trkpt>
      <trkpt lat="43.62085" lon="3.84025">
        <ele>63.58</ele>
        <time>2016-02-07T15:13:20Z</time>
      </trkpt>
      <trkpt lat="43.62079" lon="3.84013">
        <ele>65.03</ele>
        <time>2016-02-07T15:13:25Z</time>
      </trkpt>
    </trkseg>
  </trk>
</gpx>